<?xml version="1.0"?>
<gpx
 version="1.1"
 creator="Satmap Active 20"
 xmlns:xsi="http://www.w3.org/2001/XMLSchema-instance"
 xmlns="http://www.topografix.com/GPX/1/1"
 xmlns:satmap="http://www.satmap.com/updates/xmlschemas/GpxExtensions/v2/GpxExtensions_v2.xsd"
 xsi:schemaLocation="http://www.topografix.com/GPX/1/1 http://www.topografix.com/GPX/1/1/gpx.xsd">
<metadata>
<time>2023-01-06T09:36:20Z</time>
<extensions>
<satmap:platform>43</satmap:platform>
<satmap:software version="3.12.831">SM15.exe</satmap:software>
<satmap:username>Jim Grant</satmap:username>
<satmap:network_ids>
<satmap:network_id type="wifi">00-23-A7-EC-D5-78</satmap:network_id>
<satmap:network_id type="bluetooth">80-BB-EB-D7-5B-7C</satmap:network_id>
</satmap:network_ids>
<satmap:snap_type>simple</satmap:snap_type>
</extensions>
</metadata>
<trk>
<name>2023-01-06_0936</name>
<desc>Track 1</desc>
<number>1</number>
<trkseg>
<trkpt lat="53.023880" lon="-3.205477"><ele>409</ele><time>2023-01-06T09:36:20Z</time><name>PT1</name></trkpt>
<trkpt lat="53.023877" lon="-3.205465"><ele>409</ele><time>2023-01-06T09:37:04Z</time><name>PT2</name></trkpt>
<trkpt lat="53.023877" lon="-3.205463"><ele>409</ele><time>2023-01-06T09:37:07Z</time><name>PT3</name></trkpt>
<trkpt lat="53.023876" lon="-3.205465"><ele>408</ele><time>2023-01-06T09:37:41Z</time><name>PT4</name></trkpt>
<trkpt lat="53.023876" lon="-3.205461"><ele>408</ele><time>2023-01-06T09:37:44Z</time><name>PT5</name></trkpt>
<trkpt lat="53.023878" lon="-3.205460"><ele>408</ele><time>2023-01-06T09:37:55Z</time><name>PT6</name></trkpt>
<trkpt lat="53.023878" lon="-3.205469"><ele>409</ele><time>2023-01-06T09:39:15Z</time><name>PT7</name></trkpt>
<trkpt lat="53.023873" lon="-3.205455"><ele>408</ele><time>2023-01-06T09:39:19Z</time><name>PT8</name></trkpt>
<trkpt lat="53.023868" lon="-3.205453"><ele>408</ele><time>2023-01-06T09:39:23Z</time><name>PT9</name></trkpt>
<trkpt lat="53.023872" lon="-3.205457"><ele>409</ele><time>2023-01-06T09:39:26Z</time><name>PT10</name></trkpt>
<trkpt lat="53.023876" lon="-3.205460"><ele>409</ele><time>2023-01-06T09:39:30Z</time><name>PT11</name></trkpt>
<trkpt lat="53.023876" lon="-3.205457"><ele>409</ele><time>2023-01-06T09:39:44Z</time><name>PT12</name></trkpt>
<trkpt lat="53.023881" lon="-3.205456"><ele>408</ele><time>2023-01-06T09:39:47Z</time><name>PT13</name></trkpt>
<trkpt lat="53.023880" lon="-3.205456"><ele>409</ele><time>2023-01-06T09:39:50Z</time><name>PT14</name></trkpt>
<trkpt lat="53.023886" lon="-3.205465"><ele>408</ele><time>2023-01-06T09:40:34Z</time><name>PT15</name></trkpt>
<trkpt lat="53.023887" lon="-3.205464"><ele>408</ele><time>2023-01-06T09:40:37Z</time><name>PT16</name></trkpt>
<trkpt lat="53.023892" lon="-3.205465"><ele>408</ele><time>2023-01-06T09:40:54Z</time><name>PT17</name></trkpt>
<trkpt lat="53.023895" lon="-3.205455"><ele>408</ele><time>2023-01-06T09:40:58Z</time><name>PT18</name></trkpt>
<trkpt lat="53.023903" lon="-3.205459"><ele>408</ele><time>2023-01-06T09:41:01Z</time><name>PT19</name></trkpt>
<trkpt lat="53.023903" lon="-3.205456"><ele>408</ele><time>2023-01-06T09:41:05Z</time><name>PT20</name></trkpt>
<trkpt lat="53.023910" lon="-3.205475"><ele>407</ele><time>2023-01-06T09:41:08Z</time><name>PT21</name></trkpt>
<trkpt lat="53.023913" lon="-3.205479"><ele>407</ele><time>2023-01-06T09:41:18Z</time><name>PT22</name></trkpt>
<trkpt lat="53.023908" lon="-3.205478"><ele>407</ele><time>2023-01-06T09:41:21Z</time><name>PT23</name></trkpt>
<trkpt lat="53.023905" lon="-3.205485"><ele>406</ele><time>2023-01-06T09:41:25Z</time><name>PT24</name></trkpt>
<trkpt lat="53.023905" lon="-3.205509"><ele>407</ele><time>2023-01-06T09:41:28Z</time><name>PT25</name></trkpt>
<trkpt lat="53.023903" lon="-3.205523"><ele>407</ele><time>2023-01-06T09:41:32Z</time><name>PT26</name></trkpt>
<trkpt lat="53.023900" lon="-3.205529"><ele>408</ele><time>2023-01-06T09:41:39Z</time><name>PT27</name></trkpt>
<trkpt lat="53.023900" lon="-3.205531"><ele>408</ele><time>2023-01-06T09:41:42Z</time><name>PT28</name></trkpt>
<trkpt lat="53.023883" lon="-3.205531"><ele>409</ele><time>2023-01-06T09:41:49Z</time><name>PT29</name></trkpt>
<trkpt lat="53.023861" lon="-3.205540"><ele>409</ele><time>2023-01-06T09:41:53Z</time><name>PT30</name></trkpt>
<trkpt lat="53.023847" lon="-3.205542"><ele>409</ele><time>2023-01-06T09:41:56Z</time><name>PT31</name></trkpt>
<trkpt lat="53.023844" lon="-3.205539"><ele>409</ele><time>2023-01-06T09:41:59Z</time><name>PT32</name></trkpt>
<trkpt lat="53.023819" lon="-3.205555"><ele>410</ele><time>2023-01-06T09:42:09Z</time><name>PT33</name></trkpt>
<trkpt lat="53.023804" lon="-3.205563"><ele>410</ele><time>2023-01-06T09:42:12Z</time><name>PT34</name></trkpt>
<trkpt lat="53.023807" lon="-3.205569"><ele>410</ele><time>2023-01-06T09:42:16Z</time><name>PT35</name></trkpt>
<trkpt lat="53.023798" lon="-3.205555"><ele>410</ele><time>2023-01-06T09:42:23Z</time><name>PT36</name></trkpt>
<trkpt lat="53.023760" lon="-3.205517"><ele>411</ele><time>2023-01-06T09:42:27Z</time><name>PT37</name></trkpt>
<trkpt lat="53.023714" lon="-3.205479"><ele>411</ele><time>2023-01-06T09:42:31Z</time><name>PT38</name></trkpt>
<trkpt lat="53.023673" lon="-3.205489"><ele>411</ele><time>2023-01-06T09:42:35Z</time><name>PT39</name></trkpt>
<trkpt lat="53.023625" lon="-3.205505"><ele>411</ele><time>2023-01-06T09:42:39Z</time><name>PT40</name></trkpt>
<trkpt lat="53.023577" lon="-3.205521"><ele>411</ele><time>2023-01-06T09:42:43Z</time><name>PT41</name></trkpt>
<trkpt lat="53.023542" lon="-3.205535"><ele>412</ele><time>2023-01-06T09:42:46Z</time><name>PT42</name></trkpt>
<trkpt lat="53.023493" lon="-3.205554"><ele>414</ele><time>2023-01-06T09:42:50Z</time><name>PT43</name></trkpt>
<trkpt lat="53.023475" lon="-3.205558"><ele>414</ele><time>2023-01-06T09:42:54Z</time><name>PT44</name></trkpt>
<trkpt lat="53.023474" lon="-3.205562"><ele>414</ele><time>2023-01-06T09:42:58Z</time><name>PT45</name></trkpt>
<trkpt lat="53.023452" lon="-3.205576"><ele>415</ele><time>2023-01-06T09:43:02Z</time><name>PT46</name></trkpt>
<trkpt lat="53.023419" lon="-3.205585"><ele>415</ele><time>2023-01-06T09:43:06Z</time><name>PT47</name></trkpt>
<trkpt lat="53.023385" lon="-3.205600"><ele>415</ele><time>2023-01-06T09:43:10Z</time><name>PT48</name></trkpt>
<trkpt lat="53.023347" lon="-3.205610"><ele>416</ele><time>2023-01-06T09:43:14Z</time><name>PT49</name></trkpt>
<trkpt lat="53.023301" lon="-3.205601"><ele>415</ele><time>2023-01-06T09:43:18Z</time><name>PT50</name></trkpt>
<trkpt lat="53.023271" lon="-3.205598"><ele>415</ele><time>2023-01-06T09:43:21Z</time><name>PT51</name></trkpt>
<trkpt lat="53.023238" lon="-3.205597"><ele>416</ele><time>2023-01-06T09:43:25Z</time><name>PT52</name></trkpt>
<trkpt lat="53.023204" lon="-3.205589"><ele>416</ele><time>2023-01-06T09:43:29Z</time><name>PT53</name></trkpt>
<trkpt lat="53.023172" lon="-3.205583"><ele>416</ele><time>2023-01-06T09:43:33Z</time><name>PT54</name></trkpt>
<trkpt lat="53.023142" lon="-3.205585"><ele>417</ele><time>2023-01-06T09:43:36Z</time><name>PT55</name></trkpt>
<trkpt lat="53.023115" lon="-3.205590"><ele>418</ele><time>2023-01-06T09:43:39Z</time><name>PT56</name></trkpt>
<trkpt lat="53.023087" lon="-3.205630"><ele>418</ele><time>2023-01-06T09:43:43Z</time><name>PT57</name></trkpt>
<trkpt lat="53.023052" lon="-3.205647"><ele>420</ele><time>2023-01-06T09:43:46Z</time><name>PT58</name></trkpt>
<trkpt lat="53.023012" lon="-3.205657"><ele>422</ele><time>2023-01-06T09:43:50Z</time><name>PT59</name></trkpt>
<trkpt lat="53.022978" lon="-3.205689"><ele>422</ele><time>2023-01-06T09:43:54Z</time><name>PT60</name></trkpt>
<trkpt lat="53.022944" lon="-3.205708"><ele>423</ele><time>2023-01-06T09:43:58Z</time><name>PT61</name></trkpt>
<trkpt lat="53.022905" lon="-3.205739"><ele>422</ele><time>2023-01-06T09:44:01Z</time><name>PT62</name></trkpt>
<trkpt lat="53.022877" lon="-3.205759"><ele>422</ele><time>2023-01-06T09:44:04Z</time><name>PT63</name></trkpt>
<trkpt lat="53.022851" lon="-3.205787"><ele>423</ele><time>2023-01-06T09:44:07Z</time><name>PT64</name></trkpt>
<trkpt lat="53.022818" lon="-3.205815"><ele>423</ele><time>2023-01-06T09:44:11Z</time><name>PT65</name></trkpt>
<trkpt lat="53.022797" lon="-3.205843"><ele>423</ele><time>2023-01-06T09:44:14Z</time><name>PT66</name></trkpt>
<trkpt lat="53.022774" lon="-3.205864"><ele>422</ele><time>2023-01-06T09:44:17Z</time><name>PT67</name></trkpt>
<trkpt lat="53.022746" lon="-3.205885"><ele>423</ele><time>2023-01-06T09:44:20Z</time><name>PT68</name></trkpt>
<trkpt lat="53.022709" lon="-3.205926"><ele>425</ele><time>2023-01-06T09:44:24Z</time><name>PT69</name></trkpt>
<trkpt lat="53.022695" lon="-3.205947"><ele>425</ele><time>2023-01-06T09:44:27Z</time><name>PT70</name></trkpt>
<trkpt lat="53.022678" lon="-3.205966"><ele>425</ele><time>2023-01-06T09:44:30Z</time><name>PT71</name></trkpt>
<trkpt lat="53.022646" lon="-3.206009"><ele>425</ele><time>2023-01-06T09:44:34Z</time><name>PT72</name></trkpt>
<trkpt lat="53.022608" lon="-3.206067"><ele>425</ele><time>2023-01-06T09:44:38Z</time><name>PT73</name></trkpt>
<trkpt lat="53.022594" lon="-3.206090"><ele>426</ele><time>2023-01-06T09:44:41Z</time><name>PT74</name></trkpt>
<trkpt lat="53.022565" lon="-3.206106"><ele>426</ele><time>2023-01-06T09:44:45Z</time><name>PT75</name></trkpt>
<trkpt lat="53.022542" lon="-3.206131"><ele>427</ele><time>2023-01-06T09:44:48Z</time><name>PT76</name></trkpt>
<trkpt lat="53.022513" lon="-3.206159"><ele>427</ele><time>2023-01-06T09:44:52Z</time><name>PT77</name></trkpt>
<trkpt lat="53.022484" lon="-3.206192"><ele>427</ele><time>2023-01-06T09:44:56Z</time><name>PT78</name></trkpt>
<trkpt lat="53.022464" lon="-3.206213"><ele>428</ele><time>2023-01-06T09:44:59Z</time><name>PT79</name></trkpt>
<trkpt lat="53.022444" lon="-3.206223"><ele>428</ele><time>2023-01-06T09:45:02Z</time><name>PT80</name></trkpt>
<trkpt lat="53.022412" lon="-3.206257"><ele>428</ele><time>2023-01-06T09:45:06Z</time><name>PT81</name></trkpt>
<trkpt lat="53.022389" lon="-3.206286"><ele>428</ele><time>2023-01-06T09:45:09Z</time><name>PT82</name></trkpt>
<trkpt lat="53.022358" lon="-3.206324"><ele>429</ele><time>2023-01-06T09:45:13Z</time><name>PT83</name></trkpt>
<trkpt lat="53.022334" lon="-3.206355"><ele>429</ele><time>2023-01-06T09:45:16Z</time><name>PT84</name></trkpt>
<trkpt lat="53.022313" lon="-3.206389"><ele>430</ele><time>2023-01-06T09:45:20Z</time><name>PT85</name></trkpt>
<trkpt lat="53.022293" lon="-3.206418"><ele>431</ele><time>2023-01-06T09:45:24Z</time><name>PT86</name></trkpt>
<trkpt lat="53.022267" lon="-3.206449"><ele>432</ele><time>2023-01-06T09:45:27Z</time><name>PT87</name></trkpt>
<trkpt lat="53.022235" lon="-3.206493"><ele>433</ele><time>2023-01-06T09:45:31Z</time><name>PT88</name></trkpt>
<trkpt lat="53.022207" lon="-3.206531"><ele>434</ele><time>2023-01-06T09:45:34Z</time><name>PT89</name></trkpt>
<trkpt lat="53.022189" lon="-3.206554"><ele>434</ele><time>2023-01-06T09:45:37Z</time><name>PT90</name></trkpt>
<trkpt lat="53.022164" lon="-3.206590"><ele>434</ele><time>2023-01-06T09:45:41Z</time><name>PT91</name></trkpt>
<trkpt lat="53.022140" lon="-3.206607"><ele>433</ele><time>2023-01-06T09:45:44Z</time><name>PT92</name></trkpt>
<trkpt lat="53.022112" lon="-3.206646"><ele>433</ele><time>2023-01-06T09:45:47Z</time><name>PT93</name></trkpt>
<trkpt lat="53.022083" lon="-3.206667"><ele>433</ele><time>2023-01-06T09:45:51Z</time><name>PT94</name></trkpt>
<trkpt lat="53.022056" lon="-3.206700"><ele>432</ele><time>2023-01-06T09:45:54Z</time><name>PT95</name></trkpt>
<trkpt lat="53.022029" lon="-3.206742"><ele>432</ele><time>2023-01-06T09:45:57Z</time><name>PT96</name></trkpt>
<trkpt lat="53.021999" lon="-3.206789"><ele>433</ele><time>2023-01-06T09:46:01Z</time><name>PT97</name></trkpt>
<trkpt lat="53.021972" lon="-3.206826"><ele>434</ele><time>2023-01-06T09:46:05Z</time><name>PT98</name></trkpt>
<trkpt lat="53.021955" lon="-3.206853"><ele>435</ele><time>2023-01-06T09:46:08Z</time><name>PT99</name></trkpt>
<trkpt lat="53.021926" lon="-3.206900"><ele>436</ele><time>2023-01-06T09:46:12Z</time><name>PT100</name></trkpt>
<trkpt lat="53.021901" lon="-3.206932"><ele>435</ele><time>2023-01-06T09:46:15Z</time><name>PT101</name></trkpt>
<trkpt lat="53.021877" lon="-3.206955"><ele>435</ele><time>2023-01-06T09:46:19Z</time><name>PT102</name></trkpt>
<trkpt lat="53.021837" lon="-3.207021"><ele>435</ele><time>2023-01-06T09:46:22Z</time><name>PT103</name></trkpt>
<trkpt lat="53.021814" lon="-3.207043"><ele>435</ele><time>2023-01-06T09:46:25Z</time><name>PT104</name></trkpt>
<trkpt lat="53.021786" lon="-3.207084"><ele>436</ele><time>2023-01-06T09:46:29Z</time><name>PT105</name></trkpt>
<trkpt lat="53.021766" lon="-3.207105"><ele>438</ele><time>2023-01-06T09:46:33Z</time><name>PT106</name></trkpt>
<trkpt lat="53.021752" lon="-3.207119"><ele>438</ele><time>2023-01-06T09:46:36Z</time><name>PT107</name></trkpt>
<trkpt lat="53.021726" lon="-3.207155"><ele>438</ele><time>2023-01-06T09:46:40Z</time><name>PT108</name></trkpt>
<trkpt lat="53.021707" lon="-3.207181"><ele>440</ele><time>2023-01-06T09:46:43Z</time><name>PT109</name></trkpt>
<trkpt lat="53.021684" lon="-3.207203"><ele>440</ele><time>2023-01-06T09:46:46Z</time><name>PT110</name></trkpt>
<trkpt lat="53.021661" lon="-3.207221"><ele>441</ele><time>2023-01-06T09:46:50Z</time><name>PT111</name></trkpt>
<trkpt lat="53.021643" lon="-3.207238"><ele>441</ele><time>2023-01-06T09:46:54Z</time><name>PT112</name></trkpt>
<trkpt lat="53.021619" lon="-3.207280"><ele>441</ele><time>2023-01-06T09:46:58Z</time><name>PT113</name></trkpt>
<trkpt lat="53.021606" lon="-3.207307"><ele>442</ele><time>2023-01-06T09:47:01Z</time><name>PT114</name></trkpt>
<trkpt lat="53.021591" lon="-3.207345"><ele>442</ele><time>2023-01-06T09:47:04Z</time><name>PT115</name></trkpt>
<trkpt lat="53.021571" lon="-3.207379"><ele>442</ele><time>2023-01-06T09:47:08Z</time><name>PT116</name></trkpt>
<trkpt lat="53.021558" lon="-3.207410"><ele>442</ele><time>2023-01-06T09:47:11Z</time><name>PT117</name></trkpt>
<trkpt lat="53.021546" lon="-3.207429"><ele>442</ele><time>2023-01-06T09:47:14Z</time><name>PT118</name></trkpt>
<trkpt lat="53.021539" lon="-3.207450"><ele>442</ele><time>2023-01-06T09:47:18Z</time><name>PT119</name></trkpt>
<trkpt lat="53.021518" lon="-3.207487"><ele>443</ele><time>2023-01-06T09:47:26Z</time><name>PT120</name></trkpt>
<trkpt lat="53.021493" lon="-3.207530"><ele>443</ele><time>2023-01-06T09:47:30Z</time><name>PT121</name></trkpt>
<trkpt lat="53.021462" lon="-3.207581"><ele>443</ele><time>2023-01-06T09:47:34Z</time><name>PT122</name></trkpt>
<trkpt lat="53.021445" lon="-3.207614"><ele>444</ele><time>2023-01-06T09:47:37Z</time><name>PT123</name></trkpt>
<trkpt lat="53.021421" lon="-3.207655"><ele>445</ele><time>2023-01-06T09:47:41Z</time><name>PT124</name></trkpt>
<trkpt lat="53.021401" lon="-3.207703"><ele>445</ele><time>2023-01-06T09:47:45Z</time><name>PT125</name></trkpt>
<trkpt lat="53.021379" lon="-3.207741"><ele>447</ele><time>2023-01-06T09:47:49Z</time><name>PT126</name></trkpt>
<trkpt lat="53.021357" lon="-3.207776"><ele>447</ele><time>2023-01-06T09:47:52Z</time><name>PT127</name></trkpt>
<trkpt lat="53.021336" lon="-3.207807"><ele>447</ele><time>2023-01-06T09:47:56Z</time><name>PT128</name></trkpt>
<trkpt lat="53.021319" lon="-3.207837"><ele>446</ele><time>2023-01-06T09:47:59Z</time><name>PT129</name></trkpt>
<trkpt lat="53.021299" lon="-3.207878"><ele>446</ele><time>2023-01-06T09:48:02Z</time><name>PT130</name></trkpt>
<trkpt lat="53.021273" lon="-3.207914"><ele>446</ele><time>2023-01-06T09:48:06Z</time><name>PT131</name></trkpt>
<trkpt lat="53.021254" lon="-3.207942"><ele>447</ele><time>2023-01-06T09:48:10Z</time><name>PT132</name></trkpt>
<trkpt lat="53.021231" lon="-3.207981"><ele>447</ele><time>2023-01-06T09:48:13Z</time><name>PT133</name></trkpt>
<trkpt lat="53.021204" lon="-3.208015"><ele>448</ele><time>2023-01-06T09:48:17Z</time><name>PT134</name></trkpt>
<trkpt lat="53.021183" lon="-3.208054"><ele>448</ele><time>2023-01-06T09:48:21Z</time><name>PT135</name></trkpt>
<trkpt lat="53.021158" lon="-3.208103"><ele>450</ele><time>2023-01-06T09:48:24Z</time><name>PT136</name></trkpt>
<trkpt lat="53.021137" lon="-3.208148"><ele>450</ele><time>2023-01-06T09:48:28Z</time><name>PT137</name></trkpt>
<trkpt lat="53.021123" lon="-3.208166"><ele>451</ele><time>2023-01-06T09:48:31Z</time><name>PT138</name></trkpt>
<trkpt lat="53.021126" lon="-3.208175"><ele>451</ele><time>2023-01-06T09:48:34Z</time><name>PT139</name></trkpt>
<trkpt lat="53.021098" lon="-3.208209"><ele>452</ele><time>2023-01-06T09:48:38Z</time><name>PT140</name></trkpt>
<trkpt lat="53.021082" lon="-3.208253"><ele>452</ele><time>2023-01-06T09:48:41Z</time><name>PT141</name></trkpt>
<trkpt lat="53.021057" lon="-3.208317"><ele>454</ele><time>2023-01-06T09:48:45Z</time><name>PT142</name></trkpt>
<trkpt lat="53.021028" lon="-3.208364"><ele>454</ele><time>2023-01-06T09:48:49Z</time><name>PT143</name></trkpt>
<trkpt lat="53.021003" lon="-3.208399"><ele>455</ele><time>2023-01-06T09:48:52Z</time><name>PT144</name></trkpt>
<trkpt lat="53.020989" lon="-3.208433"><ele>455</ele><time>2023-01-06T09:48:55Z</time><name>PT145</name></trkpt>
<trkpt lat="53.020962" lon="-3.208481"><ele>456</ele><time>2023-01-06T09:48:59Z</time><name>PT146</name></trkpt>
<trkpt lat="53.020931" lon="-3.208516"><ele>456</ele><time>2023-01-06T09:49:03Z</time><name>PT147</name></trkpt>
<trkpt lat="53.020915" lon="-3.208534"><ele>457</ele><time>2023-01-06T09:49:06Z</time><name>PT148</name></trkpt>
<trkpt lat="53.020888" lon="-3.208557"><ele>457</ele><time>2023-01-06T09:49:10Z</time><name>PT149</name></trkpt>
<trkpt lat="53.020861" lon="-3.208570"><ele>457</ele><time>2023-01-06T09:49:14Z</time><name>PT150</name></trkpt>
<trkpt lat="53.020840" lon="-3.208591"><ele>458</ele><time>2023-01-06T09:49:17Z</time><name>PT151</name></trkpt>
<trkpt lat="53.020813" lon="-3.208626"><ele>459</ele><time>2023-01-06T09:49:21Z</time><name>PT152</name></trkpt>
<trkpt lat="53.020792" lon="-3.208644"><ele>459</ele><time>2023-01-06T09:49:24Z</time><name>PT153</name></trkpt>
<trkpt lat="53.020763" lon="-3.208681"><ele>460</ele><time>2023-01-06T09:49:28Z</time><name>PT154</name></trkpt>
<trkpt lat="53.020738" lon="-3.208711"><ele>461</ele><time>2023-01-06T09:49:31Z</time><name>PT155</name></trkpt>
<trkpt lat="53.020717" lon="-3.208730"><ele>460</ele><time>2023-01-06T09:49:34Z</time><name>PT156</name></trkpt>
<trkpt lat="53.020684" lon="-3.208758"><ele>460</ele><time>2023-01-06T09:49:38Z</time><name>PT157</name></trkpt>
<trkpt lat="53.020649" lon="-3.208785"><ele>460</ele><time>2023-01-06T09:49:42Z</time><name>PT158</name></trkpt>
<trkpt lat="53.020625" lon="-3.208795"><ele>460</ele><time>2023-01-06T09:49:45Z</time><name>PT159</name></trkpt>
<trkpt lat="53.020598" lon="-3.208816"><ele>460</ele><time>2023-01-06T09:49:49Z</time><name>PT160</name></trkpt>
<trkpt lat="53.020572" lon="-3.208833"><ele>460</ele><time>2023-01-06T09:49:52Z</time><name>PT161</name></trkpt>
<trkpt lat="53.020544" lon="-3.208861"><ele>461</ele><time>2023-01-06T09:49:55Z</time><name>PT162</name></trkpt>
<trkpt lat="53.020504" lon="-3.208898"><ele>462</ele><time>2023-01-06T09:49:59Z</time><name>PT163</name></trkpt>
<trkpt lat="53.020471" lon="-3.208919"><ele>463</ele><time>2023-01-06T09:50:03Z</time><name>PT164</name></trkpt>
<trkpt lat="53.020444" lon="-3.208942"><ele>465</ele><time>2023-01-06T09:50:07Z</time><name>PT165</name></trkpt>
<trkpt lat="53.020415" lon="-3.208976"><ele>467</ele><time>2023-01-06T09:50:11Z</time><name>PT166</name></trkpt>
<trkpt lat="53.020391" lon="-3.209012"><ele>470</ele><time>2023-01-06T09:50:15Z</time><name>PT167</name></trkpt>
<trkpt lat="53.020366" lon="-3.209031"><ele>469</ele><time>2023-01-06T09:50:19Z</time><name>PT168</name></trkpt>
<trkpt lat="53.020334" lon="-3.209052"><ele>470</ele><time>2023-01-06T09:50:23Z</time><name>PT169</name></trkpt>
<trkpt lat="53.020302" lon="-3.209080"><ele>471</ele><time>2023-01-06T09:50:27Z</time><name>PT170</name></trkpt>
<trkpt lat="53.020266" lon="-3.209110"><ele>471</ele><time>2023-01-06T09:50:31Z</time><name>PT171</name></trkpt>
<trkpt lat="53.020234" lon="-3.209146"><ele>471</ele><time>2023-01-06T09:50:35Z</time><name>PT172</name></trkpt>
<trkpt lat="53.020221" lon="-3.209158"><ele>472</ele><time>2023-01-06T09:50:39Z</time><name>PT173</name></trkpt>
<trkpt lat="53.020229" lon="-3.209176"><ele>471</ele><time>2023-01-06T09:50:43Z</time><name>PT174</name></trkpt>
<trkpt lat="53.020225" lon="-3.209194"><ele>472</ele><time>2023-01-06T09:50:47Z</time><name>PT175</name></trkpt>
<trkpt lat="53.020209" lon="-3.209210"><ele>472</ele><time>2023-01-06T09:50:51Z</time><name>PT176</name></trkpt>
<trkpt lat="53.020210" lon="-3.209208"><ele>472</ele><time>2023-01-06T09:50:55Z</time><name>PT177</name></trkpt>
<trkpt lat="53.020202" lon="-3.209215"><ele>472</ele><time>2023-01-06T09:50:58Z</time><name>PT178</name></trkpt>
<trkpt lat="53.020196" lon="-3.209238"><ele>473</ele><time>2023-01-06T09:51:02Z</time><name>PT179</name></trkpt>
<trkpt lat="53.020174" lon="-3.209269"><ele>474</ele><time>2023-01-06T09:51:06Z</time><name>PT180</name></trkpt>
<trkpt lat="53.020152" lon="-3.209288"><ele>474</ele><time>2023-01-06T09:51:09Z</time><name>PT181</name></trkpt>
<trkpt lat="53.020132" lon="-3.209306"><ele>474</ele><time>2023-01-06T09:51:12Z</time><name>PT182</name></trkpt>
<trkpt lat="53.020106" lon="-3.209328"><ele>475</ele><time>2023-01-06T09:51:16Z</time><name>PT183</name></trkpt>
<trkpt lat="53.020085" lon="-3.209339"><ele>476</ele><time>2023-01-06T09:51:20Z</time><name>PT184</name></trkpt>
<trkpt lat="53.020070" lon="-3.209346"><ele>478</ele><time>2023-01-06T09:51:23Z</time><name>PT185</name></trkpt>
<trkpt lat="53.020050" lon="-3.209349"><ele>478</ele><time>2023-01-06T09:51:26Z</time><name>PT186</name></trkpt>
<trkpt lat="53.020030" lon="-3.209354"><ele>480</ele><time>2023-01-06T09:51:30Z</time><name>PT187</name></trkpt>
<trkpt lat="53.020007" lon="-3.209368"><ele>481</ele><time>2023-01-06T09:51:34Z</time><name>PT188</name></trkpt>
<trkpt lat="53.019988" lon="-3.209374"><ele>480</ele><time>2023-01-06T09:51:38Z</time><name>PT189</name></trkpt>
<trkpt lat="53.019967" lon="-3.209402"><ele>480</ele><time>2023-01-06T09:51:42Z</time><name>PT190</name></trkpt>
<trkpt lat="53.019948" lon="-3.209413"><ele>480</ele><time>2023-01-06T09:51:45Z</time><name>PT191</name></trkpt>
<trkpt lat="53.019926" lon="-3.209425"><ele>480</ele><time>2023-01-06T09:51:49Z</time><name>PT192</name></trkpt>
<trkpt lat="53.019906" lon="-3.209446"><ele>479</ele><time>2023-01-06T09:51:52Z</time><name>PT193</name></trkpt>
<trkpt lat="53.019890" lon="-3.209467"><ele>479</ele><time>2023-01-06T09:51:56Z</time><name>PT194</name></trkpt>
<trkpt lat="53.019884" lon="-3.209481"><ele>479</ele><time>2023-01-06T09:52:00Z</time><name>PT195</name></trkpt>
<trkpt lat="53.019877" lon="-3.209495"><ele>480</ele><time>2023-01-06T09:52:03Z</time><name>PT196</name></trkpt>
<trkpt lat="53.019850" lon="-3.209523"><ele>481</ele><time>2023-01-06T09:52:07Z</time><name>PT197</name></trkpt>
<trkpt lat="53.019831" lon="-3.209549"><ele>482</ele><time>2023-01-06T09:52:10Z</time><name>PT198</name></trkpt>
<trkpt lat="53.019815" lon="-3.209583"><ele>482</ele><time>2023-01-06T09:52:14Z</time><name>PT199</name></trkpt>
<trkpt lat="53.019802" lon="-3.209609"><ele>483</ele><time>2023-01-06T09:52:17Z</time><name>PT200</name></trkpt>
<trkpt lat="53.019782" lon="-3.209635"><ele>484</ele><time>2023-01-06T09:52:21Z</time><name>PT201</name></trkpt>
<trkpt lat="53.019759" lon="-3.209662"><ele>485</ele><time>2023-01-06T09:52:24Z</time><name>PT202</name></trkpt>
<trkpt lat="53.019732" lon="-3.209700"><ele>486</ele><time>2023-01-06T09:52:28Z</time><name>PT203</name></trkpt>
<trkpt lat="53.019706" lon="-3.209723"><ele>486</ele><time>2023-01-06T09:52:32Z</time><name>PT204</name></trkpt>
<trkpt lat="53.019687" lon="-3.209750"><ele>487</ele><time>2023-01-06T09:52:35Z</time><name>PT205</name></trkpt>
<trkpt lat="53.019666" lon="-3.209781"><ele>489</ele><time>2023-01-06T09:52:39Z</time><name>PT206</name></trkpt>
<trkpt lat="53.019651" lon="-3.209799"><ele>491</ele><time>2023-01-06T09:52:42Z</time><name>PT207</name></trkpt>
<trkpt lat="53.019631" lon="-3.209829"><ele>492</ele><time>2023-01-06T09:52:46Z</time><name>PT208</name></trkpt>
<trkpt lat="53.019614" lon="-3.209875"><ele>493</ele><time>2023-01-06T09:52:50Z</time><name>PT209</name></trkpt>
<trkpt lat="53.019597" lon="-3.209899"><ele>494</ele><time>2023-01-06T09:52:53Z</time><name>PT210</name></trkpt>
<trkpt lat="53.019574" lon="-3.209930"><ele>495</ele><time>2023-01-06T09:52:57Z</time><name>PT211</name></trkpt>
<trkpt lat="53.019558" lon="-3.209962"><ele>496</ele><time>2023-01-06T09:53:01Z</time><name>PT212</name></trkpt>
<trkpt lat="53.019536" lon="-3.209999"><ele>496</ele><time>2023-01-06T09:53:05Z</time><name>PT213</name></trkpt>
<trkpt lat="53.019523" lon="-3.210026"><ele>497</ele><time>2023-01-06T09:53:08Z</time><name>PT214</name></trkpt>
<trkpt lat="53.019516" lon="-3.210061"><ele>498</ele><time>2023-01-06T09:53:12Z</time><name>PT215</name></trkpt>
<trkpt lat="53.019505" lon="-3.210084"><ele>498</ele><time>2023-01-06T09:53:15Z</time><name>PT216</name></trkpt>
<trkpt lat="53.019495" lon="-3.210109"><ele>498</ele><time>2023-01-06T09:53:18Z</time><name>PT217</name></trkpt>
<trkpt lat="53.019477" lon="-3.210140"><ele>499</ele><time>2023-01-06T09:53:22Z</time><name>PT218</name></trkpt>
<trkpt lat="53.019462" lon="-3.210178"><ele>499</ele><time>2023-01-06T09:53:26Z</time><name>PT219</name></trkpt>
<trkpt lat="53.019453" lon="-3.210212"><ele>498</ele><time>2023-01-06T09:53:30Z</time><name>PT220</name></trkpt>
<trkpt lat="53.019446" lon="-3.210235"><ele>499</ele><time>2023-01-06T09:53:33Z</time><name>PT221</name></trkpt>
<trkpt lat="53.019436" lon="-3.210257"><ele>500</ele><time>2023-01-06T09:53:36Z</time><name>PT222</name></trkpt>
<trkpt lat="53.019427" lon="-3.210298"><ele>500</ele><time>2023-01-06T09:53:40Z</time><name>PT223</name></trkpt>
<trkpt lat="53.019415" lon="-3.210350"><ele>500</ele><time>2023-01-06T09:53:44Z</time><name>PT224</name></trkpt>
<trkpt lat="53.019398" lon="-3.210411"><ele>501</ele><time>2023-01-06T09:53:48Z</time><name>PT225</name></trkpt>
<trkpt lat="53.019383" lon="-3.210444"><ele>501</ele><time>2023-01-06T09:53:51Z</time><name>PT226</name></trkpt>
<trkpt lat="53.019370" lon="-3.210474"><ele>501</ele><time>2023-01-06T09:53:54Z</time><name>PT227</name></trkpt>
<trkpt lat="53.019359" lon="-3.210507"><ele>501</ele><time>2023-01-06T09:53:57Z</time><name>PT228</name></trkpt>
<trkpt lat="53.019342" lon="-3.210551"><ele>501</ele><time>2023-01-06T09:54:01Z</time><name>PT229</name></trkpt>
<trkpt lat="53.019333" lon="-3.210592"><ele>502</ele><time>2023-01-06T09:54:04Z</time><name>PT230</name></trkpt>
<trkpt lat="53.019316" lon="-3.210647"><ele>503</ele><time>2023-01-06T09:54:08Z</time><name>PT231</name></trkpt>
<trkpt lat="53.019307" lon="-3.210680"><ele>503</ele><time>2023-01-06T09:54:11Z</time><name>PT232</name></trkpt>
<trkpt lat="53.019298" lon="-3.210709"><ele>504</ele><time>2023-01-06T09:54:14Z</time><name>PT233</name></trkpt>
<trkpt lat="53.019288" lon="-3.210754"><ele>505</ele><time>2023-01-06T09:54:28Z</time><name>PT234</name></trkpt>
<trkpt lat="53.019267" lon="-3.210804"><ele>505</ele><time>2023-01-06T09:54:31Z</time><name>PT235</name></trkpt>
<trkpt lat="53.019239" lon="-3.210864"><ele>506</ele><time>2023-01-06T09:54:35Z</time><name>PT236</name></trkpt>
<trkpt lat="53.019218" lon="-3.210905"><ele>507</ele><time>2023-01-06T09:54:38Z</time><name>PT237</name></trkpt>
<trkpt lat="53.019193" lon="-3.210965"><ele>508</ele><time>2023-01-06T09:54:42Z</time><name>PT238</name></trkpt>
<trkpt lat="53.019177" lon="-3.211002"><ele>508</ele><time>2023-01-06T09:54:45Z</time><name>PT239</name></trkpt>
<trkpt lat="53.019163" lon="-3.211042"><ele>509</ele><time>2023-01-06T09:54:48Z</time><name>PT240</name></trkpt>
<trkpt lat="53.019149" lon="-3.211087"><ele>509</ele><time>2023-01-06T09:54:52Z</time><name>PT241</name></trkpt>
<trkpt lat="53.019128" lon="-3.211139"><ele>510</ele><time>2023-01-06T09:54:56Z</time><name>PT242</name></trkpt>
<trkpt lat="53.019114" lon="-3.211175"><ele>510</ele><time>2023-01-06T09:54:59Z</time><name>PT243</name></trkpt>
<trkpt lat="53.019096" lon="-3.211227"><ele>512</ele><time>2023-01-06T09:55:03Z</time><name>PT244</name></trkpt>
<trkpt lat="53.019085" lon="-3.211262"><ele>512</ele><time>2023-01-06T09:55:06Z</time><name>PT245</name></trkpt>
<trkpt lat="53.019075" lon="-3.211315"><ele>513</ele><time>2023-01-06T09:55:10Z</time><name>PT246</name></trkpt>
<trkpt lat="53.019064" lon="-3.211355"><ele>513</ele><time>2023-01-06T09:55:14Z</time><name>PT247</name></trkpt>
<trkpt lat="53.019056" lon="-3.211393"><ele>514</ele><time>2023-01-06T09:55:17Z</time><name>PT248</name></trkpt>
<trkpt lat="53.019044" lon="-3.211447"><ele>514</ele><time>2023-01-06T09:55:21Z</time><name>PT249</name></trkpt>
<trkpt lat="53.019037" lon="-3.211473"><ele>515</ele><time>2023-01-06T09:55:24Z</time><name>PT250</name></trkpt>
<trkpt lat="53.019033" lon="-3.211495"><ele>514</ele><time>2023-01-06T09:55:28Z</time><name>PT251</name></trkpt>
<trkpt lat="53.019031" lon="-3.211520"><ele>514</ele><time>2023-01-06T09:55:31Z</time><name>PT252</name></trkpt>
<trkpt lat="53.019024" lon="-3.211568"><ele>515</ele><time>2023-01-06T09:55:35Z</time><name>PT253</name></trkpt>
<trkpt lat="53.019017" lon="-3.211602"><ele>516</ele><time>2023-01-06T09:55:38Z</time><name>PT254</name></trkpt>
<trkpt lat="53.019005" lon="-3.211658"><ele>516</ele><time>2023-01-06T09:55:42Z</time><name>PT255</name></trkpt>
<trkpt lat="53.019000" lon="-3.211711"><ele>516</ele><time>2023-01-06T09:55:46Z</time><name>PT256</name></trkpt>
<trkpt lat="53.018993" lon="-3.211755"><ele>517</ele><time>2023-01-06T09:55:49Z</time><name>PT257</name></trkpt>
<trkpt lat="53.018985" lon="-3.211802"><ele>517</ele><time>2023-01-06T09:55:52Z</time><name>PT258</name></trkpt>
<trkpt lat="53.018975" lon="-3.211857"><ele>518</ele><time>2023-01-06T09:55:56Z</time><name>PT259</name></trkpt>
<trkpt lat="53.018967" lon="-3.211896"><ele>519</ele><time>2023-01-06T09:55:59Z</time><name>PT260</name></trkpt>
<trkpt lat="53.018963" lon="-3.211942"><ele>520</ele><time>2023-01-06T09:56:02Z</time><name>PT261</name></trkpt>
<trkpt lat="53.018954" lon="-3.211998"><ele>521</ele><time>2023-01-06T09:56:06Z</time><name>PT262</name></trkpt>
<trkpt lat="53.018942" lon="-3.212055"><ele>522</ele><time>2023-01-06T09:56:10Z</time><name>PT263</name></trkpt>
<trkpt lat="53.018928" lon="-3.212104"><ele>522</ele><time>2023-01-06T09:56:14Z</time><name>PT264</name></trkpt>
<trkpt lat="53.018921" lon="-3.212148"><ele>523</ele><time>2023-01-06T09:56:17Z</time><name>PT265</name></trkpt>
<trkpt lat="53.018909" lon="-3.212187"><ele>524</ele><time>2023-01-06T09:56:20Z</time><name>PT266</name></trkpt>
<trkpt lat="53.018898" lon="-3.212235"><ele>524</ele><time>2023-01-06T09:56:24Z</time><name>PT267</name></trkpt>
<trkpt lat="53.018889" lon="-3.212271"><ele>525</ele><time>2023-01-06T09:56:27Z</time><name>PT268</name></trkpt>
<trkpt lat="53.018872" lon="-3.212310"><ele>526</ele><time>2023-01-06T09:56:31Z</time><name>PT269</name></trkpt>
<trkpt lat="53.018866" lon="-3.212334"><ele>526</ele><time>2023-01-06T09:56:35Z</time><name>PT270</name></trkpt>
<trkpt lat="53.018855" lon="-3.212370"><ele>526</ele><time>2023-01-06T09:56:38Z</time><name>PT271</name></trkpt>
<trkpt lat="53.018842" lon="-3.212409"><ele>526</ele><time>2023-01-06T09:56:42Z</time><name>PT272</name></trkpt>
<trkpt lat="53.018830" lon="-3.212449"><ele>526</ele><time>2023-01-06T09:56:45Z</time><name>PT273</name></trkpt>
<trkpt lat="53.018813" lon="-3.212507"><ele>528</ele><time>2023-01-06T09:56:49Z</time><name>PT274</name></trkpt>
<trkpt lat="53.018794" lon="-3.212557"><ele>529</ele><time>2023-01-06T09:56:53Z</time><name>PT275</name></trkpt>
<trkpt lat="53.018779" lon="-3.212604"><ele>530</ele><time>2023-01-06T09:56:57Z</time><name>PT276</name></trkpt>
<trkpt lat="53.018768" lon="-3.212646"><ele>531</ele><time>2023-01-06T09:57:00Z</time><name>PT277</name></trkpt>
<trkpt lat="53.018759" lon="-3.212680"><ele>531</ele><time>2023-01-06T09:57:03Z</time><name>PT278</name></trkpt>
<trkpt lat="53.018748" lon="-3.212717"><ele>532</ele><time>2023-01-06T09:57:06Z</time><name>PT279</name></trkpt>
<trkpt lat="53.018732" lon="-3.212769"><ele>533</ele><time>2023-01-06T09:57:10Z</time><name>PT280</name></trkpt>
<trkpt lat="53.018721" lon="-3.212810"><ele>534</ele><time>2023-01-06T09:57:13Z</time><name>PT281</name></trkpt>
<trkpt lat="53.018709" lon="-3.212851"><ele>534</ele><time>2023-01-06T09:57:16Z</time><name>PT282</name></trkpt>
<trkpt lat="53.018700" lon="-3.212898"><ele>535</ele><time>2023-01-06T09:57:19Z</time><name>PT283</name></trkpt>
<trkpt lat="53.018690" lon="-3.212943"><ele>535</ele><time>2023-01-06T09:57:22Z</time><name>PT284</name></trkpt>
<trkpt lat="53.018676" lon="-3.213013"><ele>535</ele><time>2023-01-06T09:57:26Z</time><name>PT285</name></trkpt>
<trkpt lat="53.018667" lon="-3.213065"><ele>535</ele><time>2023-01-06T09:57:29Z</time><name>PT286</name></trkpt>
<trkpt lat="53.018662" lon="-3.213103"><ele>535</ele><time>2023-01-06T09:57:33Z</time><name>PT287</name></trkpt>
<trkpt lat="53.018657" lon="-3.213128"><ele>536</ele><time>2023-01-06T09:57:36Z</time><name>PT288</name></trkpt>
<trkpt lat="53.018659" lon="-3.213131"><ele>535</ele><time>2023-01-06T09:57:40Z</time><name>PT289</name></trkpt>
<trkpt lat="53.018655" lon="-3.213163"><ele>536</ele><time>2023-01-06T09:57:47Z</time><name>PT290</name></trkpt>
<trkpt lat="53.018638" lon="-3.213225"><ele>536</ele><time>2023-01-06T09:57:51Z</time><name>PT291</name></trkpt>
<trkpt lat="53.018632" lon="-3.213270"><ele>537</ele><time>2023-01-06T09:57:54Z</time><name>PT292</name></trkpt>
<trkpt lat="53.018626" lon="-3.213311"><ele>538</ele><time>2023-01-06T09:57:57Z</time><name>PT293</name></trkpt>
<trkpt lat="53.018630" lon="-3.213357"><ele>538</ele><time>2023-01-06T09:58:01Z</time><name>PT294</name></trkpt>
<trkpt lat="53.018637" lon="-3.213419"><ele>539</ele><time>2023-01-06T09:58:05Z</time><name>PT295</name></trkpt>
<trkpt lat="53.018639" lon="-3.213462"><ele>539</ele><time>2023-01-06T09:58:08Z</time><name>PT296</name></trkpt>
<trkpt lat="53.018636" lon="-3.213523"><ele>539</ele><time>2023-01-06T09:58:12Z</time><name>PT297</name></trkpt>
<trkpt lat="53.018629" lon="-3.213582"><ele>539</ele><time>2023-01-06T09:58:16Z</time><name>PT298</name></trkpt>
<trkpt lat="53.018627" lon="-3.213645"><ele>540</ele><time>2023-01-06T09:58:20Z</time><name>PT299</name></trkpt>
<trkpt lat="53.018628" lon="-3.213700"><ele>540</ele><time>2023-01-06T09:58:24Z</time><name>PT300</name></trkpt>
<trkpt lat="53.018638" lon="-3.213740"><ele>541</ele><time>2023-01-06T09:58:27Z</time><name>PT301</name></trkpt>
<trkpt lat="53.018644" lon="-3.213786"><ele>541</ele><time>2023-01-06T09:58:30Z</time><name>PT302</name></trkpt>
<trkpt lat="53.018653" lon="-3.213831"><ele>541</ele><time>2023-01-06T09:58:33Z</time><name>PT303</name></trkpt>
<trkpt lat="53.018660" lon="-3.213893"><ele>542</ele><time>2023-01-06T09:58:37Z</time><name>PT304</name></trkpt>
<trkpt lat="53.018669" lon="-3.213959"><ele>543</ele><time>2023-01-06T09:58:41Z</time><name>PT305</name></trkpt>
<trkpt lat="53.018671" lon="-3.214013"><ele>543</ele><time>2023-01-06T09:58:44Z</time><name>PT306</name></trkpt>
<trkpt lat="53.018673" lon="-3.214066"><ele>543</ele><time>2023-01-06T09:58:47Z</time><name>PT307</name></trkpt>
<trkpt lat="53.018674" lon="-3.214142"><ele>543</ele><time>2023-01-06T09:58:51Z</time><name>PT308</name></trkpt>
<trkpt lat="53.018667" lon="-3.214194"><ele>543</ele><time>2023-01-06T09:58:54Z</time><name>PT309</name></trkpt>
<trkpt lat="53.018661" lon="-3.214242"><ele>544</ele><time>2023-01-06T09:58:57Z</time><name>PT310</name></trkpt>
<trkpt lat="53.018654" lon="-3.214297"><ele>543</ele><time>2023-01-06T09:59:00Z</time><name>PT311</name></trkpt>
<trkpt lat="53.018650" lon="-3.214366"><ele>542</ele><time>2023-01-06T09:59:04Z</time><name>PT312</name></trkpt>
<trkpt lat="53.018654" lon="-3.214428"><ele>542</ele><time>2023-01-06T09:59:07Z</time><name>PT313</name></trkpt>
<trkpt lat="53.018648" lon="-3.214487"><ele>542</ele><time>2023-01-06T09:59:10Z</time><name>PT314</name></trkpt>
<trkpt lat="53.018643" lon="-3.214562"><ele>542</ele><time>2023-01-06T09:59:14Z</time><name>PT315</name></trkpt>
<trkpt lat="53.018649" lon="-3.214623"><ele>542</ele><time>2023-01-06T09:59:17Z</time><name>PT316</name></trkpt>
<trkpt lat="53.018670" lon="-3.214697"><ele>542</ele><time>2023-01-06T09:59:21Z</time><name>PT317</name></trkpt>
<trkpt lat="53.018687" lon="-3.214751"><ele>541</ele><time>2023-01-06T09:59:24Z</time><name>PT318</name></trkpt>
<trkpt lat="53.018696" lon="-3.214834"><ele>542</ele><time>2023-01-06T09:59:28Z</time><name>PT319</name></trkpt>
<trkpt lat="53.018702" lon="-3.214907"><ele>542</ele><time>2023-01-06T09:59:32Z</time><name>PT320</name></trkpt>
<trkpt lat="53.018723" lon="-3.214979"><ele>544</ele><time>2023-01-06T09:59:36Z</time><name>PT321</name></trkpt>
<trkpt lat="53.018741" lon="-3.215054"><ele>544</ele><time>2023-01-06T09:59:40Z</time><name>PT322</name></trkpt>
<trkpt lat="53.018765" lon="-3.215127"><ele>545</ele><time>2023-01-06T09:59:44Z</time><name>PT323</name></trkpt>
<trkpt lat="53.018775" lon="-3.215177"><ele>546</ele><time>2023-01-06T09:59:47Z</time><name>PT324</name></trkpt>
<trkpt lat="53.018787" lon="-3.215228"><ele>547</ele><time>2023-01-06T09:59:50Z</time><name>PT325</name></trkpt>
<trkpt lat="53.018800" lon="-3.215286"><ele>547</ele><time>2023-01-06T09:59:54Z</time><name>PT326</name></trkpt>
<trkpt lat="53.018806" lon="-3.215345"><ele>547</ele><time>2023-01-06T09:59:58Z</time><name>PT327</name></trkpt>
<trkpt lat="53.018805" lon="-3.215391"><ele>547</ele><time>2023-01-06T10:00:01Z</time><name>PT328</name></trkpt>
<trkpt lat="53.018803" lon="-3.215458"><ele>547</ele><time>2023-01-06T10:00:05Z</time><name>PT329</name></trkpt>
<trkpt lat="53.018816" lon="-3.215538"><ele>547</ele><time>2023-01-06T10:00:09Z</time><name>PT330</name></trkpt>
<trkpt lat="53.018817" lon="-3.215593"><ele>547</ele><time>2023-01-06T10:00:12Z</time><name>PT331</name></trkpt>
<trkpt lat="53.018824" lon="-3.215652"><ele>548</ele><time>2023-01-06T10:00:15Z</time><name>PT332</name></trkpt>
<trkpt lat="53.018836" lon="-3.215719"><ele>548</ele><time>2023-01-06T10:00:19Z</time><name>PT333</name></trkpt>
<trkpt lat="53.018843" lon="-3.215773"><ele>548</ele><time>2023-01-06T10:00:22Z</time><name>PT334</name></trkpt>
<trkpt lat="53.018859" lon="-3.215842"><ele>549</ele><time>2023-01-06T10:00:26Z</time><name>PT335</name></trkpt>
<trkpt lat="53.018870" lon="-3.215915"><ele>549</ele><time>2023-01-06T10:00:30Z</time><name>PT336</name></trkpt>
<trkpt lat="53.018877" lon="-3.215974"><ele>550</ele><time>2023-01-06T10:00:34Z</time><name>PT337</name></trkpt>
<trkpt lat="53.018883" lon="-3.216042"><ele>550</ele><time>2023-01-06T10:00:37Z</time><name>PT338</name></trkpt>
<trkpt lat="53.018891" lon="-3.216115"><ele>550</ele><time>2023-01-06T10:00:41Z</time><name>PT339</name></trkpt>
<trkpt lat="53.018891" lon="-3.216165"><ele>551</ele><time>2023-01-06T10:00:44Z</time><name>PT340</name></trkpt>
<trkpt lat="53.018887" lon="-3.216217"><ele>550</ele><time>2023-01-06T10:00:47Z</time><name>PT341</name></trkpt>
<trkpt lat="53.018874" lon="-3.216288"><ele>549</ele><time>2023-01-06T10:00:51Z</time><name>PT342</name></trkpt>
<trkpt lat="53.018877" lon="-3.216338"><ele>549</ele><time>2023-01-06T10:00:54Z</time><name>PT343</name></trkpt>
<trkpt lat="53.018887" lon="-3.216416"><ele>550</ele><time>2023-01-06T10:00:58Z</time><name>PT344</name></trkpt>
<trkpt lat="53.018891" lon="-3.216465"><ele>550</ele><time>2023-01-06T10:01:01Z</time><name>PT345</name></trkpt>
<trkpt lat="53.018894" lon="-3.216509"><ele>550</ele><time>2023-01-06T10:01:05Z</time><name>PT346</name></trkpt>
<trkpt lat="53.018896" lon="-3.216545"><ele>551</ele><time>2023-01-06T10:01:08Z</time><name>PT347</name></trkpt>
<trkpt lat="53.018896" lon="-3.216597"><ele>550</ele><time>2023-01-06T10:01:12Z</time><name>PT348</name></trkpt>
<trkpt lat="53.018893" lon="-3.216651"><ele>550</ele><time>2023-01-06T10:01:15Z</time><name>PT349</name></trkpt>
<trkpt lat="53.018885" lon="-3.216725"><ele>550</ele><time>2023-01-06T10:01:19Z</time><name>PT350</name></trkpt>
<trkpt lat="53.018877" lon="-3.216774"><ele>550</ele><time>2023-01-06T10:01:22Z</time><name>PT351</name></trkpt>
<trkpt lat="53.018872" lon="-3.216823"><ele>549</ele><time>2023-01-06T10:01:25Z</time><name>PT352</name></trkpt>
<trkpt lat="53.018866" lon="-3.216860"><ele>549</ele><time>2023-01-06T10:01:28Z</time><name>PT353</name></trkpt>
<trkpt lat="53.018855" lon="-3.216916"><ele>548</ele><time>2023-01-06T10:01:32Z</time><name>PT354</name></trkpt>
<trkpt lat="53.018843" lon="-3.216956"><ele>547</ele><time>2023-01-06T10:01:35Z</time><name>PT355</name></trkpt>
<trkpt lat="53.018828" lon="-3.216995"><ele>546</ele><time>2023-01-06T10:01:39Z</time><name>PT356</name></trkpt>
<trkpt lat="53.018819" lon="-3.217032"><ele>545</ele><time>2023-01-06T10:01:42Z</time><name>PT357</name></trkpt>
<trkpt lat="53.018809" lon="-3.217079"><ele>544</ele><time>2023-01-06T10:01:46Z</time><name>PT358</name></trkpt>
<trkpt lat="53.018800" lon="-3.217119"><ele>544</ele><time>2023-01-06T10:01:49Z</time><name>PT359</name></trkpt>
<trkpt lat="53.018790" lon="-3.217158"><ele>543</ele><time>2023-01-06T10:01:52Z</time><name>PT360</name></trkpt>
<trkpt lat="53.018776" lon="-3.217206"><ele>541</ele><time>2023-01-06T10:01:56Z</time><name>PT361</name></trkpt>
<trkpt lat="53.018764" lon="-3.217233"><ele>541</ele><time>2023-01-06T10:01:59Z</time><name>PT362</name></trkpt>
<trkpt lat="53.018756" lon="-3.217265"><ele>540</ele><time>2023-01-06T10:02:02Z</time><name>PT363</name></trkpt>
<trkpt lat="53.018743" lon="-3.217313"><ele>539</ele><time>2023-01-06T10:02:06Z</time><name>PT364</name></trkpt>
<trkpt lat="53.018731" lon="-3.217358"><ele>539</ele><time>2023-01-06T10:02:09Z</time><name>PT365</name></trkpt>
<trkpt lat="53.018711" lon="-3.217421"><ele>538</ele><time>2023-01-06T10:02:13Z</time><name>PT366</name></trkpt>
<trkpt lat="53.018700" lon="-3.217466"><ele>538</ele><time>2023-01-06T10:02:16Z</time><name>PT367</name></trkpt>
<trkpt lat="53.018680" lon="-3.217535"><ele>538</ele><time>2023-01-06T10:02:20Z</time><name>PT368</name></trkpt>
<trkpt lat="53.018665" lon="-3.217605"><ele>539</ele><time>2023-01-06T10:02:24Z</time><name>PT369</name></trkpt>
<trkpt lat="53.018651" lon="-3.217656"><ele>539</ele><time>2023-01-06T10:02:27Z</time><name>PT370</name></trkpt>
<trkpt lat="53.018646" lon="-3.217723"><ele>539</ele><time>2023-01-06T10:02:31Z</time><name>PT371</name></trkpt>
<trkpt lat="53.018640" lon="-3.217787"><ele>540</ele><time>2023-01-06T10:02:35Z</time><name>PT372</name></trkpt>
<trkpt lat="53.018636" lon="-3.217834"><ele>540</ele><time>2023-01-06T10:02:38Z</time><name>PT373</name></trkpt>
<trkpt lat="53.018633" lon="-3.217887"><ele>541</ele><time>2023-01-06T10:02:41Z</time><name>PT374</name></trkpt>
<trkpt lat="53.018631" lon="-3.217958"><ele>540</ele><time>2023-01-06T10:02:45Z</time><name>PT375</name></trkpt>
<trkpt lat="53.018634" lon="-3.218033"><ele>540</ele><time>2023-01-06T10:02:49Z</time><name>PT376</name></trkpt>
<trkpt lat="53.018636" lon="-3.218086"><ele>539</ele><time>2023-01-06T10:02:52Z</time><name>PT377</name></trkpt>
<trkpt lat="53.018640" lon="-3.218160"><ele>539</ele><time>2023-01-06T10:02:56Z</time><name>PT378</name></trkpt>
<trkpt lat="53.018640" lon="-3.218218"><ele>538</ele><time>2023-01-06T10:02:59Z</time><name>PT379</name></trkpt>
<trkpt lat="53.018640" lon="-3.218294"><ele>538</ele><time>2023-01-06T10:03:03Z</time><name>PT380</name></trkpt>
<trkpt lat="53.018638" lon="-3.218366"><ele>537</ele><time>2023-01-06T10:03:07Z</time><name>PT381</name></trkpt>
<trkpt lat="53.018634" lon="-3.218420"><ele>536</ele><time>2023-01-06T10:03:10Z</time><name>PT382</name></trkpt>
<trkpt lat="53.018632" lon="-3.218495"><ele>535</ele><time>2023-01-06T10:03:14Z</time><name>PT383</name></trkpt>
<trkpt lat="53.018632" lon="-3.218548"><ele>535</ele><time>2023-01-06T10:03:17Z</time><name>PT384</name></trkpt>
<trkpt lat="53.018627" lon="-3.218623"><ele>534</ele><time>2023-01-06T10:03:21Z</time><name>PT385</name></trkpt>
<trkpt lat="53.018622" lon="-3.218679"><ele>534</ele><time>2023-01-06T10:03:24Z</time><name>PT386</name></trkpt>
<trkpt lat="53.018620" lon="-3.218753"><ele>534</ele><time>2023-01-06T10:03:28Z</time><name>PT387</name></trkpt>
<trkpt lat="53.018614" lon="-3.218812"><ele>534</ele><time>2023-01-06T10:03:31Z</time><name>PT388</name></trkpt>
<trkpt lat="53.018609" lon="-3.218886"><ele>533</ele><time>2023-01-06T10:03:35Z</time><name>PT389</name></trkpt>
<trkpt lat="53.018600" lon="-3.218959"><ele>534</ele><time>2023-01-06T10:03:39Z</time><name>PT390</name></trkpt>
<trkpt lat="53.018592" lon="-3.219012"><ele>533</ele><time>2023-01-06T10:03:42Z</time><name>PT391</name></trkpt>
<trkpt lat="53.018581" lon="-3.219090"><ele>532</ele><time>2023-01-06T10:03:46Z</time><name>PT392</name></trkpt>
<trkpt lat="53.018572" lon="-3.219161"><ele>532</ele><time>2023-01-06T10:03:50Z</time><name>PT393</name></trkpt>
<trkpt lat="53.018564" lon="-3.219235"><ele>532</ele><time>2023-01-06T10:03:54Z</time><name>PT394</name></trkpt>
<trkpt lat="53.018557" lon="-3.219295"><ele>531</ele><time>2023-01-06T10:03:57Z</time><name>PT395</name></trkpt>
<trkpt lat="53.018551" lon="-3.219347"><ele>531</ele><time>2023-01-06T10:04:00Z</time><name>PT396</name></trkpt>
<trkpt lat="53.018546" lon="-3.219398"><ele>530</ele><time>2023-01-06T10:04:03Z</time><name>PT397</name></trkpt>
<trkpt lat="53.018542" lon="-3.219473"><ele>530</ele><time>2023-01-06T10:04:07Z</time><name>PT398</name></trkpt>
<trkpt lat="53.018531" lon="-3.219542"><ele>530</ele><time>2023-01-06T10:04:11Z</time><name>PT399</name></trkpt>
<trkpt lat="53.018530" lon="-3.219591"><ele>529</ele><time>2023-01-06T10:04:14Z</time><name>PT400</name></trkpt>
<trkpt lat="53.018519" lon="-3.219647"><ele>528</ele><time>2023-01-06T10:04:18Z</time><name>PT401</name></trkpt>
<trkpt lat="53.018503" lon="-3.219702"><ele>527</ele><time>2023-01-06T10:04:22Z</time><name>PT402</name></trkpt>
<trkpt lat="53.018483" lon="-3.219758"><ele>526</ele><time>2023-01-06T10:04:26Z</time><name>PT403</name></trkpt>
<trkpt lat="53.018464" lon="-3.219802"><ele>525</ele><time>2023-01-06T10:04:30Z</time><name>PT404</name></trkpt>
<trkpt lat="53.018448" lon="-3.219845"><ele>525</ele><time>2023-01-06T10:04:34Z</time><name>PT405</name></trkpt>
<trkpt lat="53.018437" lon="-3.219874"><ele>524</ele><time>2023-01-06T10:04:37Z</time><name>PT406</name></trkpt>
<trkpt lat="53.018426" lon="-3.219916"><ele>523</ele><time>2023-01-06T10:04:41Z</time><name>PT407</name></trkpt>
<trkpt lat="53.018420" lon="-3.219951"><ele>523</ele><time>2023-01-06T10:04:44Z</time><name>PT408</name></trkpt>
<trkpt lat="53.018412" lon="-3.220005"><ele>523</ele><time>2023-01-06T10:04:47Z</time><name>PT409</name></trkpt>
<trkpt lat="53.018410" lon="-3.220070"><ele>522</ele><time>2023-01-06T10:04:51Z</time><name>PT410</name></trkpt>
<trkpt lat="53.018404" lon="-3.220126"><ele>522</ele><time>2023-01-06T10:04:55Z</time><name>PT411</name></trkpt>
<trkpt lat="53.018392" lon="-3.220174"><ele>521</ele><time>2023-01-06T10:04:58Z</time><name>PT412</name></trkpt>
<trkpt lat="53.018380" lon="-3.220217"><ele>520</ele><time>2023-01-06T10:05:01Z</time><name>PT413</name></trkpt>
<trkpt lat="53.018374" lon="-3.220259"><ele>520</ele><time>2023-01-06T10:05:04Z</time><name>PT414</name></trkpt>
<trkpt lat="53.018362" lon="-3.220297"><ele>519</ele><time>2023-01-06T10:05:07Z</time><name>PT415</name></trkpt>
<trkpt lat="53.018347" lon="-3.220343"><ele>518</ele><time>2023-01-06T10:05:11Z</time><name>PT416</name></trkpt>
<trkpt lat="53.018337" lon="-3.220379"><ele>518</ele><time>2023-01-06T10:05:14Z</time><name>PT417</name></trkpt>
<trkpt lat="53.018325" lon="-3.220417"><ele>517</ele><time>2023-01-06T10:05:17Z</time><name>PT418</name></trkpt>
<trkpt lat="53.018302" lon="-3.220468"><ele>516</ele><time>2023-01-06T10:05:21Z</time><name>PT419</name></trkpt>
<trkpt lat="53.018283" lon="-3.220512"><ele>514</ele><time>2023-01-06T10:05:25Z</time><name>PT420</name></trkpt>
<trkpt lat="53.018271" lon="-3.220539"><ele>514</ele><time>2023-01-06T10:05:28Z</time><name>PT421</name></trkpt>
<trkpt lat="53.018254" lon="-3.220577"><ele>513</ele><time>2023-01-06T10:05:32Z</time><name>PT422</name></trkpt>
<trkpt lat="53.018243" lon="-3.220604"><ele>513</ele><time>2023-01-06T10:05:35Z</time><name>PT423</name></trkpt>
<trkpt lat="53.018234" lon="-3.220644"><ele>512</ele><time>2023-01-06T10:05:38Z</time><name>PT424</name></trkpt>
<trkpt lat="53.018217" lon="-3.220693"><ele>511</ele><time>2023-01-06T10:05:42Z</time><name>PT425</name></trkpt>
<trkpt lat="53.018196" lon="-3.220733"><ele>510</ele><time>2023-01-06T10:05:46Z</time><name>PT426</name></trkpt>
<trkpt lat="53.018171" lon="-3.220790"><ele>509</ele><time>2023-01-06T10:05:50Z</time><name>PT427</name></trkpt>
<trkpt lat="53.018151" lon="-3.220829"><ele>509</ele><time>2023-01-06T10:05:53Z</time><name>PT428</name></trkpt>
<trkpt lat="53.018131" lon="-3.220865"><ele>508</ele><time>2023-01-06T10:05:56Z</time><name>PT429</name></trkpt>
<trkpt lat="53.018113" lon="-3.220894"><ele>507</ele><time>2023-01-06T10:05:59Z</time><name>PT430</name></trkpt>
<trkpt lat="53.018089" lon="-3.220938"><ele>506</ele><time>2023-01-06T10:06:03Z</time><name>PT431</name></trkpt>
<trkpt lat="53.018069" lon="-3.220975"><ele>505</ele><time>2023-01-06T10:06:06Z</time><name>PT432</name></trkpt>
<trkpt lat="53.018045" lon="-3.221018"><ele>504</ele><time>2023-01-06T10:06:10Z</time><name>PT433</name></trkpt>
<trkpt lat="53.018021" lon="-3.221057"><ele>503</ele><time>2023-01-06T10:06:13Z</time><name>PT434</name></trkpt>
<trkpt lat="53.017993" lon="-3.221103"><ele>503</ele><time>2023-01-06T10:06:17Z</time><name>PT435</name></trkpt>
<trkpt lat="53.017972" lon="-3.221137"><ele>503</ele><time>2023-01-06T10:06:20Z</time><name>PT436</name></trkpt>
<trkpt lat="53.017952" lon="-3.221168"><ele>502</ele><time>2023-01-06T10:06:23Z</time><name>PT437</name></trkpt>
<trkpt lat="53.017919" lon="-3.221213"><ele>502</ele><time>2023-01-06T10:06:27Z</time><name>PT438</name></trkpt>
<trkpt lat="53.017889" lon="-3.221246"><ele>501</ele><time>2023-01-06T10:06:31Z</time><name>PT439</name></trkpt>
<trkpt lat="53.017865" lon="-3.221279"><ele>501</ele><time>2023-01-06T10:06:34Z</time><name>PT440</name></trkpt>
<trkpt lat="53.017843" lon="-3.221307"><ele>500</ele><time>2023-01-06T10:06:37Z</time><name>PT441</name></trkpt>
<trkpt lat="53.017812" lon="-3.221352"><ele>499</ele><time>2023-01-06T10:06:41Z</time><name>PT442</name></trkpt>
<trkpt lat="53.017789" lon="-3.221384"><ele>499</ele><time>2023-01-06T10:06:44Z</time><name>PT443</name></trkpt>
<trkpt lat="53.017751" lon="-3.221427"><ele>498</ele><time>2023-01-06T10:06:48Z</time><name>PT444</name></trkpt>
<trkpt lat="53.017714" lon="-3.221466"><ele>498</ele><time>2023-01-06T10:06:52Z</time><name>PT445</name></trkpt>
<trkpt lat="53.017687" lon="-3.221484"><ele>497</ele><time>2023-01-06T10:06:55Z</time><name>PT446</name></trkpt>
<trkpt lat="53.017653" lon="-3.221522"><ele>498</ele><time>2023-01-06T10:06:59Z</time><name>PT447</name></trkpt>
<trkpt lat="53.017632" lon="-3.221562"><ele>498</ele><time>2023-01-06T10:07:02Z</time><name>PT448</name></trkpt>
<trkpt lat="53.017596" lon="-3.221609"><ele>497</ele><time>2023-01-06T10:07:06Z</time><name>PT449</name></trkpt>
<trkpt lat="53.017556" lon="-3.221662"><ele>497</ele><time>2023-01-06T10:07:10Z</time><name>PT450</name></trkpt>
<trkpt lat="53.017529" lon="-3.221700"><ele>498</ele><time>2023-01-06T10:07:13Z</time><name>PT451</name></trkpt>
<trkpt lat="53.017492" lon="-3.221747"><ele>498</ele><time>2023-01-06T10:07:17Z</time><name>PT452</name></trkpt>
<trkpt lat="53.017455" lon="-3.221796"><ele>498</ele><time>2023-01-06T10:07:21Z</time><name>PT453</name></trkpt>
<trkpt lat="53.017428" lon="-3.221827"><ele>498</ele><time>2023-01-06T10:07:24Z</time><name>PT454</name></trkpt>
<trkpt lat="53.017392" lon="-3.221866"><ele>498</ele><time>2023-01-06T10:07:28Z</time><name>PT455</name></trkpt>
<trkpt lat="53.017363" lon="-3.221904"><ele>499</ele><time>2023-01-06T10:07:31Z</time><name>PT456</name></trkpt>
<trkpt lat="53.017328" lon="-3.221943"><ele>499</ele><time>2023-01-06T10:07:35Z</time><name>PT457</name></trkpt>
<trkpt lat="53.017292" lon="-3.221985"><ele>499</ele><time>2023-01-06T10:07:39Z</time><name>PT458</name></trkpt>
<trkpt lat="53.017265" lon="-3.222016"><ele>499</ele><time>2023-01-06T10:07:42Z</time><name>PT459</name></trkpt>
<trkpt lat="53.017227" lon="-3.222061"><ele>499</ele><time>2023-01-06T10:07:46Z</time><name>PT460</name></trkpt>
<trkpt lat="53.017197" lon="-3.222096"><ele>498</ele><time>2023-01-06T10:07:49Z</time><name>PT461</name></trkpt>
<trkpt lat="53.017162" lon="-3.222136"><ele>498</ele><time>2023-01-06T10:07:53Z</time><name>PT462</name></trkpt>
<trkpt lat="53.017124" lon="-3.222175"><ele>499</ele><time>2023-01-06T10:07:57Z</time><name>PT463</name></trkpt>
<trkpt lat="53.017098" lon="-3.222206"><ele>499</ele><time>2023-01-06T10:08:00Z</time><name>PT464</name></trkpt>
<trkpt lat="53.017061" lon="-3.222240"><ele>499</ele><time>2023-01-06T10:08:04Z</time><name>PT465</name></trkpt>
<trkpt lat="53.017033" lon="-3.222266"><ele>499</ele><time>2023-01-06T10:08:07Z</time><name>PT466</name></trkpt>
<trkpt lat="53.016999" lon="-3.222298"><ele>498</ele><time>2023-01-06T10:08:11Z</time><name>PT467</name></trkpt>
<trkpt lat="53.016966" lon="-3.222329"><ele>497</ele><time>2023-01-06T10:08:15Z</time><name>PT468</name></trkpt>
<trkpt lat="53.016941" lon="-3.222351"><ele>497</ele><time>2023-01-06T10:08:18Z</time><name>PT469</name></trkpt>
<trkpt lat="53.016907" lon="-3.222381"><ele>496</ele><time>2023-01-06T10:08:22Z</time><name>PT470</name></trkpt>
<trkpt lat="53.016871" lon="-3.222412"><ele>495</ele><time>2023-01-06T10:08:26Z</time><name>PT471</name></trkpt>
<trkpt lat="53.016835" lon="-3.222443"><ele>495</ele><time>2023-01-06T10:08:30Z</time><name>PT472</name></trkpt>
<trkpt lat="53.016801" lon="-3.222471"><ele>494</ele><time>2023-01-06T10:08:34Z</time><name>PT473</name></trkpt>
<trkpt lat="53.016762" lon="-3.222505"><ele>493</ele><time>2023-01-06T10:08:38Z</time><name>PT474</name></trkpt>
<trkpt lat="53.016725" lon="-3.222547"><ele>493</ele><time>2023-01-06T10:08:42Z</time><name>PT475</name></trkpt>
<trkpt lat="53.016695" lon="-3.222570"><ele>493</ele><time>2023-01-06T10:08:45Z</time><name>PT476</name></trkpt>
<trkpt lat="53.016666" lon="-3.222596"><ele>492</ele><time>2023-01-06T10:08:48Z</time><name>PT477</name></trkpt>
<trkpt lat="53.016638" lon="-3.222613"><ele>491</ele><time>2023-01-06T10:08:51Z</time><name>PT478</name></trkpt>
<trkpt lat="53.016595" lon="-3.222649"><ele>492</ele><time>2023-01-06T10:08:55Z</time><name>PT479</name></trkpt>
<trkpt lat="53.016559" lon="-3.222697"><ele>492</ele><time>2023-01-06T10:08:59Z</time><name>PT480</name></trkpt>
<trkpt lat="53.016529" lon="-3.222724"><ele>492</ele><time>2023-01-06T10:09:02Z</time><name>PT481</name></trkpt>
<trkpt lat="53.016496" lon="-3.222745"><ele>491</ele><time>2023-01-06T10:09:05Z</time><name>PT482</name></trkpt>
<trkpt lat="53.016460" lon="-3.222766"><ele>491</ele><time>2023-01-06T10:09:08Z</time><name>PT483</name></trkpt>
<trkpt lat="53.016419" lon="-3.222797"><ele>492</ele><time>2023-01-06T10:09:12Z</time><name>PT484</name></trkpt>
<trkpt lat="53.016380" lon="-3.222824"><ele>491</ele><time>2023-01-06T10:09:16Z</time><name>PT485</name></trkpt>
<trkpt lat="53.016351" lon="-3.222841"><ele>491</ele><time>2023-01-06T10:09:19Z</time><name>PT486</name></trkpt>
<trkpt lat="53.016314" lon="-3.222860"><ele>491</ele><time>2023-01-06T10:09:23Z</time><name>PT487</name></trkpt>
<trkpt lat="53.016284" lon="-3.222884"><ele>491</ele><time>2023-01-06T10:09:26Z</time><name>PT488</name></trkpt>
<trkpt lat="53.016253" lon="-3.222915"><ele>491</ele><time>2023-01-06T10:09:29Z</time><name>PT489</name></trkpt>
<trkpt lat="53.016210" lon="-3.222952"><ele>492</ele><time>2023-01-06T10:09:33Z</time><name>PT490</name></trkpt>
<trkpt lat="53.016167" lon="-3.222987"><ele>492</ele><time>2023-01-06T10:09:37Z</time><name>PT491</name></trkpt>
<trkpt lat="53.016135" lon="-3.223012"><ele>493</ele><time>2023-01-06T10:09:40Z</time><name>PT492</name></trkpt>
<trkpt lat="53.016096" lon="-3.223042"><ele>493</ele><time>2023-01-06T10:09:44Z</time><name>PT493</name></trkpt>
<trkpt lat="53.016064" lon="-3.223074"><ele>494</ele><time>2023-01-06T10:09:47Z</time><name>PT494</name></trkpt>
<trkpt lat="53.016023" lon="-3.223102"><ele>494</ele><time>2023-01-06T10:09:51Z</time><name>PT495</name></trkpt>
<trkpt lat="53.015997" lon="-3.223120"><ele>494</ele><time>2023-01-06T10:09:54Z</time><name>PT496</name></trkpt>
<trkpt lat="53.015954" lon="-3.223146"><ele>495</ele><time>2023-01-06T10:09:58Z</time><name>PT497</name></trkpt>
<trkpt lat="53.015926" lon="-3.223167"><ele>495</ele><time>2023-01-06T10:10:01Z</time><name>PT498</name></trkpt>
<trkpt lat="53.015889" lon="-3.223205"><ele>495</ele><time>2023-01-06T10:10:05Z</time><name>PT499</name></trkpt>
<trkpt lat="53.015860" lon="-3.223230"><ele>496</ele><time>2023-01-06T10:10:08Z</time><name>PT500</name></trkpt>
<trkpt lat="53.015833" lon="-3.223253"><ele>496</ele><time>2023-01-06T10:10:11Z</time><name>PT501</name></trkpt>
<trkpt lat="53.015795" lon="-3.223289"><ele>498</ele><time>2023-01-06T10:10:15Z</time><name>PT502</name></trkpt>
<trkpt lat="53.015771" lon="-3.223302"><ele>497</ele><time>2023-01-06T10:10:18Z</time><name>PT503</name></trkpt>
<trkpt lat="53.015735" lon="-3.223326"><ele>497</ele><time>2023-01-06T10:10:22Z</time><name>PT504</name></trkpt>
<trkpt lat="53.015708" lon="-3.223347"><ele>498</ele><time>2023-01-06T10:10:25Z</time><name>PT505</name></trkpt>
<trkpt lat="53.015671" lon="-3.223379"><ele>498</ele><time>2023-01-06T10:10:29Z</time><name>PT506</name></trkpt>
<trkpt lat="53.015645" lon="-3.223404"><ele>499</ele><time>2023-01-06T10:10:32Z</time><name>PT507</name></trkpt>
<trkpt lat="53.015609" lon="-3.223433"><ele>499</ele><time>2023-01-06T10:10:36Z</time><name>PT508</name></trkpt>
<trkpt lat="53.015581" lon="-3.223457"><ele>499</ele><time>2023-01-06T10:10:39Z</time><name>PT509</name></trkpt>
<trkpt lat="53.015543" lon="-3.223486"><ele>500</ele><time>2023-01-06T10:10:43Z</time><name>PT510</name></trkpt>
<trkpt lat="53.015509" lon="-3.223514"><ele>501</ele><time>2023-01-06T10:10:47Z</time><name>PT511</name></trkpt>
<trkpt lat="53.015479" lon="-3.223533"><ele>501</ele><time>2023-01-06T10:10:50Z</time><name>PT512</name></trkpt>
<trkpt lat="53.015445" lon="-3.223555"><ele>501</ele><time>2023-01-06T10:10:54Z</time><name>PT513</name></trkpt>
<trkpt lat="53.015422" lon="-3.223559"><ele>501</ele><time>2023-01-06T10:10:57Z</time><name>PT514</name></trkpt>
<trkpt lat="53.015388" lon="-3.223589"><ele>501</ele><time>2023-01-06T10:11:01Z</time><name>PT515</name></trkpt>
<trkpt lat="53.015352" lon="-3.223608"><ele>502</ele><time>2023-01-06T10:11:05Z</time><name>PT516</name></trkpt>
<trkpt lat="53.015320" lon="-3.223633"><ele>502</ele><time>2023-01-06T10:11:09Z</time><name>PT517</name></trkpt>
<trkpt lat="53.015286" lon="-3.223663"><ele>503</ele><time>2023-01-06T10:11:13Z</time><name>PT518</name></trkpt>
<trkpt lat="53.015255" lon="-3.223686"><ele>503</ele><time>2023-01-06T10:11:17Z</time><name>PT519</name></trkpt>
<trkpt lat="53.015220" lon="-3.223715"><ele>503</ele><time>2023-01-06T10:11:21Z</time><name>PT520</name></trkpt>
<trkpt lat="53.015196" lon="-3.223734"><ele>504</ele><time>2023-01-06T10:11:24Z</time><name>PT521</name></trkpt>
<trkpt lat="53.015158" lon="-3.223765"><ele>505</ele><time>2023-01-06T10:11:28Z</time><name>PT522</name></trkpt>
<trkpt lat="53.015132" lon="-3.223782"><ele>506</ele><time>2023-01-06T10:11:31Z</time><name>PT523</name></trkpt>
<trkpt lat="53.015110" lon="-3.223797"><ele>506</ele><time>2023-01-06T10:11:34Z</time><name>PT524</name></trkpt>
<trkpt lat="53.015074" lon="-3.223824"><ele>507</ele><time>2023-01-06T10:11:38Z</time><name>PT525</name></trkpt>
<trkpt lat="53.015046" lon="-3.223842"><ele>507</ele><time>2023-01-06T10:11:42Z</time><name>PT526</name></trkpt>
<trkpt lat="53.015024" lon="-3.223865"><ele>509</ele><time>2023-01-06T10:11:45Z</time><name>PT527</name></trkpt>
<trkpt lat="53.014998" lon="-3.223891"><ele>510</ele><time>2023-01-06T10:11:48Z</time><name>PT528</name></trkpt>
<trkpt lat="53.014966" lon="-3.223915"><ele>510</ele><time>2023-01-06T10:11:52Z</time><name>PT529</name></trkpt>
<trkpt lat="53.014940" lon="-3.223928"><ele>511</ele><time>2023-01-06T10:11:55Z</time><name>PT530</name></trkpt>
<trkpt lat="53.014922" lon="-3.223942"><ele>511</ele><time>2023-01-06T10:11:58Z</time><name>PT531</name></trkpt>
<trkpt lat="53.014897" lon="-3.223962"><ele>511</ele><time>2023-01-06T10:12:01Z</time><name>PT532</name></trkpt>
<trkpt lat="53.014872" lon="-3.223978"><ele>512</ele><time>2023-01-06T10:12:04Z</time><name>PT533</name></trkpt>
<trkpt lat="53.014843" lon="-3.224000"><ele>512</ele><time>2023-01-06T10:12:07Z</time><name>PT534</name></trkpt>
<trkpt lat="53.014807" lon="-3.224022"><ele>513</ele><time>2023-01-06T10:12:11Z</time><name>PT535</name></trkpt>
<trkpt lat="53.014773" lon="-3.224052"><ele>514</ele><time>2023-01-06T10:12:15Z</time><name>PT536</name></trkpt>
<trkpt lat="53.014738" lon="-3.224079"><ele>515</ele><time>2023-01-06T10:12:19Z</time><name>PT537</name></trkpt>
<trkpt lat="53.014714" lon="-3.224096"><ele>515</ele><time>2023-01-06T10:12:22Z</time><name>PT538</name></trkpt>
<trkpt lat="53.014692" lon="-3.224118"><ele>516</ele><time>2023-01-06T10:12:25Z</time><name>PT539</name></trkpt>
<trkpt lat="53.014661" lon="-3.224144"><ele>516</ele><time>2023-01-06T10:12:29Z</time><name>PT540</name></trkpt>
<trkpt lat="53.014627" lon="-3.224175"><ele>517</ele><time>2023-01-06T10:12:33Z</time><name>PT541</name></trkpt>
<trkpt lat="53.014594" lon="-3.224202"><ele>518</ele><time>2023-01-06T10:12:37Z</time><name>PT542</name></trkpt>
<trkpt lat="53.014572" lon="-3.224213"><ele>519</ele><time>2023-01-06T10:12:40Z</time><name>PT543</name></trkpt>
<trkpt lat="53.014548" lon="-3.224232"><ele>520</ele><time>2023-01-06T10:12:43Z</time><name>PT544</name></trkpt>
<trkpt lat="53.014524" lon="-3.224256"><ele>521</ele><time>2023-01-06T10:12:46Z</time><name>PT545</name></trkpt>
<trkpt lat="53.014494" lon="-3.224281"><ele>521</ele><time>2023-01-06T10:12:50Z</time><name>PT546</name></trkpt>
<trkpt lat="53.014462" lon="-3.224306"><ele>522</ele><time>2023-01-06T10:12:54Z</time><name>PT547</name></trkpt>
<trkpt lat="53.014429" lon="-3.224332"><ele>523</ele><time>2023-01-06T10:12:58Z</time><name>PT548</name></trkpt>
<trkpt lat="53.014407" lon="-3.224348"><ele>523</ele><time>2023-01-06T10:13:01Z</time><name>PT549</name></trkpt>
<trkpt lat="53.014375" lon="-3.224373"><ele>524</ele><time>2023-01-06T10:13:05Z</time><name>PT550</name></trkpt>
<trkpt lat="53.014351" lon="-3.224396"><ele>524</ele><time>2023-01-06T10:13:08Z</time><name>PT551</name></trkpt>
<trkpt lat="53.014322" lon="-3.224421"><ele>525</ele><time>2023-01-06T10:13:12Z</time><name>PT552</name></trkpt>
<trkpt lat="53.014298" lon="-3.224438"><ele>525</ele><time>2023-01-06T10:13:15Z</time><name>PT553</name></trkpt>
<trkpt lat="53.014266" lon="-3.224460"><ele>526</ele><time>2023-01-06T10:13:19Z</time><name>PT554</name></trkpt>
<trkpt lat="53.014244" lon="-3.224480"><ele>527</ele><time>2023-01-06T10:13:22Z</time><name>PT555</name></trkpt>
<trkpt lat="53.014222" lon="-3.224496"><ele>527</ele><time>2023-01-06T10:13:26Z</time><name>PT556</name></trkpt>
<trkpt lat="53.014221" lon="-3.224496"><ele>527</ele><time>2023-01-06T10:13:30Z</time><name>PT557</name></trkpt>
<trkpt lat="53.014211" lon="-3.224507"><ele>527</ele><time>2023-01-06T10:13:33Z</time><name>PT558</name></trkpt>
<trkpt lat="53.014178" lon="-3.224534"><ele>527</ele><time>2023-01-06T10:13:37Z</time><name>PT559</name></trkpt>
<trkpt lat="53.014155" lon="-3.224558"><ele>528</ele><time>2023-01-06T10:13:40Z</time><name>PT560</name></trkpt>
<trkpt lat="53.014130" lon="-3.224577"><ele>528</ele><time>2023-01-06T10:13:43Z</time><name>PT561</name></trkpt>
<trkpt lat="53.014098" lon="-3.224608"><ele>529</ele><time>2023-01-06T10:13:47Z</time><name>PT562</name></trkpt>
<trkpt lat="53.014067" lon="-3.224634"><ele>530</ele><time>2023-01-06T10:13:51Z</time><name>PT563</name></trkpt>
<trkpt lat="53.014042" lon="-3.224654"><ele>530</ele><time>2023-01-06T10:13:54Z</time><name>PT564</name></trkpt>
<trkpt lat="53.014017" lon="-3.224670"><ele>531</ele><time>2023-01-06T10:13:57Z</time><name>PT565</name></trkpt>
<trkpt lat="53.013988" lon="-3.224700"><ele>532</ele><time>2023-01-06T10:14:01Z</time><name>PT566</name></trkpt>
<trkpt lat="53.013957" lon="-3.224722"><ele>532</ele><time>2023-01-06T10:14:05Z</time><name>PT567</name></trkpt>
<trkpt lat="53.013925" lon="-3.224749"><ele>533</ele><time>2023-01-06T10:14:09Z</time><name>PT568</name></trkpt>
<trkpt lat="53.013902" lon="-3.224771"><ele>533</ele><time>2023-01-06T10:14:12Z</time><name>PT569</name></trkpt>
<trkpt lat="53.013879" lon="-3.224793"><ele>533</ele><time>2023-01-06T10:14:15Z</time><name>PT570</name></trkpt>
<trkpt lat="53.013861" lon="-3.224806"><ele>534</ele><time>2023-01-06T10:14:18Z</time><name>PT571</name></trkpt>
<trkpt lat="53.013831" lon="-3.224828"><ele>534</ele><time>2023-01-06T10:14:22Z</time><name>PT572</name></trkpt>
<trkpt lat="53.013813" lon="-3.224847"><ele>535</ele><time>2023-01-06T10:14:25Z</time><name>PT573</name></trkpt>
<trkpt lat="53.013796" lon="-3.224870"><ele>536</ele><time>2023-01-06T10:14:28Z</time><name>PT574</name></trkpt>
<trkpt lat="53.013775" lon="-3.224891"><ele>536</ele><time>2023-01-06T10:14:31Z</time><name>PT575</name></trkpt>
<trkpt lat="53.013742" lon="-3.224915"><ele>537</ele><time>2023-01-06T10:14:35Z</time><name>PT576</name></trkpt>
<trkpt lat="53.013721" lon="-3.224936"><ele>537</ele><time>2023-01-06T10:14:38Z</time><name>PT577</name></trkpt>
<trkpt lat="53.013697" lon="-3.224957"><ele>538</ele><time>2023-01-06T10:14:41Z</time><name>PT578</name></trkpt>
<trkpt lat="53.013674" lon="-3.224980"><ele>538</ele><time>2023-01-06T10:14:44Z</time><name>PT579</name></trkpt>
<trkpt lat="53.013646" lon="-3.225006"><ele>539</ele><time>2023-01-06T10:14:48Z</time><name>PT580</name></trkpt>
<trkpt lat="53.013620" lon="-3.225039"><ele>540</ele><time>2023-01-06T10:14:52Z</time><name>PT581</name></trkpt>
<trkpt lat="53.013591" lon="-3.225064"><ele>540</ele><time>2023-01-06T10:14:56Z</time><name>PT582</name></trkpt>
<trkpt lat="53.013570" lon="-3.225085"><ele>540</ele><time>2023-01-06T10:15:00Z</time><name>PT583</name></trkpt>
<trkpt lat="53.013552" lon="-3.225104"><ele>541</ele><time>2023-01-06T10:15:03Z</time><name>PT584</name></trkpt>
<trkpt lat="53.013523" lon="-3.225138"><ele>542</ele><time>2023-01-06T10:15:07Z</time><name>PT585</name></trkpt>
<trkpt lat="53.013499" lon="-3.225160"><ele>543</ele><time>2023-01-06T10:15:11Z</time><name>PT586</name></trkpt>
<trkpt lat="53.013478" lon="-3.225176"><ele>543</ele><time>2023-01-06T10:15:14Z</time><name>PT587</name></trkpt>
<trkpt lat="53.013448" lon="-3.225209"><ele>544</ele><time>2023-01-06T10:15:18Z</time><name>PT588</name></trkpt>
<trkpt lat="53.013422" lon="-3.225236"><ele>544</ele><time>2023-01-06T10:15:21Z</time><name>PT589</name></trkpt>
<trkpt lat="53.013394" lon="-3.225266"><ele>545</ele><time>2023-01-06T10:15:25Z</time><name>PT590</name></trkpt>
<trkpt lat="53.013365" lon="-3.225296"><ele>547</ele><time>2023-01-06T10:15:29Z</time><name>PT591</name></trkpt>
<trkpt lat="53.013335" lon="-3.225324"><ele>547</ele><time>2023-01-06T10:15:33Z</time><name>PT592</name></trkpt>
<trkpt lat="53.013304" lon="-3.225358"><ele>548</ele><time>2023-01-06T10:15:37Z</time><name>PT593</name></trkpt>
<trkpt lat="53.013282" lon="-3.225379"><ele>549</ele><time>2023-01-06T10:15:40Z</time><name>PT594</name></trkpt>
<trkpt lat="53.013252" lon="-3.225407"><ele>550</ele><time>2023-01-06T10:15:44Z</time><name>PT595</name></trkpt>
<trkpt lat="53.013233" lon="-3.225428"><ele>550</ele><time>2023-01-06T10:15:47Z</time><name>PT596</name></trkpt>
<trkpt lat="53.013206" lon="-3.225451"><ele>551</ele><time>2023-01-06T10:15:51Z</time><name>PT597</name></trkpt>
<trkpt lat="53.013183" lon="-3.225464"><ele>551</ele><time>2023-01-06T10:15:54Z</time><name>PT598</name></trkpt>
<trkpt lat="53.013153" lon="-3.225499"><ele>552</ele><time>2023-01-06T10:15:58Z</time><name>PT599</name></trkpt>
<trkpt lat="53.013130" lon="-3.225519"><ele>552</ele><time>2023-01-06T10:16:01Z</time><name>PT600</name></trkpt>
<trkpt lat="53.013096" lon="-3.225549"><ele>553</ele><time>2023-01-06T10:16:05Z</time><name>PT601</name></trkpt>
<trkpt lat="53.013073" lon="-3.225565"><ele>553</ele><time>2023-01-06T10:16:08Z</time><name>PT602</name></trkpt>
<trkpt lat="53.013049" lon="-3.225589"><ele>553</ele><time>2023-01-06T10:16:11Z</time><name>PT603</name></trkpt>
<trkpt lat="53.013015" lon="-3.225624"><ele>553</ele><time>2023-01-06T10:16:15Z</time><name>PT604</name></trkpt>
<trkpt lat="53.012990" lon="-3.225648"><ele>554</ele><time>2023-01-06T10:16:18Z</time><name>PT605</name></trkpt>
<trkpt lat="53.012959" lon="-3.225679"><ele>554</ele><time>2023-01-06T10:16:22Z</time><name>PT606</name></trkpt>
<trkpt lat="53.012934" lon="-3.225703"><ele>555</ele><time>2023-01-06T10:16:25Z</time><name>PT607</name></trkpt>
<trkpt lat="53.012902" lon="-3.225736"><ele>556</ele><time>2023-01-06T10:16:29Z</time><name>PT608</name></trkpt>
<trkpt lat="53.012874" lon="-3.225760"><ele>556</ele><time>2023-01-06T10:16:33Z</time><name>PT609</name></trkpt>
<trkpt lat="53.012855" lon="-3.225779"><ele>557</ele><time>2023-01-06T10:16:36Z</time><name>PT610</name></trkpt>
<trkpt lat="53.012829" lon="-3.225808"><ele>558</ele><time>2023-01-06T10:16:40Z</time><name>PT611</name></trkpt>
<trkpt lat="53.012808" lon="-3.225827"><ele>559</ele><time>2023-01-06T10:16:43Z</time><name>PT612</name></trkpt>
<trkpt lat="53.012779" lon="-3.225859"><ele>559</ele><time>2023-01-06T10:16:47Z</time><name>PT613</name></trkpt>
<trkpt lat="53.012757" lon="-3.225885"><ele>559</ele><time>2023-01-06T10:16:50Z</time><name>PT614</name></trkpt>
<trkpt lat="53.012730" lon="-3.225915"><ele>561</ele><time>2023-01-06T10:16:54Z</time><name>PT615</name></trkpt>
<trkpt lat="53.012702" lon="-3.225952"><ele>561</ele><time>2023-01-06T10:16:57Z</time><name>PT616</name></trkpt>
<trkpt lat="53.012677" lon="-3.225987"><ele>561</ele><time>2023-01-06T10:17:00Z</time><name>PT617</name></trkpt>
<trkpt lat="53.012649" lon="-3.226023"><ele>562</ele><time>2023-01-06T10:17:03Z</time><name>PT618</name></trkpt>
<trkpt lat="53.012610" lon="-3.226059"><ele>562</ele><time>2023-01-06T10:17:07Z</time><name>PT619</name></trkpt>
<trkpt lat="53.012574" lon="-3.226101"><ele>562</ele><time>2023-01-06T10:17:11Z</time><name>PT620</name></trkpt>
<trkpt lat="53.012537" lon="-3.226142"><ele>563</ele><time>2023-01-06T10:17:15Z</time><name>PT621</name></trkpt>
<trkpt lat="53.012496" lon="-3.226182"><ele>563</ele><time>2023-01-06T10:17:19Z</time><name>PT622</name></trkpt>
<trkpt lat="53.012466" lon="-3.226212"><ele>563</ele><time>2023-01-06T10:17:22Z</time><name>PT623</name></trkpt>
<trkpt lat="53.012437" lon="-3.226246"><ele>563</ele><time>2023-01-06T10:17:25Z</time><name>PT624</name></trkpt>
<trkpt lat="53.012399" lon="-3.226287"><ele>563</ele><time>2023-01-06T10:17:29Z</time><name>PT625</name></trkpt>
<trkpt lat="53.012371" lon="-3.226321"><ele>564</ele><time>2023-01-06T10:17:32Z</time><name>PT626</name></trkpt>
<trkpt lat="53.012347" lon="-3.226350"><ele>564</ele><time>2023-01-06T10:17:35Z</time><name>PT627</name></trkpt>
<trkpt lat="53.012326" lon="-3.226374"><ele>565</ele><time>2023-01-06T10:17:38Z</time><name>PT628</name></trkpt>
<trkpt lat="53.012297" lon="-3.226406"><ele>565</ele><time>2023-01-06T10:17:42Z</time><name>PT629</name></trkpt>
<trkpt lat="53.012277" lon="-3.226429"><ele>566</ele><time>2023-01-06T10:17:45Z</time><name>PT630</name></trkpt>
<trkpt lat="53.012256" lon="-3.226459"><ele>566</ele><time>2023-01-06T10:17:48Z</time><name>PT631</name></trkpt>
<trkpt lat="53.012221" lon="-3.226502"><ele>567</ele><time>2023-01-06T10:17:52Z</time><name>PT632</name></trkpt>
<trkpt lat="53.012196" lon="-3.226530"><ele>567</ele><time>2023-01-06T10:17:55Z</time><name>PT633</name></trkpt>
<trkpt lat="53.012168" lon="-3.226570"><ele>567</ele><time>2023-01-06T10:17:58Z</time><name>PT634</name></trkpt>
<trkpt lat="53.012132" lon="-3.226610"><ele>567</ele><time>2023-01-06T10:18:02Z</time><name>PT635</name></trkpt>
<trkpt lat="53.012101" lon="-3.226642"><ele>567</ele><time>2023-01-06T10:18:05Z</time><name>PT636</name></trkpt>
<trkpt lat="53.012060" lon="-3.226687"><ele>568</ele><time>2023-01-06T10:18:09Z</time><name>PT637</name></trkpt>
<trkpt lat="53.012023" lon="-3.226724"><ele>567</ele><time>2023-01-06T10:18:13Z</time><name>PT638</name></trkpt>
<trkpt lat="53.011987" lon="-3.226761"><ele>568</ele><time>2023-01-06T10:18:17Z</time><name>PT639</name></trkpt>
<trkpt lat="53.011952" lon="-3.226807"><ele>569</ele><time>2023-01-06T10:18:21Z</time><name>PT640</name></trkpt>
<trkpt lat="53.011924" lon="-3.226843"><ele>569</ele><time>2023-01-06T10:18:24Z</time><name>PT641</name></trkpt>
<trkpt lat="53.011892" lon="-3.226878"><ele>569</ele><time>2023-01-06T10:18:27Z</time><name>PT642</name></trkpt>
<trkpt lat="53.011867" lon="-3.226910"><ele>569</ele><time>2023-01-06T10:18:30Z</time><name>PT643</name></trkpt>
<trkpt lat="53.011826" lon="-3.226957"><ele>569</ele><time>2023-01-06T10:18:34Z</time><name>PT644</name></trkpt>
<trkpt lat="53.011797" lon="-3.227013"><ele>570</ele><time>2023-01-06T10:18:38Z</time><name>PT645</name></trkpt>
<trkpt lat="53.011758" lon="-3.227043"><ele>570</ele><time>2023-01-06T10:18:41Z</time><name>PT646</name></trkpt>
<trkpt lat="53.011717" lon="-3.227082"><ele>570</ele><time>2023-01-06T10:18:45Z</time><name>PT647</name></trkpt>
<trkpt lat="53.011680" lon="-3.227126"><ele>570</ele><time>2023-01-06T10:18:49Z</time><name>PT648</name></trkpt>
<trkpt lat="53.011650" lon="-3.227159"><ele>570</ele><time>2023-01-06T10:18:52Z</time><name>PT649</name></trkpt>
<trkpt lat="53.011622" lon="-3.227184"><ele>570</ele><time>2023-01-06T10:18:55Z</time><name>PT650</name></trkpt>
<trkpt lat="53.011587" lon="-3.227217"><ele>570</ele><time>2023-01-06T10:18:59Z</time><name>PT651</name></trkpt>
<trkpt lat="53.011560" lon="-3.227240"><ele>569</ele><time>2023-01-06T10:19:02Z</time><name>PT652</name></trkpt>
<trkpt lat="53.011522" lon="-3.227277"><ele>568</ele><time>2023-01-06T10:19:06Z</time><name>PT653</name></trkpt>
<trkpt lat="53.011493" lon="-3.227307"><ele>567</ele><time>2023-01-06T10:19:09Z</time><name>PT654</name></trkpt>
<trkpt lat="53.011456" lon="-3.227338"><ele>567</ele><time>2023-01-06T10:19:13Z</time><name>PT655</name></trkpt>
<trkpt lat="53.011426" lon="-3.227364"><ele>567</ele><time>2023-01-06T10:19:16Z</time><name>PT656</name></trkpt>
<trkpt lat="53.011401" lon="-3.227385"><ele>566</ele><time>2023-01-06T10:19:19Z</time><name>PT657</name></trkpt>
<trkpt lat="53.011367" lon="-3.227419"><ele>565</ele><time>2023-01-06T10:19:23Z</time><name>PT658</name></trkpt>
<trkpt lat="53.011328" lon="-3.227451"><ele>564</ele><time>2023-01-06T10:19:27Z</time><name>PT659</name></trkpt>
<trkpt lat="53.011288" lon="-3.227488"><ele>564</ele><time>2023-01-06T10:19:31Z</time><name>PT660</name></trkpt>
<trkpt lat="53.011253" lon="-3.227522"><ele>563</ele><time>2023-01-06T10:19:35Z</time><name>PT661</name></trkpt>
<trkpt lat="53.011228" lon="-3.227540"><ele>563</ele><time>2023-01-06T10:19:38Z</time><name>PT662</name></trkpt>
<trkpt lat="53.011187" lon="-3.227577"><ele>562</ele><time>2023-01-06T10:19:42Z</time><name>PT663</name></trkpt>
<trkpt lat="53.011146" lon="-3.227613"><ele>561</ele><time>2023-01-06T10:19:46Z</time><name>PT664</name></trkpt>
<trkpt lat="53.011116" lon="-3.227637"><ele>561</ele><time>2023-01-06T10:19:49Z</time><name>PT665</name></trkpt>
<trkpt lat="53.011076" lon="-3.227675"><ele>561</ele><time>2023-01-06T10:19:53Z</time><name>PT666</name></trkpt>
<trkpt lat="53.011035" lon="-3.227718"><ele>560</ele><time>2023-01-06T10:19:57Z</time><name>PT667</name></trkpt>
<trkpt lat="53.011006" lon="-3.227747"><ele>560</ele><time>2023-01-06T10:20:00Z</time><name>PT668</name></trkpt>
<trkpt lat="53.010965" lon="-3.227793"><ele>560</ele><time>2023-01-06T10:20:04Z</time><name>PT669</name></trkpt>
<trkpt lat="53.010935" lon="-3.227820"><ele>561</ele><time>2023-01-06T10:20:07Z</time><name>PT670</name></trkpt>
<trkpt lat="53.010904" lon="-3.227842"><ele>560</ele><time>2023-01-06T10:20:10Z</time><name>PT671</name></trkpt>
<trkpt lat="53.010857" lon="-3.227866"><ele>560</ele><time>2023-01-06T10:20:14Z</time><name>PT672</name></trkpt>
<trkpt lat="53.010823" lon="-3.227892"><ele>561</ele><time>2023-01-06T10:20:17Z</time><name>PT673</name></trkpt>
<trkpt lat="53.010793" lon="-3.227916"><ele>562</ele><time>2023-01-06T10:20:20Z</time><name>PT674</name></trkpt>
<trkpt lat="53.010751" lon="-3.227930"><ele>562</ele><time>2023-01-06T10:20:24Z</time><name>PT675</name></trkpt>
<trkpt lat="53.010711" lon="-3.227949"><ele>562</ele><time>2023-01-06T10:20:28Z</time><name>PT676</name></trkpt>
<trkpt lat="53.010681" lon="-3.227974"><ele>563</ele><time>2023-01-06T10:20:31Z</time><name>PT677</name></trkpt>
<trkpt lat="53.010640" lon="-3.228002"><ele>563</ele><time>2023-01-06T10:20:35Z</time><name>PT678</name></trkpt>
<trkpt lat="53.010607" lon="-3.228025"><ele>565</ele><time>2023-01-06T10:20:38Z</time><name>PT679</name></trkpt>
<trkpt lat="53.010582" lon="-3.228044"><ele>565</ele><time>2023-01-06T10:20:41Z</time><name>PT680</name></trkpt>
<trkpt lat="53.010554" lon="-3.228062"><ele>566</ele><time>2023-01-06T10:20:45Z</time><name>PT681</name></trkpt>
<trkpt lat="53.010528" lon="-3.228081"><ele>566</ele><time>2023-01-06T10:20:48Z</time><name>PT682</name></trkpt>
<trkpt lat="53.010499" lon="-3.228097"><ele>567</ele><time>2023-01-06T10:20:51Z</time><name>PT683</name></trkpt>
<trkpt lat="53.010471" lon="-3.228117"><ele>567</ele><time>2023-01-06T10:20:54Z</time><name>PT684</name></trkpt>
<trkpt lat="53.010445" lon="-3.228134"><ele>567</ele><time>2023-01-06T10:20:57Z</time><name>PT685</name></trkpt>
<trkpt lat="53.010404" lon="-3.228170"><ele>567</ele><time>2023-01-06T10:21:01Z</time><name>PT686</name></trkpt>
<trkpt lat="53.010369" lon="-3.228195"><ele>567</ele><time>2023-01-06T10:21:05Z</time><name>PT687</name></trkpt>
<trkpt lat="53.010330" lon="-3.228220"><ele>567</ele><time>2023-01-06T10:21:09Z</time><name>PT688</name></trkpt>
<trkpt lat="53.010300" lon="-3.228239"><ele>567</ele><time>2023-01-06T10:21:12Z</time><name>PT689</name></trkpt>
<trkpt lat="53.010272" lon="-3.228255"><ele>568</ele><time>2023-01-06T10:21:15Z</time><name>PT690</name></trkpt>
<trkpt lat="53.010229" lon="-3.228285"><ele>569</ele><time>2023-01-06T10:21:19Z</time><name>PT691</name></trkpt>
<trkpt lat="53.010189" lon="-3.228317"><ele>569</ele><time>2023-01-06T10:21:23Z</time><name>PT692</name></trkpt>
<trkpt lat="53.010159" lon="-3.228339"><ele>569</ele><time>2023-01-06T10:21:26Z</time><name>PT693</name></trkpt>
<trkpt lat="53.010131" lon="-3.228367"><ele>570</ele><time>2023-01-06T10:21:29Z</time><name>PT694</name></trkpt>
<trkpt lat="53.010105" lon="-3.228389"><ele>570</ele><time>2023-01-06T10:21:32Z</time><name>PT695</name></trkpt>
<trkpt lat="53.010083" lon="-3.228405"><ele>570</ele><time>2023-01-06T10:21:35Z</time><name>PT696</name></trkpt>
<trkpt lat="53.010053" lon="-3.228427"><ele>570</ele><time>2023-01-06T10:21:39Z</time><name>PT697</name></trkpt>
<trkpt lat="53.010026" lon="-3.228447"><ele>572</ele><time>2023-01-06T10:21:43Z</time><name>PT698</name></trkpt>
<trkpt lat="53.010004" lon="-3.228466"><ele>572</ele><time>2023-01-06T10:21:47Z</time><name>PT699</name></trkpt>
<trkpt lat="53.009988" lon="-3.228478"><ele>573</ele><time>2023-01-06T10:21:50Z</time><name>PT700</name></trkpt>
<trkpt lat="53.009967" lon="-3.228492"><ele>574</ele><time>2023-01-06T10:21:54Z</time><name>PT701</name></trkpt>
<trkpt lat="53.009952" lon="-3.228510"><ele>575</ele><time>2023-01-06T10:21:57Z</time><name>PT702</name></trkpt>
<trkpt lat="53.009935" lon="-3.228536"><ele>575</ele><time>2023-01-06T10:22:00Z</time><name>PT703</name></trkpt>
<trkpt lat="53.009911" lon="-3.228582"><ele>576</ele><time>2023-01-06T10:22:04Z</time><name>PT704</name></trkpt>
<trkpt lat="53.009893" lon="-3.228605"><ele>576</ele><time>2023-01-06T10:22:07Z</time><name>PT705</name></trkpt>
<trkpt lat="53.009870" lon="-3.228630"><ele>577</ele><time>2023-01-06T10:22:10Z</time><name>PT706</name></trkpt>
<trkpt lat="53.009835" lon="-3.228668"><ele>577</ele><time>2023-01-06T10:22:14Z</time><name>PT707</name></trkpt>
<trkpt lat="53.009811" lon="-3.228701"><ele>578</ele><time>2023-01-06T10:22:17Z</time><name>PT708</name></trkpt>
<trkpt lat="53.009775" lon="-3.228747"><ele>578</ele><time>2023-01-06T10:22:21Z</time><name>PT709</name></trkpt>
<trkpt lat="53.009743" lon="-3.228794"><ele>579</ele><time>2023-01-06T10:22:25Z</time><name>PT710</name></trkpt>
<trkpt lat="53.009715" lon="-3.228828"><ele>579</ele><time>2023-01-06T10:22:28Z</time><name>PT711</name></trkpt>
<trkpt lat="53.009683" lon="-3.228864"><ele>579</ele><time>2023-01-06T10:22:32Z</time><name>PT712</name></trkpt>
<trkpt lat="53.009654" lon="-3.228899"><ele>580</ele><time>2023-01-06T10:22:36Z</time><name>PT713</name></trkpt>
<trkpt lat="53.009638" lon="-3.228922"><ele>581</ele><time>2023-01-06T10:22:39Z</time><name>PT714</name></trkpt>
<trkpt lat="53.009627" lon="-3.228939"><ele>581</ele><time>2023-01-06T10:22:42Z</time><name>PT715</name></trkpt>
<trkpt lat="53.009619" lon="-3.228958"><ele>581</ele><time>2023-01-06T10:22:46Z</time><name>PT716</name></trkpt>
<trkpt lat="53.009619" lon="-3.228966"><ele>581</ele><time>2023-01-06T10:22:52Z</time><name>PT717</name></trkpt>
<trkpt lat="53.009615" lon="-3.228969"><ele>581</ele><time>2023-01-06T10:22:56Z</time><name>PT718</name></trkpt>
<trkpt lat="53.009609" lon="-3.228979"><ele>581</ele><time>2023-01-06T10:23:06Z</time><name>PT719</name></trkpt>
<trkpt lat="53.009604" lon="-3.228976"><ele>582</ele><time>2023-01-06T10:23:10Z</time><name>PT720</name></trkpt>
<trkpt lat="53.009608" lon="-3.228980"><ele>582</ele><time>2023-01-06T10:23:13Z</time><name>PT721</name></trkpt>
<trkpt lat="53.009604" lon="-3.228981"><ele>582</ele><time>2023-01-06T10:23:17Z</time><name>PT722</name></trkpt>
<trkpt lat="53.009608" lon="-3.228981"><ele>581</ele><time>2023-01-06T10:24:09Z</time><name>PT723</name></trkpt>
<trkpt lat="53.009608" lon="-3.228987"><ele>581</ele><time>2023-01-06T10:24:42Z</time><name>PT724</name></trkpt>
<trkpt lat="53.009604" lon="-3.228989"><ele>581</ele><time>2023-01-06T10:25:25Z</time><name>PT725</name></trkpt>
<trkpt lat="53.009605" lon="-3.228993"><ele>581</ele><time>2023-01-06T10:25:29Z</time><name>PT726</name></trkpt>
<trkpt lat="53.009603" lon="-3.228994"><ele>581</ele><time>2023-01-06T10:25:32Z</time><name>PT727</name></trkpt>
<trkpt lat="53.009606" lon="-3.228980"><ele>581</ele><time>2023-01-06T10:26:01Z</time><name>PT728</name></trkpt>
<trkpt lat="53.009603" lon="-3.228986"><ele>582</ele><time>2023-01-06T10:26:05Z</time><name>PT729</name></trkpt>
<trkpt lat="53.009597" lon="-3.228996"><ele>582</ele><time>2023-01-06T10:26:08Z</time><name>PT730</name></trkpt>
<trkpt lat="53.009598" lon="-3.228994"><ele>582</ele><time>2023-01-06T10:26:12Z</time><name>PT731</name></trkpt>
<trkpt lat="53.009598" lon="-3.228998"><ele>582</ele><time>2023-01-06T10:26:18Z</time><name>PT732</name></trkpt>
<trkpt lat="53.009598" lon="-3.229000"><ele>582</ele><time>2023-01-06T10:26:22Z</time><name>PT733</name></trkpt>
<trkpt lat="53.009596" lon="-3.229000"><ele>582</ele><time>2023-01-06T10:26:36Z</time><name>PT734</name></trkpt>
<trkpt lat="53.009596" lon="-3.228999"><ele>582</ele><time>2023-01-06T10:26:40Z</time><name>PT735</name></trkpt>
<trkpt lat="53.009596" lon="-3.228999"><ele>582</ele><time>2023-01-06T10:28:27Z</time><name>PT736</name></trkpt>
<trkpt lat="53.009596" lon="-3.228996"><ele>582</ele><time>2023-01-06T10:28:31Z</time><name>PT737</name></trkpt>
<trkpt lat="53.009588" lon="-3.229017"><ele>583</ele><time>2023-01-06T10:28:54Z</time><name>PT738</name></trkpt>
<trkpt lat="53.009586" lon="-3.229031"><ele>582</ele><time>2023-01-06T10:28:57Z</time><name>PT739</name></trkpt>
<trkpt lat="53.009584" lon="-3.229029"><ele>583</ele><time>2023-01-06T10:29:00Z</time><name>PT740</name></trkpt>
<trkpt lat="53.009589" lon="-3.229063"><ele>583</ele><time>2023-01-06T10:29:50Z</time><name>PT741</name></trkpt>
<trkpt lat="53.009579" lon="-3.229213"><ele>581</ele><time>2023-01-06T10:29:54Z</time><name>PT742</name></trkpt>
<trkpt lat="53.009567" lon="-3.229297"><ele>579</ele><time>2023-01-06T10:29:57Z</time><name>PT743</name></trkpt>
<trkpt lat="53.009559" lon="-3.229404"><ele>577</ele><time>2023-01-06T10:30:01Z</time><name>PT744</name></trkpt>
<trkpt lat="53.009554" lon="-3.229460"><ele>576</ele><time>2023-01-06T10:30:04Z</time><name>PT745</name></trkpt>
<trkpt lat="53.009558" lon="-3.229544"><ele>575</ele><time>2023-01-06T10:30:08Z</time><name>PT746</name></trkpt>
<trkpt lat="53.009560" lon="-3.229611"><ele>574</ele><time>2023-01-06T10:30:11Z</time><name>PT747</name></trkpt>
<trkpt lat="53.009571" lon="-3.229683"><ele>574</ele><time>2023-01-06T10:30:15Z</time><name>PT748</name></trkpt>
<trkpt lat="53.009580" lon="-3.229734"><ele>573</ele><time>2023-01-06T10:30:18Z</time><name>PT749</name></trkpt>
<trkpt lat="53.009590" lon="-3.229800"><ele>572</ele><time>2023-01-06T10:30:22Z</time><name>PT750</name></trkpt>
<trkpt lat="53.009595" lon="-3.229872"><ele>570</ele><time>2023-01-06T10:30:26Z</time><name>PT751</name></trkpt>
<trkpt lat="53.009598" lon="-3.229920"><ele>570</ele><time>2023-01-06T10:30:29Z</time><name>PT752</name></trkpt>
<trkpt lat="53.009603" lon="-3.229985"><ele>569</ele><time>2023-01-06T10:30:33Z</time><name>PT753</name></trkpt>
<trkpt lat="53.009604" lon="-3.230030"><ele>568</ele><time>2023-01-06T10:30:36Z</time><name>PT754</name></trkpt>
<trkpt lat="53.009606" lon="-3.230087"><ele>567</ele><time>2023-01-06T10:30:40Z</time><name>PT755</name></trkpt>
<trkpt lat="53.009609" lon="-3.230130"><ele>567</ele><time>2023-01-06T10:30:43Z</time><name>PT756</name></trkpt>
<trkpt lat="53.009608" lon="-3.230188"><ele>565</ele><time>2023-01-06T10:30:47Z</time><name>PT757</name></trkpt>
<trkpt lat="53.009609" lon="-3.230225"><ele>565</ele><time>2023-01-06T10:30:50Z</time><name>PT758</name></trkpt>
<trkpt lat="53.009613" lon="-3.230278"><ele>564</ele><time>2023-01-06T10:30:55Z</time><name>PT759</name></trkpt>
<trkpt lat="53.009618" lon="-3.230337"><ele>563</ele><time>2023-01-06T10:30:58Z</time><name>PT760</name></trkpt>
<trkpt lat="53.009616" lon="-3.230394"><ele>562</ele><time>2023-01-06T10:31:02Z</time><name>PT761</name></trkpt>
<trkpt lat="53.009610" lon="-3.230447"><ele>561</ele><time>2023-01-06T10:31:06Z</time><name>PT762</name></trkpt>
<trkpt lat="53.009604" lon="-3.230487"><ele>559</ele><time>2023-01-06T10:31:10Z</time><name>PT763</name></trkpt>
<trkpt lat="53.009599" lon="-3.230521"><ele>558</ele><time>2023-01-06T10:31:13Z</time><name>PT764</name></trkpt>
<trkpt lat="53.009598" lon="-3.230552"><ele>557</ele><time>2023-01-06T10:31:16Z</time><name>PT765</name></trkpt>
<trkpt lat="53.009595" lon="-3.230579"><ele>556</ele><time>2023-01-06T10:31:19Z</time><name>PT766</name></trkpt>
<trkpt lat="53.009595" lon="-3.230615"><ele>555</ele><time>2023-01-06T10:31:23Z</time><name>PT767</name></trkpt>
<trkpt lat="53.009597" lon="-3.230649"><ele>555</ele><time>2023-01-06T10:31:27Z</time><name>PT768</name></trkpt>
<trkpt lat="53.009600" lon="-3.230688"><ele>555</ele><time>2023-01-06T10:31:31Z</time><name>PT769</name></trkpt>
<trkpt lat="53.009601" lon="-3.230730"><ele>554</ele><time>2023-01-06T10:31:35Z</time><name>PT770</name></trkpt>
<trkpt lat="53.009603" lon="-3.230760"><ele>553</ele><time>2023-01-06T10:31:38Z</time><name>PT771</name></trkpt>
<trkpt lat="53.009606" lon="-3.230800"><ele>552</ele><time>2023-01-06T10:31:42Z</time><name>PT772</name></trkpt>
<trkpt lat="53.009610" lon="-3.230833"><ele>552</ele><time>2023-01-06T10:31:45Z</time><name>PT773</name></trkpt>
<trkpt lat="53.009611" lon="-3.230881"><ele>551</ele><time>2023-01-06T10:31:49Z</time><name>PT774</name></trkpt>
<trkpt lat="53.009606" lon="-3.230937"><ele>550</ele><time>2023-01-06T10:31:53Z</time><name>PT775</name></trkpt>
<trkpt lat="53.009610" lon="-3.230974"><ele>549</ele><time>2023-01-06T10:31:56Z</time><name>PT776</name></trkpt>
<trkpt lat="53.009609" lon="-3.231025"><ele>548</ele><time>2023-01-06T10:32:00Z</time><name>PT777</name></trkpt>
<trkpt lat="53.009608" lon="-3.231070"><ele>548</ele><time>2023-01-06T10:32:03Z</time><name>PT778</name></trkpt>
<trkpt lat="53.009606" lon="-3.231124"><ele>547</ele><time>2023-01-06T10:32:07Z</time><name>PT779</name></trkpt>
<trkpt lat="53.009608" lon="-3.231172"><ele>546</ele><time>2023-01-06T10:32:11Z</time><name>PT780</name></trkpt>
<trkpt lat="53.009602" lon="-3.231207"><ele>545</ele><time>2023-01-06T10:32:14Z</time><name>PT781</name></trkpt>
<trkpt lat="53.009592" lon="-3.231262"><ele>544</ele><time>2023-01-06T10:32:18Z</time><name>PT782</name></trkpt>
<trkpt lat="53.009590" lon="-3.231297"><ele>543</ele><time>2023-01-06T10:32:21Z</time><name>PT783</name></trkpt>
<trkpt lat="53.009593" lon="-3.231342"><ele>543</ele><time>2023-01-06T10:32:25Z</time><name>PT784</name></trkpt>
<trkpt lat="53.009583" lon="-3.231395"><ele>542</ele><time>2023-01-06T10:32:29Z</time><name>PT785</name></trkpt>
<trkpt lat="53.009580" lon="-3.231441"><ele>540</ele><time>2023-01-06T10:32:32Z</time><name>PT786</name></trkpt>
<trkpt lat="53.009575" lon="-3.231480"><ele>539</ele><time>2023-01-06T10:32:35Z</time><name>PT787</name></trkpt>
<trkpt lat="53.009571" lon="-3.231538"><ele>539</ele><time>2023-01-06T10:32:39Z</time><name>PT788</name></trkpt>
<trkpt lat="53.009571" lon="-3.231600"><ele>538</ele><time>2023-01-06T10:32:43Z</time><name>PT789</name></trkpt>
<trkpt lat="53.009571" lon="-3.231657"><ele>537</ele><time>2023-01-06T10:32:47Z</time><name>PT790</name></trkpt>
<trkpt lat="53.009565" lon="-3.231709"><ele>536</ele><time>2023-01-06T10:32:51Z</time><name>PT791</name></trkpt>
<trkpt lat="53.009568" lon="-3.231759"><ele>535</ele><time>2023-01-06T10:32:55Z</time><name>PT792</name></trkpt>
<trkpt lat="53.009569" lon="-3.231796"><ele>534</ele><time>2023-01-06T10:32:58Z</time><name>PT793</name></trkpt>
<trkpt lat="53.009567" lon="-3.231838"><ele>533</ele><time>2023-01-06T10:33:01Z</time><name>PT794</name></trkpt>
<trkpt lat="53.009571" lon="-3.231888"><ele>532</ele><time>2023-01-06T10:33:05Z</time><name>PT795</name></trkpt>
<trkpt lat="53.009579" lon="-3.231918"><ele>532</ele><time>2023-01-06T10:33:08Z</time><name>PT796</name></trkpt>
<trkpt lat="53.009584" lon="-3.231942"><ele>531</ele><time>2023-01-06T10:33:11Z</time><name>PT797</name></trkpt>
<trkpt lat="53.009584" lon="-3.231974"><ele>530</ele><time>2023-01-06T10:33:22Z</time><name>PT798</name></trkpt>
<trkpt lat="53.009587" lon="-3.232010"><ele>529</ele><time>2023-01-06T10:33:25Z</time><name>PT799</name></trkpt>
<trkpt lat="53.009597" lon="-3.232058"><ele>528</ele><time>2023-01-06T10:33:29Z</time><name>PT800</name></trkpt>
<trkpt lat="53.009608" lon="-3.232080"><ele>528</ele><time>2023-01-06T10:33:32Z</time><name>PT801</name></trkpt>
<trkpt lat="53.009608" lon="-3.232142"><ele>527</ele><time>2023-01-06T10:33:36Z</time><name>PT802</name></trkpt>
<trkpt lat="53.009609" lon="-3.232192"><ele>526</ele><time>2023-01-06T10:33:39Z</time><name>PT803</name></trkpt>
<trkpt lat="53.009611" lon="-3.232252"><ele>525</ele><time>2023-01-06T10:33:43Z</time><name>PT804</name></trkpt>
<trkpt lat="53.009613" lon="-3.232289"><ele>525</ele><time>2023-01-06T10:33:46Z</time><name>PT805</name></trkpt>
<trkpt lat="53.009612" lon="-3.232325"><ele>523</ele><time>2023-01-06T10:33:49Z</time><name>PT806</name></trkpt>
<trkpt lat="53.009616" lon="-3.232363"><ele>523</ele><time>2023-01-06T10:33:52Z</time><name>PT807</name></trkpt>
<trkpt lat="53.009618" lon="-3.232413"><ele>522</ele><time>2023-01-06T10:33:56Z</time><name>PT808</name></trkpt>
<trkpt lat="53.009623" lon="-3.232462"><ele>521</ele><time>2023-01-06T10:34:00Z</time><name>PT809</name></trkpt>
<trkpt lat="53.009625" lon="-3.232503"><ele>520</ele><time>2023-01-06T10:34:03Z</time><name>PT810</name></trkpt>
<trkpt lat="53.009642" lon="-3.232538"><ele>520</ele><time>2023-01-06T10:34:07Z</time><name>PT811</name></trkpt>
<trkpt lat="53.009659" lon="-3.232573"><ele>519</ele><time>2023-01-06T10:34:11Z</time><name>PT812</name></trkpt>
<trkpt lat="53.009660" lon="-3.232624"><ele>518</ele><time>2023-01-06T10:34:15Z</time><name>PT813</name></trkpt>
<trkpt lat="53.009657" lon="-3.232675"><ele>517</ele><time>2023-01-06T10:34:19Z</time><name>PT814</name></trkpt>
<trkpt lat="53.009660" lon="-3.232725"><ele>516</ele><time>2023-01-06T10:34:23Z</time><name>PT815</name></trkpt>
<trkpt lat="53.009663" lon="-3.232779"><ele>514</ele><time>2023-01-06T10:34:27Z</time><name>PT816</name></trkpt>
<trkpt lat="53.009654" lon="-3.232834"><ele>513</ele><time>2023-01-06T10:34:31Z</time><name>PT817</name></trkpt>
<trkpt lat="53.009661" lon="-3.232873"><ele>513</ele><time>2023-01-06T10:34:34Z</time><name>PT818</name></trkpt>
<trkpt lat="53.009664" lon="-3.232925"><ele>512</ele><time>2023-01-06T10:34:38Z</time><name>PT819</name></trkpt>
<trkpt lat="53.009664" lon="-3.232971"><ele>511</ele><time>2023-01-06T10:34:41Z</time><name>PT820</name></trkpt>
<trkpt lat="53.009664" lon="-3.233036"><ele>509</ele><time>2023-01-06T10:34:45Z</time><name>PT821</name></trkpt>
<trkpt lat="53.009665" lon="-3.233092"><ele>508</ele><time>2023-01-06T10:34:48Z</time><name>PT822</name></trkpt>
<trkpt lat="53.009667" lon="-3.233140"><ele>508</ele><time>2023-01-06T10:34:51Z</time><name>PT823</name></trkpt>
<trkpt lat="53.009666" lon="-3.233188"><ele>507</ele><time>2023-01-06T10:34:54Z</time><name>PT824</name></trkpt>
<trkpt lat="53.009669" lon="-3.233243"><ele>506</ele><time>2023-01-06T10:34:58Z</time><name>PT825</name></trkpt>
<trkpt lat="53.009672" lon="-3.233293"><ele>505</ele><time>2023-01-06T10:35:02Z</time><name>PT826</name></trkpt>
<trkpt lat="53.009670" lon="-3.233345"><ele>504</ele><time>2023-01-06T10:35:06Z</time><name>PT827</name></trkpt>
<trkpt lat="53.009679" lon="-3.233402"><ele>502</ele><time>2023-01-06T10:35:10Z</time><name>PT828</name></trkpt>
<trkpt lat="53.009682" lon="-3.233450"><ele>502</ele><time>2023-01-06T10:35:14Z</time><name>PT829</name></trkpt>
<trkpt lat="53.009687" lon="-3.233484"><ele>501</ele><time>2023-01-06T10:35:18Z</time><name>PT830</name></trkpt>
<trkpt lat="53.009690" lon="-3.233526"><ele>500</ele><time>2023-01-06T10:35:22Z</time><name>PT831</name></trkpt>
<trkpt lat="53.009697" lon="-3.233555"><ele>500</ele><time>2023-01-06T10:35:25Z</time><name>PT832</name></trkpt>
<trkpt lat="53.009696" lon="-3.233588"><ele>498</ele><time>2023-01-06T10:35:29Z</time><name>PT833</name></trkpt>
<trkpt lat="53.009693" lon="-3.233633"><ele>497</ele><time>2023-01-06T10:35:33Z</time><name>PT834</name></trkpt>
<trkpt lat="53.009692" lon="-3.233658"><ele>497</ele><time>2023-01-06T10:35:36Z</time><name>PT835</name></trkpt>
<trkpt lat="53.009696" lon="-3.233693"><ele>495</ele><time>2023-01-06T10:35:40Z</time><name>PT836</name></trkpt>
<trkpt lat="53.009691" lon="-3.233730"><ele>494</ele><time>2023-01-06T10:35:44Z</time><name>PT837</name></trkpt>
<trkpt lat="53.009688" lon="-3.233765"><ele>493</ele><time>2023-01-06T10:35:48Z</time><name>PT838</name></trkpt>
<trkpt lat="53.009697" lon="-3.233798"><ele>492</ele><time>2023-01-06T10:35:51Z</time><name>PT839</name></trkpt>
<trkpt lat="53.009696" lon="-3.233836"><ele>490</ele><time>2023-01-06T10:35:55Z</time><name>PT840</name></trkpt>
<trkpt lat="53.009695" lon="-3.233877"><ele>489</ele><time>2023-01-06T10:35:59Z</time><name>PT841</name></trkpt>
<trkpt lat="53.009692" lon="-3.233910"><ele>488</ele><time>2023-01-06T10:36:02Z</time><name>PT842</name></trkpt>
<trkpt lat="53.009686" lon="-3.233957"><ele>487</ele><time>2023-01-06T10:36:06Z</time><name>PT843</name></trkpt>
<trkpt lat="53.009685" lon="-3.233993"><ele>486</ele><time>2023-01-06T10:36:09Z</time><name>PT844</name></trkpt>
<trkpt lat="53.009694" lon="-3.234052"><ele>485</ele><time>2023-01-06T10:36:13Z</time><name>PT845</name></trkpt>
<trkpt lat="53.009701" lon="-3.234109"><ele>485</ele><time>2023-01-06T10:36:16Z</time><name>PT846</name></trkpt>
<trkpt lat="53.009704" lon="-3.234172"><ele>484</ele><time>2023-01-06T10:36:20Z</time><name>PT847</name></trkpt>
<trkpt lat="53.009708" lon="-3.234220"><ele>484</ele><time>2023-01-06T10:36:24Z</time><name>PT848</name></trkpt>
<trkpt lat="53.009703" lon="-3.234271"><ele>483</ele><time>2023-01-06T10:36:28Z</time><name>PT849</name></trkpt>
<trkpt lat="53.009705" lon="-3.234308"><ele>481</ele><time>2023-01-06T10:36:32Z</time><name>PT850</name></trkpt>
<trkpt lat="53.009699" lon="-3.234329"><ele>481</ele><time>2023-01-06T10:36:35Z</time><name>PT851</name></trkpt>
<trkpt lat="53.009692" lon="-3.234356"><ele>480</ele><time>2023-01-06T10:36:39Z</time><name>PT852</name></trkpt>
<trkpt lat="53.009693" lon="-3.234394"><ele>478</ele><time>2023-01-06T10:36:43Z</time><name>PT853</name></trkpt>
<trkpt lat="53.009690" lon="-3.234426"><ele>478</ele><time>2023-01-06T10:36:46Z</time><name>PT854</name></trkpt>
<trkpt lat="53.009688" lon="-3.234454"><ele>477</ele><time>2023-01-06T10:36:49Z</time><name>PT855</name></trkpt>
<trkpt lat="53.009688" lon="-3.234480"><ele>477</ele><time>2023-01-06T10:36:52Z</time><name>PT856</name></trkpt>
<trkpt lat="53.009683" lon="-3.234512"><ele>477</ele><time>2023-01-06T10:36:55Z</time><name>PT857</name></trkpt>
<trkpt lat="53.009690" lon="-3.234544"><ele>476</ele><time>2023-01-06T10:36:59Z</time><name>PT858</name></trkpt>
<trkpt lat="53.009687" lon="-3.234560"><ele>476</ele><time>2023-01-06T10:37:03Z</time><name>PT859</name></trkpt>
<trkpt lat="53.009675" lon="-3.234588"><ele>475</ele><time>2023-01-06T10:37:14Z</time><name>PT860</name></trkpt>
<trkpt lat="53.009679" lon="-3.234624"><ele>474</ele><time>2023-01-06T10:37:17Z</time><name>PT861</name></trkpt>
<trkpt lat="53.009673" lon="-3.234668"><ele>472</ele><time>2023-01-06T10:37:21Z</time><name>PT862</name></trkpt>
<trkpt lat="53.009665" lon="-3.234698"><ele>471</ele><time>2023-01-06T10:37:24Z</time><name>PT863</name></trkpt>
<trkpt lat="53.009661" lon="-3.234728"><ele>471</ele><time>2023-01-06T10:37:27Z</time><name>PT864</name></trkpt>
<trkpt lat="53.009662" lon="-3.234774"><ele>469</ele><time>2023-01-06T10:37:31Z</time><name>PT865</name></trkpt>
<trkpt lat="53.009670" lon="-3.234806"><ele>468</ele><time>2023-01-06T10:37:34Z</time><name>PT866</name></trkpt>
<trkpt lat="53.009669" lon="-3.234849"><ele>467</ele><time>2023-01-06T10:37:38Z</time><name>PT867</name></trkpt>
<trkpt lat="53.009656" lon="-3.234897"><ele>466</ele><time>2023-01-06T10:37:42Z</time><name>PT868</name></trkpt>
<trkpt lat="53.009648" lon="-3.234928"><ele>465</ele><time>2023-01-06T10:37:45Z</time><name>PT869</name></trkpt>
<trkpt lat="53.009646" lon="-3.234963"><ele>464</ele><time>2023-01-06T10:37:48Z</time><name>PT870</name></trkpt>
<trkpt lat="53.009645" lon="-3.234997"><ele>463</ele><time>2023-01-06T10:37:51Z</time><name>PT871</name></trkpt>
<trkpt lat="53.009637" lon="-3.235046"><ele>461</ele><time>2023-01-06T10:37:55Z</time><name>PT872</name></trkpt>
<trkpt lat="53.009638" lon="-3.235078"><ele>461</ele><time>2023-01-06T10:37:58Z</time><name>PT873</name></trkpt>
<trkpt lat="53.009627" lon="-3.235125"><ele>460</ele><time>2023-01-06T10:38:02Z</time><name>PT874</name></trkpt>
<trkpt lat="53.009621" lon="-3.235171"><ele>459</ele><time>2023-01-06T10:38:06Z</time><name>PT875</name></trkpt>
<trkpt lat="53.009625" lon="-3.235220"><ele>458</ele><time>2023-01-06T10:38:10Z</time><name>PT876</name></trkpt>
<trkpt lat="53.009622" lon="-3.235257"><ele>458</ele><time>2023-01-06T10:38:13Z</time><name>PT877</name></trkpt>
<trkpt lat="53.009617" lon="-3.235312"><ele>456</ele><time>2023-01-06T10:38:17Z</time><name>PT878</name></trkpt>
<trkpt lat="53.009606" lon="-3.235368"><ele>454</ele><time>2023-01-06T10:38:21Z</time><name>PT879</name></trkpt>
<trkpt lat="53.009599" lon="-3.235407"><ele>453</ele><time>2023-01-06T10:38:24Z</time><name>PT880</name></trkpt>
<trkpt lat="53.009596" lon="-3.235445"><ele>452</ele><time>2023-01-06T10:38:27Z</time><name>PT881</name></trkpt>
<trkpt lat="53.009595" lon="-3.235499"><ele>451</ele><time>2023-01-06T10:38:31Z</time><name>PT882</name></trkpt>
<trkpt lat="53.009594" lon="-3.235544"><ele>450</ele><time>2023-01-06T10:38:35Z</time><name>PT883</name></trkpt>
<trkpt lat="53.009594" lon="-3.235598"><ele>450</ele><time>2023-01-06T10:38:39Z</time><name>PT884</name></trkpt>
<trkpt lat="53.009591" lon="-3.235634"><ele>449</ele><time>2023-01-06T10:38:42Z</time><name>PT885</name></trkpt>
<trkpt lat="53.009583" lon="-3.235674"><ele>449</ele><time>2023-01-06T10:38:45Z</time><name>PT886</name></trkpt>
<trkpt lat="53.009572" lon="-3.235740"><ele>448</ele><time>2023-01-06T10:38:49Z</time><name>PT887</name></trkpt>
<trkpt lat="53.009566" lon="-3.235796"><ele>448</ele><time>2023-01-06T10:38:52Z</time><name>PT888</name></trkpt>
<trkpt lat="53.009563" lon="-3.235859"><ele>446</ele><time>2023-01-06T10:38:56Z</time><name>PT889</name></trkpt>
<trkpt lat="53.009560" lon="-3.235932"><ele>445</ele><time>2023-01-06T10:39:00Z</time><name>PT890</name></trkpt>
<trkpt lat="53.009562" lon="-3.235994"><ele>444</ele><time>2023-01-06T10:39:04Z</time><name>PT891</name></trkpt>
<trkpt lat="53.009563" lon="-3.236058"><ele>443</ele><time>2023-01-06T10:39:08Z</time><name>PT892</name></trkpt>
<trkpt lat="53.009567" lon="-3.236105"><ele>442</ele><time>2023-01-06T10:39:11Z</time><name>PT893</name></trkpt>
<trkpt lat="53.009574" lon="-3.236183"><ele>442</ele><time>2023-01-06T10:39:15Z</time><name>PT894</name></trkpt>
<trkpt lat="53.009580" lon="-3.236238"><ele>441</ele><time>2023-01-06T10:39:18Z</time><name>PT895</name></trkpt>
<trkpt lat="53.009583" lon="-3.236311"><ele>440</ele><time>2023-01-06T10:39:22Z</time><name>PT896</name></trkpt>
<trkpt lat="53.009584" lon="-3.236389"><ele>439</ele><time>2023-01-06T10:39:26Z</time><name>PT897</name></trkpt>
<trkpt lat="53.009586" lon="-3.236442"><ele>438</ele><time>2023-01-06T10:39:29Z</time><name>PT898</name></trkpt>
<trkpt lat="53.009586" lon="-3.236504"><ele>438</ele><time>2023-01-06T10:39:32Z</time><name>PT899</name></trkpt>
<trkpt lat="53.009579" lon="-3.236584"><ele>438</ele><time>2023-01-06T10:39:36Z</time><name>PT900</name></trkpt>
<trkpt lat="53.009567" lon="-3.236641"><ele>437</ele><time>2023-01-06T10:39:39Z</time><name>PT901</name></trkpt>
<trkpt lat="53.009555" lon="-3.236697"><ele>437</ele><time>2023-01-06T10:39:42Z</time><name>PT902</name></trkpt>
<trkpt lat="53.009535" lon="-3.236770"><ele>437</ele><time>2023-01-06T10:39:46Z</time><name>PT903</name></trkpt>
<trkpt lat="53.009516" lon="-3.236842"><ele>437</ele><time>2023-01-06T10:39:50Z</time><name>PT904</name></trkpt>
<trkpt lat="53.009499" lon="-3.236895"><ele>436</ele><time>2023-01-06T10:39:53Z</time><name>PT905</name></trkpt>
<trkpt lat="53.009488" lon="-3.236935"><ele>436</ele><time>2023-01-06T10:39:56Z</time><name>PT906</name></trkpt>
<trkpt lat="53.009475" lon="-3.236996"><ele>436</ele><time>2023-01-06T10:40:00Z</time><name>PT907</name></trkpt>
<trkpt lat="53.009458" lon="-3.237049"><ele>436</ele><time>2023-01-06T10:40:03Z</time><name>PT908</name></trkpt>
<trkpt lat="53.009440" lon="-3.237101"><ele>437</ele><time>2023-01-06T10:40:07Z</time><name>PT909</name></trkpt>
<trkpt lat="53.009420" lon="-3.237164"><ele>436</ele><time>2023-01-06T10:40:11Z</time><name>PT910</name></trkpt>
<trkpt lat="53.009404" lon="-3.237206"><ele>436</ele><time>2023-01-06T10:40:14Z</time><name>PT911</name></trkpt>
<trkpt lat="53.009389" lon="-3.237254"><ele>437</ele><time>2023-01-06T10:40:17Z</time><name>PT912</name></trkpt>
<trkpt lat="53.009372" lon="-3.237301"><ele>436</ele><time>2023-01-06T10:40:20Z</time><name>PT913</name></trkpt>
<trkpt lat="53.009355" lon="-3.237368"><ele>436</ele><time>2023-01-06T10:40:24Z</time><name>PT914</name></trkpt>
<trkpt lat="53.009345" lon="-3.237417"><ele>436</ele><time>2023-01-06T10:40:27Z</time><name>PT915</name></trkpt>
<trkpt lat="53.009340" lon="-3.237488"><ele>437</ele><time>2023-01-06T10:40:31Z</time><name>PT916</name></trkpt>
<trkpt lat="53.009329" lon="-3.237556"><ele>438</ele><time>2023-01-06T10:40:35Z</time><name>PT917</name></trkpt>
<trkpt lat="53.009327" lon="-3.237609"><ele>438</ele><time>2023-01-06T10:40:38Z</time><name>PT918</name></trkpt>
<trkpt lat="53.009322" lon="-3.237654"><ele>438</ele><time>2023-01-06T10:40:41Z</time><name>PT919</name></trkpt>
<trkpt lat="53.009310" lon="-3.237721"><ele>438</ele><time>2023-01-06T10:40:45Z</time><name>PT920</name></trkpt>
<trkpt lat="53.009302" lon="-3.237790"><ele>439</ele><time>2023-01-06T10:40:49Z</time><name>PT921</name></trkpt>
<trkpt lat="53.009292" lon="-3.237840"><ele>441</ele><time>2023-01-06T10:40:52Z</time><name>PT922</name></trkpt>
<trkpt lat="53.009279" lon="-3.237903"><ele>441</ele><time>2023-01-06T10:40:56Z</time><name>PT923</name></trkpt>
<trkpt lat="53.009271" lon="-3.237961"><ele>442</ele><time>2023-01-06T10:40:59Z</time><name>PT924</name></trkpt>
<trkpt lat="53.009262" lon="-3.238017"><ele>443</ele><time>2023-01-06T10:41:02Z</time><name>PT925</name></trkpt>
<trkpt lat="53.009249" lon="-3.238079"><ele>444</ele><time>2023-01-06T10:41:06Z</time><name>PT926</name></trkpt>
<trkpt lat="53.009240" lon="-3.238119"><ele>443</ele><time>2023-01-06T10:41:09Z</time><name>PT927</name></trkpt>
<trkpt lat="53.009229" lon="-3.238168"><ele>443</ele><time>2023-01-06T10:41:12Z</time><name>PT928</name></trkpt>
<trkpt lat="53.009219" lon="-3.238230"><ele>445</ele><time>2023-01-06T10:41:16Z</time><name>PT929</name></trkpt>
<trkpt lat="53.009207" lon="-3.238292"><ele>446</ele><time>2023-01-06T10:41:20Z</time><name>PT930</name></trkpt>
<trkpt lat="53.009195" lon="-3.238348"><ele>447</ele><time>2023-01-06T10:41:24Z</time><name>PT931</name></trkpt>
<trkpt lat="53.009184" lon="-3.238402"><ele>447</ele><time>2023-01-06T10:41:28Z</time><name>PT932</name></trkpt>
<trkpt lat="53.009176" lon="-3.238447"><ele>448</ele><time>2023-01-06T10:41:31Z</time><name>PT933</name></trkpt>
<trkpt lat="53.009170" lon="-3.238486"><ele>448</ele><time>2023-01-06T10:41:34Z</time><name>PT934</name></trkpt>
<trkpt lat="53.009158" lon="-3.238535"><ele>448</ele><time>2023-01-06T10:41:38Z</time><name>PT935</name></trkpt>
<trkpt lat="53.009152" lon="-3.238575"><ele>449</ele><time>2023-01-06T10:41:41Z</time><name>PT936</name></trkpt>
<trkpt lat="53.009145" lon="-3.238618"><ele>450</ele><time>2023-01-06T10:41:44Z</time><name>PT937</name></trkpt>
<trkpt lat="53.009135" lon="-3.238672"><ele>451</ele><time>2023-01-06T10:41:48Z</time><name>PT938</name></trkpt>
<trkpt lat="53.009129" lon="-3.238715"><ele>452</ele><time>2023-01-06T10:41:51Z</time><name>PT939</name></trkpt>
<trkpt lat="53.009122" lon="-3.238774"><ele>453</ele><time>2023-01-06T10:41:55Z</time><name>PT940</name></trkpt>
<trkpt lat="53.009110" lon="-3.238821"><ele>453</ele><time>2023-01-06T10:41:59Z</time><name>PT941</name></trkpt>
<trkpt lat="53.009102" lon="-3.238860"><ele>454</ele><time>2023-01-06T10:42:02Z</time><name>PT942</name></trkpt>
<trkpt lat="53.009094" lon="-3.238918"><ele>454</ele><time>2023-01-06T10:42:06Z</time><name>PT943</name></trkpt>
<trkpt lat="53.009085" lon="-3.238955"><ele>455</ele><time>2023-01-06T10:42:10Z</time><name>PT944</name></trkpt>
<trkpt lat="53.009078" lon="-3.238997"><ele>455</ele><time>2023-01-06T10:42:14Z</time><name>PT945</name></trkpt>
<trkpt lat="53.009070" lon="-3.239049"><ele>455</ele><time>2023-01-06T10:42:18Z</time><name>PT946</name></trkpt>
<trkpt lat="53.009054" lon="-3.239082"><ele>456</ele><time>2023-01-06T10:42:21Z</time><name>PT947</name></trkpt>
<trkpt lat="53.009047" lon="-3.239125"><ele>457</ele><time>2023-01-06T10:42:24Z</time><name>PT948</name></trkpt>
<trkpt lat="53.009042" lon="-3.239162"><ele>457</ele><time>2023-01-06T10:42:27Z</time><name>PT949</name></trkpt>
<trkpt lat="53.009029" lon="-3.239206"><ele>458</ele><time>2023-01-06T10:42:31Z</time><name>PT950</name></trkpt>
<trkpt lat="53.009017" lon="-3.239249"><ele>458</ele><time>2023-01-06T10:42:35Z</time><name>PT951</name></trkpt>
<trkpt lat="53.009006" lon="-3.239294"><ele>459</ele><time>2023-01-06T10:42:39Z</time><name>PT952</name></trkpt>
<trkpt lat="53.008993" lon="-3.239335"><ele>459</ele><time>2023-01-06T10:42:43Z</time><name>PT953</name></trkpt>
<trkpt lat="53.008985" lon="-3.239372"><ele>461</ele><time>2023-01-06T10:42:46Z</time><name>PT954</name></trkpt>
<trkpt lat="53.008974" lon="-3.239406"><ele>462</ele><time>2023-01-06T10:42:49Z</time><name>PT955</name></trkpt>
<trkpt lat="53.008965" lon="-3.239449"><ele>463</ele><time>2023-01-06T10:42:53Z</time><name>PT956</name></trkpt>
<trkpt lat="53.008958" lon="-3.239466"><ele>464</ele><time>2023-01-06T10:42:56Z</time><name>PT957</name></trkpt>
<trkpt lat="53.008940" lon="-3.239497"><ele>465</ele><time>2023-01-06T10:43:00Z</time><name>PT958</name></trkpt>
<trkpt lat="53.008936" lon="-3.239528"><ele>466</ele><time>2023-01-06T10:43:03Z</time><name>PT959</name></trkpt>
<trkpt lat="53.008928" lon="-3.239556"><ele>467</ele><time>2023-01-06T10:43:06Z</time><name>PT960</name></trkpt>
<trkpt lat="53.008922" lon="-3.239598"><ele>468</ele><time>2023-01-06T10:43:10Z</time><name>PT961</name></trkpt>
<trkpt lat="53.008914" lon="-3.239624"><ele>468</ele><time>2023-01-06T10:43:13Z</time><name>PT962</name></trkpt>
<trkpt lat="53.008904" lon="-3.239658"><ele>468</ele><time>2023-01-06T10:43:17Z</time><name>PT963</name></trkpt>
<trkpt lat="53.008898" lon="-3.239671"><ele>469</ele><time>2023-01-06T10:43:21Z</time><name>PT964</name></trkpt>
<trkpt lat="53.008877" lon="-3.239691"><ele>470</ele><time>2023-01-06T10:43:28Z</time><name>PT965</name></trkpt>
<trkpt lat="53.008865" lon="-3.239735"><ele>471</ele><time>2023-01-06T10:43:32Z</time><name>PT966</name></trkpt>
<trkpt lat="53.008851" lon="-3.239779"><ele>472</ele><time>2023-01-06T10:43:36Z</time><name>PT967</name></trkpt>
<trkpt lat="53.008841" lon="-3.239803"><ele>472</ele><time>2023-01-06T10:43:39Z</time><name>PT968</name></trkpt>
<trkpt lat="53.008836" lon="-3.239840"><ele>473</ele><time>2023-01-06T10:43:42Z</time><name>PT969</name></trkpt>
<trkpt lat="53.008820" lon="-3.239873"><ele>474</ele><time>2023-01-06T10:43:46Z</time><name>PT970</name></trkpt>
<trkpt lat="53.008820" lon="-3.239907"><ele>474</ele><time>2023-01-06T10:43:50Z</time><name>PT971</name></trkpt>
<trkpt lat="53.008826" lon="-3.239920"><ele>475</ele><time>2023-01-06T10:43:54Z</time><name>PT972</name></trkpt>
<trkpt lat="53.008825" lon="-3.239918"><ele>474</ele><time>2023-01-06T10:43:57Z</time><name>PT973</name></trkpt>
<trkpt lat="53.008817" lon="-3.239936"><ele>474</ele><time>2023-01-06T10:44:00Z</time><name>PT974</name></trkpt>
<trkpt lat="53.008807" lon="-3.239985"><ele>475</ele><time>2023-01-06T10:44:04Z</time><name>PT975</name></trkpt>
<trkpt lat="53.008798" lon="-3.240017"><ele>476</ele><time>2023-01-06T10:44:07Z</time><name>PT976</name></trkpt>
<trkpt lat="53.008785" lon="-3.240066"><ele>477</ele><time>2023-01-06T10:44:11Z</time><name>PT977</name></trkpt>
<trkpt lat="53.008775" lon="-3.240115"><ele>477</ele><time>2023-01-06T10:44:15Z</time><name>PT978</name></trkpt>
<trkpt lat="53.008766" lon="-3.240154"><ele>478</ele><time>2023-01-06T10:44:18Z</time><name>PT979</name></trkpt>
<trkpt lat="53.008757" lon="-3.240194"><ele>478</ele><time>2023-01-06T10:44:21Z</time><name>PT980</name></trkpt>
<trkpt lat="53.008745" lon="-3.240251"><ele>479</ele><time>2023-01-06T10:44:25Z</time><name>PT981</name></trkpt>
<trkpt lat="53.008735" lon="-3.240290"><ele>479</ele><time>2023-01-06T10:44:28Z</time><name>PT982</name></trkpt>
<trkpt lat="53.008724" lon="-3.240341"><ele>480</ele><time>2023-01-06T10:44:32Z</time><name>PT983</name></trkpt>
<trkpt lat="53.008711" lon="-3.240396"><ele>480</ele><time>2023-01-06T10:44:36Z</time><name>PT984</name></trkpt>
<trkpt lat="53.008702" lon="-3.240438"><ele>481</ele><time>2023-01-06T10:44:39Z</time><name>PT985</name></trkpt>
<trkpt lat="53.008690" lon="-3.240489"><ele>481</ele><time>2023-01-06T10:44:43Z</time><name>PT986</name></trkpt>
<trkpt lat="53.008681" lon="-3.240541"><ele>482</ele><time>2023-01-06T10:44:47Z</time><name>PT987</name></trkpt>
<trkpt lat="53.008673" lon="-3.240581"><ele>482</ele><time>2023-01-06T10:44:50Z</time><name>PT988</name></trkpt>
<trkpt lat="53.008663" lon="-3.240635"><ele>482</ele><time>2023-01-06T10:44:54Z</time><name>PT989</name></trkpt>
<trkpt lat="53.008652" lon="-3.240675"><ele>483</ele><time>2023-01-06T10:44:57Z</time><name>PT990</name></trkpt>
<trkpt lat="53.008639" lon="-3.240735"><ele>484</ele><time>2023-01-06T10:45:01Z</time><name>PT991</name></trkpt>
<trkpt lat="53.008627" lon="-3.240790"><ele>484</ele><time>2023-01-06T10:45:05Z</time><name>PT992</name></trkpt>
<trkpt lat="53.008617" lon="-3.240838"><ele>485</ele><time>2023-01-06T10:45:08Z</time><name>PT993</name></trkpt>
<trkpt lat="53.008603" lon="-3.240884"><ele>486</ele><time>2023-01-06T10:45:11Z</time><name>PT994</name></trkpt>
<trkpt lat="53.008588" lon="-3.240933"><ele>486</ele><time>2023-01-06T10:45:15Z</time><name>PT995</name></trkpt>
<trkpt lat="53.008575" lon="-3.240967"><ele>487</ele><time>2023-01-06T10:45:18Z</time><name>PT996</name></trkpt>
<trkpt lat="53.008559" lon="-3.241012"><ele>488</ele><time>2023-01-06T10:45:22Z</time><name>PT997</name></trkpt>
<trkpt lat="53.008544" lon="-3.241048"><ele>488</ele><time>2023-01-06T10:45:25Z</time><name>PT998</name></trkpt>
<trkpt lat="53.008526" lon="-3.241092"><ele>488</ele><time>2023-01-06T10:45:28Z</time><name>PT999</name></trkpt>
<trkpt lat="53.008506" lon="-3.241149"><ele>489</ele><time>2023-01-06T10:45:32Z</time><name>PT1000</name></trkpt>
<trkpt lat="53.008486" lon="-3.241197"><ele>489</ele><time>2023-01-06T10:45:36Z</time><name>PT1001</name></trkpt>
<trkpt lat="53.008465" lon="-3.241249"><ele>490</ele><time>2023-01-06T10:45:40Z</time><name>PT1002</name></trkpt>
<trkpt lat="53.008452" lon="-3.241286"><ele>491</ele><time>2023-01-06T10:45:43Z</time><name>PT1003</name></trkpt>
<trkpt lat="53.008431" lon="-3.241342"><ele>492</ele><time>2023-01-06T10:45:47Z</time><name>PT1004</name></trkpt>
<trkpt lat="53.008417" lon="-3.241379"><ele>492</ele><time>2023-01-06T10:45:50Z</time><name>PT1005</name></trkpt>
<trkpt lat="53.008401" lon="-3.241414"><ele>493</ele><time>2023-01-06T10:45:53Z</time><name>PT1006</name></trkpt>
<trkpt lat="53.008385" lon="-3.241452"><ele>493</ele><time>2023-01-06T10:45:57Z</time><name>PT1007</name></trkpt>
<trkpt lat="53.008372" lon="-3.241482"><ele>493</ele><time>2023-01-06T10:46:00Z</time><name>PT1008</name></trkpt>
<trkpt lat="53.008357" lon="-3.241527"><ele>494</ele><time>2023-01-06T10:46:04Z</time><name>PT1009</name></trkpt>
<trkpt lat="53.008341" lon="-3.241569"><ele>494</ele><time>2023-01-06T10:46:08Z</time><name>PT1010</name></trkpt>
<trkpt lat="53.008327" lon="-3.241599"><ele>495</ele><time>2023-01-06T10:46:11Z</time><name>PT1011</name></trkpt>
<trkpt lat="53.008309" lon="-3.241630"><ele>495</ele><time>2023-01-06T10:46:14Z</time><name>PT1012</name></trkpt>
<trkpt lat="53.008284" lon="-3.241680"><ele>495</ele><time>2023-01-06T10:46:18Z</time><name>PT1013</name></trkpt>
<trkpt lat="53.008253" lon="-3.241724"><ele>495</ele><time>2023-01-06T10:46:22Z</time><name>PT1014</name></trkpt>
<trkpt lat="53.008233" lon="-3.241758"><ele>496</ele><time>2023-01-06T10:46:25Z</time><name>PT1015</name></trkpt>
<trkpt lat="53.008205" lon="-3.241805"><ele>496</ele><time>2023-01-06T10:46:29Z</time><name>PT1016</name></trkpt>
<trkpt lat="53.008188" lon="-3.241849"><ele>496</ele><time>2023-01-06T10:46:32Z</time><name>PT1017</name></trkpt>
<trkpt lat="53.008169" lon="-3.241917"><ele>497</ele><time>2023-01-06T10:46:36Z</time><name>PT1018</name></trkpt>
<trkpt lat="53.008162" lon="-3.241972"><ele>497</ele><time>2023-01-06T10:46:39Z</time><name>PT1019</name></trkpt>
<trkpt lat="53.008161" lon="-3.242021"><ele>497</ele><time>2023-01-06T10:46:42Z</time><name>PT1020</name></trkpt>
<trkpt lat="53.008162" lon="-3.242087"><ele>498</ele><time>2023-01-06T10:46:46Z</time><name>PT1021</name></trkpt>
<trkpt lat="53.008163" lon="-3.242143"><ele>499</ele><time>2023-01-06T10:46:49Z</time><name>PT1022</name></trkpt>
<trkpt lat="53.008159" lon="-3.242211"><ele>500</ele><time>2023-01-06T10:46:53Z</time><name>PT1023</name></trkpt>
<trkpt lat="53.008152" lon="-3.242264"><ele>500</ele><time>2023-01-06T10:46:56Z</time><name>PT1024</name></trkpt>
<trkpt lat="53.008139" lon="-3.242337"><ele>501</ele><time>2023-01-06T10:47:00Z</time><name>PT1025</name></trkpt>
<trkpt lat="53.008126" lon="-3.242409"><ele>501</ele><time>2023-01-06T10:47:04Z</time><name>PT1026</name></trkpt>
<trkpt lat="53.008114" lon="-3.242482"><ele>502</ele><time>2023-01-06T10:47:08Z</time><name>PT1027</name></trkpt>
<trkpt lat="53.008110" lon="-3.242536"><ele>503</ele><time>2023-01-06T10:47:11Z</time><name>PT1028</name></trkpt>
<trkpt lat="53.008109" lon="-3.242609"><ele>503</ele><time>2023-01-06T10:47:15Z</time><name>PT1029</name></trkpt>
<trkpt lat="53.008110" lon="-3.242665"><ele>504</ele><time>2023-01-06T10:47:18Z</time><name>PT1030</name></trkpt>
<trkpt lat="53.008112" lon="-3.242737"><ele>504</ele><time>2023-01-06T10:47:22Z</time><name>PT1031</name></trkpt>
<trkpt lat="53.008109" lon="-3.242807"><ele>505</ele><time>2023-01-06T10:47:26Z</time><name>PT1032</name></trkpt>
<trkpt lat="53.008102" lon="-3.242859"><ele>505</ele><time>2023-01-06T10:47:29Z</time><name>PT1033</name></trkpt>
<trkpt lat="53.008086" lon="-3.242926"><ele>506</ele><time>2023-01-06T10:47:33Z</time><name>PT1034</name></trkpt>
<trkpt lat="53.008069" lon="-3.242985"><ele>505</ele><time>2023-01-06T10:47:37Z</time><name>PT1035</name></trkpt>
<trkpt lat="53.008058" lon="-3.243032"><ele>505</ele><time>2023-01-06T10:47:40Z</time><name>PT1036</name></trkpt>
<trkpt lat="53.008039" lon="-3.243103"><ele>505</ele><time>2023-01-06T10:47:44Z</time><name>PT1037</name></trkpt>
<trkpt lat="53.008031" lon="-3.243159"><ele>505</ele><time>2023-01-06T10:47:47Z</time><name>PT1038</name></trkpt>
<trkpt lat="53.008020" lon="-3.243243"><ele>506</ele><time>2023-01-06T10:47:51Z</time><name>PT1039</name></trkpt>
<trkpt lat="53.008021" lon="-3.243297"><ele>505</ele><time>2023-01-06T10:47:54Z</time><name>PT1040</name></trkpt>
<trkpt lat="53.008027" lon="-3.243371"><ele>505</ele><time>2023-01-06T10:47:58Z</time><name>PT1041</name></trkpt>
<trkpt lat="53.008039" lon="-3.243440"><ele>505</ele><time>2023-01-06T10:48:02Z</time><name>PT1042</name></trkpt>
<trkpt lat="53.008049" lon="-3.243498"><ele>504</ele><time>2023-01-06T10:48:05Z</time><name>PT1043</name></trkpt>
<trkpt lat="53.008058" lon="-3.243576"><ele>504</ele><time>2023-01-06T10:48:09Z</time><name>PT1044</name></trkpt>
<trkpt lat="53.008060" lon="-3.243626"><ele>503</ele><time>2023-01-06T10:48:12Z</time><name>PT1045</name></trkpt>
<trkpt lat="53.008068" lon="-3.243689"><ele>502</ele><time>2023-01-06T10:48:16Z</time><name>PT1046</name></trkpt>
<trkpt lat="53.008074" lon="-3.243757"><ele>502</ele><time>2023-01-06T10:48:20Z</time><name>PT1047</name></trkpt>
<trkpt lat="53.008079" lon="-3.243828"><ele>501</ele><time>2023-01-06T10:48:24Z</time><name>PT1048</name></trkpt>
<trkpt lat="53.008087" lon="-3.243879"><ele>501</ele><time>2023-01-06T10:48:27Z</time><name>PT1049</name></trkpt>
<trkpt lat="53.008099" lon="-3.243919"><ele>501</ele><time>2023-01-06T10:48:30Z</time><name>PT1050</name></trkpt>
<trkpt lat="53.008109" lon="-3.243953"><ele>500</ele><time>2023-01-06T10:48:33Z</time><name>PT1051</name></trkpt>
<trkpt lat="53.008116" lon="-3.243993"><ele>499</ele><time>2023-01-06T10:48:37Z</time><name>PT1052</name></trkpt>
<trkpt lat="53.008118" lon="-3.244020"><ele>499</ele><time>2023-01-06T10:48:40Z</time><name>PT1053</name></trkpt>
<trkpt lat="53.008129" lon="-3.244059"><ele>497</ele><time>2023-01-06T10:48:44Z</time><name>PT1054</name></trkpt>
<trkpt lat="53.008128" lon="-3.244085"><ele>496</ele><time>2023-01-06T10:48:47Z</time><name>PT1055</name></trkpt>
<trkpt lat="53.008095" lon="-3.244080"><ele>496</ele><time>2023-01-06T10:48:51Z</time><name>PT1056</name></trkpt>
<trkpt lat="53.008085" lon="-3.244099"><ele>495</ele><time>2023-01-06T10:48:54Z</time><name>PT1057</name></trkpt>
<trkpt lat="53.008086" lon="-3.244121"><ele>494</ele><time>2023-01-06T10:48:57Z</time><name>PT1058</name></trkpt>
<trkpt lat="53.008068" lon="-3.244132"><ele>493</ele><time>2023-01-06T10:49:01Z</time><name>PT1059</name></trkpt>
<trkpt lat="53.008058" lon="-3.244151"><ele>492</ele><time>2023-01-06T10:49:04Z</time><name>PT1060</name></trkpt>
<trkpt lat="53.008051" lon="-3.244180"><ele>492</ele><time>2023-01-06T10:49:08Z</time><name>PT1061</name></trkpt>
<trkpt lat="53.008040" lon="-3.244199"><ele>491</ele><time>2023-01-06T10:49:11Z</time><name>PT1062</name></trkpt>
<trkpt lat="53.008030" lon="-3.244219"><ele>490</ele><time>2023-01-06T10:49:14Z</time><name>PT1063</name></trkpt>
<trkpt lat="53.008021" lon="-3.244238"><ele>489</ele><time>2023-01-06T10:49:18Z</time><name>PT1064</name></trkpt>
<trkpt lat="53.008008" lon="-3.244253"><ele>488</ele><time>2023-01-06T10:49:21Z</time><name>PT1065</name></trkpt>
<trkpt lat="53.008000" lon="-3.244279"><ele>487</ele><time>2023-01-06T10:49:24Z</time><name>PT1066</name></trkpt>
<trkpt lat="53.007985" lon="-3.244314"><ele>486</ele><time>2023-01-06T10:49:28Z</time><name>PT1067</name></trkpt>
<trkpt lat="53.007973" lon="-3.244340"><ele>485</ele><time>2023-01-06T10:49:31Z</time><name>PT1068</name></trkpt>
<trkpt lat="53.007960" lon="-3.244365"><ele>485</ele><time>2023-01-06T10:49:34Z</time><name>PT1069</name></trkpt>
<trkpt lat="53.007932" lon="-3.244386"><ele>484</ele><time>2023-01-06T10:49:38Z</time><name>PT1070</name></trkpt>
<trkpt lat="53.007909" lon="-3.244427"><ele>483</ele><time>2023-01-06T10:49:42Z</time><name>PT1071</name></trkpt>
<trkpt lat="53.007883" lon="-3.244460"><ele>482</ele><time>2023-01-06T10:49:46Z</time><name>PT1072</name></trkpt>
<trkpt lat="53.007855" lon="-3.244516"><ele>482</ele><time>2023-01-06T10:49:50Z</time><name>PT1073</name></trkpt>
<trkpt lat="53.007832" lon="-3.244557"><ele>482</ele><time>2023-01-06T10:49:53Z</time><name>PT1074</name></trkpt>
<trkpt lat="53.007807" lon="-3.244597"><ele>481</ele><time>2023-01-06T10:49:56Z</time><name>PT1075</name></trkpt>
<trkpt lat="53.007777" lon="-3.244645"><ele>480</ele><time>2023-01-06T10:50:00Z</time><name>PT1076</name></trkpt>
<trkpt lat="53.007741" lon="-3.244682"><ele>480</ele><time>2023-01-06T10:50:04Z</time><name>PT1077</name></trkpt>
<trkpt lat="53.007716" lon="-3.244696"><ele>479</ele><time>2023-01-06T10:50:07Z</time><name>PT1078</name></trkpt>
<trkpt lat="53.007692" lon="-3.244733"><ele>478</ele><time>2023-01-06T10:50:10Z</time><name>PT1079</name></trkpt>
<trkpt lat="53.007663" lon="-3.244791"><ele>478</ele><time>2023-01-06T10:50:14Z</time><name>PT1080</name></trkpt>
<trkpt lat="53.007645" lon="-3.244831"><ele>478</ele><time>2023-01-06T10:50:17Z</time><name>PT1081</name></trkpt>
<trkpt lat="53.007626" lon="-3.244874"><ele>478</ele><time>2023-01-06T10:50:20Z</time><name>PT1082</name></trkpt>
<trkpt lat="53.007602" lon="-3.244934"><ele>477</ele><time>2023-01-06T10:50:24Z</time><name>PT1083</name></trkpt>
<trkpt lat="53.007585" lon="-3.244968"><ele>477</ele><time>2023-01-06T10:50:27Z</time><name>PT1084</name></trkpt>
<trkpt lat="53.007563" lon="-3.245012"><ele>475</ele><time>2023-01-06T10:50:31Z</time><name>PT1085</name></trkpt>
<trkpt lat="53.007553" lon="-3.245033"><ele>475</ele><time>2023-01-06T10:50:35Z</time><name>PT1086</name></trkpt>
<trkpt lat="53.007548" lon="-3.245049"><ele>474</ele><time>2023-01-06T10:50:38Z</time><name>PT1087</name></trkpt>
<trkpt lat="53.007523" lon="-3.245094"><ele>472</ele><time>2023-01-06T10:50:42Z</time><name>PT1088</name></trkpt>
<trkpt lat="53.007504" lon="-3.245127"><ele>471</ele><time>2023-01-06T10:50:45Z</time><name>PT1089</name></trkpt>
<trkpt lat="53.007479" lon="-3.245189"><ele>470</ele><time>2023-01-06T10:50:49Z</time><name>PT1090</name></trkpt>
<trkpt lat="53.007454" lon="-3.245246"><ele>471</ele><time>2023-01-06T10:50:52Z</time><name>PT1091</name></trkpt>
<trkpt lat="53.007424" lon="-3.245309"><ele>470</ele><time>2023-01-06T10:50:56Z</time><name>PT1092</name></trkpt>
<trkpt lat="53.007394" lon="-3.245368"><ele>469</ele><time>2023-01-06T10:51:00Z</time><name>PT1093</name></trkpt>
<trkpt lat="53.007368" lon="-3.245417"><ele>469</ele><time>2023-01-06T10:51:03Z</time><name>PT1094</name></trkpt>
<trkpt lat="53.007337" lon="-3.245491"><ele>469</ele><time>2023-01-06T10:51:07Z</time><name>PT1095</name></trkpt>
<trkpt lat="53.007302" lon="-3.245562"><ele>469</ele><time>2023-01-06T10:51:11Z</time><name>PT1096</name></trkpt>
<trkpt lat="53.007269" lon="-3.245627"><ele>469</ele><time>2023-01-06T10:51:15Z</time><name>PT1097</name></trkpt>
<trkpt lat="53.007245" lon="-3.245673"><ele>469</ele><time>2023-01-06T10:51:18Z</time><name>PT1098</name></trkpt>
<trkpt lat="53.007216" lon="-3.245744"><ele>469</ele><time>2023-01-06T10:51:22Z</time><name>PT1099</name></trkpt>
<trkpt lat="53.007193" lon="-3.245825"><ele>468</ele><time>2023-01-06T10:51:26Z</time><name>PT1100</name></trkpt>
<trkpt lat="53.007173" lon="-3.245877"><ele>469</ele><time>2023-01-06T10:51:29Z</time><name>PT1101</name></trkpt>
<trkpt lat="53.007138" lon="-3.245944"><ele>469</ele><time>2023-01-06T10:51:33Z</time><name>PT1102</name></trkpt>
<trkpt lat="53.007107" lon="-3.245974"><ele>468</ele><time>2023-01-06T10:51:36Z</time><name>PT1103</name></trkpt>
<trkpt lat="53.007075" lon="-3.246023"><ele>468</ele><time>2023-01-06T10:51:40Z</time><name>PT1104</name></trkpt>
<trkpt lat="53.007048" lon="-3.246072"><ele>469</ele><time>2023-01-06T10:51:44Z</time><name>PT1105</name></trkpt>
<trkpt lat="53.007032" lon="-3.246105"><ele>469</ele><time>2023-01-06T10:51:47Z</time><name>PT1106</name></trkpt>
<trkpt lat="53.007015" lon="-3.246172"><ele>468</ele><time>2023-01-06T10:51:51Z</time><name>PT1107</name></trkpt>
<trkpt lat="53.006990" lon="-3.246224"><ele>468</ele><time>2023-01-06T10:51:54Z</time><name>PT1108</name></trkpt>
<trkpt lat="53.006957" lon="-3.246286"><ele>468</ele><time>2023-01-06T10:51:58Z</time><name>PT1109</name></trkpt>
<trkpt lat="53.006921" lon="-3.246348"><ele>469</ele><time>2023-01-06T10:52:02Z</time><name>PT1110</name></trkpt>
<trkpt lat="53.006884" lon="-3.246412"><ele>471</ele><time>2023-01-06T10:52:06Z</time><name>PT1111</name></trkpt>
<trkpt lat="53.006851" lon="-3.246465"><ele>471</ele><time>2023-01-06T10:52:10Z</time><name>PT1112</name></trkpt>
<trkpt lat="53.006820" lon="-3.246517"><ele>472</ele><time>2023-01-06T10:52:14Z</time><name>PT1113</name></trkpt>
<trkpt lat="53.006798" lon="-3.246563"><ele>472</ele><time>2023-01-06T10:52:17Z</time><name>PT1114</name></trkpt>
<trkpt lat="53.006768" lon="-3.246625"><ele>473</ele><time>2023-01-06T10:52:21Z</time><name>PT1115</name></trkpt>
<trkpt lat="53.006749" lon="-3.246672"><ele>473</ele><time>2023-01-06T10:52:24Z</time><name>PT1116</name></trkpt>
<trkpt lat="53.006722" lon="-3.246711"><ele>475</ele><time>2023-01-06T10:52:27Z</time><name>PT1117</name></trkpt>
<trkpt lat="53.006694" lon="-3.246761"><ele>475</ele><time>2023-01-06T10:52:31Z</time><name>PT1118</name></trkpt>
<trkpt lat="53.006668" lon="-3.246809"><ele>475</ele><time>2023-01-06T10:52:35Z</time><name>PT1119</name></trkpt>
<trkpt lat="53.006652" lon="-3.246848"><ele>476</ele><time>2023-01-06T10:52:38Z</time><name>PT1120</name></trkpt>
<trkpt lat="53.006628" lon="-3.246897"><ele>477</ele><time>2023-01-06T10:52:42Z</time><name>PT1121</name></trkpt>
<trkpt lat="53.006610" lon="-3.246933"><ele>478</ele><time>2023-01-06T10:52:45Z</time><name>PT1122</name></trkpt>
<trkpt lat="53.006594" lon="-3.246963"><ele>478</ele><time>2023-01-06T10:52:48Z</time><name>PT1123</name></trkpt>
<trkpt lat="53.006576" lon="-3.246992"><ele>479</ele><time>2023-01-06T10:52:52Z</time><name>PT1124</name></trkpt>
<trkpt lat="53.006560" lon="-3.247027"><ele>479</ele><time>2023-01-06T10:52:56Z</time><name>PT1125</name></trkpt>
<trkpt lat="53.006544" lon="-3.247051"><ele>480</ele><time>2023-01-06T10:52:59Z</time><name>PT1126</name></trkpt>
<trkpt lat="53.006528" lon="-3.247075"><ele>481</ele><time>2023-01-06T10:53:02Z</time><name>PT1127</name></trkpt>
<trkpt lat="53.006507" lon="-3.247105"><ele>481</ele><time>2023-01-06T10:53:06Z</time><name>PT1128</name></trkpt>
<trkpt lat="53.006492" lon="-3.247128"><ele>482</ele><time>2023-01-06T10:53:09Z</time><name>PT1129</name></trkpt>
<trkpt lat="53.006471" lon="-3.247159"><ele>483</ele><time>2023-01-06T10:53:13Z</time><name>PT1130</name></trkpt>
<trkpt lat="53.006455" lon="-3.247185"><ele>484</ele><time>2023-01-06T10:53:16Z</time><name>PT1131</name></trkpt>
<trkpt lat="53.006430" lon="-3.247216"><ele>485</ele><time>2023-01-06T10:53:20Z</time><name>PT1132</name></trkpt>
<trkpt lat="53.006397" lon="-3.247250"><ele>484</ele><time>2023-01-06T10:53:24Z</time><name>PT1133</name></trkpt>
<trkpt lat="53.006367" lon="-3.247280"><ele>484</ele><time>2023-01-06T10:53:27Z</time><name>PT1134</name></trkpt>
<trkpt lat="53.006339" lon="-3.247300"><ele>484</ele><time>2023-01-06T10:53:30Z</time><name>PT1135</name></trkpt>
<trkpt lat="53.006307" lon="-3.247330"><ele>483</ele><time>2023-01-06T10:53:34Z</time><name>PT1136</name></trkpt>
<trkpt lat="53.006279" lon="-3.247362"><ele>484</ele><time>2023-01-06T10:53:37Z</time><name>PT1137</name></trkpt>
<trkpt lat="53.006244" lon="-3.247404"><ele>484</ele><time>2023-01-06T10:53:41Z</time><name>PT1138</name></trkpt>
<trkpt lat="53.006216" lon="-3.247450"><ele>483</ele><time>2023-01-06T10:53:45Z</time><name>PT1139</name></trkpt>
<trkpt lat="53.006196" lon="-3.247486"><ele>482</ele><time>2023-01-06T10:53:48Z</time><name>PT1140</name></trkpt>
<trkpt lat="53.006175" lon="-3.247530"><ele>483</ele><time>2023-01-06T10:53:51Z</time><name>PT1141</name></trkpt>
<trkpt lat="53.006144" lon="-3.247585"><ele>483</ele><time>2023-01-06T10:53:55Z</time><name>PT1142</name></trkpt>
<trkpt lat="53.006125" lon="-3.247634"><ele>483</ele><time>2023-01-06T10:53:58Z</time><name>PT1143</name></trkpt>
<trkpt lat="53.006097" lon="-3.247692"><ele>483</ele><time>2023-01-06T10:54:02Z</time><name>PT1144</name></trkpt>
<trkpt lat="53.006070" lon="-3.247756"><ele>483</ele><time>2023-01-06T10:54:06Z</time><name>PT1145</name></trkpt>
<trkpt lat="53.006051" lon="-3.247804"><ele>483</ele><time>2023-01-06T10:54:09Z</time><name>PT1146</name></trkpt>
<trkpt lat="53.006032" lon="-3.247854"><ele>483</ele><time>2023-01-06T10:54:12Z</time><name>PT1147</name></trkpt>
<trkpt lat="53.006002" lon="-3.247920"><ele>482</ele><time>2023-01-06T10:54:16Z</time><name>PT1148</name></trkpt>
<trkpt lat="53.005983" lon="-3.247966"><ele>482</ele><time>2023-01-06T10:54:19Z</time><name>PT1149</name></trkpt>
<trkpt lat="53.005963" lon="-3.248019"><ele>482</ele><time>2023-01-06T10:54:22Z</time><name>PT1150</name></trkpt>
<trkpt lat="53.005938" lon="-3.248067"><ele>482</ele><time>2023-01-06T10:54:25Z</time><name>PT1151</name></trkpt>
<trkpt lat="53.005910" lon="-3.248130"><ele>483</ele><time>2023-01-06T10:54:29Z</time><name>PT1152</name></trkpt>
<trkpt lat="53.005888" lon="-3.248188"><ele>483</ele><time>2023-01-06T10:54:32Z</time><name>PT1153</name></trkpt>
<trkpt lat="53.005860" lon="-3.248252"><ele>482</ele><time>2023-01-06T10:54:36Z</time><name>PT1154</name></trkpt>
<trkpt lat="53.005841" lon="-3.248304"><ele>483</ele><time>2023-01-06T10:54:39Z</time><name>PT1155</name></trkpt>
<trkpt lat="53.005818" lon="-3.248367"><ele>482</ele><time>2023-01-06T10:54:43Z</time><name>PT1156</name></trkpt>
<trkpt lat="53.005797" lon="-3.248411"><ele>481</ele><time>2023-01-06T10:54:46Z</time><name>PT1157</name></trkpt>
<trkpt lat="53.005769" lon="-3.248472"><ele>480</ele><time>2023-01-06T10:54:50Z</time><name>PT1158</name></trkpt>
<trkpt lat="53.005741" lon="-3.248531"><ele>479</ele><time>2023-01-06T10:54:54Z</time><name>PT1159</name></trkpt>
<trkpt lat="53.005710" lon="-3.248589"><ele>480</ele><time>2023-01-06T10:54:58Z</time><name>PT1160</name></trkpt>
<trkpt lat="53.005683" lon="-3.248644"><ele>479</ele><time>2023-01-06T10:55:02Z</time><name>PT1161</name></trkpt>
<trkpt lat="53.005652" lon="-3.248705"><ele>478</ele><time>2023-01-06T10:55:06Z</time><name>PT1162</name></trkpt>
<trkpt lat="53.005632" lon="-3.248741"><ele>477</ele><time>2023-01-06T10:55:09Z</time><name>PT1163</name></trkpt>
<trkpt lat="53.005607" lon="-3.248777"><ele>477</ele><time>2023-01-06T10:55:12Z</time><name>PT1164</name></trkpt>
<trkpt lat="53.005583" lon="-3.248810"><ele>476</ele><time>2023-01-06T10:55:15Z</time><name>PT1165</name></trkpt>
<trkpt lat="53.005559" lon="-3.248853"><ele>475</ele><time>2023-01-06T10:55:19Z</time><name>PT1166</name></trkpt>
<trkpt lat="53.005531" lon="-3.248887"><ele>474</ele><time>2023-01-06T10:55:23Z</time><name>PT1167</name></trkpt>
<trkpt lat="53.005498" lon="-3.248935"><ele>474</ele><time>2023-01-06T10:55:27Z</time><name>PT1168</name></trkpt>
<trkpt lat="53.005474" lon="-3.248971"><ele>474</ele><time>2023-01-06T10:55:30Z</time><name>PT1169</name></trkpt>
<trkpt lat="53.005445" lon="-3.249011"><ele>473</ele><time>2023-01-06T10:55:34Z</time><name>PT1170</name></trkpt>
<trkpt lat="53.005426" lon="-3.249048"><ele>473</ele><time>2023-01-06T10:55:37Z</time><name>PT1171</name></trkpt>
<trkpt lat="53.005401" lon="-3.249093"><ele>473</ele><time>2023-01-06T10:55:41Z</time><name>PT1172</name></trkpt>
<trkpt lat="53.005374" lon="-3.249140"><ele>471</ele><time>2023-01-06T10:55:45Z</time><name>PT1173</name></trkpt>
<trkpt lat="53.005353" lon="-3.249172"><ele>470</ele><time>2023-01-06T10:55:48Z</time><name>PT1174</name></trkpt>
<trkpt lat="53.005330" lon="-3.249211"><ele>469</ele><time>2023-01-06T10:55:51Z</time><name>PT1175</name></trkpt>
<trkpt lat="53.005311" lon="-3.249248"><ele>469</ele><time>2023-01-06T10:55:54Z</time><name>PT1176</name></trkpt>
<trkpt lat="53.005285" lon="-3.249303"><ele>468</ele><time>2023-01-06T10:55:58Z</time><name>PT1177</name></trkpt>
<trkpt lat="53.005270" lon="-3.249344"><ele>467</ele><time>2023-01-06T10:56:01Z</time><name>PT1178</name></trkpt>
<trkpt lat="53.005265" lon="-3.249400"><ele>468</ele><time>2023-01-06T10:56:05Z</time><name>PT1179</name></trkpt>
<trkpt lat="53.005241" lon="-3.249445"><ele>468</ele><time>2023-01-06T10:56:08Z</time><name>PT1180</name></trkpt>
<trkpt lat="53.005215" lon="-3.249482"><ele>467</ele><time>2023-01-06T10:56:11Z</time><name>PT1181</name></trkpt>
<trkpt lat="53.005167" lon="-3.249520"><ele>468</ele><time>2023-01-06T10:56:15Z</time><name>PT1182</name></trkpt>
<trkpt lat="53.005138" lon="-3.249568"><ele>468</ele><time>2023-01-06T10:56:18Z</time><name>PT1183</name></trkpt>
<trkpt lat="53.005107" lon="-3.249622"><ele>469</ele><time>2023-01-06T10:56:22Z</time><name>PT1184</name></trkpt>
<trkpt lat="53.005084" lon="-3.249665"><ele>469</ele><time>2023-01-06T10:56:25Z</time><name>PT1185</name></trkpt>
<trkpt lat="53.005054" lon="-3.249714"><ele>470</ele><time>2023-01-06T10:56:29Z</time><name>PT1186</name></trkpt>
<trkpt lat="53.005053" lon="-3.249714"><ele>470</ele><time>2023-01-06T10:56:32Z</time><name>PT1187</name></trkpt>
<trkpt lat="53.005031" lon="-3.249743"><ele>470</ele><time>2023-01-06T10:56:36Z</time><name>PT1188</name></trkpt>
<trkpt lat="53.005002" lon="-3.249791"><ele>470</ele><time>2023-01-06T10:56:40Z</time><name>PT1189</name></trkpt>
<trkpt lat="53.004977" lon="-3.249822"><ele>471</ele><time>2023-01-06T10:56:43Z</time><name>PT1190</name></trkpt>
<trkpt lat="53.004941" lon="-3.249855"><ele>471</ele><time>2023-01-06T10:56:47Z</time><name>PT1191</name></trkpt>
<trkpt lat="53.004906" lon="-3.249888"><ele>471</ele><time>2023-01-06T10:56:51Z</time><name>PT1192</name></trkpt>
<trkpt lat="53.004895" lon="-3.249917"><ele>471</ele><time>2023-01-06T10:56:54Z</time><name>PT1193</name></trkpt>
<trkpt lat="53.004892" lon="-3.249949"><ele>471</ele><time>2023-01-06T10:56:57Z</time><name>PT1194</name></trkpt>
<trkpt lat="53.004872" lon="-3.250003"><ele>472</ele><time>2023-01-06T10:57:01Z</time><name>PT1195</name></trkpt>
<trkpt lat="53.004860" lon="-3.250034"><ele>473</ele><time>2023-01-06T10:57:04Z</time><name>PT1196</name></trkpt>
<trkpt lat="53.004850" lon="-3.250079"><ele>473</ele><time>2023-01-06T10:57:07Z</time><name>PT1197</name></trkpt>
<trkpt lat="53.004833" lon="-3.250132"><ele>475</ele><time>2023-01-06T10:57:11Z</time><name>PT1198</name></trkpt>
<trkpt lat="53.004815" lon="-3.250183"><ele>476</ele><time>2023-01-06T10:57:15Z</time><name>PT1199</name></trkpt>
<trkpt lat="53.004798" lon="-3.250234"><ele>477</ele><time>2023-01-06T10:57:19Z</time><name>PT1200</name></trkpt>
<trkpt lat="53.004779" lon="-3.250275"><ele>477</ele><time>2023-01-06T10:57:23Z</time><name>PT1201</name></trkpt>
<trkpt lat="53.004768" lon="-3.250304"><ele>477</ele><time>2023-01-06T10:57:26Z</time><name>PT1202</name></trkpt>
<trkpt lat="53.004758" lon="-3.250326"><ele>478</ele><time>2023-01-06T10:57:29Z</time><name>PT1203</name></trkpt>
<trkpt lat="53.004735" lon="-3.250370"><ele>477</ele><time>2023-01-06T10:57:33Z</time><name>PT1204</name></trkpt>
<trkpt lat="53.004724" lon="-3.250403"><ele>477</ele><time>2023-01-06T10:57:36Z</time><name>PT1205</name></trkpt>
<trkpt lat="53.004718" lon="-3.250461"><ele>477</ele><time>2023-01-06T10:57:40Z</time><name>PT1206</name></trkpt>
<trkpt lat="53.004704" lon="-3.250530"><ele>477</ele><time>2023-01-06T10:57:44Z</time><name>PT1207</name></trkpt>
<trkpt lat="53.004696" lon="-3.250581"><ele>478</ele><time>2023-01-06T10:57:47Z</time><name>PT1208</name></trkpt>
<trkpt lat="53.004683" lon="-3.250650"><ele>478</ele><time>2023-01-06T10:57:51Z</time><name>PT1209</name></trkpt>
<trkpt lat="53.004673" lon="-3.250708"><ele>479</ele><time>2023-01-06T10:57:54Z</time><name>PT1210</name></trkpt>
<trkpt lat="53.004660" lon="-3.250790"><ele>481</ele><time>2023-01-06T10:57:58Z</time><name>PT1211</name></trkpt>
<trkpt lat="53.004643" lon="-3.250836"><ele>482</ele><time>2023-01-06T10:58:01Z</time><name>PT1212</name></trkpt>
<trkpt lat="53.004625" lon="-3.250894"><ele>483</ele><time>2023-01-06T10:58:05Z</time><name>PT1213</name></trkpt>
<trkpt lat="53.004601" lon="-3.250941"><ele>483</ele><time>2023-01-06T10:58:09Z</time><name>PT1214</name></trkpt>
<trkpt lat="53.004586" lon="-3.250973"><ele>484</ele><time>2023-01-06T10:58:12Z</time><name>PT1215</name></trkpt>
<trkpt lat="53.004571" lon="-3.251012"><ele>485</ele><time>2023-01-06T10:58:16Z</time><name>PT1216</name></trkpt>
<trkpt lat="53.004550" lon="-3.251041"><ele>486</ele><time>2023-01-06T10:58:20Z</time><name>PT1217</name></trkpt>
<trkpt lat="53.004533" lon="-3.251061"><ele>486</ele><time>2023-01-06T10:58:23Z</time><name>PT1218</name></trkpt>
<trkpt lat="53.004519" lon="-3.251089"><ele>486</ele><time>2023-01-06T10:58:26Z</time><name>PT1219</name></trkpt>
<trkpt lat="53.004505" lon="-3.251126"><ele>487</ele><time>2023-01-06T10:58:30Z</time><name>PT1220</name></trkpt>
<trkpt lat="53.004491" lon="-3.251149"><ele>488</ele><time>2023-01-06T10:58:33Z</time><name>PT1221</name></trkpt>
<trkpt lat="53.004470" lon="-3.251176"><ele>488</ele><time>2023-01-06T10:58:37Z</time><name>PT1222</name></trkpt>
<trkpt lat="53.004460" lon="-3.251200"><ele>489</ele><time>2023-01-06T10:58:40Z</time><name>PT1223</name></trkpt>
<trkpt lat="53.004443" lon="-3.251229"><ele>490</ele><time>2023-01-06T10:58:44Z</time><name>PT1224</name></trkpt>
<trkpt lat="53.004430" lon="-3.251247"><ele>490</ele><time>2023-01-06T10:58:47Z</time><name>PT1225</name></trkpt>
<trkpt lat="53.004419" lon="-3.251270"><ele>491</ele><time>2023-01-06T10:58:50Z</time><name>PT1226</name></trkpt>
<trkpt lat="53.004393" lon="-3.251298"><ele>492</ele><time>2023-01-06T10:58:54Z</time><name>PT1227</name></trkpt>
<trkpt lat="53.004367" lon="-3.251332"><ele>492</ele><time>2023-01-06T10:58:58Z</time><name>PT1228</name></trkpt>
<trkpt lat="53.004345" lon="-3.251368"><ele>493</ele><time>2023-01-06T10:59:02Z</time><name>PT1229</name></trkpt>
<trkpt lat="53.004312" lon="-3.251405"><ele>494</ele><time>2023-01-06T10:59:06Z</time><name>PT1230</name></trkpt>
<trkpt lat="53.004285" lon="-3.251444"><ele>495</ele><time>2023-01-06T10:59:10Z</time><name>PT1231</name></trkpt>
<trkpt lat="53.004263" lon="-3.251478"><ele>496</ele><time>2023-01-06T10:59:14Z</time><name>PT1232</name></trkpt>
<trkpt lat="53.004243" lon="-3.251511"><ele>495</ele><time>2023-01-06T10:59:17Z</time><name>PT1233</name></trkpt>
<trkpt lat="53.004222" lon="-3.251529"><ele>495</ele><time>2023-01-06T10:59:20Z</time><name>PT1234</name></trkpt>
<trkpt lat="53.004198" lon="-3.251551"><ele>496</ele><time>2023-01-06T10:59:23Z</time><name>PT1235</name></trkpt>
<trkpt lat="53.004172" lon="-3.251588"><ele>498</ele><time>2023-01-06T10:59:27Z</time><name>PT1236</name></trkpt>
<trkpt lat="53.004149" lon="-3.251625"><ele>498</ele><time>2023-01-06T10:59:31Z</time><name>PT1237</name></trkpt>
<trkpt lat="53.004130" lon="-3.251655"><ele>498</ele><time>2023-01-06T10:59:35Z</time><name>PT1238</name></trkpt>
<trkpt lat="53.004111" lon="-3.251674"><ele>500</ele><time>2023-01-06T10:59:38Z</time><name>PT1239</name></trkpt>
<trkpt lat="53.004094" lon="-3.251688"><ele>501</ele><time>2023-01-06T10:59:41Z</time><name>PT1240</name></trkpt>
<trkpt lat="53.004069" lon="-3.251726"><ele>501</ele><time>2023-01-06T10:59:45Z</time><name>PT1241</name></trkpt>
<trkpt lat="53.004052" lon="-3.251750"><ele>502</ele><time>2023-01-06T10:59:48Z</time><name>PT1242</name></trkpt>
<trkpt lat="53.004038" lon="-3.251767"><ele>503</ele><time>2023-01-06T10:59:51Z</time><name>PT1243</name></trkpt>
<trkpt lat="53.004026" lon="-3.251782"><ele>503</ele><time>2023-01-06T10:59:54Z</time><name>PT1244</name></trkpt>
<trkpt lat="53.004006" lon="-3.251800"><ele>504</ele><time>2023-01-06T10:59:58Z</time><name>PT1245</name></trkpt>
<trkpt lat="53.003992" lon="-3.251832"><ele>506</ele><time>2023-01-06T11:00:02Z</time><name>PT1246</name></trkpt>
<trkpt lat="53.003978" lon="-3.251849"><ele>506</ele><time>2023-01-06T11:00:05Z</time><name>PT1247</name></trkpt>
<trkpt lat="53.003964" lon="-3.251882"><ele>507</ele><time>2023-01-06T11:00:09Z</time><name>PT1248</name></trkpt>
<trkpt lat="53.003950" lon="-3.251891"><ele>508</ele><time>2023-01-06T11:00:12Z</time><name>PT1249</name></trkpt>
<trkpt lat="53.003932" lon="-3.251905"><ele>508</ele><time>2023-01-06T11:00:16Z</time><name>PT1250</name></trkpt>
<trkpt lat="53.003927" lon="-3.251906"><ele>508</ele><time>2023-01-06T11:00:22Z</time><name>PT1251</name></trkpt>
<trkpt lat="53.003886" lon="-3.251917"><ele>508</ele><time>2023-01-06T11:00:26Z</time><name>PT1252</name></trkpt>
<trkpt lat="53.003862" lon="-3.251917"><ele>509</ele><time>2023-01-06T11:00:29Z</time><name>PT1253</name></trkpt>
<trkpt lat="53.003836" lon="-3.251942"><ele>510</ele><time>2023-01-06T11:00:33Z</time><name>PT1254</name></trkpt>
<trkpt lat="53.003820" lon="-3.251956"><ele>511</ele><time>2023-01-06T11:00:36Z</time><name>PT1255</name></trkpt>
<trkpt lat="53.003799" lon="-3.251974"><ele>512</ele><time>2023-01-06T11:00:40Z</time><name>PT1256</name></trkpt>
<trkpt lat="53.003779" lon="-3.251982"><ele>513</ele><time>2023-01-06T11:00:44Z</time><name>PT1257</name></trkpt>
<trkpt lat="53.003758" lon="-3.252000"><ele>513</ele><time>2023-01-06T11:00:48Z</time><name>PT1258</name></trkpt>
<trkpt lat="53.003749" lon="-3.252010"><ele>514</ele><time>2023-01-06T11:00:51Z</time><name>PT1259</name></trkpt>
<trkpt lat="53.003728" lon="-3.252017"><ele>515</ele><time>2023-01-06T11:00:54Z</time><name>PT1260</name></trkpt>
<trkpt lat="53.003706" lon="-3.252019"><ele>514</ele><time>2023-01-06T11:00:57Z</time><name>PT1261</name></trkpt>
<trkpt lat="53.003682" lon="-3.252043"><ele>515</ele><time>2023-01-06T11:01:01Z</time><name>PT1262</name></trkpt>
<trkpt lat="53.003659" lon="-3.252059"><ele>516</ele><time>2023-01-06T11:01:04Z</time><name>PT1263</name></trkpt>
<trkpt lat="53.003628" lon="-3.252080"><ele>516</ele><time>2023-01-06T11:01:08Z</time><name>PT1264</name></trkpt>
<trkpt lat="53.003594" lon="-3.252099"><ele>516</ele><time>2023-01-06T11:01:12Z</time><name>PT1265</name></trkpt>
<trkpt lat="53.003568" lon="-3.252116"><ele>517</ele><time>2023-01-06T11:01:15Z</time><name>PT1266</name></trkpt>
<trkpt lat="53.003543" lon="-3.252131"><ele>518</ele><time>2023-01-06T11:01:18Z</time><name>PT1267</name></trkpt>
<trkpt lat="53.003519" lon="-3.252140"><ele>518</ele><time>2023-01-06T11:01:21Z</time><name>PT1268</name></trkpt>
<trkpt lat="53.003483" lon="-3.252144"><ele>519</ele><time>2023-01-06T11:01:25Z</time><name>PT1269</name></trkpt>
<trkpt lat="53.003449" lon="-3.252165"><ele>520</ele><time>2023-01-06T11:01:29Z</time><name>PT1270</name></trkpt>
<trkpt lat="53.003419" lon="-3.252189"><ele>521</ele><time>2023-01-06T11:01:32Z</time><name>PT1271</name></trkpt>
<trkpt lat="53.003381" lon="-3.252216"><ele>521</ele><time>2023-01-06T11:01:36Z</time><name>PT1272</name></trkpt>
<trkpt lat="53.003341" lon="-3.252245"><ele>521</ele><time>2023-01-06T11:01:40Z</time><name>PT1273</name></trkpt>
<trkpt lat="53.003306" lon="-3.252273"><ele>522</ele><time>2023-01-06T11:01:44Z</time><name>PT1274</name></trkpt>
<trkpt lat="53.003269" lon="-3.252297"><ele>523</ele><time>2023-01-06T11:01:48Z</time><name>PT1275</name></trkpt>
<trkpt lat="53.003233" lon="-3.252326"><ele>524</ele><time>2023-01-06T11:01:52Z</time><name>PT1276</name></trkpt>
<trkpt lat="53.003200" lon="-3.252350"><ele>524</ele><time>2023-01-06T11:01:56Z</time><name>PT1277</name></trkpt>
<trkpt lat="53.003178" lon="-3.252371"><ele>525</ele><time>2023-01-06T11:01:59Z</time><name>PT1278</name></trkpt>
<trkpt lat="53.003143" lon="-3.252395"><ele>525</ele><time>2023-01-06T11:02:03Z</time><name>PT1279</name></trkpt>
<trkpt lat="53.003116" lon="-3.252423"><ele>525</ele><time>2023-01-06T11:02:06Z</time><name>PT1280</name></trkpt>
<trkpt lat="53.003093" lon="-3.252447"><ele>525</ele><time>2023-01-06T11:02:09Z</time><name>PT1281</name></trkpt>
<trkpt lat="53.003067" lon="-3.252469"><ele>526</ele><time>2023-01-06T11:02:12Z</time><name>PT1282</name></trkpt>
<trkpt lat="53.003038" lon="-3.252494"><ele>527</ele><time>2023-01-06T11:02:16Z</time><name>PT1283</name></trkpt>
<trkpt lat="53.003020" lon="-3.252511"><ele>527</ele><time>2023-01-06T11:02:19Z</time><name>PT1284</name></trkpt>
<trkpt lat="53.002997" lon="-3.252534"><ele>527</ele><time>2023-01-06T11:02:22Z</time><name>PT1285</name></trkpt>
<trkpt lat="53.002969" lon="-3.252562"><ele>528</ele><time>2023-01-06T11:02:26Z</time><name>PT1286</name></trkpt>
<trkpt lat="53.002946" lon="-3.252585"><ele>528</ele><time>2023-01-06T11:02:30Z</time><name>PT1287</name></trkpt>
<trkpt lat="53.002924" lon="-3.252613"><ele>529</ele><time>2023-01-06T11:02:33Z</time><name>PT1288</name></trkpt>
<trkpt lat="53.002906" lon="-3.252645"><ele>529</ele><time>2023-01-06T11:02:36Z</time><name>PT1289</name></trkpt>
<trkpt lat="53.002880" lon="-3.252686"><ele>531</ele><time>2023-01-06T11:02:40Z</time><name>PT1290</name></trkpt>
<trkpt lat="53.002852" lon="-3.252728"><ele>533</ele><time>2023-01-06T11:02:44Z</time><name>PT1291</name></trkpt>
<trkpt lat="53.002830" lon="-3.252767"><ele>533</ele><time>2023-01-06T11:02:48Z</time><name>PT1292</name></trkpt>
<trkpt lat="53.002812" lon="-3.252806"><ele>534</ele><time>2023-01-06T11:02:52Z</time><name>PT1293</name></trkpt>
<trkpt lat="53.002796" lon="-3.252851"><ele>535</ele><time>2023-01-06T11:02:56Z</time><name>PT1294</name></trkpt>
<trkpt lat="53.002786" lon="-3.252893"><ele>536</ele><time>2023-01-06T11:02:59Z</time><name>PT1295</name></trkpt>
<trkpt lat="53.002776" lon="-3.252929"><ele>537</ele><time>2023-01-06T11:03:02Z</time><name>PT1296</name></trkpt>
<trkpt lat="53.002763" lon="-3.252965"><ele>538</ele><time>2023-01-06T11:03:06Z</time><name>PT1297</name></trkpt>
<trkpt lat="53.002755" lon="-3.253007"><ele>539</ele><time>2023-01-06T11:03:10Z</time><name>PT1298</name></trkpt>
<trkpt lat="53.002749" lon="-3.253042"><ele>541</ele><time>2023-01-06T11:03:14Z</time><name>PT1299</name></trkpt>
<trkpt lat="53.002739" lon="-3.253082"><ele>541</ele><time>2023-01-06T11:03:18Z</time><name>PT1300</name></trkpt>
<trkpt lat="53.002734" lon="-3.253120"><ele>542</ele><time>2023-01-06T11:03:21Z</time><name>PT1301</name></trkpt>
<trkpt lat="53.002724" lon="-3.253157"><ele>542</ele><time>2023-01-06T11:03:25Z</time><name>PT1302</name></trkpt>
<trkpt lat="53.002722" lon="-3.253186"><ele>543</ele><time>2023-01-06T11:03:28Z</time><name>PT1303</name></trkpt>
<trkpt lat="53.002712" lon="-3.253226"><ele>544</ele><time>2023-01-06T11:03:32Z</time><name>PT1304</name></trkpt>
<trkpt lat="53.002702" lon="-3.253271"><ele>545</ele><time>2023-01-06T11:03:36Z</time><name>PT1305</name></trkpt>
<trkpt lat="53.002694" lon="-3.253311"><ele>545</ele><time>2023-01-06T11:03:39Z</time><name>PT1306</name></trkpt>
<trkpt lat="53.002683" lon="-3.253354"><ele>546</ele><time>2023-01-06T11:03:43Z</time><name>PT1307</name></trkpt>
<trkpt lat="53.002679" lon="-3.253386"><ele>545</ele><time>2023-01-06T11:03:46Z</time><name>PT1308</name></trkpt>
<trkpt lat="53.002675" lon="-3.253422"><ele>546</ele><time>2023-01-06T11:03:49Z</time><name>PT1309</name></trkpt>
<trkpt lat="53.002666" lon="-3.253486"><ele>548</ele><time>2023-01-06T11:03:53Z</time><name>PT1310</name></trkpt>
<trkpt lat="53.002660" lon="-3.253528"><ele>549</ele><time>2023-01-06T11:03:56Z</time><name>PT1311</name></trkpt>
<trkpt lat="53.002651" lon="-3.253556"><ele>550</ele><time>2023-01-06T11:03:59Z</time><name>PT1312</name></trkpt>
<trkpt lat="53.002638" lon="-3.253587"><ele>551</ele><time>2023-01-06T11:04:03Z</time><name>PT1313</name></trkpt>
<trkpt lat="53.002625" lon="-3.253629"><ele>552</ele><time>2023-01-06T11:04:07Z</time><name>PT1314</name></trkpt>
<trkpt lat="53.002620" lon="-3.253640"><ele>552</ele><time>2023-01-06T11:04:11Z</time><name>PT1315</name></trkpt>
<trkpt lat="53.002603" lon="-3.253670"><ele>553</ele><time>2023-01-06T11:04:39Z</time><name>PT1316</name></trkpt>
<trkpt lat="53.002595" lon="-3.253678"><ele>553</ele><time>2023-01-06T11:04:42Z</time><name>PT1317</name></trkpt>
<trkpt lat="53.002591" lon="-3.253691"><ele>554</ele><time>2023-01-06T11:04:50Z</time><name>PT1318</name></trkpt>
<trkpt lat="53.002585" lon="-3.253677"><ele>554</ele><time>2023-01-06T11:05:00Z</time><name>PT1319</name></trkpt>
<trkpt lat="53.002589" lon="-3.253672"><ele>553</ele><time>2023-01-06T11:05:03Z</time><name>PT1320</name></trkpt>
<trkpt lat="53.002586" lon="-3.253645"><ele>554</ele><time>2023-01-06T11:05:17Z</time><name>PT1321</name></trkpt>
<trkpt lat="53.002585" lon="-3.253643"><ele>554</ele><time>2023-01-06T11:05:20Z</time><name>PT1322</name></trkpt>
<trkpt lat="53.002590" lon="-3.253625"><ele>554</ele><time>2023-01-06T11:05:24Z</time><name>PT1323</name></trkpt>
<trkpt lat="53.002593" lon="-3.253609"><ele>554</ele><time>2023-01-06T11:05:27Z</time><name>PT1324</name></trkpt>
<trkpt lat="53.002598" lon="-3.253608"><ele>554</ele><time>2023-01-06T11:05:30Z</time><name>PT1325</name></trkpt>
<trkpt lat="53.002599" lon="-3.253611"><ele>554</ele><time>2023-01-06T11:05:45Z</time><name>PT1326</name></trkpt>
<trkpt lat="53.002599" lon="-3.253614"><ele>554</ele><time>2023-01-06T11:05:49Z</time><name>PT1327</name></trkpt>
<trkpt lat="53.002599" lon="-3.253631"><ele>554</ele><time>2023-01-06T11:06:17Z</time><name>PT1328</name></trkpt>
<trkpt lat="53.002606" lon="-3.253636"><ele>553</ele><time>2023-01-06T11:06:21Z</time><name>PT1329</name></trkpt>
<trkpt lat="53.002602" lon="-3.253634"><ele>553</ele><time>2023-01-06T11:06:24Z</time><name>PT1330</name></trkpt>
<trkpt lat="53.002608" lon="-3.253624"><ele>552</ele><time>2023-01-06T11:06:28Z</time><name>PT1331</name></trkpt>
<trkpt lat="53.002600" lon="-3.253592"><ele>552</ele><time>2023-01-06T11:06:55Z</time><name>PT1332</name></trkpt>
<trkpt lat="53.002600" lon="-3.253589"><ele>552</ele><time>2023-01-06T11:07:26Z</time><name>PT1333</name></trkpt>
<trkpt lat="53.002601" lon="-3.253587"><ele>552</ele><time>2023-01-06T11:07:30Z</time><name>PT1334</name></trkpt>
<trkpt lat="53.002599" lon="-3.253584"><ele>552</ele><time>2023-01-06T11:12:52Z</time><name>PT1335</name></trkpt>
<trkpt lat="53.002600" lon="-3.253580"><ele>552</ele><time>2023-01-06T11:12:56Z</time><name>PT1336</name></trkpt>
<trkpt lat="53.002601" lon="-3.253576"><ele>551</ele><time>2023-01-06T11:21:30Z</time><name>PT1337</name></trkpt>
<trkpt lat="53.002601" lon="-3.253574"><ele>551</ele><time>2023-01-06T11:21:34Z</time><name>PT1338</name></trkpt>
<trkpt lat="53.002609" lon="-3.253566"><ele>549</ele><time>2023-01-06T11:21:48Z</time><name>PT1339</name></trkpt>
<trkpt lat="53.002614" lon="-3.253568"><ele>549</ele><time>2023-01-06T11:21:51Z</time><name>PT1340</name></trkpt>
<trkpt lat="53.002616" lon="-3.253567"><ele>548</ele><time>2023-01-06T11:21:54Z</time><name>PT1341</name></trkpt>
<trkpt lat="53.002616" lon="-3.253559"><ele>548</ele><time>2023-01-06T11:22:19Z</time><name>PT1342</name></trkpt>
<trkpt lat="53.002621" lon="-3.253566"><ele>549</ele><time>2023-01-06T11:22:22Z</time><name>PT1343</name></trkpt>
<trkpt lat="53.002620" lon="-3.253564"><ele>548</ele><time>2023-01-06T11:22:25Z</time><name>PT1344</name></trkpt>
<trkpt lat="53.002620" lon="-3.253568"><ele>548</ele><time>2023-01-06T11:22:36Z</time><name>PT1345</name></trkpt>
<trkpt lat="53.002624" lon="-3.253606"><ele>548</ele><time>2023-01-06T11:22:39Z</time><name>PT1346</name></trkpt>
<trkpt lat="53.002623" lon="-3.253625"><ele>549</ele><time>2023-01-06T11:22:42Z</time><name>PT1347</name></trkpt>
<trkpt lat="53.002623" lon="-3.253657"><ele>548</ele><time>2023-01-06T11:22:46Z</time><name>PT1348</name></trkpt>
<trkpt lat="53.002622" lon="-3.253705"><ele>549</ele><time>2023-01-06T11:22:50Z</time><name>PT1349</name></trkpt>
<trkpt lat="53.002615" lon="-3.253759"><ele>548</ele><time>2023-01-06T11:22:54Z</time><name>PT1350</name></trkpt>
<trkpt lat="53.002618" lon="-3.253800"><ele>548</ele><time>2023-01-06T11:22:57Z</time><name>PT1351</name></trkpt>
<trkpt lat="53.002610" lon="-3.253848"><ele>547</ele><time>2023-01-06T11:23:00Z</time><name>PT1352</name></trkpt>
<trkpt lat="53.002601" lon="-3.253896"><ele>546</ele><time>2023-01-06T11:23:03Z</time><name>PT1353</name></trkpt>
<trkpt lat="53.002596" lon="-3.253954"><ele>546</ele><time>2023-01-06T11:23:07Z</time><name>PT1354</name></trkpt>
<trkpt lat="53.002597" lon="-3.254004"><ele>544</ele><time>2023-01-06T11:23:11Z</time><name>PT1355</name></trkpt>
<trkpt lat="53.002594" lon="-3.254052"><ele>544</ele><time>2023-01-06T11:23:15Z</time><name>PT1356</name></trkpt>
<trkpt lat="53.002590" lon="-3.254078"><ele>543</ele><time>2023-01-06T11:23:18Z</time><name>PT1357</name></trkpt>
<trkpt lat="53.002588" lon="-3.254113"><ele>543</ele><time>2023-01-06T11:23:21Z</time><name>PT1358</name></trkpt>
<trkpt lat="53.002593" lon="-3.254153"><ele>542</ele><time>2023-01-06T11:23:24Z</time><name>PT1359</name></trkpt>
<trkpt lat="53.002590" lon="-3.254206"><ele>541</ele><time>2023-01-06T11:23:28Z</time><name>PT1360</name></trkpt>
<trkpt lat="53.002589" lon="-3.254270"><ele>540</ele><time>2023-01-06T11:23:32Z</time><name>PT1361</name></trkpt>
<trkpt lat="53.002575" lon="-3.254316"><ele>537</ele><time>2023-01-06T11:23:35Z</time><name>PT1362</name></trkpt>
<trkpt lat="53.002572" lon="-3.254334"><ele>536</ele><time>2023-01-06T11:23:38Z</time><name>PT1363</name></trkpt>
<trkpt lat="53.002562" lon="-3.254393"><ele>535</ele><time>2023-01-06T11:23:42Z</time><name>PT1364</name></trkpt>
<trkpt lat="53.002570" lon="-3.254431"><ele>535</ele><time>2023-01-06T11:23:45Z</time><name>PT1365</name></trkpt>
<trkpt lat="53.002567" lon="-3.254472"><ele>532</ele><time>2023-01-06T11:23:49Z</time><name>PT1366</name></trkpt>
<trkpt lat="53.002572" lon="-3.254518"><ele>531</ele><time>2023-01-06T11:23:53Z</time><name>PT1367</name></trkpt>
<trkpt lat="53.002574" lon="-3.254551"><ele>529</ele><time>2023-01-06T11:23:57Z</time><name>PT1368</name></trkpt>
<trkpt lat="53.002573" lon="-3.254607"><ele>528</ele><time>2023-01-06T11:24:00Z</time><name>PT1369</name></trkpt>
<trkpt lat="53.002568" lon="-3.254650"><ele>526</ele><time>2023-01-06T11:24:03Z</time><name>PT1370</name></trkpt>
<trkpt lat="53.002563" lon="-3.254701"><ele>524</ele><time>2023-01-06T11:24:06Z</time><name>PT1371</name></trkpt>
<trkpt lat="53.002566" lon="-3.254754"><ele>523</ele><time>2023-01-06T11:24:10Z</time><name>PT1372</name></trkpt>
<trkpt lat="53.002569" lon="-3.254811"><ele>522</ele><time>2023-01-06T11:24:14Z</time><name>PT1373</name></trkpt>
<trkpt lat="53.002572" lon="-3.254868"><ele>522</ele><time>2023-01-06T11:24:18Z</time><name>PT1374</name></trkpt>
<trkpt lat="53.002577" lon="-3.254926"><ele>521</ele><time>2023-01-06T11:24:22Z</time><name>PT1375</name></trkpt>
<trkpt lat="53.002584" lon="-3.254981"><ele>520</ele><time>2023-01-06T11:24:26Z</time><name>PT1376</name></trkpt>
<trkpt lat="53.002587" lon="-3.255025"><ele>519</ele><time>2023-01-06T11:24:29Z</time><name>PT1377</name></trkpt>
<trkpt lat="53.002590" lon="-3.255072"><ele>518</ele><time>2023-01-06T11:24:32Z</time><name>PT1378</name></trkpt>
<trkpt lat="53.002600" lon="-3.255128"><ele>518</ele><time>2023-01-06T11:24:36Z</time><name>PT1379</name></trkpt>
<trkpt lat="53.002606" lon="-3.255175"><ele>518</ele><time>2023-01-06T11:24:39Z</time><name>PT1380</name></trkpt>
<trkpt lat="53.002613" lon="-3.255236"><ele>517</ele><time>2023-01-06T11:24:43Z</time><name>PT1381</name></trkpt>
<trkpt lat="53.002622" lon="-3.255283"><ele>516</ele><time>2023-01-06T11:24:46Z</time><name>PT1382</name></trkpt>
<trkpt lat="53.002623" lon="-3.255347"><ele>515</ele><time>2023-01-06T11:24:50Z</time><name>PT1383</name></trkpt>
<trkpt lat="53.002630" lon="-3.255417"><ele>514</ele><time>2023-01-06T11:24:54Z</time><name>PT1384</name></trkpt>
<trkpt lat="53.002638" lon="-3.255477"><ele>513</ele><time>2023-01-06T11:24:58Z</time><name>PT1385</name></trkpt>
<trkpt lat="53.002648" lon="-3.255540"><ele>512</ele><time>2023-01-06T11:25:02Z</time><name>PT1386</name></trkpt>
<trkpt lat="53.002658" lon="-3.255583"><ele>512</ele><time>2023-01-06T11:25:05Z</time><name>PT1387</name></trkpt>
<trkpt lat="53.002663" lon="-3.255639"><ele>510</ele><time>2023-01-06T11:25:09Z</time><name>PT1388</name></trkpt>
<trkpt lat="53.002668" lon="-3.255682"><ele>510</ele><time>2023-01-06T11:25:12Z</time><name>PT1389</name></trkpt>
<trkpt lat="53.002674" lon="-3.255742"><ele>510</ele><time>2023-01-06T11:25:16Z</time><name>PT1390</name></trkpt>
<trkpt lat="53.002683" lon="-3.255792"><ele>509</ele><time>2023-01-06T11:25:20Z</time><name>PT1391</name></trkpt>
<trkpt lat="53.002691" lon="-3.255833"><ele>508</ele><time>2023-01-06T11:25:23Z</time><name>PT1392</name></trkpt>
<trkpt lat="53.002699" lon="-3.255884"><ele>507</ele><time>2023-01-06T11:25:27Z</time><name>PT1393</name></trkpt>
<trkpt lat="53.002707" lon="-3.255923"><ele>506</ele><time>2023-01-06T11:25:30Z</time><name>PT1394</name></trkpt>
<trkpt lat="53.002714" lon="-3.255980"><ele>505</ele><time>2023-01-06T11:25:34Z</time><name>PT1395</name></trkpt>
<trkpt lat="53.002721" lon="-3.256029"><ele>504</ele><time>2023-01-06T11:25:38Z</time><name>PT1396</name></trkpt>
<trkpt lat="53.002724" lon="-3.256071"><ele>503</ele><time>2023-01-06T11:25:41Z</time><name>PT1397</name></trkpt>
<trkpt lat="53.002725" lon="-3.256110"><ele>502</ele><time>2023-01-06T11:25:44Z</time><name>PT1398</name></trkpt>
<trkpt lat="53.002733" lon="-3.256158"><ele>501</ele><time>2023-01-06T11:25:48Z</time><name>PT1399</name></trkpt>
<trkpt lat="53.002740" lon="-3.256194"><ele>501</ele><time>2023-01-06T11:25:51Z</time><name>PT1400</name></trkpt>
<trkpt lat="53.002749" lon="-3.256228"><ele>500</ele><time>2023-01-06T11:25:54Z</time><name>PT1401</name></trkpt>
<trkpt lat="53.002751" lon="-3.256284"><ele>499</ele><time>2023-01-06T11:25:58Z</time><name>PT1402</name></trkpt>
<trkpt lat="53.002752" lon="-3.256325"><ele>498</ele><time>2023-01-06T11:26:01Z</time><name>PT1403</name></trkpt>
<trkpt lat="53.002756" lon="-3.256379"><ele>497</ele><time>2023-01-06T11:26:05Z</time><name>PT1404</name></trkpt>
<trkpt lat="53.002758" lon="-3.256426"><ele>496</ele><time>2023-01-06T11:26:08Z</time><name>PT1405</name></trkpt>
<trkpt lat="53.002760" lon="-3.256489"><ele>495</ele><time>2023-01-06T11:26:12Z</time><name>PT1406</name></trkpt>
<trkpt lat="53.002763" lon="-3.256548"><ele>494</ele><time>2023-01-06T11:26:16Z</time><name>PT1407</name></trkpt>
<trkpt lat="53.002765" lon="-3.256607"><ele>493</ele><time>2023-01-06T11:26:20Z</time><name>PT1408</name></trkpt>
<trkpt lat="53.002764" lon="-3.256671"><ele>492</ele><time>2023-01-06T11:26:24Z</time><name>PT1409</name></trkpt>
<trkpt lat="53.002765" lon="-3.256727"><ele>491</ele><time>2023-01-06T11:26:28Z</time><name>PT1410</name></trkpt>
<trkpt lat="53.002763" lon="-3.256781"><ele>490</ele><time>2023-01-06T11:26:32Z</time><name>PT1411</name></trkpt>
<trkpt lat="53.002760" lon="-3.256834"><ele>489</ele><time>2023-01-06T11:26:36Z</time><name>PT1412</name></trkpt>
<trkpt lat="53.002760" lon="-3.256877"><ele>488</ele><time>2023-01-06T11:26:39Z</time><name>PT1413</name></trkpt>
<trkpt lat="53.002757" lon="-3.256913"><ele>487</ele><time>2023-01-06T11:26:42Z</time><name>PT1414</name></trkpt>
<trkpt lat="53.002756" lon="-3.256949"><ele>487</ele><time>2023-01-06T11:26:45Z</time><name>PT1415</name></trkpt>
<trkpt lat="53.002749" lon="-3.257008"><ele>485</ele><time>2023-01-06T11:26:49Z</time><name>PT1416</name></trkpt>
<trkpt lat="53.002750" lon="-3.257046"><ele>485</ele><time>2023-01-06T11:26:52Z</time><name>PT1417</name></trkpt>
<trkpt lat="53.002748" lon="-3.257096"><ele>485</ele><time>2023-01-06T11:26:56Z</time><name>PT1418</name></trkpt>
<trkpt lat="53.002742" lon="-3.257131"><ele>484</ele><time>2023-01-06T11:26:59Z</time><name>PT1419</name></trkpt>
<trkpt lat="53.002733" lon="-3.257188"><ele>483</ele><time>2023-01-06T11:27:03Z</time><name>PT1420</name></trkpt>
<trkpt lat="53.002730" lon="-3.257231"><ele>483</ele><time>2023-01-06T11:27:06Z</time><name>PT1421</name></trkpt>
<trkpt lat="53.002721" lon="-3.257284"><ele>482</ele><time>2023-01-06T11:27:10Z</time><name>PT1422</name></trkpt>
<trkpt lat="53.002714" lon="-3.257325"><ele>481</ele><time>2023-01-06T11:27:13Z</time><name>PT1423</name></trkpt>
<trkpt lat="53.002704" lon="-3.257384"><ele>481</ele><time>2023-01-06T11:27:17Z</time><name>PT1424</name></trkpt>
<trkpt lat="53.002698" lon="-3.257438"><ele>480</ele><time>2023-01-06T11:27:20Z</time><name>PT1425</name></trkpt>
<trkpt lat="53.002693" lon="-3.257497"><ele>479</ele><time>2023-01-06T11:27:23Z</time><name>PT1426</name></trkpt>
<trkpt lat="53.002680" lon="-3.257566"><ele>479</ele><time>2023-01-06T11:27:27Z</time><name>PT1427</name></trkpt>
<trkpt lat="53.002666" lon="-3.257639"><ele>478</ele><time>2023-01-06T11:27:31Z</time><name>PT1428</name></trkpt>
<trkpt lat="53.002654" lon="-3.257709"><ele>477</ele><time>2023-01-06T11:27:35Z</time><name>PT1429</name></trkpt>
<trkpt lat="53.002643" lon="-3.257789"><ele>477</ele><time>2023-01-06T11:27:39Z</time><name>PT1430</name></trkpt>
<trkpt lat="53.002626" lon="-3.257863"><ele>476</ele><time>2023-01-06T11:27:43Z</time><name>PT1431</name></trkpt>
<trkpt lat="53.002612" lon="-3.257919"><ele>476</ele><time>2023-01-06T11:27:47Z</time><name>PT1432</name></trkpt>
<trkpt lat="53.002597" lon="-3.257979"><ele>475</ele><time>2023-01-06T11:27:50Z</time><name>PT1433</name></trkpt>
<trkpt lat="53.002583" lon="-3.258049"><ele>475</ele><time>2023-01-06T11:27:54Z</time><name>PT1434</name></trkpt>
<trkpt lat="53.002573" lon="-3.258104"><ele>474</ele><time>2023-01-06T11:27:57Z</time><name>PT1435</name></trkpt>
<trkpt lat="53.002561" lon="-3.258158"><ele>474</ele><time>2023-01-06T11:28:00Z</time><name>PT1436</name></trkpt>
<trkpt lat="53.002545" lon="-3.258232"><ele>474</ele><time>2023-01-06T11:28:04Z</time><name>PT1437</name></trkpt>
<trkpt lat="53.002529" lon="-3.258304"><ele>473</ele><time>2023-01-06T11:28:08Z</time><name>PT1438</name></trkpt>
<trkpt lat="53.002516" lon="-3.258366"><ele>473</ele><time>2023-01-06T11:28:11Z</time><name>PT1439</name></trkpt>
<trkpt lat="53.002503" lon="-3.258414"><ele>473</ele><time>2023-01-06T11:28:14Z</time><name>PT1440</name></trkpt>
<trkpt lat="53.002484" lon="-3.258487"><ele>472</ele><time>2023-01-06T11:28:18Z</time><name>PT1441</name></trkpt>
<trkpt lat="53.002468" lon="-3.258561"><ele>471</ele><time>2023-01-06T11:28:22Z</time><name>PT1442</name></trkpt>
<trkpt lat="53.002450" lon="-3.258632"><ele>471</ele><time>2023-01-06T11:28:26Z</time><name>PT1443</name></trkpt>
<trkpt lat="53.002436" lon="-3.258700"><ele>470</ele><time>2023-01-06T11:28:30Z</time><name>PT1444</name></trkpt>
<trkpt lat="53.002422" lon="-3.258758"><ele>470</ele><time>2023-01-06T11:28:33Z</time><name>PT1445</name></trkpt>
<trkpt lat="53.002403" lon="-3.258827"><ele>469</ele><time>2023-01-06T11:28:37Z</time><name>PT1446</name></trkpt>
<trkpt lat="53.002390" lon="-3.258883"><ele>468</ele><time>2023-01-06T11:28:40Z</time><name>PT1447</name></trkpt>
<trkpt lat="53.002371" lon="-3.258963"><ele>468</ele><time>2023-01-06T11:28:44Z</time><name>PT1448</name></trkpt>
<trkpt lat="53.002353" lon="-3.259038"><ele>468</ele><time>2023-01-06T11:28:48Z</time><name>PT1449</name></trkpt>
<trkpt lat="53.002340" lon="-3.259094"><ele>467</ele><time>2023-01-06T11:28:51Z</time><name>PT1450</name></trkpt>
<trkpt lat="53.002324" lon="-3.259168"><ele>467</ele><time>2023-01-06T11:28:55Z</time><name>PT1451</name></trkpt>
<trkpt lat="53.002309" lon="-3.259247"><ele>467</ele><time>2023-01-06T11:28:59Z</time><name>PT1452</name></trkpt>
<trkpt lat="53.002299" lon="-3.259307"><ele>467</ele><time>2023-01-06T11:29:02Z</time><name>PT1453</name></trkpt>
<trkpt lat="53.002285" lon="-3.259385"><ele>466</ele><time>2023-01-06T11:29:06Z</time><name>PT1454</name></trkpt>
<trkpt lat="53.002272" lon="-3.259444"><ele>466</ele><time>2023-01-06T11:29:09Z</time><name>PT1455</name></trkpt>
<trkpt lat="53.002258" lon="-3.259500"><ele>466</ele><time>2023-01-06T11:29:12Z</time><name>PT1456</name></trkpt>
<trkpt lat="53.002239" lon="-3.259573"><ele>466</ele><time>2023-01-06T11:29:16Z</time><name>PT1457</name></trkpt>
<trkpt lat="53.002220" lon="-3.259647"><ele>466</ele><time>2023-01-06T11:29:20Z</time><name>PT1458</name></trkpt>
<trkpt lat="53.002197" lon="-3.259721"><ele>467</ele><time>2023-01-06T11:29:24Z</time><name>PT1459</name></trkpt>
<trkpt lat="53.002165" lon="-3.259789"><ele>467</ele><time>2023-01-06T11:29:28Z</time><name>PT1460</name></trkpt>
<trkpt lat="53.002139" lon="-3.259830"><ele>467</ele><time>2023-01-06T11:29:31Z</time><name>PT1461</name></trkpt>
<trkpt lat="53.002102" lon="-3.259876"><ele>467</ele><time>2023-01-06T11:29:35Z</time><name>PT1462</name></trkpt>
<trkpt lat="53.002069" lon="-3.259910"><ele>466</ele><time>2023-01-06T11:29:38Z</time><name>PT1463</name></trkpt>
<trkpt lat="53.002041" lon="-3.259935"><ele>466</ele><time>2023-01-06T11:29:42Z</time><name>PT1464</name></trkpt>
<trkpt lat="53.001994" lon="-3.259957"><ele>465</ele><time>2023-01-06T11:29:46Z</time><name>PT1465</name></trkpt>
<trkpt lat="53.001954" lon="-3.259976"><ele>464</ele><time>2023-01-06T11:29:49Z</time><name>PT1466</name></trkpt>
<trkpt lat="53.001908" lon="-3.260006"><ele>464</ele><time>2023-01-06T11:29:53Z</time><name>PT1467</name></trkpt>
<trkpt lat="53.001886" lon="-3.260038"><ele>464</ele><time>2023-01-06T11:29:56Z</time><name>PT1468</name></trkpt>
<trkpt lat="53.001864" lon="-3.260029"><ele>464</ele><time>2023-01-06T11:30:00Z</time><name>PT1469</name></trkpt>
<trkpt lat="53.001839" lon="-3.259969"><ele>463</ele><time>2023-01-06T11:30:04Z</time><name>PT1470</name></trkpt>
<trkpt lat="53.001829" lon="-3.259917"><ele>463</ele><time>2023-01-06T11:30:07Z</time><name>PT1471</name></trkpt>
<trkpt lat="53.001812" lon="-3.259855"><ele>462</ele><time>2023-01-06T11:30:11Z</time><name>PT1472</name></trkpt>
<trkpt lat="53.001777" lon="-3.259813"><ele>462</ele><time>2023-01-06T11:30:15Z</time><name>PT1473</name></trkpt>
<trkpt lat="53.001751" lon="-3.259787"><ele>462</ele><time>2023-01-06T11:30:18Z</time><name>PT1474</name></trkpt>
<trkpt lat="53.001723" lon="-3.259758"><ele>462</ele><time>2023-01-06T11:30:21Z</time><name>PT1475</name></trkpt>
<trkpt lat="53.001697" lon="-3.259733"><ele>462</ele><time>2023-01-06T11:30:25Z</time><name>PT1476</name></trkpt>
<trkpt lat="53.001665" lon="-3.259713"><ele>462</ele><time>2023-01-06T11:30:29Z</time><name>PT1477</name></trkpt>
<trkpt lat="53.001645" lon="-3.259684"><ele>462</ele><time>2023-01-06T11:30:32Z</time><name>PT1478</name></trkpt>
<trkpt lat="53.001624" lon="-3.259642"><ele>462</ele><time>2023-01-06T11:30:36Z</time><name>PT1479</name></trkpt>
<trkpt lat="53.001603" lon="-3.259623"><ele>461</ele><time>2023-01-06T11:30:39Z</time><name>PT1480</name></trkpt>
<trkpt lat="53.001577" lon="-3.259564"><ele>462</ele><time>2023-01-06T11:30:43Z</time><name>PT1481</name></trkpt>
<trkpt lat="53.001551" lon="-3.259519"><ele>462</ele><time>2023-01-06T11:30:46Z</time><name>PT1482</name></trkpt>
<trkpt lat="53.001531" lon="-3.259451"><ele>462</ele><time>2023-01-06T11:30:50Z</time><name>PT1483</name></trkpt>
<trkpt lat="53.001530" lon="-3.259396"><ele>462</ele><time>2023-01-06T11:30:53Z</time><name>PT1484</name></trkpt>
<trkpt lat="53.001528" lon="-3.259360"><ele>462</ele><time>2023-01-06T11:30:56Z</time><name>PT1485</name></trkpt>
<trkpt lat="53.001529" lon="-3.259360"><ele>462</ele><time>2023-01-06T11:30:59Z</time><name>PT1486</name></trkpt>
<trkpt lat="53.001531" lon="-3.259328"><ele>462</ele><time>2023-01-06T11:31:09Z</time><name>PT1487</name></trkpt>
<trkpt lat="53.001525" lon="-3.259245"><ele>462</ele><time>2023-01-06T11:31:13Z</time><name>PT1488</name></trkpt>
<trkpt lat="53.001518" lon="-3.259182"><ele>461</ele><time>2023-01-06T11:31:16Z</time><name>PT1489</name></trkpt>
<trkpt lat="53.001502" lon="-3.259131"><ele>461</ele><time>2023-01-06T11:31:19Z</time><name>PT1490</name></trkpt>
<trkpt lat="53.001485" lon="-3.259076"><ele>461</ele><time>2023-01-06T11:31:22Z</time><name>PT1491</name></trkpt>
<trkpt lat="53.001463" lon="-3.259003"><ele>461</ele><time>2023-01-06T11:31:26Z</time><name>PT1492</name></trkpt>
<trkpt lat="53.001436" lon="-3.258942"><ele>460</ele><time>2023-01-06T11:31:30Z</time><name>PT1493</name></trkpt>
<trkpt lat="53.001409" lon="-3.258863"><ele>460</ele><time>2023-01-06T11:31:34Z</time><name>PT1494</name></trkpt>
<trkpt lat="53.001401" lon="-3.258813"><ele>459</ele><time>2023-01-06T11:31:37Z</time><name>PT1495</name></trkpt>
<trkpt lat="53.001403" lon="-3.258760"><ele>458</ele><time>2023-01-06T11:31:40Z</time><name>PT1496</name></trkpt>
<trkpt lat="53.001424" lon="-3.258690"><ele>458</ele><time>2023-01-06T11:31:44Z</time><name>PT1497</name></trkpt>
<trkpt lat="53.001442" lon="-3.258631"><ele>458</ele><time>2023-01-06T11:31:48Z</time><name>PT1498</name></trkpt>
<trkpt lat="53.001458" lon="-3.258566"><ele>457</ele><time>2023-01-06T11:31:52Z</time><name>PT1499</name></trkpt>
<trkpt lat="53.001465" lon="-3.258489"><ele>458</ele><time>2023-01-06T11:31:56Z</time><name>PT1500</name></trkpt>
<trkpt lat="53.001469" lon="-3.258437"><ele>458</ele><time>2023-01-06T11:31:59Z</time><name>PT1501</name></trkpt>
<trkpt lat="53.001471" lon="-3.258364"><ele>459</ele><time>2023-01-06T11:32:03Z</time><name>PT1502</name></trkpt>
<trkpt lat="53.001471" lon="-3.258306"><ele>459</ele><time>2023-01-06T11:32:06Z</time><name>PT1503</name></trkpt>
<trkpt lat="53.001473" lon="-3.258232"><ele>460</ele><time>2023-01-06T11:32:10Z</time><name>PT1504</name></trkpt>
<trkpt lat="53.001472" lon="-3.258170"><ele>460</ele><time>2023-01-06T11:32:14Z</time><name>PT1505</name></trkpt>
<trkpt lat="53.001470" lon="-3.258123"><ele>460</ele><time>2023-01-06T11:32:17Z</time><name>PT1506</name></trkpt>
<trkpt lat="53.001466" lon="-3.258063"><ele>460</ele><time>2023-01-06T11:32:20Z</time><name>PT1507</name></trkpt>
<trkpt lat="53.001458" lon="-3.257983"><ele>460</ele><time>2023-01-06T11:32:24Z</time><name>PT1508</name></trkpt>
<trkpt lat="53.001455" lon="-3.257927"><ele>460</ele><time>2023-01-06T11:32:27Z</time><name>PT1509</name></trkpt>
<trkpt lat="53.001447" lon="-3.257847"><ele>460</ele><time>2023-01-06T11:32:31Z</time><name>PT1510</name></trkpt>
<trkpt lat="53.001443" lon="-3.257770"><ele>460</ele><time>2023-01-06T11:32:35Z</time><name>PT1511</name></trkpt>
<trkpt lat="53.001432" lon="-3.257713"><ele>461</ele><time>2023-01-06T11:32:38Z</time><name>PT1512</name></trkpt>
<trkpt lat="53.001419" lon="-3.257637"><ele>460</ele><time>2023-01-06T11:32:42Z</time><name>PT1513</name></trkpt>
<trkpt lat="53.001401" lon="-3.257566"><ele>460</ele><time>2023-01-06T11:32:46Z</time><name>PT1514</name></trkpt>
<trkpt lat="53.001388" lon="-3.257514"><ele>460</ele><time>2023-01-06T11:32:49Z</time><name>PT1515</name></trkpt>
<trkpt lat="53.001363" lon="-3.257436"><ele>462</ele><time>2023-01-06T11:32:53Z</time><name>PT1516</name></trkpt>
<trkpt lat="53.001347" lon="-3.257387"><ele>461</ele><time>2023-01-06T11:32:56Z</time><name>PT1517</name></trkpt>
<trkpt lat="53.001320" lon="-3.257323"><ele>461</ele><time>2023-01-06T11:32:59Z</time><name>PT1518</name></trkpt>
<trkpt lat="53.001296" lon="-3.257260"><ele>462</ele><time>2023-01-06T11:33:03Z</time><name>PT1519</name></trkpt>
<trkpt lat="53.001272" lon="-3.257195"><ele>461</ele><time>2023-01-06T11:33:07Z</time><name>PT1520</name></trkpt>
<trkpt lat="53.001242" lon="-3.257137"><ele>461</ele><time>2023-01-06T11:33:11Z</time><name>PT1521</name></trkpt>
<trkpt lat="53.001222" lon="-3.257097"><ele>460</ele><time>2023-01-06T11:33:14Z</time><name>PT1522</name></trkpt>
<trkpt lat="53.001194" lon="-3.257047"><ele>460</ele><time>2023-01-06T11:33:18Z</time><name>PT1523</name></trkpt>
<trkpt lat="53.001162" lon="-3.256982"><ele>460</ele><time>2023-01-06T11:33:22Z</time><name>PT1524</name></trkpt>
<trkpt lat="53.001130" lon="-3.256922"><ele>460</ele><time>2023-01-06T11:33:26Z</time><name>PT1525</name></trkpt>
<trkpt lat="53.001100" lon="-3.256867"><ele>460</ele><time>2023-01-06T11:33:29Z</time><name>PT1526</name></trkpt>
<trkpt lat="53.001075" lon="-3.256813"><ele>459</ele><time>2023-01-06T11:33:33Z</time><name>PT1527</name></trkpt>
<trkpt lat="53.001046" lon="-3.256751"><ele>459</ele><time>2023-01-06T11:33:37Z</time><name>PT1528</name></trkpt>
<trkpt lat="53.001023" lon="-3.256701"><ele>459</ele><time>2023-01-06T11:33:40Z</time><name>PT1529</name></trkpt>
<trkpt lat="53.001003" lon="-3.256652"><ele>458</ele><time>2023-01-06T11:33:43Z</time><name>PT1530</name></trkpt>
<trkpt lat="53.000977" lon="-3.256587"><ele>458</ele><time>2023-01-06T11:33:47Z</time><name>PT1531</name></trkpt>
<trkpt lat="53.000954" lon="-3.256541"><ele>458</ele><time>2023-01-06T11:33:50Z</time><name>PT1532</name></trkpt>
<trkpt lat="53.000927" lon="-3.256488"><ele>457</ele><time>2023-01-06T11:33:54Z</time><name>PT1533</name></trkpt>
<trkpt lat="53.000898" lon="-3.256430"><ele>456</ele><time>2023-01-06T11:33:58Z</time><name>PT1534</name></trkpt>
<trkpt lat="53.000871" lon="-3.256384"><ele>455</ele><time>2023-01-06T11:34:02Z</time><name>PT1535</name></trkpt>
<trkpt lat="53.000854" lon="-3.256348"><ele>455</ele><time>2023-01-06T11:34:05Z</time><name>PT1536</name></trkpt>
<trkpt lat="53.000835" lon="-3.256311"><ele>454</ele><time>2023-01-06T11:34:08Z</time><name>PT1537</name></trkpt>
<trkpt lat="53.000812" lon="-3.256255"><ele>453</ele><time>2023-01-06T11:34:12Z</time><name>PT1538</name></trkpt>
<trkpt lat="53.000794" lon="-3.256205"><ele>454</ele><time>2023-01-06T11:34:15Z</time><name>PT1539</name></trkpt>
<trkpt lat="53.000768" lon="-3.256146"><ele>454</ele><time>2023-01-06T11:34:19Z</time><name>PT1540</name></trkpt>
<trkpt lat="53.000751" lon="-3.256095"><ele>454</ele><time>2023-01-06T11:34:22Z</time><name>PT1541</name></trkpt>
<trkpt lat="53.000729" lon="-3.256036"><ele>454</ele><time>2023-01-06T11:34:26Z</time><name>PT1542</name></trkpt>
<trkpt lat="53.000714" lon="-3.256004"><ele>454</ele><time>2023-01-06T11:34:30Z</time><name>PT1543</name></trkpt>
<trkpt lat="53.000712" lon="-3.255993"><ele>454</ele><time>2023-01-06T11:34:33Z</time><name>PT1544</name></trkpt>
<trkpt lat="53.000715" lon="-3.255998"><ele>454</ele><time>2023-01-06T11:34:37Z</time><name>PT1545</name></trkpt>
<trkpt lat="53.000714" lon="-3.255993"><ele>453</ele><time>2023-01-06T11:34:48Z</time><name>PT1546</name></trkpt>
<trkpt lat="53.000695" lon="-3.255936"><ele>452</ele><time>2023-01-06T11:34:52Z</time><name>PT1547</name></trkpt>
<trkpt lat="53.000674" lon="-3.255894"><ele>452</ele><time>2023-01-06T11:34:55Z</time><name>PT1548</name></trkpt>
<trkpt lat="53.000661" lon="-3.255852"><ele>451</ele><time>2023-01-06T11:34:58Z</time><name>PT1549</name></trkpt>
<trkpt lat="53.000635" lon="-3.255788"><ele>451</ele><time>2023-01-06T11:35:02Z</time><name>PT1550</name></trkpt>
<trkpt lat="53.000619" lon="-3.255744"><ele>451</ele><time>2023-01-06T11:35:05Z</time><name>PT1551</name></trkpt>
<trkpt lat="53.000603" lon="-3.255698"><ele>451</ele><time>2023-01-06T11:35:08Z</time><name>PT1552</name></trkpt>
<trkpt lat="53.000586" lon="-3.255645"><ele>450</ele><time>2023-01-06T11:35:12Z</time><name>PT1553</name></trkpt>
<trkpt lat="53.000567" lon="-3.255595"><ele>450</ele><time>2023-01-06T11:35:16Z</time><name>PT1554</name></trkpt>
<trkpt lat="53.000542" lon="-3.255529"><ele>449</ele><time>2023-01-06T11:35:20Z</time><name>PT1555</name></trkpt>
<trkpt lat="53.000518" lon="-3.255459"><ele>449</ele><time>2023-01-06T11:35:24Z</time><name>PT1556</name></trkpt>
<trkpt lat="53.000494" lon="-3.255386"><ele>450</ele><time>2023-01-06T11:35:28Z</time><name>PT1557</name></trkpt>
<trkpt lat="53.000478" lon="-3.255333"><ele>450</ele><time>2023-01-06T11:35:31Z</time><name>PT1558</name></trkpt>
<trkpt lat="53.000447" lon="-3.255244"><ele>449</ele><time>2023-01-06T11:35:35Z</time><name>PT1559</name></trkpt>
<trkpt lat="53.000422" lon="-3.255152"><ele>450</ele><time>2023-01-06T11:35:39Z</time><name>PT1560</name></trkpt>
<trkpt lat="53.000406" lon="-3.255100"><ele>449</ele><time>2023-01-06T11:35:42Z</time><name>PT1561</name></trkpt>
<trkpt lat="53.000390" lon="-3.255043"><ele>448</ele><time>2023-01-06T11:35:46Z</time><name>PT1562</name></trkpt>
<trkpt lat="53.000373" lon="-3.254987"><ele>447</ele><time>2023-01-06T11:35:50Z</time><name>PT1563</name></trkpt>
<trkpt lat="53.000359" lon="-3.254933"><ele>447</ele><time>2023-01-06T11:35:53Z</time><name>PT1564</name></trkpt>
<trkpt lat="53.000347" lon="-3.254899"><ele>446</ele><time>2023-01-06T11:35:56Z</time><name>PT1565</name></trkpt>
<trkpt lat="53.000330" lon="-3.254851"><ele>445</ele><time>2023-01-06T11:36:00Z</time><name>PT1566</name></trkpt>
<trkpt lat="53.000316" lon="-3.254803"><ele>444</ele><time>2023-01-06T11:36:04Z</time><name>PT1567</name></trkpt>
<trkpt lat="53.000295" lon="-3.254740"><ele>444</ele><time>2023-01-06T11:36:08Z</time><name>PT1568</name></trkpt>
<trkpt lat="53.000275" lon="-3.254683"><ele>443</ele><time>2023-01-06T11:36:12Z</time><name>PT1569</name></trkpt>
<trkpt lat="53.000252" lon="-3.254625"><ele>443</ele><time>2023-01-06T11:36:16Z</time><name>PT1570</name></trkpt>
<trkpt lat="53.000229" lon="-3.254571"><ele>443</ele><time>2023-01-06T11:36:20Z</time><name>PT1571</name></trkpt>
<trkpt lat="53.000208" lon="-3.254522"><ele>442</ele><time>2023-01-06T11:36:24Z</time><name>PT1572</name></trkpt>
<trkpt lat="53.000193" lon="-3.254479"><ele>442</ele><time>2023-01-06T11:36:27Z</time><name>PT1573</name></trkpt>
<trkpt lat="53.000171" lon="-3.254416"><ele>442</ele><time>2023-01-06T11:36:31Z</time><name>PT1574</name></trkpt>
<trkpt lat="53.000140" lon="-3.254357"><ele>442</ele><time>2023-01-06T11:36:35Z</time><name>PT1575</name></trkpt>
<trkpt lat="53.000124" lon="-3.254322"><ele>440</ele><time>2023-01-06T11:36:38Z</time><name>PT1576</name></trkpt>
<trkpt lat="53.000094" lon="-3.254252"><ele>439</ele><time>2023-01-06T11:36:43Z</time><name>PT1577</name></trkpt>
<trkpt lat="53.000063" lon="-3.254173"><ele>440</ele><time>2023-01-06T11:36:47Z</time><name>PT1578</name></trkpt>
<trkpt lat="53.000041" lon="-3.254139"><ele>438</ele><time>2023-01-06T11:36:50Z</time><name>PT1579</name></trkpt>
<trkpt lat="53.000018" lon="-3.254075"><ele>439</ele><time>2023-01-06T11:36:54Z</time><name>PT1580</name></trkpt>
<trkpt lat="52.999996" lon="-3.254044"><ele>437</ele><time>2023-01-06T11:36:58Z</time><name>PT1581</name></trkpt>
<trkpt lat="52.999968" lon="-3.253993"><ele>436</ele><time>2023-01-06T11:37:02Z</time><name>PT1582</name></trkpt>
<trkpt lat="52.999942" lon="-3.253952"><ele>435</ele><time>2023-01-06T11:37:06Z</time><name>PT1583</name></trkpt>
<trkpt lat="52.999920" lon="-3.253903"><ele>433</ele><time>2023-01-06T11:37:10Z</time><name>PT1584</name></trkpt>
<trkpt lat="52.999893" lon="-3.253858"><ele>431</ele><time>2023-01-06T11:37:14Z</time><name>PT1585</name></trkpt>
<trkpt lat="52.999876" lon="-3.253829"><ele>430</ele><time>2023-01-06T11:37:17Z</time><name>PT1586</name></trkpt>
<trkpt lat="52.999849" lon="-3.253760"><ele>430</ele><time>2023-01-06T11:37:21Z</time><name>PT1587</name></trkpt>
<trkpt lat="52.999832" lon="-3.253723"><ele>430</ele><time>2023-01-06T11:37:24Z</time><name>PT1588</name></trkpt>
<trkpt lat="52.999804" lon="-3.253657"><ele>429</ele><time>2023-01-06T11:37:28Z</time><name>PT1589</name></trkpt>
<trkpt lat="52.999782" lon="-3.253623"><ele>429</ele><time>2023-01-06T11:37:31Z</time><name>PT1590</name></trkpt>
<trkpt lat="52.999757" lon="-3.253588"><ele>428</ele><time>2023-01-06T11:37:35Z</time><name>PT1591</name></trkpt>
<trkpt lat="52.999738" lon="-3.253549"><ele>427</ele><time>2023-01-06T11:37:38Z</time><name>PT1592</name></trkpt>
<trkpt lat="52.999715" lon="-3.253498"><ele>427</ele><time>2023-01-06T11:37:41Z</time><name>PT1593</name></trkpt>
<trkpt lat="52.999693" lon="-3.253452"><ele>426</ele><time>2023-01-06T11:37:45Z</time><name>PT1594</name></trkpt>
<trkpt lat="52.999671" lon="-3.253407"><ele>426</ele><time>2023-01-06T11:37:48Z</time><name>PT1595</name></trkpt>
<trkpt lat="52.999652" lon="-3.253372"><ele>426</ele><time>2023-01-06T11:37:51Z</time><name>PT1596</name></trkpt>
<trkpt lat="52.999636" lon="-3.253333"><ele>425</ele><time>2023-01-06T11:37:54Z</time><name>PT1597</name></trkpt>
<trkpt lat="52.999615" lon="-3.253277"><ele>424</ele><time>2023-01-06T11:37:58Z</time><name>PT1598</name></trkpt>
<trkpt lat="52.999601" lon="-3.253226"><ele>424</ele><time>2023-01-06T11:38:01Z</time><name>PT1599</name></trkpt>
<trkpt lat="52.999574" lon="-3.253172"><ele>425</ele><time>2023-01-06T11:38:05Z</time><name>PT1600</name></trkpt>
<trkpt lat="52.999560" lon="-3.253143"><ele>423</ele><time>2023-01-06T11:38:08Z</time><name>PT1601</name></trkpt>
<trkpt lat="52.999548" lon="-3.253101"><ele>422</ele><time>2023-01-06T11:38:11Z</time><name>PT1602</name></trkpt>
<trkpt lat="52.999524" lon="-3.253060"><ele>420</ele><time>2023-01-06T11:38:15Z</time><name>PT1603</name></trkpt>
<trkpt lat="52.999510" lon="-3.253018"><ele>419</ele><time>2023-01-06T11:38:18Z</time><name>PT1604</name></trkpt>
<trkpt lat="52.999493" lon="-3.252975"><ele>419</ele><time>2023-01-06T11:38:21Z</time><name>PT1605</name></trkpt>
<trkpt lat="52.999471" lon="-3.252922"><ele>417</ele><time>2023-01-06T11:38:25Z</time><name>PT1606</name></trkpt>
<trkpt lat="52.999446" lon="-3.252856"><ele>417</ele><time>2023-01-06T11:38:29Z</time><name>PT1607</name></trkpt>
<trkpt lat="52.999427" lon="-3.252811"><ele>417</ele><time>2023-01-06T11:38:32Z</time><name>PT1608</name></trkpt>
<trkpt lat="52.999410" lon="-3.252775"><ele>415</ele><time>2023-01-06T11:38:37Z</time><name>PT1609</name></trkpt>
<trkpt lat="52.999386" lon="-3.252721"><ele>414</ele><time>2023-01-06T11:38:40Z</time><name>PT1610</name></trkpt>
<trkpt lat="52.999368" lon="-3.252680"><ele>413</ele><time>2023-01-06T11:38:43Z</time><name>PT1611</name></trkpt>
<trkpt lat="52.999348" lon="-3.252639"><ele>412</ele><time>2023-01-06T11:38:46Z</time><name>PT1612</name></trkpt>
<trkpt lat="52.999322" lon="-3.252584"><ele>412</ele><time>2023-01-06T11:38:50Z</time><name>PT1613</name></trkpt>
<trkpt lat="52.999293" lon="-3.252543"><ele>411</ele><time>2023-01-06T11:38:54Z</time><name>PT1614</name></trkpt>
<trkpt lat="52.999272" lon="-3.252513"><ele>410</ele><time>2023-01-06T11:38:57Z</time><name>PT1615</name></trkpt>
<trkpt lat="52.999241" lon="-3.252462"><ele>409</ele><time>2023-01-06T11:39:01Z</time><name>PT1616</name></trkpt>
<trkpt lat="52.999219" lon="-3.252429"><ele>408</ele><time>2023-01-06T11:39:04Z</time><name>PT1617</name></trkpt>
<trkpt lat="52.999194" lon="-3.252384"><ele>407</ele><time>2023-01-06T11:39:08Z</time><name>PT1618</name></trkpt>
<trkpt lat="52.999171" lon="-3.252346"><ele>407</ele><time>2023-01-06T11:39:11Z</time><name>PT1619</name></trkpt>
<trkpt lat="52.999141" lon="-3.252310"><ele>407</ele><time>2023-01-06T11:39:15Z</time><name>PT1620</name></trkpt>
<trkpt lat="52.999117" lon="-3.252280"><ele>405</ele><time>2023-01-06T11:39:18Z</time><name>PT1621</name></trkpt>
<trkpt lat="52.999097" lon="-3.252240"><ele>405</ele><time>2023-01-06T11:39:21Z</time><name>PT1622</name></trkpt>
<trkpt lat="52.999065" lon="-3.252194"><ele>404</ele><time>2023-01-06T11:39:25Z</time><name>PT1623</name></trkpt>
<trkpt lat="52.999041" lon="-3.252164"><ele>405</ele><time>2023-01-06T11:39:28Z</time><name>PT1624</name></trkpt>
<trkpt lat="52.999023" lon="-3.252133"><ele>403</ele><time>2023-01-06T11:39:31Z</time><name>PT1625</name></trkpt>
<trkpt lat="52.998994" lon="-3.252094"><ele>402</ele><time>2023-01-06T11:39:35Z</time><name>PT1626</name></trkpt>
<trkpt lat="52.998971" lon="-3.252061"><ele>401</ele><time>2023-01-06T11:39:38Z</time><name>PT1627</name></trkpt>
<trkpt lat="52.998946" lon="-3.252024"><ele>401</ele><time>2023-01-06T11:39:41Z</time><name>PT1628</name></trkpt>
<trkpt lat="52.998913" lon="-3.251989"><ele>400</ele><time>2023-01-06T11:39:45Z</time><name>PT1629</name></trkpt>
<trkpt lat="52.998886" lon="-3.251958"><ele>399</ele><time>2023-01-06T11:39:48Z</time><name>PT1630</name></trkpt>
<trkpt lat="52.998853" lon="-3.251917"><ele>397</ele><time>2023-01-06T11:39:52Z</time><name>PT1631</name></trkpt>
<trkpt lat="52.998819" lon="-3.251877"><ele>396</ele><time>2023-01-06T11:39:56Z</time><name>PT1632</name></trkpt>
<trkpt lat="52.998793" lon="-3.251854"><ele>395</ele><time>2023-01-06T11:39:59Z</time><name>PT1633</name></trkpt>
<trkpt lat="52.998759" lon="-3.251813"><ele>395</ele><time>2023-01-06T11:40:03Z</time><name>PT1634</name></trkpt>
<trkpt lat="52.998726" lon="-3.251762"><ele>394</ele><time>2023-01-06T11:40:07Z</time><name>PT1635</name></trkpt>
<trkpt lat="52.998689" lon="-3.251708"><ele>394</ele><time>2023-01-06T11:40:11Z</time><name>PT1636</name></trkpt>
<trkpt lat="52.998656" lon="-3.251641"><ele>395</ele><time>2023-01-06T11:40:15Z</time><name>PT1637</name></trkpt>
<trkpt lat="52.998636" lon="-3.251602"><ele>393</ele><time>2023-01-06T11:40:18Z</time><name>PT1638</name></trkpt>
<trkpt lat="52.998617" lon="-3.251571"><ele>392</ele><time>2023-01-06T11:40:21Z</time><name>PT1639</name></trkpt>
<trkpt lat="52.998595" lon="-3.251530"><ele>392</ele><time>2023-01-06T11:40:24Z</time><name>PT1640</name></trkpt>
<trkpt lat="52.998575" lon="-3.251474"><ele>391</ele><time>2023-01-06T11:40:28Z</time><name>PT1641</name></trkpt>
<trkpt lat="52.998556" lon="-3.251426"><ele>390</ele><time>2023-01-06T11:40:31Z</time><name>PT1642</name></trkpt>
<trkpt lat="52.998538" lon="-3.251378"><ele>390</ele><time>2023-01-06T11:40:34Z</time><name>PT1643</name></trkpt>
<trkpt lat="52.998506" lon="-3.251316"><ele>389</ele><time>2023-01-06T11:40:38Z</time><name>PT1644</name></trkpt>
<trkpt lat="52.998477" lon="-3.251257"><ele>388</ele><time>2023-01-06T11:40:42Z</time><name>PT1645</name></trkpt>
<trkpt lat="52.998455" lon="-3.251194"><ele>388</ele><time>2023-01-06T11:40:46Z</time><name>PT1646</name></trkpt>
<trkpt lat="52.998428" lon="-3.251145"><ele>386</ele><time>2023-01-06T11:40:50Z</time><name>PT1647</name></trkpt>
<trkpt lat="52.998400" lon="-3.251086"><ele>385</ele><time>2023-01-06T11:40:54Z</time><name>PT1648</name></trkpt>
<trkpt lat="52.998372" lon="-3.251022"><ele>384</ele><time>2023-01-06T11:40:58Z</time><name>PT1649</name></trkpt>
<trkpt lat="52.998349" lon="-3.250977"><ele>384</ele><time>2023-01-06T11:41:01Z</time><name>PT1650</name></trkpt>
<trkpt lat="52.998330" lon="-3.250905"><ele>384</ele><time>2023-01-06T11:41:05Z</time><name>PT1651</name></trkpt>
<trkpt lat="52.998304" lon="-3.250841"><ele>384</ele><time>2023-01-06T11:41:09Z</time><name>PT1652</name></trkpt>
<trkpt lat="52.998289" lon="-3.250793"><ele>383</ele><time>2023-01-06T11:41:12Z</time><name>PT1653</name></trkpt>
<trkpt lat="52.998272" lon="-3.250748"><ele>382</ele><time>2023-01-06T11:41:15Z</time><name>PT1654</name></trkpt>
<trkpt lat="52.998248" lon="-3.250688"><ele>381</ele><time>2023-01-06T11:41:19Z</time><name>PT1655</name></trkpt>
<trkpt lat="52.998215" lon="-3.250621"><ele>380</ele><time>2023-01-06T11:41:23Z</time><name>PT1656</name></trkpt>
<trkpt lat="52.998178" lon="-3.250547"><ele>379</ele><time>2023-01-06T11:41:27Z</time><name>PT1657</name></trkpt>
<trkpt lat="52.998149" lon="-3.250480"><ele>381</ele><time>2023-01-06T11:41:31Z</time><name>PT1658</name></trkpt>
<trkpt lat="52.998137" lon="-3.250405"><ele>381</ele><time>2023-01-06T11:41:35Z</time><name>PT1659</name></trkpt>
<trkpt lat="52.998132" lon="-3.250348"><ele>382</ele><time>2023-01-06T11:41:38Z</time><name>PT1660</name></trkpt>
<trkpt lat="52.998134" lon="-3.250298"><ele>382</ele><time>2023-01-06T11:41:41Z</time><name>PT1661</name></trkpt>
<trkpt lat="52.998130" lon="-3.250218"><ele>382</ele><time>2023-01-06T11:41:45Z</time><name>PT1662</name></trkpt>
<trkpt lat="52.998129" lon="-3.250147"><ele>382</ele><time>2023-01-06T11:41:48Z</time><name>PT1663</name></trkpt>
<trkpt lat="52.998131" lon="-3.250078"><ele>381</ele><time>2023-01-06T11:41:51Z</time><name>PT1664</name></trkpt>
<trkpt lat="52.998134" lon="-3.250021"><ele>381</ele><time>2023-01-06T11:41:54Z</time><name>PT1665</name></trkpt>
<trkpt lat="52.998134" lon="-3.249961"><ele>380</ele><time>2023-01-06T11:41:57Z</time><name>PT1666</name></trkpt>
<trkpt lat="52.998133" lon="-3.249885"><ele>379</ele><time>2023-01-06T11:42:01Z</time><name>PT1667</name></trkpt>
<trkpt lat="52.998136" lon="-3.249808"><ele>379</ele><time>2023-01-06T11:42:05Z</time><name>PT1668</name></trkpt>
<trkpt lat="52.998128" lon="-3.249725"><ele>379</ele><time>2023-01-06T11:42:09Z</time><name>PT1669</name></trkpt>
<trkpt lat="52.998127" lon="-3.249656"><ele>378</ele><time>2023-01-06T11:42:12Z</time><name>PT1670</name></trkpt>
<trkpt lat="52.998128" lon="-3.249591"><ele>377</ele><time>2023-01-06T11:42:15Z</time><name>PT1671</name></trkpt>
<trkpt lat="52.998133" lon="-3.249527"><ele>378</ele><time>2023-01-06T11:42:18Z</time><name>PT1672</name></trkpt>
<trkpt lat="52.998136" lon="-3.249447"><ele>378</ele><time>2023-01-06T11:42:22Z</time><name>PT1673</name></trkpt>
<trkpt lat="52.998138" lon="-3.249391"><ele>378</ele><time>2023-01-06T11:42:25Z</time><name>PT1674</name></trkpt>
<trkpt lat="52.998135" lon="-3.249332"><ele>378</ele><time>2023-01-06T11:42:28Z</time><name>PT1675</name></trkpt>
<trkpt lat="52.998137" lon="-3.249271"><ele>378</ele><time>2023-01-06T11:42:31Z</time><name>PT1676</name></trkpt>
<trkpt lat="52.998138" lon="-3.249189"><ele>378</ele><time>2023-01-06T11:42:35Z</time><name>PT1677</name></trkpt>
<trkpt lat="52.998142" lon="-3.249128"><ele>378</ele><time>2023-01-06T11:42:38Z</time><name>PT1678</name></trkpt>
<trkpt lat="52.998141" lon="-3.249067"><ele>377</ele><time>2023-01-06T11:42:41Z</time><name>PT1679</name></trkpt>
<trkpt lat="52.998143" lon="-3.248987"><ele>377</ele><time>2023-01-06T11:42:45Z</time><name>PT1680</name></trkpt>
<trkpt lat="52.998143" lon="-3.248921"><ele>377</ele><time>2023-01-06T11:42:48Z</time><name>PT1681</name></trkpt>
<trkpt lat="52.998146" lon="-3.248845"><ele>377</ele><time>2023-01-06T11:42:52Z</time><name>PT1682</name></trkpt>
<trkpt lat="52.998147" lon="-3.248760"><ele>376</ele><time>2023-01-06T11:42:56Z</time><name>PT1683</name></trkpt>
<trkpt lat="52.998148" lon="-3.248672"><ele>377</ele><time>2023-01-06T11:43:00Z</time><name>PT1684</name></trkpt>
<trkpt lat="52.998151" lon="-3.248595"><ele>377</ele><time>2023-01-06T11:43:04Z</time><name>PT1685</name></trkpt>
<trkpt lat="52.998153" lon="-3.248530"><ele>378</ele><time>2023-01-06T11:43:07Z</time><name>PT1686</name></trkpt>
<trkpt lat="52.998148" lon="-3.248484"><ele>377</ele><time>2023-01-06T11:43:10Z</time><name>PT1687</name></trkpt>
<trkpt lat="52.998115" lon="-3.248452"><ele>376</ele><time>2023-01-06T11:43:14Z</time><name>PT1688</name></trkpt>
<trkpt lat="52.998084" lon="-3.248433"><ele>375</ele><time>2023-01-06T11:43:17Z</time><name>PT1689</name></trkpt>
<trkpt lat="52.998057" lon="-3.248427"><ele>374</ele><time>2023-01-06T11:43:20Z</time><name>PT1690</name></trkpt>
<trkpt lat="52.998009" lon="-3.248450"><ele>372</ele><time>2023-01-06T11:43:24Z</time><name>PT1691</name></trkpt>
<trkpt lat="52.997979" lon="-3.248466"><ele>371</ele><time>2023-01-06T11:43:27Z</time><name>PT1692</name></trkpt>
<trkpt lat="52.997940" lon="-3.248491"><ele>370</ele><time>2023-01-06T11:43:31Z</time><name>PT1693</name></trkpt>
<trkpt lat="52.997911" lon="-3.248512"><ele>370</ele><time>2023-01-06T11:43:34Z</time><name>PT1694</name></trkpt>
<trkpt lat="52.997880" lon="-3.248531"><ele>368</ele><time>2023-01-06T11:43:37Z</time><name>PT1695</name></trkpt>
<trkpt lat="52.997842" lon="-3.248540"><ele>367</ele><time>2023-01-06T11:43:41Z</time><name>PT1696</name></trkpt>
<trkpt lat="52.997800" lon="-3.248556"><ele>367</ele><time>2023-01-06T11:43:45Z</time><name>PT1697</name></trkpt>
<trkpt lat="52.997772" lon="-3.248566"><ele>366</ele><time>2023-01-06T11:43:48Z</time><name>PT1698</name></trkpt>
<trkpt lat="52.997739" lon="-3.248571"><ele>365</ele><time>2023-01-06T11:43:52Z</time><name>PT1699</name></trkpt>
<trkpt lat="52.997713" lon="-3.248576"><ele>364</ele><time>2023-01-06T11:43:56Z</time><name>PT1700</name></trkpt>
<trkpt lat="52.997694" lon="-3.248581"><ele>364</ele><time>2023-01-06T11:43:59Z</time><name>PT1701</name></trkpt>
<trkpt lat="52.997668" lon="-3.248582"><ele>363</ele><time>2023-01-06T11:44:03Z</time><name>PT1702</name></trkpt>
<trkpt lat="52.997638" lon="-3.248594"><ele>362</ele><time>2023-01-06T11:44:07Z</time><name>PT1703</name></trkpt>
<trkpt lat="52.997616" lon="-3.248613"><ele>361</ele><time>2023-01-06T11:44:11Z</time><name>PT1704</name></trkpt>
<trkpt lat="52.997592" lon="-3.248612"><ele>361</ele><time>2023-01-06T11:44:15Z</time><name>PT1705</name></trkpt>
<trkpt lat="52.997592" lon="-3.248615"><ele>361</ele><time>2023-01-06T11:44:18Z</time><name>PT1706</name></trkpt>
<trkpt lat="52.997586" lon="-3.248607"><ele>361</ele><time>2023-01-06T11:44:22Z</time><name>PT1707</name></trkpt>
<trkpt lat="52.997584" lon="-3.248601"><ele>361</ele><time>2023-01-06T11:44:25Z</time><name>PT1708</name></trkpt>
<trkpt lat="52.997562" lon="-3.248587"><ele>360</ele><time>2023-01-06T11:44:32Z</time><name>PT1709</name></trkpt>
<trkpt lat="52.997536" lon="-3.248598"><ele>358</ele><time>2023-01-06T11:44:36Z</time><name>PT1710</name></trkpt>
<trkpt lat="52.997515" lon="-3.248611"><ele>356</ele><time>2023-01-06T11:44:40Z</time><name>PT1711</name></trkpt>
<trkpt lat="52.997491" lon="-3.248615"><ele>355</ele><time>2023-01-06T11:44:43Z</time><name>PT1712</name></trkpt>
<trkpt lat="52.997475" lon="-3.248626"><ele>354</ele><time>2023-01-06T11:44:47Z</time><name>PT1713</name></trkpt>
<trkpt lat="52.997456" lon="-3.248634"><ele>352</ele><time>2023-01-06T11:44:51Z</time><name>PT1714</name></trkpt>
<trkpt lat="52.997450" lon="-3.248640"><ele>351</ele><time>2023-01-06T11:44:54Z</time><name>PT1715</name></trkpt>
<trkpt lat="52.997429" lon="-3.248633"><ele>351</ele><time>2023-01-06T11:44:58Z</time><name>PT1716</name></trkpt>
<trkpt lat="52.997411" lon="-3.248629"><ele>351</ele><time>2023-01-06T11:45:01Z</time><name>PT1717</name></trkpt>
<trkpt lat="52.997406" lon="-3.248623"><ele>352</ele><time>2023-01-06T11:45:04Z</time><name>PT1718</name></trkpt>
<trkpt lat="52.997383" lon="-3.248625"><ele>349</ele><time>2023-01-06T11:45:08Z</time><name>PT1719</name></trkpt>
<trkpt lat="52.997358" lon="-3.248638"><ele>348</ele><time>2023-01-06T11:45:11Z</time><name>PT1720</name></trkpt>
<trkpt lat="52.997326" lon="-3.248651"><ele>347</ele><time>2023-01-06T11:45:14Z</time><name>PT1721</name></trkpt>
<trkpt lat="52.997284" lon="-3.248666"><ele>345</ele><time>2023-01-06T11:45:18Z</time><name>PT1722</name></trkpt>
<trkpt lat="52.997236" lon="-3.248688"><ele>344</ele><time>2023-01-06T11:45:22Z</time><name>PT1723</name></trkpt>
<trkpt lat="52.997189" lon="-3.248697"><ele>343</ele><time>2023-01-06T11:45:25Z</time><name>PT1724</name></trkpt>
<trkpt lat="52.997134" lon="-3.248728"><ele>342</ele><time>2023-01-06T11:45:29Z</time><name>PT1725</name></trkpt>
<trkpt lat="52.997084" lon="-3.248753"><ele>342</ele><time>2023-01-06T11:45:33Z</time><name>PT1726</name></trkpt>
<trkpt lat="52.997040" lon="-3.248782"><ele>341</ele><time>2023-01-06T11:45:37Z</time><name>PT1727</name></trkpt>
<trkpt lat="52.997007" lon="-3.248797"><ele>340</ele><time>2023-01-06T11:45:40Z</time><name>PT1728</name></trkpt>
<trkpt lat="52.996961" lon="-3.248797"><ele>339</ele><time>2023-01-06T11:45:44Z</time><name>PT1729</name></trkpt>
<trkpt lat="52.996932" lon="-3.248790"><ele>339</ele><time>2023-01-06T11:45:47Z</time><name>PT1730</name></trkpt>
<trkpt lat="52.996887" lon="-3.248779"><ele>339</ele><time>2023-01-06T11:45:50Z</time><name>PT1731</name></trkpt>
<trkpt lat="52.996851" lon="-3.248774"><ele>338</ele><time>2023-01-06T11:45:53Z</time><name>PT1732</name></trkpt>
<trkpt lat="52.996802" lon="-3.248770"><ele>337</ele><time>2023-01-06T11:45:57Z</time><name>PT1733</name></trkpt>
<trkpt lat="52.996776" lon="-3.248767"><ele>336</ele><time>2023-01-06T11:46:00Z</time><name>PT1734</name></trkpt>
<trkpt lat="52.996763" lon="-3.248765"><ele>337</ele><time>2023-01-06T11:46:03Z</time><name>PT1735</name></trkpt>
<trkpt lat="52.996762" lon="-3.248764"><ele>338</ele><time>2023-01-06T11:46:06Z</time><name>PT1736</name></trkpt>
<trkpt lat="52.996718" lon="-3.248756"><ele>337</ele><time>2023-01-06T11:46:14Z</time><name>PT1737</name></trkpt>
<trkpt lat="52.996685" lon="-3.248765"><ele>336</ele><time>2023-01-06T11:46:17Z</time><name>PT1738</name></trkpt>
<trkpt lat="52.996643" lon="-3.248756"><ele>335</ele><time>2023-01-06T11:46:21Z</time><name>PT1739</name></trkpt>
<trkpt lat="52.996611" lon="-3.248747"><ele>334</ele><time>2023-01-06T11:46:24Z</time><name>PT1740</name></trkpt>
<trkpt lat="52.996574" lon="-3.248739"><ele>335</ele><time>2023-01-06T11:46:27Z</time><name>PT1741</name></trkpt>
<trkpt lat="52.996548" lon="-3.248713"><ele>335</ele><time>2023-01-06T11:46:30Z</time><name>PT1742</name></trkpt>
<trkpt lat="52.996527" lon="-3.248705"><ele>335</ele><time>2023-01-06T11:46:34Z</time><name>PT1743</name></trkpt>
<trkpt lat="52.996502" lon="-3.248692"><ele>335</ele><time>2023-01-06T11:46:37Z</time><name>PT1744</name></trkpt>
<trkpt lat="52.996459" lon="-3.248681"><ele>334</ele><time>2023-01-06T11:46:41Z</time><name>PT1745</name></trkpt>
<trkpt lat="52.996426" lon="-3.248681"><ele>333</ele><time>2023-01-06T11:46:44Z</time><name>PT1746</name></trkpt>
<trkpt lat="52.996388" lon="-3.248687"><ele>332</ele><time>2023-01-06T11:46:47Z</time><name>PT1747</name></trkpt>
<trkpt lat="52.996353" lon="-3.248691"><ele>331</ele><time>2023-01-06T11:46:50Z</time><name>PT1748</name></trkpt>
<trkpt lat="52.996313" lon="-3.248706"><ele>330</ele><time>2023-01-06T11:46:53Z</time><name>PT1749</name></trkpt>
<trkpt lat="52.996263" lon="-3.248704"><ele>330</ele><time>2023-01-06T11:46:57Z</time><name>PT1750</name></trkpt>
<trkpt lat="52.996212" lon="-3.248709"><ele>330</ele><time>2023-01-06T11:47:01Z</time><name>PT1751</name></trkpt>
<trkpt lat="52.996170" lon="-3.248711"><ele>329</ele><time>2023-01-06T11:47:04Z</time><name>PT1752</name></trkpt>
<trkpt lat="52.996107" lon="-3.248705"><ele>330</ele><time>2023-01-06T11:47:08Z</time><name>PT1753</name></trkpt>
<trkpt lat="52.996054" lon="-3.248704"><ele>330</ele><time>2023-01-06T11:47:12Z</time><name>PT1754</name></trkpt>
<trkpt lat="52.996018" lon="-3.248709"><ele>330</ele><time>2023-01-06T11:47:15Z</time><name>PT1755</name></trkpt>
<trkpt lat="52.995989" lon="-3.248709"><ele>329</ele><time>2023-01-06T11:47:18Z</time><name>PT1756</name></trkpt>
<trkpt lat="52.995946" lon="-3.248715"><ele>329</ele><time>2023-01-06T11:47:21Z</time><name>PT1757</name></trkpt>
<trkpt lat="52.995890" lon="-3.248727"><ele>328</ele><time>2023-01-06T11:47:25Z</time><name>PT1758</name></trkpt>
<trkpt lat="52.995849" lon="-3.248740"><ele>327</ele><time>2023-01-06T11:47:28Z</time><name>PT1759</name></trkpt>
<trkpt lat="52.995800" lon="-3.248758"><ele>325</ele><time>2023-01-06T11:47:32Z</time><name>PT1760</name></trkpt>
<trkpt lat="52.995754" lon="-3.248772"><ele>324</ele><time>2023-01-06T11:47:36Z</time><name>PT1761</name></trkpt>
<trkpt lat="52.995701" lon="-3.248786"><ele>324</ele><time>2023-01-06T11:47:40Z</time><name>PT1762</name></trkpt>
<trkpt lat="52.995643" lon="-3.248785"><ele>324</ele><time>2023-01-06T11:47:44Z</time><name>PT1763</name></trkpt>
<trkpt lat="52.995600" lon="-3.248792"><ele>323</ele><time>2023-01-06T11:47:47Z</time><name>PT1764</name></trkpt>
<trkpt lat="52.995561" lon="-3.248792"><ele>323</ele><time>2023-01-06T11:47:50Z</time><name>PT1765</name></trkpt>
<trkpt lat="52.995504" lon="-3.248786"><ele>323</ele><time>2023-01-06T11:47:54Z</time><name>PT1766</name></trkpt>
<trkpt lat="52.995461" lon="-3.248792"><ele>323</ele><time>2023-01-06T11:47:57Z</time><name>PT1767</name></trkpt>
<trkpt lat="52.995413" lon="-3.248779"><ele>322</ele><time>2023-01-06T11:48:01Z</time><name>PT1768</name></trkpt>
<trkpt lat="52.995366" lon="-3.248761"><ele>322</ele><time>2023-01-06T11:48:05Z</time><name>PT1769</name></trkpt>
<trkpt lat="52.995336" lon="-3.248743"><ele>321</ele><time>2023-01-06T11:48:08Z</time><name>PT1770</name></trkpt>
<trkpt lat="52.995309" lon="-3.248735"><ele>320</ele><time>2023-01-06T11:48:11Z</time><name>PT1771</name></trkpt>
<trkpt lat="52.995271" lon="-3.248695"><ele>319</ele><time>2023-01-06T11:48:15Z</time><name>PT1772</name></trkpt>
<trkpt lat="52.995241" lon="-3.248666"><ele>319</ele><time>2023-01-06T11:48:19Z</time><name>PT1773</name></trkpt>
<trkpt lat="52.995215" lon="-3.248638"><ele>318</ele><time>2023-01-06T11:48:22Z</time><name>PT1774</name></trkpt>
<trkpt lat="52.995189" lon="-3.248580"><ele>318</ele><time>2023-01-06T11:48:26Z</time><name>PT1775</name></trkpt>
<trkpt lat="52.995164" lon="-3.248516"><ele>318</ele><time>2023-01-06T11:48:30Z</time><name>PT1776</name></trkpt>
<trkpt lat="52.995152" lon="-3.248438"><ele>317</ele><time>2023-01-06T11:48:34Z</time><name>PT1777</name></trkpt>
<trkpt lat="52.995143" lon="-3.248388"><ele>317</ele><time>2023-01-06T11:48:37Z</time><name>PT1778</name></trkpt>
<trkpt lat="52.995135" lon="-3.248318"><ele>316</ele><time>2023-01-06T11:48:41Z</time><name>PT1779</name></trkpt>
<trkpt lat="52.995124" lon="-3.248248"><ele>315</ele><time>2023-01-06T11:48:45Z</time><name>PT1780</name></trkpt>
<trkpt lat="52.995112" lon="-3.248195"><ele>315</ele><time>2023-01-06T11:48:48Z</time><name>PT1781</name></trkpt>
<trkpt lat="52.995111" lon="-3.248128"><ele>315</ele><time>2023-01-06T11:48:52Z</time><name>PT1782</name></trkpt>
<trkpt lat="52.995121" lon="-3.248079"><ele>314</ele><time>2023-01-06T11:48:55Z</time><name>PT1783</name></trkpt>
<trkpt lat="52.995127" lon="-3.248021"><ele>314</ele><time>2023-01-06T11:48:58Z</time><name>PT1784</name></trkpt>
<trkpt lat="52.995136" lon="-3.247962"><ele>313</ele><time>2023-01-06T11:49:01Z</time><name>PT1785</name></trkpt>
<trkpt lat="52.995152" lon="-3.247908"><ele>313</ele><time>2023-01-06T11:49:04Z</time><name>PT1786</name></trkpt>
<trkpt lat="52.995168" lon="-3.247834"><ele>312</ele><time>2023-01-06T11:49:08Z</time><name>PT1787</name></trkpt>
<trkpt lat="52.995173" lon="-3.247764"><ele>311</ele><time>2023-01-06T11:49:12Z</time><name>PT1788</name></trkpt>
<trkpt lat="52.995176" lon="-3.247708"><ele>312</ele><time>2023-01-06T11:49:15Z</time><name>PT1789</name></trkpt>
<trkpt lat="52.995187" lon="-3.247628"><ele>312</ele><time>2023-01-06T11:49:19Z</time><name>PT1790</name></trkpt>
<trkpt lat="52.995198" lon="-3.247555"><ele>311</ele><time>2023-01-06T11:49:23Z</time><name>PT1791</name></trkpt>
<trkpt lat="52.995208" lon="-3.247504"><ele>310</ele><time>2023-01-06T11:49:26Z</time><name>PT1792</name></trkpt>
<trkpt lat="52.995219" lon="-3.247433"><ele>309</ele><time>2023-01-06T11:49:30Z</time><name>PT1793</name></trkpt>
<trkpt lat="52.995232" lon="-3.247361"><ele>308</ele><time>2023-01-06T11:49:34Z</time><name>PT1794</name></trkpt>
<trkpt lat="52.995245" lon="-3.247316"><ele>307</ele><time>2023-01-06T11:49:38Z</time><name>PT1795</name></trkpt>
<trkpt lat="52.995255" lon="-3.247264"><ele>306</ele><time>2023-01-06T11:49:41Z</time><name>PT1796</name></trkpt>
<trkpt lat="52.995261" lon="-3.247198"><ele>305</ele><time>2023-01-06T11:49:44Z</time><name>PT1797</name></trkpt>
<trkpt lat="52.995262" lon="-3.247120"><ele>304</ele><time>2023-01-06T11:49:48Z</time><name>PT1798</name></trkpt>
<trkpt lat="52.995270" lon="-3.247075"><ele>304</ele><time>2023-01-06T11:49:51Z</time><name>PT1799</name></trkpt>
<trkpt lat="52.995284" lon="-3.247014"><ele>304</ele><time>2023-01-06T11:49:55Z</time><name>PT1800</name></trkpt>
<trkpt lat="52.995294" lon="-3.246977"><ele>303</ele><time>2023-01-06T11:49:58Z</time><name>PT1801</name></trkpt>
<trkpt lat="52.995302" lon="-3.246958"><ele>303</ele><time>2023-01-06T11:50:02Z</time><name>PT1802</name></trkpt>
<trkpt lat="52.995305" lon="-3.246954"><ele>302</ele><time>2023-01-06T11:50:21Z</time><name>PT1803</name></trkpt>
<trkpt lat="52.995307" lon="-3.246961"><ele>302</ele><time>2023-01-06T11:50:25Z</time><name>PT1804</name></trkpt>
<trkpt lat="52.995308" lon="-3.246960"><ele>302</ele><time>2023-01-06T11:52:14Z</time><name>PT1805</name></trkpt>
<trkpt lat="52.995308" lon="-3.246960"><ele>302</ele><time>2023-01-06T11:52:17Z</time><name>PT1806</name></trkpt>
<trkpt lat="52.995323" lon="-3.246977"><ele>302</ele><time>2023-01-06T11:52:23Z</time><name>PT1807</name></trkpt>
<trkpt lat="52.995324" lon="-3.246983"><ele>301</ele><time>2023-01-06T11:52:27Z</time><name>PT1808</name></trkpt>
<trkpt lat="52.995309" lon="-3.246973"><ele>301</ele><time>2023-01-06T11:52:36Z</time><name>PT1809</name></trkpt>
<trkpt lat="52.995299" lon="-3.246954"><ele>302</ele><time>2023-01-06T11:52:40Z</time><name>PT1810</name></trkpt>
<trkpt lat="52.995293" lon="-3.246942"><ele>301</ele><time>2023-01-06T11:52:43Z</time><name>PT1811</name></trkpt>
<trkpt lat="52.995293" lon="-3.246921"><ele>301</ele><time>2023-01-06T11:52:47Z</time><name>PT1812</name></trkpt>
<trkpt lat="52.995298" lon="-3.246917"><ele>301</ele><time>2023-01-06T11:52:50Z</time><name>PT1813</name></trkpt>
<trkpt lat="52.995286" lon="-3.246911"><ele>302</ele><time>2023-01-06T11:52:57Z</time><name>PT1814</name></trkpt>
<trkpt lat="52.995286" lon="-3.246911"><ele>301</ele><time>2023-01-06T11:53:00Z</time><name>PT1815</name></trkpt>
<trkpt lat="52.995285" lon="-3.246905"><ele>302</ele><time>2023-01-06T11:53:08Z</time><name>PT1816</name></trkpt>
<trkpt lat="52.995294" lon="-3.246895"><ele>301</ele><time>2023-01-06T11:53:15Z</time><name>PT1817</name></trkpt>
<trkpt lat="52.995295" lon="-3.246888"><ele>300</ele><time>2023-01-06T11:53:18Z</time><name>PT1818</name></trkpt>
<trkpt lat="52.995301" lon="-3.246862"><ele>301</ele><time>2023-01-06T11:53:21Z</time><name>PT1819</name></trkpt>
<trkpt lat="52.995307" lon="-3.246835"><ele>300</ele><time>2023-01-06T11:53:24Z</time><name>PT1820</name></trkpt>
<trkpt lat="52.995321" lon="-3.246798"><ele>300</ele><time>2023-01-06T11:53:27Z</time><name>PT1821</name></trkpt>
<trkpt lat="52.995322" lon="-3.246797"><ele>300</ele><time>2023-01-06T11:53:52Z</time><name>PT1822</name></trkpt>
<trkpt lat="52.995322" lon="-3.246741"><ele>300</ele><time>2023-01-06T11:53:56Z</time><name>PT1823</name></trkpt>
<trkpt lat="52.995333" lon="-3.246688"><ele>298</ele><time>2023-01-06T11:54:00Z</time><name>PT1824</name></trkpt>
<trkpt lat="52.995339" lon="-3.246647"><ele>298</ele><time>2023-01-06T11:54:03Z</time><name>PT1825</name></trkpt>
<trkpt lat="52.995339" lon="-3.246614"><ele>296</ele><time>2023-01-06T11:54:07Z</time><name>PT1826</name></trkpt>
<trkpt lat="52.995311" lon="-3.246572"><ele>295</ele><time>2023-01-06T11:54:11Z</time><name>PT1827</name></trkpt>
<trkpt lat="52.995289" lon="-3.246563"><ele>294</ele><time>2023-01-06T11:54:14Z</time><name>PT1828</name></trkpt>
<trkpt lat="52.995268" lon="-3.246536"><ele>292</ele><time>2023-01-06T11:54:17Z</time><name>PT1829</name></trkpt>
<trkpt lat="52.995250" lon="-3.246494"><ele>292</ele><time>2023-01-06T11:54:21Z</time><name>PT1830</name></trkpt>
<trkpt lat="52.995242" lon="-3.246480"><ele>290</ele><time>2023-01-06T11:54:24Z</time><name>PT1831</name></trkpt>
<trkpt lat="52.995244" lon="-3.246450"><ele>288</ele><time>2023-01-06T11:54:28Z</time><name>PT1832</name></trkpt>
<trkpt lat="52.995242" lon="-3.246438"><ele>287</ele><time>2023-01-06T11:54:31Z</time><name>PT1833</name></trkpt>
<trkpt lat="52.995250" lon="-3.246397"><ele>285</ele><time>2023-01-06T11:54:38Z</time><name>PT1834</name></trkpt>
<trkpt lat="52.995246" lon="-3.246364"><ele>285</ele><time>2023-01-06T11:54:41Z</time><name>PT1835</name></trkpt>
<trkpt lat="52.995279" lon="-3.246342"><ele>284</ele><time>2023-01-06T11:54:45Z</time><name>PT1836</name></trkpt>
<trkpt lat="52.995292" lon="-3.246310"><ele>284</ele><time>2023-01-06T11:54:49Z</time><name>PT1837</name></trkpt>
<trkpt lat="52.995294" lon="-3.246296"><ele>284</ele><time>2023-01-06T11:54:52Z</time><name>PT1838</name></trkpt>
<trkpt lat="52.995294" lon="-3.246287"><ele>283</ele><time>2023-01-06T11:54:55Z</time><name>PT1839</name></trkpt>
<trkpt lat="52.995309" lon="-3.246252"><ele>283</ele><time>2023-01-06T11:55:03Z</time><name>PT1840</name></trkpt>
<trkpt lat="52.995317" lon="-3.246218"><ele>282</ele><time>2023-01-06T11:55:06Z</time><name>PT1841</name></trkpt>
<trkpt lat="52.995328" lon="-3.246180"><ele>281</ele><time>2023-01-06T11:55:10Z</time><name>PT1842</name></trkpt>
<trkpt lat="52.995336" lon="-3.246143"><ele>280</ele><time>2023-01-06T11:55:13Z</time><name>PT1843</name></trkpt>
<trkpt lat="52.995340" lon="-3.246092"><ele>280</ele><time>2023-01-06T11:55:17Z</time><name>PT1844</name></trkpt>
<trkpt lat="52.995341" lon="-3.246053"><ele>279</ele><time>2023-01-06T11:55:20Z</time><name>PT1845</name></trkpt>
<trkpt lat="52.995339" lon="-3.246014"><ele>276</ele><time>2023-01-06T11:55:23Z</time><name>PT1846</name></trkpt>
<trkpt lat="52.995342" lon="-3.245959"><ele>276</ele><time>2023-01-06T11:55:27Z</time><name>PT1847</name></trkpt>
<trkpt lat="52.995347" lon="-3.245920"><ele>275</ele><time>2023-01-06T11:55:30Z</time><name>PT1848</name></trkpt>
<trkpt lat="52.995349" lon="-3.245876"><ele>274</ele><time>2023-01-06T11:55:33Z</time><name>PT1849</name></trkpt>
<trkpt lat="52.995352" lon="-3.245810"><ele>273</ele><time>2023-01-06T11:55:37Z</time><name>PT1850</name></trkpt>
<trkpt lat="52.995354" lon="-3.245763"><ele>273</ele><time>2023-01-06T11:55:40Z</time><name>PT1851</name></trkpt>
<trkpt lat="52.995365" lon="-3.245698"><ele>272</ele><time>2023-01-06T11:55:44Z</time><name>PT1852</name></trkpt>
<trkpt lat="52.995367" lon="-3.245637"><ele>272</ele><time>2023-01-06T11:55:48Z</time><name>PT1853</name></trkpt>
<trkpt lat="52.995369" lon="-3.245581"><ele>272</ele><time>2023-01-06T11:55:51Z</time><name>PT1854</name></trkpt>
<trkpt lat="52.995372" lon="-3.245522"><ele>272</ele><time>2023-01-06T11:55:54Z</time><name>PT1855</name></trkpt>
<trkpt lat="52.995380" lon="-3.245466"><ele>272</ele><time>2023-01-06T11:55:57Z</time><name>PT1856</name></trkpt>
<trkpt lat="52.995385" lon="-3.245391"><ele>272</ele><time>2023-01-06T11:56:01Z</time><name>PT1857</name></trkpt>
<trkpt lat="52.995387" lon="-3.245323"><ele>271</ele><time>2023-01-06T11:56:05Z</time><name>PT1858</name></trkpt>
<trkpt lat="52.995389" lon="-3.245276"><ele>270</ele><time>2023-01-06T11:56:08Z</time><name>PT1859</name></trkpt>
<trkpt lat="52.995394" lon="-3.245232"><ele>271</ele><time>2023-01-06T11:56:12Z</time><name>PT1860</name></trkpt>
<trkpt lat="52.995401" lon="-3.245195"><ele>271</ele><time>2023-01-06T11:56:15Z</time><name>PT1861</name></trkpt>
<trkpt lat="52.995399" lon="-3.245151"><ele>271</ele><time>2023-01-06T11:56:18Z</time><name>PT1862</name></trkpt>
<trkpt lat="52.995396" lon="-3.245105"><ele>271</ele><time>2023-01-06T11:56:21Z</time><name>PT1863</name></trkpt>
<trkpt lat="52.995396" lon="-3.245060"><ele>270</ele><time>2023-01-06T11:56:24Z</time><name>PT1864</name></trkpt>
<trkpt lat="52.995396" lon="-3.245015"><ele>269</ele><time>2023-01-06T11:56:28Z</time><name>PT1865</name></trkpt>
<trkpt lat="52.995388" lon="-3.244983"><ele>267</ele><time>2023-01-06T11:56:31Z</time><name>PT1866</name></trkpt>
<trkpt lat="52.995382" lon="-3.244944"><ele>266</ele><time>2023-01-06T11:56:35Z</time><name>PT1867</name></trkpt>
<trkpt lat="52.995376" lon="-3.244880"><ele>266</ele><time>2023-01-06T11:56:39Z</time><name>PT1868</name></trkpt>
<trkpt lat="52.995375" lon="-3.244830"><ele>266</ele><time>2023-01-06T11:56:42Z</time><name>PT1869</name></trkpt>
<trkpt lat="52.995375" lon="-3.244768"><ele>266</ele><time>2023-01-06T11:56:46Z</time><name>PT1870</name></trkpt>
<trkpt lat="52.995369" lon="-3.244738"><ele>265</ele><time>2023-01-06T11:56:49Z</time><name>PT1871</name></trkpt>
<trkpt lat="52.995368" lon="-3.244691"><ele>263</ele><time>2023-01-06T11:56:53Z</time><name>PT1872</name></trkpt>
<trkpt lat="52.995368" lon="-3.244645"><ele>263</ele><time>2023-01-06T11:56:56Z</time><name>PT1873</name></trkpt>
<trkpt lat="52.995370" lon="-3.244600"><ele>263</ele><time>2023-01-06T11:56:59Z</time><name>PT1874</name></trkpt>
<trkpt lat="52.995365" lon="-3.244553"><ele>261</ele><time>2023-01-06T11:57:03Z</time><name>PT1875</name></trkpt>
<trkpt lat="52.995366" lon="-3.244511"><ele>260</ele><time>2023-01-06T11:57:06Z</time><name>PT1876</name></trkpt>
<trkpt lat="52.995370" lon="-3.244465"><ele>259</ele><time>2023-01-06T11:57:09Z</time><name>PT1877</name></trkpt>
<trkpt lat="52.995376" lon="-3.244429"><ele>258</ele><time>2023-01-06T11:57:12Z</time><name>PT1878</name></trkpt>
<trkpt lat="52.995374" lon="-3.244369"><ele>258</ele><time>2023-01-06T11:57:16Z</time><name>PT1879</name></trkpt>
<trkpt lat="52.995371" lon="-3.244321"><ele>257</ele><time>2023-01-06T11:57:19Z</time><name>PT1880</name></trkpt>
<trkpt lat="52.995367" lon="-3.244260"><ele>255</ele><time>2023-01-06T11:57:23Z</time><name>PT1881</name></trkpt>
<trkpt lat="52.995366" lon="-3.244198"><ele>255</ele><time>2023-01-06T11:57:27Z</time><name>PT1882</name></trkpt>
<trkpt lat="52.995366" lon="-3.244149"><ele>254</ele><time>2023-01-06T11:57:31Z</time><name>PT1883</name></trkpt>
<trkpt lat="52.995368" lon="-3.244107"><ele>253</ele><time>2023-01-06T11:57:35Z</time><name>PT1884</name></trkpt>
<trkpt lat="52.995368" lon="-3.244056"><ele>254</ele><time>2023-01-06T11:57:38Z</time><name>PT1885</name></trkpt>
<trkpt lat="52.995368" lon="-3.244019"><ele>255</ele><time>2023-01-06T11:57:42Z</time><name>PT1886</name></trkpt>
<trkpt lat="52.995365" lon="-3.243996"><ele>254</ele><time>2023-01-06T11:57:46Z</time><name>PT1887</name></trkpt>
<trkpt lat="52.995357" lon="-3.243998"><ele>253</ele><time>2023-01-06T11:57:50Z</time><name>PT1888</name></trkpt>
<trkpt lat="52.995365" lon="-3.243973"><ele>253</ele><time>2023-01-06T11:58:02Z</time><name>PT1889</name></trkpt>
<trkpt lat="52.995368" lon="-3.243939"><ele>253</ele><time>2023-01-06T11:58:05Z</time><name>PT1890</name></trkpt>
<trkpt lat="52.995369" lon="-3.243937"><ele>252</ele><time>2023-01-06T11:58:08Z</time><name>PT1891</name></trkpt>
<trkpt lat="52.995375" lon="-3.243891"><ele>252</ele><time>2023-01-06T11:58:19Z</time><name>PT1892</name></trkpt>
<trkpt lat="52.995382" lon="-3.243842"><ele>251</ele><time>2023-01-06T11:58:22Z</time><name>PT1893</name></trkpt>
<trkpt lat="52.995383" lon="-3.243804"><ele>249</ele><time>2023-01-06T11:58:25Z</time><name>PT1894</name></trkpt>
<trkpt lat="52.995391" lon="-3.243748"><ele>248</ele><time>2023-01-06T11:58:29Z</time><name>PT1895</name></trkpt>
<trkpt lat="52.995391" lon="-3.243693"><ele>247</ele><time>2023-01-06T11:58:33Z</time><name>PT1896</name></trkpt>
<trkpt lat="52.995393" lon="-3.243680"><ele>247</ele><time>2023-01-06T11:58:36Z</time><name>PT1897</name></trkpt>
<trkpt lat="52.995397" lon="-3.243634"><ele>247</ele><time>2023-01-06T11:58:40Z</time><name>PT1898</name></trkpt>
<trkpt lat="52.995397" lon="-3.243631"><ele>247</ele><time>2023-01-06T11:58:44Z</time><name>PT1899</name></trkpt>
<trkpt lat="52.995402" lon="-3.243609"><ele>246</ele><time>2023-01-06T11:58:47Z</time><name>PT1900</name></trkpt>
<trkpt lat="52.995400" lon="-3.243556"><ele>244</ele><time>2023-01-06T11:58:51Z</time><name>PT1901</name></trkpt>
<trkpt lat="52.995405" lon="-3.243515"><ele>244</ele><time>2023-01-06T11:58:54Z</time><name>PT1902</name></trkpt>
<trkpt lat="52.995411" lon="-3.243477"><ele>241</ele><time>2023-01-06T11:58:58Z</time><name>PT1903</name></trkpt>
<trkpt lat="52.995410" lon="-3.243443"><ele>240</ele><time>2023-01-06T11:59:01Z</time><name>PT1904</name></trkpt>
<trkpt lat="52.995410" lon="-3.243393"><ele>238</ele><time>2023-01-06T11:59:05Z</time><name>PT1905</name></trkpt>
<trkpt lat="52.995416" lon="-3.243354"><ele>237</ele><time>2023-01-06T11:59:08Z</time><name>PT1906</name></trkpt>
<trkpt lat="52.995416" lon="-3.243297"><ele>235</ele><time>2023-01-06T11:59:12Z</time><name>PT1907</name></trkpt>
<trkpt lat="52.995419" lon="-3.243251"><ele>234</ele><time>2023-01-06T11:59:15Z</time><name>PT1908</name></trkpt>
<trkpt lat="52.995426" lon="-3.243213"><ele>234</ele><time>2023-01-06T11:59:18Z</time><name>PT1909</name></trkpt>
<trkpt lat="52.995424" lon="-3.243157"><ele>232</ele><time>2023-01-06T11:59:22Z</time><name>PT1910</name></trkpt>
<trkpt lat="52.995426" lon="-3.243117"><ele>231</ele><time>2023-01-06T11:59:25Z</time><name>PT1911</name></trkpt>
<trkpt lat="52.995427" lon="-3.243040"><ele>230</ele><time>2023-01-06T11:59:29Z</time><name>PT1912</name></trkpt>
<trkpt lat="52.995424" lon="-3.242975"><ele>228</ele><time>2023-01-06T11:59:33Z</time><name>PT1913</name></trkpt>
<trkpt lat="52.995427" lon="-3.242918"><ele>228</ele><time>2023-01-06T11:59:36Z</time><name>PT1914</name></trkpt>
<trkpt lat="52.995432" lon="-3.242852"><ele>227</ele><time>2023-01-06T11:59:40Z</time><name>PT1915</name></trkpt>
<trkpt lat="52.995438" lon="-3.242798"><ele>227</ele><time>2023-01-06T11:59:43Z</time><name>PT1916</name></trkpt>
<trkpt lat="52.995448" lon="-3.242737"><ele>227</ele><time>2023-01-06T11:59:47Z</time><name>PT1917</name></trkpt>
<trkpt lat="52.995451" lon="-3.242696"><ele>226</ele><time>2023-01-06T11:59:50Z</time><name>PT1918</name></trkpt>
<trkpt lat="52.995450" lon="-3.242636"><ele>225</ele><time>2023-01-06T11:59:54Z</time><name>PT1919</name></trkpt>
<trkpt lat="52.995451" lon="-3.242589"><ele>223</ele><time>2023-01-06T11:59:57Z</time><name>PT1920</name></trkpt>
<trkpt lat="52.995458" lon="-3.242529"><ele>222</ele><time>2023-01-06T12:00:01Z</time><name>PT1921</name></trkpt>
<trkpt lat="52.995462" lon="-3.242483"><ele>222</ele><time>2023-01-06T12:00:04Z</time><name>PT1922</name></trkpt>
<trkpt lat="52.995467" lon="-3.242420"><ele>221</ele><time>2023-01-06T12:00:08Z</time><name>PT1923</name></trkpt>
<trkpt lat="52.995477" lon="-3.242384"><ele>221</ele><time>2023-01-06T12:00:11Z</time><name>PT1924</name></trkpt>
<trkpt lat="52.995484" lon="-3.242359"><ele>220</ele><time>2023-01-06T12:00:14Z</time><name>PT1925</name></trkpt>
<trkpt lat="52.995476" lon="-3.242284"><ele>220</ele><time>2023-01-06T12:00:18Z</time><name>PT1926</name></trkpt>
<trkpt lat="52.995466" lon="-3.242231"><ele>219</ele><time>2023-01-06T12:00:21Z</time><name>PT1927</name></trkpt>
<trkpt lat="52.995451" lon="-3.242149"><ele>219</ele><time>2023-01-06T12:00:25Z</time><name>PT1928</name></trkpt>
<trkpt lat="52.995437" lon="-3.242129"><ele>218</ele><time>2023-01-06T12:00:28Z</time><name>PT1929</name></trkpt>
<trkpt lat="52.995434" lon="-3.242098"><ele>216</ele><time>2023-01-06T12:00:31Z</time><name>PT1930</name></trkpt>
<trkpt lat="52.995432" lon="-3.242047"><ele>215</ele><time>2023-01-06T12:00:34Z</time><name>PT1931</name></trkpt>
<trkpt lat="52.995424" lon="-3.241976"><ele>214</ele><time>2023-01-06T12:00:38Z</time><name>PT1932</name></trkpt>
<trkpt lat="52.995417" lon="-3.241926"><ele>214</ele><time>2023-01-06T12:00:41Z</time><name>PT1933</name></trkpt>
<trkpt lat="52.995407" lon="-3.241869"><ele>213</ele><time>2023-01-06T12:00:44Z</time><name>PT1934</name></trkpt>
<trkpt lat="52.995397" lon="-3.241829"><ele>211</ele><time>2023-01-06T12:00:47Z</time><name>PT1935</name></trkpt>
<trkpt lat="52.995387" lon="-3.241777"><ele>211</ele><time>2023-01-06T12:00:51Z</time><name>PT1936</name></trkpt>
<trkpt lat="52.995383" lon="-3.241722"><ele>212</ele><time>2023-01-06T12:00:54Z</time><name>PT1937</name></trkpt>
<trkpt lat="52.995371" lon="-3.241664"><ele>211</ele><time>2023-01-06T12:00:58Z</time><name>PT1938</name></trkpt>
<trkpt lat="52.995378" lon="-3.241629"><ele>210</ele><time>2023-01-06T12:01:01Z</time><name>PT1939</name></trkpt>
<trkpt lat="52.995389" lon="-3.241598"><ele>211</ele><time>2023-01-06T12:01:04Z</time><name>PT1940</name></trkpt>
<trkpt lat="52.995394" lon="-3.241559"><ele>211</ele><time>2023-01-06T12:01:08Z</time><name>PT1941</name></trkpt>
<trkpt lat="52.995399" lon="-3.241520"><ele>211</ele><time>2023-01-06T12:01:11Z</time><name>PT1942</name></trkpt>
<trkpt lat="52.995419" lon="-3.241493"><ele>211</ele><time>2023-01-06T12:01:15Z</time><name>PT1943</name></trkpt>
<trkpt lat="52.995435" lon="-3.241458"><ele>212</ele><time>2023-01-06T12:01:18Z</time><name>PT1944</name></trkpt>
<trkpt lat="52.995447" lon="-3.241427"><ele>213</ele><time>2023-01-06T12:01:21Z</time><name>PT1945</name></trkpt>
<trkpt lat="52.995460" lon="-3.241383"><ele>213</ele><time>2023-01-06T12:01:25Z</time><name>PT1946</name></trkpt>
<trkpt lat="52.995473" lon="-3.241346"><ele>213</ele><time>2023-01-06T12:01:28Z</time><name>PT1947</name></trkpt>
<trkpt lat="52.995497" lon="-3.241307"><ele>213</ele><time>2023-01-06T12:01:32Z</time><name>PT1948</name></trkpt>
<trkpt lat="52.995513" lon="-3.241270"><ele>212</ele><time>2023-01-06T12:01:35Z</time><name>PT1949</name></trkpt>
<trkpt lat="52.995521" lon="-3.241241"><ele>211</ele><time>2023-01-06T12:01:38Z</time><name>PT1950</name></trkpt>
<trkpt lat="52.995528" lon="-3.241187"><ele>211</ele><time>2023-01-06T12:01:42Z</time><name>PT1951</name></trkpt>
<trkpt lat="52.995532" lon="-3.241151"><ele>211</ele><time>2023-01-06T12:01:46Z</time><name>PT1952</name></trkpt>
<trkpt lat="52.995551" lon="-3.241114"><ele>211</ele><time>2023-01-06T12:01:50Z</time><name>PT1953</name></trkpt>
<trkpt lat="52.995567" lon="-3.241059"><ele>211</ele><time>2023-01-06T12:01:54Z</time><name>PT1954</name></trkpt>
<trkpt lat="52.995579" lon="-3.241012"><ele>210</ele><time>2023-01-06T12:01:58Z</time><name>PT1955</name></trkpt>
<trkpt lat="52.995594" lon="-3.240960"><ele>209</ele><time>2023-01-06T12:02:02Z</time><name>PT1956</name></trkpt>
<trkpt lat="52.995601" lon="-3.240918"><ele>207</ele><time>2023-01-06T12:02:06Z</time><name>PT1957</name></trkpt>
<trkpt lat="52.995604" lon="-3.240886"><ele>206</ele><time>2023-01-06T12:02:09Z</time><name>PT1958</name></trkpt>
<trkpt lat="52.995596" lon="-3.240841"><ele>207</ele><time>2023-01-06T12:02:12Z</time><name>PT1959</name></trkpt>
<trkpt lat="52.995605" lon="-3.240807"><ele>205</ele><time>2023-01-06T12:02:15Z</time><name>PT1960</name></trkpt>
<trkpt lat="52.995611" lon="-3.240741"><ele>205</ele><time>2023-01-06T12:02:19Z</time><name>PT1961</name></trkpt>
<trkpt lat="52.995616" lon="-3.240707"><ele>206</ele><time>2023-01-06T12:02:22Z</time><name>PT1962</name></trkpt>
<trkpt lat="52.995621" lon="-3.240685"><ele>205</ele><time>2023-01-06T12:02:25Z</time><name>PT1963</name></trkpt>
<trkpt lat="52.995626" lon="-3.240635"><ele>205</ele><time>2023-01-06T12:02:29Z</time><name>PT1964</name></trkpt>
<trkpt lat="52.995632" lon="-3.240580"><ele>205</ele><time>2023-01-06T12:02:33Z</time><name>PT1965</name></trkpt>
<trkpt lat="52.995637" lon="-3.240562"><ele>206</ele><time>2023-01-06T12:02:37Z</time><name>PT1966</name></trkpt>
<trkpt lat="52.995643" lon="-3.240548"><ele>205</ele><time>2023-01-06T12:02:40Z</time><name>PT1967</name></trkpt>
<trkpt lat="52.995653" lon="-3.240537"><ele>205</ele><time>2023-01-06T12:02:44Z</time><name>PT1968</name></trkpt>
<trkpt lat="52.995653" lon="-3.240494"><ele>205</ele><time>2023-01-06T12:02:50Z</time><name>PT1969</name></trkpt>
<trkpt lat="52.995652" lon="-3.240450"><ele>204</ele><time>2023-01-06T12:02:53Z</time><name>PT1970</name></trkpt>
<trkpt lat="52.995651" lon="-3.240415"><ele>203</ele><time>2023-01-06T12:02:56Z</time><name>PT1971</name></trkpt>
<trkpt lat="52.995656" lon="-3.240386"><ele>202</ele><time>2023-01-06T12:03:00Z</time><name>PT1972</name></trkpt>
<trkpt lat="52.995656" lon="-3.240371"><ele>202</ele><time>2023-01-06T12:03:08Z</time><name>PT1973</name></trkpt>
<trkpt lat="52.995671" lon="-3.240332"><ele>201</ele><time>2023-01-06T12:03:12Z</time><name>PT1974</name></trkpt>
<trkpt lat="52.995672" lon="-3.240300"><ele>201</ele><time>2023-01-06T12:03:15Z</time><name>PT1975</name></trkpt>
<trkpt lat="52.995671" lon="-3.240260"><ele>202</ele><time>2023-01-06T12:03:18Z</time><name>PT1976</name></trkpt>
<trkpt lat="52.995674" lon="-3.240228"><ele>200</ele><time>2023-01-06T12:03:22Z</time><name>PT1977</name></trkpt>
<trkpt lat="52.995665" lon="-3.240215"><ele>199</ele><time>2023-01-06T12:03:25Z</time><name>PT1978</name></trkpt>
<trkpt lat="52.995653" lon="-3.240173"><ele>197</ele><time>2023-01-06T12:03:29Z</time><name>PT1979</name></trkpt>
<trkpt lat="52.995664" lon="-3.240107"><ele>197</ele><time>2023-01-06T12:03:33Z</time><name>PT1980</name></trkpt>
<trkpt lat="52.995669" lon="-3.240034"><ele>197</ele><time>2023-01-06T12:03:37Z</time><name>PT1981</name></trkpt>
<trkpt lat="52.995674" lon="-3.239974"><ele>195</ele><time>2023-01-06T12:03:41Z</time><name>PT1982</name></trkpt>
<trkpt lat="52.995671" lon="-3.239908"><ele>194</ele><time>2023-01-06T12:03:45Z</time><name>PT1983</name></trkpt>
<trkpt lat="52.995655" lon="-3.239853"><ele>194</ele><time>2023-01-06T12:03:49Z</time><name>PT1984</name></trkpt>
<trkpt lat="52.995644" lon="-3.239791"><ele>195</ele><time>2023-01-06T12:03:52Z</time><name>PT1985</name></trkpt>
<trkpt lat="52.995641" lon="-3.239748"><ele>194</ele><time>2023-01-06T12:03:55Z</time><name>PT1986</name></trkpt>
<trkpt lat="52.995640" lon="-3.239709"><ele>194</ele><time>2023-01-06T12:03:58Z</time><name>PT1987</name></trkpt>
<trkpt lat="52.995641" lon="-3.239668"><ele>194</ele><time>2023-01-06T12:04:01Z</time><name>PT1988</name></trkpt>
<trkpt lat="52.995644" lon="-3.239629"><ele>193</ele><time>2023-01-06T12:04:04Z</time><name>PT1989</name></trkpt>
<trkpt lat="52.995638" lon="-3.239557"><ele>191</ele><time>2023-01-06T12:04:08Z</time><name>PT1990</name></trkpt>
<trkpt lat="52.995633" lon="-3.239484"><ele>190</ele><time>2023-01-06T12:04:12Z</time><name>PT1991</name></trkpt>
<trkpt lat="52.995634" lon="-3.239449"><ele>190</ele><time>2023-01-06T12:04:15Z</time><name>PT1992</name></trkpt>
<trkpt lat="52.995628" lon="-3.239387"><ele>190</ele><time>2023-01-06T12:04:19Z</time><name>PT1993</name></trkpt>
<trkpt lat="52.995624" lon="-3.239330"><ele>190</ele><time>2023-01-06T12:04:22Z</time><name>PT1994</name></trkpt>
<trkpt lat="52.995618" lon="-3.239271"><ele>190</ele><time>2023-01-06T12:04:25Z</time><name>PT1995</name></trkpt>
<trkpt lat="52.995611" lon="-3.239216"><ele>190</ele><time>2023-01-06T12:04:28Z</time><name>PT1996</name></trkpt>
<trkpt lat="52.995610" lon="-3.239144"><ele>189</ele><time>2023-01-06T12:04:32Z</time><name>PT1997</name></trkpt>
<trkpt lat="52.995619" lon="-3.239092"><ele>191</ele><time>2023-01-06T12:04:35Z</time><name>PT1998</name></trkpt>
<trkpt lat="52.995618" lon="-3.239064"><ele>190</ele><time>2023-01-06T12:04:38Z</time><name>PT1999</name></trkpt>
<trkpt lat="52.995618" lon="-3.239046"><ele>191</ele><time>2023-01-06T12:04:42Z</time><name>PT2000</name></trkpt>
<trkpt lat="52.995622" lon="-3.239022"><ele>190</ele><time>2023-01-06T12:04:48Z</time><name>PT2001</name></trkpt>
<trkpt lat="52.995619" lon="-3.238969"><ele>188</ele><time>2023-01-06T12:04:52Z</time><name>PT2002</name></trkpt>
<trkpt lat="52.995618" lon="-3.238922"><ele>188</ele><time>2023-01-06T12:04:55Z</time><name>PT2003</name></trkpt>
<trkpt lat="52.995613" lon="-3.238861"><ele>187</ele><time>2023-01-06T12:04:59Z</time><name>PT2004</name></trkpt>
<trkpt lat="52.995614" lon="-3.238818"><ele>187</ele><time>2023-01-06T12:05:02Z</time><name>PT2005</name></trkpt>
<trkpt lat="52.995609" lon="-3.238756"><ele>186</ele><time>2023-01-06T12:05:06Z</time><name>PT2006</name></trkpt>
<trkpt lat="52.995604" lon="-3.238725"><ele>185</ele><time>2023-01-06T12:05:09Z</time><name>PT2007</name></trkpt>
<trkpt lat="52.995603" lon="-3.238669"><ele>185</ele><time>2023-01-06T12:05:12Z</time><name>PT2008</name></trkpt>
<trkpt lat="52.995607" lon="-3.238601"><ele>184</ele><time>2023-01-06T12:05:16Z</time><name>PT2009</name></trkpt>
<trkpt lat="52.995604" lon="-3.238537"><ele>181</ele><time>2023-01-06T12:05:20Z</time><name>PT2010</name></trkpt>
<trkpt lat="52.995598" lon="-3.238488"><ele>178</ele><time>2023-01-06T12:05:23Z</time><name>PT2011</name></trkpt>
<trkpt lat="52.995596" lon="-3.238413"><ele>178</ele><time>2023-01-06T12:05:27Z</time><name>PT2012</name></trkpt>
<trkpt lat="52.995601" lon="-3.238359"><ele>178</ele><time>2023-01-06T12:05:30Z</time><name>PT2013</name></trkpt>
<trkpt lat="52.995606" lon="-3.238307"><ele>179</ele><time>2023-01-06T12:05:33Z</time><name>PT2014</name></trkpt>
<trkpt lat="52.995605" lon="-3.238247"><ele>177</ele><time>2023-01-06T12:05:36Z</time><name>PT2015</name></trkpt>
<trkpt lat="52.995608" lon="-3.238182"><ele>176</ele><time>2023-01-06T12:05:40Z</time><name>PT2016</name></trkpt>
<trkpt lat="52.995613" lon="-3.238130"><ele>177</ele><time>2023-01-06T12:05:43Z</time><name>PT2017</name></trkpt>
<trkpt lat="52.995628" lon="-3.238087"><ele>177</ele><time>2023-01-06T12:05:47Z</time><name>PT2018</name></trkpt>
<trkpt lat="52.995648" lon="-3.238042"><ele>177</ele><time>2023-01-06T12:05:51Z</time><name>PT2019</name></trkpt>
<trkpt lat="52.995642" lon="-3.238009"><ele>178</ele><time>2023-01-06T12:05:54Z</time><name>PT2020</name></trkpt>
<trkpt lat="52.995634" lon="-3.237983"><ele>178</ele><time>2023-01-06T12:05:58Z</time><name>PT2021</name></trkpt>
<trkpt lat="52.995635" lon="-3.237967"><ele>178</ele><time>2023-01-06T12:06:02Z</time><name>PT2022</name></trkpt>
<trkpt lat="52.995636" lon="-3.237904"><ele>179</ele><time>2023-01-06T12:06:06Z</time><name>PT2023</name></trkpt>
<trkpt lat="52.995623" lon="-3.237868"><ele>178</ele><time>2023-01-06T12:06:09Z</time><name>PT2024</name></trkpt>
<trkpt lat="52.995620" lon="-3.237799"><ele>177</ele><time>2023-01-06T12:06:13Z</time><name>PT2025</name></trkpt>
<trkpt lat="52.995621" lon="-3.237746"><ele>175</ele><time>2023-01-06T12:06:16Z</time><name>PT2026</name></trkpt>
<trkpt lat="52.995631" lon="-3.237668"><ele>176</ele><time>2023-01-06T12:06:20Z</time><name>PT2027</name></trkpt>
<trkpt lat="52.995639" lon="-3.237614"><ele>175</ele><time>2023-01-06T12:06:23Z</time><name>PT2028</name></trkpt>
<trkpt lat="52.995644" lon="-3.237561"><ele>175</ele><time>2023-01-06T12:06:26Z</time><name>PT2029</name></trkpt>
<trkpt lat="52.995649" lon="-3.237509"><ele>174</ele><time>2023-01-06T12:06:29Z</time><name>PT2030</name></trkpt>
<trkpt lat="52.995654" lon="-3.237440"><ele>173</ele><time>2023-01-06T12:06:33Z</time><name>PT2031</name></trkpt>
<trkpt lat="52.995654" lon="-3.237380"><ele>172</ele><time>2023-01-06T12:06:36Z</time><name>PT2032</name></trkpt>
<trkpt lat="52.995652" lon="-3.237324"><ele>172</ele><time>2023-01-06T12:06:39Z</time><name>PT2033</name></trkpt>
<trkpt lat="52.995654" lon="-3.237244"><ele>171</ele><time>2023-01-06T12:06:43Z</time><name>PT2034</name></trkpt>
<trkpt lat="52.995660" lon="-3.237170"><ele>173</ele><time>2023-01-06T12:06:46Z</time><name>PT2035</name></trkpt>
<trkpt lat="52.995662" lon="-3.237085"><ele>173</ele><time>2023-01-06T12:06:50Z</time><name>PT2036</name></trkpt>
<trkpt lat="52.995663" lon="-3.236998"><ele>173</ele><time>2023-01-06T12:06:54Z</time><name>PT2037</name></trkpt>
<trkpt lat="52.995665" lon="-3.236914"><ele>172</ele><time>2023-01-06T12:06:58Z</time><name>PT2038</name></trkpt>
<trkpt lat="52.995671" lon="-3.236853"><ele>172</ele><time>2023-01-06T12:07:01Z</time><name>PT2039</name></trkpt>
<trkpt lat="52.995679" lon="-3.236774"><ele>172</ele><time>2023-01-06T12:07:05Z</time><name>PT2040</name></trkpt>
<trkpt lat="52.995690" lon="-3.236706"><ele>171</ele><time>2023-01-06T12:07:09Z</time><name>PT2041</name></trkpt>
<trkpt lat="52.995695" lon="-3.236657"><ele>169</ele><time>2023-01-06T12:07:12Z</time><name>PT2042</name></trkpt>
<trkpt lat="52.995703" lon="-3.236575"><ele>168</ele><time>2023-01-06T12:07:16Z</time><name>PT2043</name></trkpt>
<trkpt lat="52.995714" lon="-3.236481"><ele>169</ele><time>2023-01-06T12:07:20Z</time><name>PT2044</name></trkpt>
<trkpt lat="52.995712" lon="-3.236421"><ele>169</ele><time>2023-01-06T12:07:23Z</time><name>PT2045</name></trkpt>
<trkpt lat="52.995722" lon="-3.236342"><ele>168</ele><time>2023-01-06T12:07:27Z</time><name>PT2046</name></trkpt>
<trkpt lat="52.995730" lon="-3.236284"><ele>169</ele><time>2023-01-06T12:07:30Z</time><name>PT2047</name></trkpt>
<trkpt lat="52.995738" lon="-3.236214"><ele>169</ele><time>2023-01-06T12:07:34Z</time><name>PT2048</name></trkpt>
<trkpt lat="52.995740" lon="-3.236162"><ele>170</ele><time>2023-01-06T12:07:37Z</time><name>PT2049</name></trkpt>
<trkpt lat="52.995739" lon="-3.236111"><ele>170</ele><time>2023-01-06T12:07:40Z</time><name>PT2050</name></trkpt>
<trkpt lat="52.995744" lon="-3.236048"><ele>171</ele><time>2023-01-06T12:07:43Z</time><name>PT2051</name></trkpt>
<trkpt lat="52.995742" lon="-3.235971"><ele>173</ele><time>2023-01-06T12:07:47Z</time><name>PT2052</name></trkpt>
<trkpt lat="52.995749" lon="-3.235884"><ele>173</ele><time>2023-01-06T12:07:51Z</time><name>PT2053</name></trkpt>
<trkpt lat="52.995743" lon="-3.235805"><ele>172</ele><time>2023-01-06T12:07:55Z</time><name>PT2054</name></trkpt>
<trkpt lat="52.995736" lon="-3.235749"><ele>171</ele><time>2023-01-06T12:07:58Z</time><name>PT2055</name></trkpt>
<trkpt lat="52.995733" lon="-3.235682"><ele>172</ele><time>2023-01-06T12:08:01Z</time><name>PT2056</name></trkpt>
<trkpt lat="52.995724" lon="-3.235600"><ele>175</ele><time>2023-01-06T12:08:05Z</time><name>PT2057</name></trkpt>
<trkpt lat="52.995719" lon="-3.235540"><ele>175</ele><time>2023-01-06T12:08:08Z</time><name>PT2058</name></trkpt>
<trkpt lat="52.995713" lon="-3.235462"><ele>178</ele><time>2023-01-06T12:08:12Z</time><name>PT2059</name></trkpt>
<trkpt lat="52.995701" lon="-3.235396"><ele>179</ele><time>2023-01-06T12:08:15Z</time><name>PT2060</name></trkpt>
<trkpt lat="52.995696" lon="-3.235350"><ele>180</ele><time>2023-01-06T12:08:18Z</time><name>PT2061</name></trkpt>
<trkpt lat="52.995689" lon="-3.235286"><ele>180</ele><time>2023-01-06T12:08:21Z</time><name>PT2062</name></trkpt>
<trkpt lat="52.995690" lon="-3.235195"><ele>181</ele><time>2023-01-06T12:08:25Z</time><name>PT2063</name></trkpt>
<trkpt lat="52.995696" lon="-3.235104"><ele>181</ele><time>2023-01-06T12:08:29Z</time><name>PT2064</name></trkpt>
<trkpt lat="52.995701" lon="-3.235033"><ele>182</ele><time>2023-01-06T12:08:32Z</time><name>PT2065</name></trkpt>
<trkpt lat="52.995708" lon="-3.234960"><ele>180</ele><time>2023-01-06T12:08:36Z</time><name>PT2066</name></trkpt>
<trkpt lat="52.995712" lon="-3.234874"><ele>180</ele><time>2023-01-06T12:08:40Z</time><name>PT2067</name></trkpt>
<trkpt lat="52.995714" lon="-3.234798"><ele>181</ele><time>2023-01-06T12:08:44Z</time><name>PT2068</name></trkpt>
<trkpt lat="52.995722" lon="-3.234751"><ele>181</ele><time>2023-01-06T12:08:47Z</time><name>PT2069</name></trkpt>
<trkpt lat="52.995720" lon="-3.234675"><ele>181</ele><time>2023-01-06T12:08:51Z</time><name>PT2070</name></trkpt>
<trkpt lat="52.995712" lon="-3.234619"><ele>180</ele><time>2023-01-06T12:08:54Z</time><name>PT2071</name></trkpt>
<trkpt lat="52.995702" lon="-3.234554"><ele>180</ele><time>2023-01-06T12:08:57Z</time><name>PT2072</name></trkpt>
<trkpt lat="52.995688" lon="-3.234477"><ele>180</ele><time>2023-01-06T12:09:01Z</time><name>PT2073</name></trkpt>
<trkpt lat="52.995675" lon="-3.234411"><ele>180</ele><time>2023-01-06T12:09:04Z</time><name>PT2074</name></trkpt>
<trkpt lat="52.995661" lon="-3.234329"><ele>180</ele><time>2023-01-06T12:09:08Z</time><name>PT2075</name></trkpt>
<trkpt lat="52.995645" lon="-3.234270"><ele>181</ele><time>2023-01-06T12:09:11Z</time><name>PT2076</name></trkpt>
<trkpt lat="52.995625" lon="-3.234195"><ele>181</ele><time>2023-01-06T12:09:15Z</time><name>PT2077</name></trkpt>
<trkpt lat="52.995601" lon="-3.234120"><ele>182</ele><time>2023-01-06T12:09:19Z</time><name>PT2078</name></trkpt>
<trkpt lat="52.995581" lon="-3.234042"><ele>183</ele><time>2023-01-06T12:09:23Z</time><name>PT2079</name></trkpt>
<trkpt lat="52.995558" lon="-3.233964"><ele>184</ele><time>2023-01-06T12:09:27Z</time><name>PT2080</name></trkpt>
<trkpt lat="52.995546" lon="-3.233906"><ele>184</ele><time>2023-01-06T12:09:30Z</time><name>PT2081</name></trkpt>
<trkpt lat="52.995530" lon="-3.233846"><ele>185</ele><time>2023-01-06T12:09:34Z</time><name>PT2082</name></trkpt>
<trkpt lat="52.995523" lon="-3.233798"><ele>184</ele><time>2023-01-06T12:09:37Z</time><name>PT2083</name></trkpt>
<trkpt lat="52.995515" lon="-3.233753"><ele>184</ele><time>2023-01-06T12:09:41Z</time><name>PT2084</name></trkpt>
<trkpt lat="52.995498" lon="-3.233699"><ele>183</ele><time>2023-01-06T12:09:44Z</time><name>PT2085</name></trkpt>
<trkpt lat="52.995472" lon="-3.233608"><ele>181</ele><time>2023-01-06T12:09:48Z</time><name>PT2086</name></trkpt>
<trkpt lat="52.995442" lon="-3.233543"><ele>179</ele><time>2023-01-06T12:09:52Z</time><name>PT2087</name></trkpt>
<trkpt lat="52.995425" lon="-3.233491"><ele>180</ele><time>2023-01-06T12:09:55Z</time><name>PT2088</name></trkpt>
<trkpt lat="52.995401" lon="-3.233422"><ele>180</ele><time>2023-01-06T12:09:59Z</time><name>PT2089</name></trkpt>
<trkpt lat="52.995404" lon="-3.233334"><ele>178</ele><time>2023-01-06T12:10:03Z</time><name>PT2090</name></trkpt>
<trkpt lat="52.995424" lon="-3.233279"><ele>176</ele><time>2023-01-06T12:10:07Z</time><name>PT2091</name></trkpt>
<trkpt lat="52.995454" lon="-3.233219"><ele>176</ele><time>2023-01-06T12:10:11Z</time><name>PT2092</name></trkpt>
<trkpt lat="52.995488" lon="-3.233188"><ele>174</ele><time>2023-01-06T12:10:14Z</time><name>PT2093</name></trkpt>
<trkpt lat="52.995527" lon="-3.233138"><ele>174</ele><time>2023-01-06T12:10:18Z</time><name>PT2094</name></trkpt>
<trkpt lat="52.995565" lon="-3.233098"><ele>173</ele><time>2023-01-06T12:10:22Z</time><name>PT2095</name></trkpt>
<trkpt lat="52.995604" lon="-3.233062"><ele>173</ele><time>2023-01-06T12:10:26Z</time><name>PT2096</name></trkpt>
<trkpt lat="52.995640" lon="-3.233033"><ele>174</ele><time>2023-01-06T12:10:30Z</time><name>PT2097</name></trkpt>
<trkpt lat="52.995664" lon="-3.233006"><ele>175</ele><time>2023-01-06T12:10:33Z</time><name>PT2098</name></trkpt>
<trkpt lat="52.995692" lon="-3.232979"><ele>175</ele><time>2023-01-06T12:10:36Z</time><name>PT2099</name></trkpt>
<trkpt lat="52.995717" lon="-3.232959"><ele>176</ele><time>2023-01-06T12:10:39Z</time><name>PT2100</name></trkpt>
<trkpt lat="52.995748" lon="-3.232903"><ele>177</ele><time>2023-01-06T12:10:43Z</time><name>PT2101</name></trkpt>
<trkpt lat="52.995779" lon="-3.232859"><ele>175</ele><time>2023-01-06T12:10:47Z</time><name>PT2102</name></trkpt>
<trkpt lat="52.995809" lon="-3.232813"><ele>172</ele><time>2023-01-06T12:10:51Z</time><name>PT2103</name></trkpt>
<trkpt lat="52.995843" lon="-3.232761"><ele>171</ele><time>2023-01-06T12:10:55Z</time><name>PT2104</name></trkpt>
<trkpt lat="52.995849" lon="-3.232677"><ele>170</ele><time>2023-01-06T12:10:59Z</time><name>PT2105</name></trkpt>
<trkpt lat="52.995854" lon="-3.232609"><ele>169</ele><time>2023-01-06T12:11:02Z</time><name>PT2106</name></trkpt>
<trkpt lat="52.995830" lon="-3.232556"><ele>168</ele><time>2023-01-06T12:11:06Z</time><name>PT2107</name></trkpt>
<trkpt lat="52.995796" lon="-3.232531"><ele>169</ele><time>2023-01-06T12:11:09Z</time><name>PT2108</name></trkpt>
<trkpt lat="52.995766" lon="-3.232534"><ele>167</ele><time>2023-01-06T12:11:12Z</time><name>PT2109</name></trkpt>
<trkpt lat="52.995714" lon="-3.232502"><ele>168</ele><time>2023-01-06T12:11:16Z</time><name>PT2110</name></trkpt>
<trkpt lat="52.995680" lon="-3.232489"><ele>165</ele><time>2023-01-06T12:11:19Z</time><name>PT2111</name></trkpt>
<trkpt lat="52.995636" lon="-3.232476"><ele>166</ele><time>2023-01-06T12:11:22Z</time><name>PT2112</name></trkpt>
<trkpt lat="52.995586" lon="-3.232437"><ele>166</ele><time>2023-01-06T12:11:26Z</time><name>PT2113</name></trkpt>
<trkpt lat="52.995555" lon="-3.232408"><ele>167</ele><time>2023-01-06T12:11:29Z</time><name>PT2114</name></trkpt>
<trkpt lat="52.995501" lon="-3.232362"><ele>166</ele><time>2023-01-06T12:11:33Z</time><name>PT2115</name></trkpt>
<trkpt lat="52.995468" lon="-3.232312"><ele>163</ele><time>2023-01-06T12:11:36Z</time><name>PT2116</name></trkpt>
<trkpt lat="52.995433" lon="-3.232278"><ele>164</ele><time>2023-01-06T12:11:39Z</time><name>PT2117</name></trkpt>
<trkpt lat="52.995397" lon="-3.232264"><ele>164</ele><time>2023-01-06T12:11:42Z</time><name>PT2118</name></trkpt>
<trkpt lat="52.995337" lon="-3.232270"><ele>166</ele><time>2023-01-06T12:11:46Z</time><name>PT2119</name></trkpt>
<trkpt lat="52.995290" lon="-3.232222"><ele>166</ele><time>2023-01-06T12:11:50Z</time><name>PT2120</name></trkpt>
<trkpt lat="52.995252" lon="-3.232209"><ele>168</ele><time>2023-01-06T12:11:53Z</time><name>PT2121</name></trkpt>
<trkpt lat="52.995206" lon="-3.232170"><ele>169</ele><time>2023-01-06T12:11:57Z</time><name>PT2122</name></trkpt>
<trkpt lat="52.995157" lon="-3.232136"><ele>168</ele><time>2023-01-06T12:12:01Z</time><name>PT2123</name></trkpt>
<trkpt lat="52.995108" lon="-3.232103"><ele>166</ele><time>2023-01-06T12:12:05Z</time><name>PT2124</name></trkpt>
<trkpt lat="52.995076" lon="-3.232080"><ele>167</ele><time>2023-01-06T12:12:08Z</time><name>PT2125</name></trkpt>
<trkpt lat="52.995049" lon="-3.232059"><ele>164</ele><time>2023-01-06T12:12:11Z</time><name>PT2126</name></trkpt>
<trkpt lat="52.995002" lon="-3.232027"><ele>162</ele><time>2023-01-06T12:12:15Z</time><name>PT2127</name></trkpt>
<trkpt lat="52.994963" lon="-3.231979"><ele>162</ele><time>2023-01-06T12:12:19Z</time><name>PT2128</name></trkpt>
<trkpt lat="52.994934" lon="-3.231939"><ele>162</ele><time>2023-01-06T12:12:22Z</time><name>PT2129</name></trkpt>
<trkpt lat="52.994894" lon="-3.231893"><ele>161</ele><time>2023-01-06T12:12:26Z</time><name>PT2130</name></trkpt>
<trkpt lat="52.994850" lon="-3.231839"><ele>164</ele><time>2023-01-06T12:12:30Z</time><name>PT2131</name></trkpt>
<trkpt lat="52.994831" lon="-3.231807"><ele>166</ele><time>2023-01-06T12:12:33Z</time><name>PT2132</name></trkpt>
<trkpt lat="52.994800" lon="-3.231763"><ele>167</ele><time>2023-01-06T12:12:37Z</time><name>PT2133</name></trkpt>
<trkpt lat="52.994767" lon="-3.231709"><ele>166</ele><time>2023-01-06T12:12:41Z</time><name>PT2134</name></trkpt>
<trkpt lat="52.994756" lon="-3.231666"><ele>165</ele><time>2023-01-06T12:12:44Z</time><name>PT2135</name></trkpt>
<trkpt lat="52.994755" lon="-3.231657"><ele>166</ele><time>2023-01-06T12:12:48Z</time><name>PT2136</name></trkpt>
<trkpt lat="52.994742" lon="-3.231614"><ele>167</ele><time>2023-01-06T12:12:54Z</time><name>PT2137</name></trkpt>
<trkpt lat="52.994709" lon="-3.231544"><ele>167</ele><time>2023-01-06T12:12:57Z</time><name>PT2138</name></trkpt>
<trkpt lat="52.994675" lon="-3.231486"><ele>167</ele><time>2023-01-06T12:13:01Z</time><name>PT2139</name></trkpt>
<trkpt lat="52.994650" lon="-3.231436"><ele>167</ele><time>2023-01-06T12:13:04Z</time><name>PT2140</name></trkpt>
<trkpt lat="52.994621" lon="-3.231380"><ele>167</ele><time>2023-01-06T12:13:08Z</time><name>PT2141</name></trkpt>
<trkpt lat="52.994582" lon="-3.231334"><ele>167</ele><time>2023-01-06T12:13:12Z</time><name>PT2142</name></trkpt>
<trkpt lat="52.994552" lon="-3.231296"><ele>167</ele><time>2023-01-06T12:13:15Z</time><name>PT2143</name></trkpt>
<trkpt lat="52.994510" lon="-3.231271"><ele>167</ele><time>2023-01-06T12:13:18Z</time><name>PT2144</name></trkpt>
<trkpt lat="52.994469" lon="-3.231244"><ele>168</ele><time>2023-01-06T12:13:21Z</time><name>PT2145</name></trkpt>
<trkpt lat="52.994427" lon="-3.231212"><ele>169</ele><time>2023-01-06T12:13:24Z</time><name>PT2146</name></trkpt>
<trkpt lat="52.994381" lon="-3.231178"><ele>168</ele><time>2023-01-06T12:13:28Z</time><name>PT2147</name></trkpt>
<trkpt lat="52.994343" lon="-3.231147"><ele>168</ele><time>2023-01-06T12:13:31Z</time><name>PT2148</name></trkpt>
<trkpt lat="52.994297" lon="-3.231088"><ele>168</ele><time>2023-01-06T12:13:35Z</time><name>PT2149</name></trkpt>
<trkpt lat="52.994269" lon="-3.231063"><ele>167</ele><time>2023-01-06T12:13:39Z</time><name>PT2150</name></trkpt>
<trkpt lat="52.994234" lon="-3.231021"><ele>167</ele><time>2023-01-06T12:13:42Z</time><name>PT2151</name></trkpt>
<trkpt lat="52.994196" lon="-3.230981"><ele>166</ele><time>2023-01-06T12:13:46Z</time><name>PT2152</name></trkpt>
<trkpt lat="52.994156" lon="-3.230939"><ele>164</ele><time>2023-01-06T12:13:50Z</time><name>PT2153</name></trkpt>
<trkpt lat="52.994118" lon="-3.230896"><ele>164</ele><time>2023-01-06T12:13:54Z</time><name>PT2154</name></trkpt>
<trkpt lat="52.994084" lon="-3.230863"><ele>164</ele><time>2023-01-06T12:13:57Z</time><name>PT2155</name></trkpt>
<trkpt lat="52.994052" lon="-3.230834"><ele>164</ele><time>2023-01-06T12:14:00Z</time><name>PT2156</name></trkpt>
<trkpt lat="52.994011" lon="-3.230783"><ele>161</ele><time>2023-01-06T12:14:04Z</time><name>PT2157</name></trkpt>
<trkpt lat="52.993981" lon="-3.230758"><ele>159</ele><time>2023-01-06T12:14:07Z</time><name>PT2158</name></trkpt>
<trkpt lat="52.993949" lon="-3.230728"><ele>158</ele><time>2023-01-06T12:14:10Z</time><name>PT2159</name></trkpt>
<trkpt lat="52.993909" lon="-3.230669"><ele>156</ele><time>2023-01-06T12:14:14Z</time><name>PT2160</name></trkpt>
<trkpt lat="52.993880" lon="-3.230628"><ele>156</ele><time>2023-01-06T12:14:17Z</time><name>PT2161</name></trkpt>
<trkpt lat="52.993843" lon="-3.230577"><ele>155</ele><time>2023-01-06T12:14:21Z</time><name>PT2162</name></trkpt>
<trkpt lat="52.993811" lon="-3.230534"><ele>155</ele><time>2023-01-06T12:14:24Z</time><name>PT2163</name></trkpt>
<trkpt lat="52.993780" lon="-3.230493"><ele>154</ele><time>2023-01-06T12:14:27Z</time><name>PT2164</name></trkpt>
<trkpt lat="52.993735" lon="-3.230440"><ele>155</ele><time>2023-01-06T12:14:31Z</time><name>PT2165</name></trkpt>
<trkpt lat="52.993706" lon="-3.230400"><ele>154</ele><time>2023-01-06T12:14:34Z</time><name>PT2166</name></trkpt>
<trkpt lat="52.993669" lon="-3.230341"><ele>154</ele><time>2023-01-06T12:14:38Z</time><name>PT2167</name></trkpt>
<trkpt lat="52.993629" lon="-3.230287"><ele>153</ele><time>2023-01-06T12:14:42Z</time><name>PT2168</name></trkpt>
<trkpt lat="52.993590" lon="-3.230234"><ele>153</ele><time>2023-01-06T12:14:46Z</time><name>PT2169</name></trkpt>
<trkpt lat="52.993550" lon="-3.230177"><ele>153</ele><time>2023-01-06T12:14:50Z</time><name>PT2170</name></trkpt>
<trkpt lat="52.993527" lon="-3.230133"><ele>153</ele><time>2023-01-06T12:14:53Z</time><name>PT2171</name></trkpt>
<trkpt lat="52.993500" lon="-3.230061"><ele>153</ele><time>2023-01-06T12:14:57Z</time><name>PT2172</name></trkpt>
<trkpt lat="52.993475" lon="-3.230012"><ele>153</ele><time>2023-01-06T12:15:00Z</time><name>PT2173</name></trkpt>
<trkpt lat="52.993449" lon="-3.229966"><ele>153</ele><time>2023-01-06T12:15:03Z</time><name>PT2174</name></trkpt>
<trkpt lat="52.993418" lon="-3.229902"><ele>153</ele><time>2023-01-06T12:15:07Z</time><name>PT2175</name></trkpt>
<trkpt lat="52.993396" lon="-3.229859"><ele>153</ele><time>2023-01-06T12:15:10Z</time><name>PT2176</name></trkpt>
<trkpt lat="52.993364" lon="-3.229795"><ele>153</ele><time>2023-01-06T12:15:14Z</time><name>PT2177</name></trkpt>
<trkpt lat="52.993348" lon="-3.229728"><ele>154</ele><time>2023-01-06T12:15:17Z</time><name>PT2178</name></trkpt>
<trkpt lat="52.993318" lon="-3.229669"><ele>154</ele><time>2023-01-06T12:15:21Z</time><name>PT2179</name></trkpt>
<trkpt lat="52.993293" lon="-3.229626"><ele>155</ele><time>2023-01-06T12:15:24Z</time><name>PT2180</name></trkpt>
<trkpt lat="52.993271" lon="-3.229574"><ele>154</ele><time>2023-01-06T12:15:27Z</time><name>PT2181</name></trkpt>
<trkpt lat="52.993248" lon="-3.229530"><ele>154</ele><time>2023-01-06T12:15:30Z</time><name>PT2182</name></trkpt>
<trkpt lat="52.993220" lon="-3.229452"><ele>153</ele><time>2023-01-06T12:15:34Z</time><name>PT2183</name></trkpt>
<trkpt lat="52.993191" lon="-3.229385"><ele>153</ele><time>2023-01-06T12:15:38Z</time><name>PT2184</name></trkpt>
<trkpt lat="52.993175" lon="-3.229340"><ele>152</ele><time>2023-01-06T12:15:41Z</time><name>PT2185</name></trkpt>
<trkpt lat="52.993162" lon="-3.229275"><ele>151</ele><time>2023-01-06T12:15:45Z</time><name>PT2186</name></trkpt>
<trkpt lat="52.993142" lon="-3.229206"><ele>150</ele><time>2023-01-06T12:15:49Z</time><name>PT2187</name></trkpt>
<trkpt lat="52.993135" lon="-3.229154"><ele>149</ele><time>2023-01-06T12:15:52Z</time><name>PT2188</name></trkpt>
<trkpt lat="52.993118" lon="-3.229098"><ele>150</ele><time>2023-01-06T12:15:55Z</time><name>PT2189</name></trkpt>
<trkpt lat="52.993099" lon="-3.229037"><ele>148</ele><time>2023-01-06T12:15:59Z</time><name>PT2190</name></trkpt>
<trkpt lat="52.993081" lon="-3.228995"><ele>147</ele><time>2023-01-06T12:16:02Z</time><name>PT2191</name></trkpt>
<trkpt lat="52.993050" lon="-3.228895"><ele>150</ele><time>2023-01-06T12:16:06Z</time><name>PT2192</name></trkpt>
<trkpt lat="52.993013" lon="-3.228821"><ele>148</ele><time>2023-01-06T12:16:10Z</time><name>PT2193</name></trkpt>
<trkpt lat="52.992986" lon="-3.228750"><ele>146</ele><time>2023-01-06T12:16:14Z</time><name>PT2194</name></trkpt>
<trkpt lat="52.992966" lon="-3.228681"><ele>145</ele><time>2023-01-06T12:16:18Z</time><name>PT2195</name></trkpt>
<trkpt lat="52.992951" lon="-3.228634"><ele>145</ele><time>2023-01-06T12:16:21Z</time><name>PT2196</name></trkpt>
<trkpt lat="52.992927" lon="-3.228552"><ele>145</ele><time>2023-01-06T12:16:25Z</time><name>PT2197</name></trkpt>
<trkpt lat="52.992921" lon="-3.228475"><ele>144</ele><time>2023-01-06T12:16:29Z</time><name>PT2198</name></trkpt>
<trkpt lat="52.992921" lon="-3.228425"><ele>142</ele><time>2023-01-06T12:16:32Z</time><name>PT2199</name></trkpt>
<trkpt lat="52.992925" lon="-3.228345"><ele>142</ele><time>2023-01-06T12:16:36Z</time><name>PT2200</name></trkpt>
<trkpt lat="52.992930" lon="-3.228255"><ele>144</ele><time>2023-01-06T12:16:40Z</time><name>PT2201</name></trkpt>
<trkpt lat="52.992927" lon="-3.228096"><ele>145</ele><time>2023-01-06T12:16:44Z</time><name>PT2202</name></trkpt>
<trkpt lat="52.992935" lon="-3.227997"><ele>145</ele><time>2023-01-06T12:16:48Z</time><name>PT2203</name></trkpt>
<trkpt lat="52.992942" lon="-3.227918"><ele>145</ele><time>2023-01-06T12:16:52Z</time><name>PT2204</name></trkpt>
<trkpt lat="52.992948" lon="-3.227877"><ele>145</ele><time>2023-01-06T12:16:55Z</time><name>PT2205</name></trkpt>
<trkpt lat="52.992956" lon="-3.227813"><ele>145</ele><time>2023-01-06T12:16:58Z</time><name>PT2206</name></trkpt>
<trkpt lat="52.992957" lon="-3.227724"><ele>145</ele><time>2023-01-06T12:17:02Z</time><name>PT2207</name></trkpt>
<trkpt lat="52.992961" lon="-3.227670"><ele>143</ele><time>2023-01-06T12:17:05Z</time><name>PT2208</name></trkpt>
<trkpt lat="52.992972" lon="-3.227600"><ele>143</ele><time>2023-01-06T12:17:08Z</time><name>PT2209</name></trkpt>
<trkpt lat="52.992974" lon="-3.227541"><ele>141</ele><time>2023-01-06T12:17:11Z</time><name>PT2210</name></trkpt>
<trkpt lat="52.992989" lon="-3.227459"><ele>141</ele><time>2023-01-06T12:17:15Z</time><name>PT2211</name></trkpt>
<trkpt lat="52.993007" lon="-3.227393"><ele>142</ele><time>2023-01-06T12:17:18Z</time><name>PT2212</name></trkpt>
<trkpt lat="52.993023" lon="-3.227319"><ele>142</ele><time>2023-01-06T12:17:21Z</time><name>PT2213</name></trkpt>
<trkpt lat="52.993037" lon="-3.227218"><ele>142</ele><time>2023-01-06T12:17:25Z</time><name>PT2214</name></trkpt>
<trkpt lat="52.993056" lon="-3.227129"><ele>141</ele><time>2023-01-06T12:17:29Z</time><name>PT2215</name></trkpt>
<trkpt lat="52.993069" lon="-3.227072"><ele>140</ele><time>2023-01-06T12:17:32Z</time><name>PT2216</name></trkpt>
<trkpt lat="52.993086" lon="-3.227017"><ele>140</ele><time>2023-01-06T12:17:35Z</time><name>PT2217</name></trkpt>
<trkpt lat="52.993106" lon="-3.226939"><ele>141</ele><time>2023-01-06T12:17:39Z</time><name>PT2218</name></trkpt>
<trkpt lat="52.993120" lon="-3.226880"><ele>139</ele><time>2023-01-06T12:17:42Z</time><name>PT2219</name></trkpt>
<trkpt lat="52.993144" lon="-3.226797"><ele>139</ele><time>2023-01-06T12:17:46Z</time><name>PT2220</name></trkpt>
<trkpt lat="52.993161" lon="-3.226741"><ele>139</ele><time>2023-01-06T12:17:49Z</time><name>PT2221</name></trkpt>
<trkpt lat="52.993185" lon="-3.226686"><ele>138</ele><time>2023-01-06T12:17:52Z</time><name>PT2222</name></trkpt>
<trkpt lat="52.993214" lon="-3.226612"><ele>137</ele><time>2023-01-06T12:17:56Z</time><name>PT2223</name></trkpt>
<trkpt lat="52.993247" lon="-3.226563"><ele>137</ele><time>2023-01-06T12:18:00Z</time><name>PT2224</name></trkpt>
<trkpt lat="52.993267" lon="-3.226521"><ele>137</ele><time>2023-01-06T12:18:03Z</time><name>PT2225</name></trkpt>
<trkpt lat="52.993281" lon="-3.226474"><ele>137</ele><time>2023-01-06T12:18:06Z</time><name>PT2226</name></trkpt>
<trkpt lat="52.993302" lon="-3.226437"><ele>136</ele><time>2023-01-06T12:18:09Z</time><name>PT2227</name></trkpt>
<trkpt lat="52.993340" lon="-3.226385"><ele>134</ele><time>2023-01-06T12:18:13Z</time><name>PT2228</name></trkpt>
<trkpt lat="52.993374" lon="-3.226325"><ele>134</ele><time>2023-01-06T12:18:17Z</time><name>PT2229</name></trkpt>
<trkpt lat="52.993402" lon="-3.226253"><ele>134</ele><time>2023-01-06T12:18:21Z</time><name>PT2230</name></trkpt>
<trkpt lat="52.993420" lon="-3.226198"><ele>134</ele><time>2023-01-06T12:18:24Z</time><name>PT2231</name></trkpt>
<trkpt lat="52.993456" lon="-3.226130"><ele>135</ele><time>2023-01-06T12:18:28Z</time><name>PT2232</name></trkpt>
<trkpt lat="52.993492" lon="-3.226082"><ele>134</ele><time>2023-01-06T12:18:32Z</time><name>PT2233</name></trkpt>
<trkpt lat="52.993520" lon="-3.226035"><ele>134</ele><time>2023-01-06T12:18:35Z</time><name>PT2234</name></trkpt>
<trkpt lat="52.993551" lon="-3.226003"><ele>134</ele><time>2023-01-06T12:18:38Z</time><name>PT2235</name></trkpt>
<trkpt lat="52.993580" lon="-3.225947"><ele>132</ele><time>2023-01-06T12:18:42Z</time><name>PT2236</name></trkpt>
<trkpt lat="52.993602" lon="-3.225898"><ele>133</ele><time>2023-01-06T12:18:45Z</time><name>PT2237</name></trkpt>
<trkpt lat="52.993625" lon="-3.225833"><ele>132</ele><time>2023-01-06T12:18:49Z</time><name>PT2238</name></trkpt>
<trkpt lat="52.993632" lon="-3.225798"><ele>133</ele><time>2023-01-06T12:18:52Z</time><name>PT2239</name></trkpt>
<trkpt lat="52.993640" lon="-3.225765"><ele>134</ele><time>2023-01-06T12:18:55Z</time><name>PT2240</name></trkpt>
<trkpt lat="52.993637" lon="-3.225748"><ele>135</ele><time>2023-01-06T12:18:59Z</time><name>PT2241</name></trkpt>
<trkpt lat="52.993648" lon="-3.225708"><ele>135</ele><time>2023-01-06T12:19:10Z</time><name>PT2242</name></trkpt>
<trkpt lat="52.993671" lon="-3.225650"><ele>133</ele><time>2023-01-06T12:19:13Z</time><name>PT2243</name></trkpt>
<trkpt lat="52.993673" lon="-3.225622"><ele>132</ele><time>2023-01-06T12:19:16Z</time><name>PT2244</name></trkpt>
<trkpt lat="52.993693" lon="-3.225557"><ele>132</ele><time>2023-01-06T12:19:20Z</time><name>PT2245</name></trkpt>
<trkpt lat="52.993730" lon="-3.225496"><ele>132</ele><time>2023-01-06T12:19:24Z</time><name>PT2246</name></trkpt>
<trkpt lat="52.993763" lon="-3.225440"><ele>130</ele><time>2023-01-06T12:19:28Z</time><name>PT2247</name></trkpt>
<trkpt lat="52.993804" lon="-3.225389"><ele>132</ele><time>2023-01-06T12:19:32Z</time><name>PT2248</name></trkpt>
<trkpt lat="52.993832" lon="-3.225353"><ele>131</ele><time>2023-01-06T12:19:35Z</time><name>PT2249</name></trkpt>
<trkpt lat="52.993854" lon="-3.225307"><ele>131</ele><time>2023-01-06T12:19:38Z</time><name>PT2250</name></trkpt>
<trkpt lat="52.993883" lon="-3.225274"><ele>131</ele><time>2023-01-06T12:19:41Z</time><name>PT2251</name></trkpt>
<trkpt lat="52.993911" lon="-3.225214"><ele>129</ele><time>2023-01-06T12:19:45Z</time><name>PT2252</name></trkpt>
<trkpt lat="52.993938" lon="-3.225148"><ele>129</ele><time>2023-01-06T12:19:49Z</time><name>PT2253</name></trkpt>
<trkpt lat="52.993958" lon="-3.225098"><ele>128</ele><time>2023-01-06T12:19:52Z</time><name>PT2254</name></trkpt>
<trkpt lat="52.993984" lon="-3.225053"><ele>129</ele><time>2023-01-06T12:19:55Z</time><name>PT2255</name></trkpt>
<trkpt lat="52.994009" lon="-3.224994"><ele>128</ele><time>2023-01-06T12:19:59Z</time><name>PT2256</name></trkpt>
<trkpt lat="52.994002" lon="-3.224965"><ele>127</ele><time>2023-01-06T12:20:02Z</time><name>PT2257</name></trkpt>
<trkpt lat="52.993992" lon="-3.224944"><ele>127</ele><time>2023-01-06T12:20:05Z</time><name>PT2258</name></trkpt>
<trkpt lat="52.993991" lon="-3.224941"><ele>127</ele><time>2023-01-06T12:20:09Z</time><name>PT2259</name></trkpt>
<trkpt lat="52.993981" lon="-3.224934"><ele>127</ele><time>2023-01-06T12:20:16Z</time><name>PT2260</name></trkpt>
<trkpt lat="52.993979" lon="-3.224925"><ele>127</ele><time>2023-01-06T12:21:59Z</time><name>PT2261</name></trkpt>
<trkpt lat="52.993958" lon="-3.224906"><ele>128</ele><time>2023-01-06T12:22:03Z</time><name>PT2262</name></trkpt>
<trkpt lat="52.993958" lon="-3.224897"><ele>128</ele><time>2023-01-06T12:22:24Z</time><name>PT2263</name></trkpt>
<trkpt lat="52.993958" lon="-3.224893"><ele>128</ele><time>2023-01-06T12:22:28Z</time><name>PT2264</name></trkpt>
<trkpt lat="52.993964" lon="-3.224906"><ele>129</ele><time>2023-01-06T12:22:31Z</time><name>PT2265</name></trkpt>
<trkpt lat="52.993966" lon="-3.224886"><ele>129</ele><time>2023-01-06T12:22:35Z</time><name>PT2266</name></trkpt>
<trkpt lat="52.993969" lon="-3.224883"><ele>129</ele><time>2023-01-06T12:22:38Z</time><name>PT2267</name></trkpt>
<trkpt lat="52.993970" lon="-3.224869"><ele>129</ele><time>2023-01-06T12:22:42Z</time><name>PT2268</name></trkpt>
<trkpt lat="52.993991" lon="-3.224811"><ele>129</ele><time>2023-01-06T12:22:46Z</time><name>PT2269</name></trkpt>
<trkpt lat="52.994014" lon="-3.224777"><ele>130</ele><time>2023-01-06T12:22:49Z</time><name>PT2270</name></trkpt>
<trkpt lat="52.994023" lon="-3.224758"><ele>129</ele><time>2023-01-06T12:22:53Z</time><name>PT2271</name></trkpt>
<trkpt lat="52.994028" lon="-3.224743"><ele>130</ele><time>2023-01-06T12:22:57Z</time><name>PT2272</name></trkpt>
<trkpt lat="52.994035" lon="-3.224754"><ele>131</ele><time>2023-01-06T12:23:00Z</time><name>PT2273</name></trkpt>
<trkpt lat="52.994052" lon="-3.224733"><ele>131</ele><time>2023-01-06T12:23:04Z</time><name>PT2274</name></trkpt>
<trkpt lat="52.994064" lon="-3.224709"><ele>130</ele><time>2023-01-06T12:23:07Z</time><name>PT2275</name></trkpt>
<trkpt lat="52.994074" lon="-3.224704"><ele>130</ele><time>2023-01-06T12:23:11Z</time><name>PT2276</name></trkpt>
<trkpt lat="52.994076" lon="-3.224703"><ele>131</ele><time>2023-01-06T12:23:14Z</time><name>PT2277</name></trkpt>
<trkpt lat="52.994075" lon="-3.224697"><ele>130</ele><time>2023-01-06T12:24:28Z</time><name>PT2278</name></trkpt>
<trkpt lat="52.994086" lon="-3.224657"><ele>130</ele><time>2023-01-06T12:24:49Z</time><name>PT2279</name></trkpt>
<trkpt lat="52.994114" lon="-3.224592"><ele>132</ele><time>2023-01-06T12:24:53Z</time><name>PT2280</name></trkpt>
<trkpt lat="52.994138" lon="-3.224537"><ele>131</ele><time>2023-01-06T12:24:57Z</time><name>PT2281</name></trkpt>
<trkpt lat="52.994152" lon="-3.224485"><ele>134</ele><time>2023-01-06T12:25:00Z</time><name>PT2282</name></trkpt>
<trkpt lat="52.994182" lon="-3.224415"><ele>133</ele><time>2023-01-06T12:25:04Z</time><name>PT2283</name></trkpt>
<trkpt lat="52.994203" lon="-3.224356"><ele>133</ele><time>2023-01-06T12:25:08Z</time><name>PT2284</name></trkpt>
<trkpt lat="52.994235" lon="-3.224299"><ele>132</ele><time>2023-01-06T12:25:12Z</time><name>PT2285</name></trkpt>
<trkpt lat="52.994258" lon="-3.224250"><ele>131</ele><time>2023-01-06T12:25:15Z</time><name>PT2286</name></trkpt>
<trkpt lat="52.994290" lon="-3.224177"><ele>130</ele><time>2023-01-06T12:25:19Z</time><name>PT2287</name></trkpt>
<trkpt lat="52.994313" lon="-3.224123"><ele>132</ele><time>2023-01-06T12:25:22Z</time><name>PT2288</name></trkpt>
<trkpt lat="52.994337" lon="-3.224051"><ele>131</ele><time>2023-01-06T12:25:26Z</time><name>PT2289</name></trkpt>
<trkpt lat="52.994360" lon="-3.224004"><ele>131</ele><time>2023-01-06T12:25:29Z</time><name>PT2290</name></trkpt>
<trkpt lat="52.994379" lon="-3.223935"><ele>130</ele><time>2023-01-06T12:25:33Z</time><name>PT2291</name></trkpt>
<trkpt lat="52.994400" lon="-3.223879"><ele>131</ele><time>2023-01-06T12:25:36Z</time><name>PT2292</name></trkpt>
<trkpt lat="52.994417" lon="-3.223833"><ele>130</ele><time>2023-01-06T12:25:39Z</time><name>PT2293</name></trkpt>
<trkpt lat="52.994431" lon="-3.223756"><ele>130</ele><time>2023-01-06T12:25:43Z</time><name>PT2294</name></trkpt>
<trkpt lat="52.994446" lon="-3.223702"><ele>130</ele><time>2023-01-06T12:25:46Z</time><name>PT2295</name></trkpt>
<trkpt lat="52.994463" lon="-3.223629"><ele>130</ele><time>2023-01-06T12:25:50Z</time><name>PT2296</name></trkpt>
<trkpt lat="52.994472" lon="-3.223572"><ele>129</ele><time>2023-01-06T12:25:53Z</time><name>PT2297</name></trkpt>
<trkpt lat="52.994484" lon="-3.223512"><ele>129</ele><time>2023-01-06T12:25:56Z</time><name>PT2298</name></trkpt>
<trkpt lat="52.994505" lon="-3.223432"><ele>129</ele><time>2023-01-06T12:26:00Z</time><name>PT2299</name></trkpt>
<trkpt lat="52.994518" lon="-3.223345"><ele>132</ele><time>2023-01-06T12:26:04Z</time><name>PT2300</name></trkpt>
<trkpt lat="52.994533" lon="-3.223293"><ele>133</ele><time>2023-01-06T12:26:07Z</time><name>PT2301</name></trkpt>
<trkpt lat="52.994569" lon="-3.223229"><ele>133</ele><time>2023-01-06T12:26:11Z</time><name>PT2302</name></trkpt>
<trkpt lat="52.994598" lon="-3.223171"><ele>132</ele><time>2023-01-06T12:26:15Z</time><name>PT2303</name></trkpt>
<trkpt lat="52.994622" lon="-3.223096"><ele>131</ele><time>2023-01-06T12:26:19Z</time><name>PT2304</name></trkpt>
<trkpt lat="52.994645" lon="-3.223050"><ele>132</ele><time>2023-01-06T12:26:22Z</time><name>PT2305</name></trkpt>
<trkpt lat="52.994670" lon="-3.222980"><ele>133</ele><time>2023-01-06T12:26:26Z</time><name>PT2306</name></trkpt>
<trkpt lat="52.994690" lon="-3.222930"><ele>134</ele><time>2023-01-06T12:26:29Z</time><name>PT2307</name></trkpt>
<trkpt lat="52.994707" lon="-3.222869"><ele>133</ele><time>2023-01-06T12:26:33Z</time><name>PT2308</name></trkpt>
<trkpt lat="52.994733" lon="-3.222824"><ele>132</ele><time>2023-01-06T12:26:37Z</time><name>PT2309</name></trkpt>
<trkpt lat="52.994764" lon="-3.222785"><ele>131</ele><time>2023-01-06T12:26:41Z</time><name>PT2310</name></trkpt>
<trkpt lat="52.994783" lon="-3.222722"><ele>130</ele><time>2023-01-06T12:26:44Z</time><name>PT2311</name></trkpt>
<trkpt lat="52.994808" lon="-3.222669"><ele>130</ele><time>2023-01-06T12:26:47Z</time><name>PT2312</name></trkpt>
<trkpt lat="52.994825" lon="-3.222604"><ele>132</ele><time>2023-01-06T12:26:50Z</time><name>PT2313</name></trkpt>
<trkpt lat="52.994849" lon="-3.222518"><ele>131</ele><time>2023-01-06T12:26:54Z</time><name>PT2314</name></trkpt>
<trkpt lat="52.994869" lon="-3.222472"><ele>131</ele><time>2023-01-06T12:26:57Z</time><name>PT2315</name></trkpt>
<trkpt lat="52.994888" lon="-3.222432"><ele>130</ele><time>2023-01-06T12:27:01Z</time><name>PT2316</name></trkpt>
<trkpt lat="52.994906" lon="-3.222381"><ele>128</ele><time>2023-01-06T12:27:05Z</time><name>PT2317</name></trkpt>
<trkpt lat="52.994920" lon="-3.222330"><ele>127</ele><time>2023-01-06T12:27:08Z</time><name>PT2318</name></trkpt>
<trkpt lat="52.994940" lon="-3.222249"><ele>127</ele><time>2023-01-06T12:27:12Z</time><name>PT2319</name></trkpt>
<trkpt lat="52.994956" lon="-3.222166"><ele>127</ele><time>2023-01-06T12:27:16Z</time><name>PT2320</name></trkpt>
<trkpt lat="52.994977" lon="-3.222082"><ele>128</ele><time>2023-01-06T12:27:20Z</time><name>PT2321</name></trkpt>
<trkpt lat="52.994992" lon="-3.222023"><ele>127</ele><time>2023-01-06T12:27:23Z</time><name>PT2322</name></trkpt>
<trkpt lat="52.995002" lon="-3.221960"><ele>127</ele><time>2023-01-06T12:27:26Z</time><name>PT2323</name></trkpt>
<trkpt lat="52.995017" lon="-3.221873"><ele>128</ele><time>2023-01-06T12:27:30Z</time><name>PT2324</name></trkpt>
<trkpt lat="52.995018" lon="-3.221833"><ele>128</ele><time>2023-01-06T12:27:33Z</time><name>PT2325</name></trkpt>
<trkpt lat="52.995014" lon="-3.221773"><ele>128</ele><time>2023-01-06T12:27:37Z</time><name>PT2326</name></trkpt>
<trkpt lat="52.995019" lon="-3.221761"><ele>129</ele><time>2023-01-06T12:27:40Z</time><name>PT2327</name></trkpt>
<trkpt lat="52.995041" lon="-3.221675"><ele>128</ele><time>2023-01-06T12:27:44Z</time><name>PT2328</name></trkpt>
<trkpt lat="52.995056" lon="-3.221619"><ele>128</ele><time>2023-01-06T12:27:47Z</time><name>PT2329</name></trkpt>
<trkpt lat="52.995072" lon="-3.221573"><ele>127</ele><time>2023-01-06T12:27:50Z</time><name>PT2330</name></trkpt>
<trkpt lat="52.995082" lon="-3.221532"><ele>125</ele><time>2023-01-06T12:27:53Z</time><name>PT2331</name></trkpt>
<trkpt lat="52.995098" lon="-3.221485"><ele>124</ele><time>2023-01-06T12:27:57Z</time><name>PT2332</name></trkpt>
<trkpt lat="52.995117" lon="-3.221420"><ele>124</ele><time>2023-01-06T12:28:01Z</time><name>PT2333</name></trkpt>
<trkpt lat="52.995136" lon="-3.221343"><ele>128</ele><time>2023-01-06T12:28:05Z</time><name>PT2334</name></trkpt>
<trkpt lat="52.995156" lon="-3.221287"><ele>128</ele><time>2023-01-06T12:28:09Z</time><name>PT2335</name></trkpt>
<trkpt lat="52.995165" lon="-3.221244"><ele>128</ele><time>2023-01-06T12:28:12Z</time><name>PT2336</name></trkpt>
<trkpt lat="52.995180" lon="-3.221170"><ele>132</ele><time>2023-01-06T12:28:16Z</time><name>PT2337</name></trkpt>
<trkpt lat="52.995193" lon="-3.221117"><ele>132</ele><time>2023-01-06T12:28:20Z</time><name>PT2338</name></trkpt>
<trkpt lat="52.995207" lon="-3.221051"><ele>131</ele><time>2023-01-06T12:28:24Z</time><name>PT2339</name></trkpt>
<trkpt lat="52.995223" lon="-3.220981"><ele>132</ele><time>2023-01-06T12:28:28Z</time><name>PT2340</name></trkpt>
<trkpt lat="52.995238" lon="-3.220919"><ele>133</ele><time>2023-01-06T12:28:32Z</time><name>PT2341</name></trkpt>
<trkpt lat="52.995257" lon="-3.220850"><ele>133</ele><time>2023-01-06T12:28:36Z</time><name>PT2342</name></trkpt>
<trkpt lat="52.995266" lon="-3.220798"><ele>133</ele><time>2023-01-06T12:28:39Z</time><name>PT2343</name></trkpt>
<trkpt lat="52.995277" lon="-3.220741"><ele>132</ele><time>2023-01-06T12:28:42Z</time><name>PT2344</name></trkpt>
<trkpt lat="52.995292" lon="-3.220673"><ele>132</ele><time>2023-01-06T12:28:46Z</time><name>PT2345</name></trkpt>
<trkpt lat="52.995305" lon="-3.220613"><ele>132</ele><time>2023-01-06T12:28:49Z</time><name>PT2346</name></trkpt>
<trkpt lat="52.995320" lon="-3.220538"><ele>132</ele><time>2023-01-06T12:28:53Z</time><name>PT2347</name></trkpt>
<trkpt lat="52.995334" lon="-3.220464"><ele>133</ele><time>2023-01-06T12:28:56Z</time><name>PT2348</name></trkpt>
<trkpt lat="52.995352" lon="-3.220377"><ele>134</ele><time>2023-01-06T12:29:00Z</time><name>PT2349</name></trkpt>
<trkpt lat="52.995365" lon="-3.220328"><ele>133</ele><time>2023-01-06T12:29:03Z</time><name>PT2350</name></trkpt>
<trkpt lat="52.995378" lon="-3.220277"><ele>133</ele><time>2023-01-06T12:29:06Z</time><name>PT2351</name></trkpt>
<trkpt lat="52.995396" lon="-3.220198"><ele>133</ele><time>2023-01-06T12:29:10Z</time><name>PT2352</name></trkpt>
<trkpt lat="52.995415" lon="-3.220114"><ele>136</ele><time>2023-01-06T12:29:14Z</time><name>PT2353</name></trkpt>
<trkpt lat="52.995437" lon="-3.220036"><ele>136</ele><time>2023-01-06T12:29:18Z</time><name>PT2354</name></trkpt>
<trkpt lat="52.995462" lon="-3.219969"><ele>136</ele><time>2023-01-06T12:29:22Z</time><name>PT2355</name></trkpt>
<trkpt lat="52.995498" lon="-3.219841"><ele>138</ele><time>2023-01-06T12:29:25Z</time><name>PT2356</name></trkpt>
<trkpt lat="52.995517" lon="-3.219742"><ele>139</ele><time>2023-01-06T12:29:28Z</time><name>PT2357</name></trkpt>
<trkpt lat="52.995531" lon="-3.219712"><ele>139</ele><time>2023-01-06T12:29:31Z</time><name>PT2358</name></trkpt>
<trkpt lat="52.995525" lon="-3.219737"><ele>139</ele><time>2023-01-06T12:29:35Z</time><name>PT2359</name></trkpt>
<trkpt lat="52.995520" lon="-3.219768"><ele>138</ele><time>2023-01-06T12:29:39Z</time><name>PT2360</name></trkpt>
<trkpt lat="52.995520" lon="-3.219767"><ele>137</ele><time>2023-01-06T12:29:43Z</time><name>PT2361</name></trkpt>
<trkpt lat="52.995529" lon="-3.219729"><ele>137</ele><time>2023-01-06T12:29:59Z</time><name>PT2362</name></trkpt>
<trkpt lat="52.995548" lon="-3.219673"><ele>136</ele><time>2023-01-06T12:30:03Z</time><name>PT2363</name></trkpt>
<trkpt lat="52.995554" lon="-3.219646"><ele>136</ele><time>2023-01-06T12:30:07Z</time><name>PT2364</name></trkpt>
<trkpt lat="52.995554" lon="-3.219645"><ele>136</ele><time>2023-01-06T12:30:10Z</time><name>PT2365</name></trkpt>
<trkpt lat="52.995564" lon="-3.219631"><ele>136</ele><time>2023-01-06T12:30:34Z</time><name>PT2366</name></trkpt>
<trkpt lat="52.995578" lon="-3.219619"><ele>136</ele><time>2023-01-06T12:30:37Z</time><name>PT2367</name></trkpt>
<trkpt lat="52.995618" lon="-3.219602"><ele>136</ele><time>2023-01-06T12:30:41Z</time><name>PT2368</name></trkpt>
<trkpt lat="52.995654" lon="-3.219607"><ele>135</ele><time>2023-01-06T12:30:45Z</time><name>PT2369</name></trkpt>
<trkpt lat="52.995678" lon="-3.219602"><ele>136</ele><time>2023-01-06T12:30:48Z</time><name>PT2370</name></trkpt>
<trkpt lat="52.995695" lon="-3.219605"><ele>133</ele><time>2023-01-06T12:30:51Z</time><name>PT2371</name></trkpt>
<trkpt lat="52.995712" lon="-3.219600"><ele>132</ele><time>2023-01-06T12:30:54Z</time><name>PT2372</name></trkpt>
<trkpt lat="52.995735" lon="-3.219601"><ele>130</ele><time>2023-01-06T12:30:58Z</time><name>PT2373</name></trkpt>
<trkpt lat="52.995753" lon="-3.219603"><ele>129</ele><time>2023-01-06T12:31:01Z</time><name>PT2374</name></trkpt>
<trkpt lat="52.995793" lon="-3.219626"><ele>130</ele><time>2023-01-06T12:31:05Z</time><name>PT2375</name></trkpt>
<trkpt lat="52.995833" lon="-3.219635"><ele>129</ele><time>2023-01-06T12:31:09Z</time><name>PT2376</name></trkpt>
<trkpt lat="52.995864" lon="-3.219651"><ele>130</ele><time>2023-01-06T12:31:12Z</time><name>PT2377</name></trkpt>
<trkpt lat="52.995896" lon="-3.219685"><ele>130</ele><time>2023-01-06T12:31:16Z</time><name>PT2378</name></trkpt>
<trkpt lat="52.995925" lon="-3.219710"><ele>131</ele><time>2023-01-06T12:31:19Z</time><name>PT2379</name></trkpt>
<trkpt lat="52.995951" lon="-3.219712"><ele>132</ele><time>2023-01-06T12:31:22Z</time><name>PT2380</name></trkpt>
<trkpt lat="52.996010" lon="-3.219708"><ele>135</ele><time>2023-01-06T12:31:26Z</time><name>PT2381</name></trkpt>
<trkpt lat="52.996052" lon="-3.219707"><ele>137</ele><time>2023-01-06T12:31:30Z</time><name>PT2382</name></trkpt>
<trkpt lat="52.996076" lon="-3.219708"><ele>138</ele><time>2023-01-06T12:31:34Z</time><name>PT2383</name></trkpt>
<trkpt lat="52.996098" lon="-3.219699"><ele>139</ele><time>2023-01-06T12:31:37Z</time><name>PT2384</name></trkpt>
<trkpt lat="52.996112" lon="-3.219732"><ele>140</ele><time>2023-01-06T12:31:41Z</time><name>PT2385</name></trkpt>
<trkpt lat="52.996130" lon="-3.219722"><ele>140</ele><time>2023-01-06T12:31:44Z</time><name>PT2386</name></trkpt>
<trkpt lat="52.996170" lon="-3.219688"><ele>137</ele><time>2023-01-06T12:31:48Z</time><name>PT2387</name></trkpt>
<trkpt lat="52.996194" lon="-3.219690"><ele>137</ele><time>2023-01-06T12:31:51Z</time><name>PT2388</name></trkpt>
<trkpt lat="52.996218" lon="-3.219681"><ele>134</ele><time>2023-01-06T12:31:55Z</time><name>PT2389</name></trkpt>
<trkpt lat="52.996230" lon="-3.219678"><ele>132</ele><time>2023-01-06T12:31:58Z</time><name>PT2390</name></trkpt>
<trkpt lat="52.996252" lon="-3.219660"><ele>131</ele><time>2023-01-06T12:32:01Z</time><name>PT2391</name></trkpt>
<trkpt lat="52.996284" lon="-3.219660"><ele>132</ele><time>2023-01-06T12:32:04Z</time><name>PT2392</name></trkpt>
<trkpt lat="52.996323" lon="-3.219644"><ele>134</ele><time>2023-01-06T12:32:08Z</time><name>PT2393</name></trkpt>
<trkpt lat="52.996359" lon="-3.219636"><ele>136</ele><time>2023-01-06T12:32:12Z</time><name>PT2394</name></trkpt>
<trkpt lat="52.996386" lon="-3.219634"><ele>140</ele><time>2023-01-06T12:32:15Z</time><name>PT2395</name></trkpt>
<trkpt lat="52.996420" lon="-3.219606"><ele>138</ele><time>2023-01-06T12:32:19Z</time><name>PT2396</name></trkpt>
<trkpt lat="52.996440" lon="-3.219601"><ele>137</ele><time>2023-01-06T12:32:22Z</time><name>PT2397</name></trkpt>
<trkpt lat="52.996467" lon="-3.219568"><ele>138</ele><time>2023-01-06T12:32:25Z</time><name>PT2398</name></trkpt>
<trkpt lat="52.996489" lon="-3.219536"><ele>140</ele><time>2023-01-06T12:32:29Z</time><name>PT2399</name></trkpt>
<trkpt lat="52.996487" lon="-3.219532"><ele>140</ele><time>2023-01-06T12:32:33Z</time><name>PT2400</name></trkpt>
<trkpt lat="52.996500" lon="-3.219505"><ele>140</ele><time>2023-01-06T12:32:36Z</time><name>PT2401</name></trkpt>
<trkpt lat="52.996529" lon="-3.219474"><ele>138</ele><time>2023-01-06T12:32:40Z</time><name>PT2402</name></trkpt>
<trkpt lat="52.996572" lon="-3.219425"><ele>140</ele><time>2023-01-06T12:32:43Z</time><name>PT2403</name></trkpt>
<trkpt lat="52.996616" lon="-3.219385"><ele>139</ele><time>2023-01-06T12:32:47Z</time><name>PT2404</name></trkpt>
<trkpt lat="52.996651" lon="-3.219360"><ele>140</ele><time>2023-01-06T12:32:50Z</time><name>PT2405</name></trkpt>
<trkpt lat="52.996677" lon="-3.219345"><ele>140</ele><time>2023-01-06T12:32:53Z</time><name>PT2406</name></trkpt>
<trkpt lat="52.996698" lon="-3.219337"><ele>141</ele><time>2023-01-06T12:32:56Z</time><name>PT2407</name></trkpt>
<trkpt lat="52.996738" lon="-3.219347"><ele>143</ele><time>2023-01-06T12:33:00Z</time><name>PT2408</name></trkpt>
<trkpt lat="52.996779" lon="-3.219360"><ele>143</ele><time>2023-01-06T12:33:04Z</time><name>PT2409</name></trkpt>
<trkpt lat="52.996788" lon="-3.219357"><ele>141</ele><time>2023-01-06T12:33:07Z</time><name>PT2410</name></trkpt>
<trkpt lat="52.996811" lon="-3.219344"><ele>139</ele><time>2023-01-06T12:33:11Z</time><name>PT2411</name></trkpt>
<trkpt lat="52.996847" lon="-3.219346"><ele>142</ele><time>2023-01-06T12:33:14Z</time><name>PT2412</name></trkpt>
<trkpt lat="52.996878" lon="-3.219335"><ele>144</ele><time>2023-01-06T12:33:18Z</time><name>PT2413</name></trkpt>
<trkpt lat="52.996897" lon="-3.219324"><ele>144</ele><time>2023-01-06T12:33:21Z</time><name>PT2414</name></trkpt>
<trkpt lat="52.996951" lon="-3.219306"><ele>149</ele><time>2023-01-06T12:33:25Z</time><name>PT2415</name></trkpt>
<trkpt lat="52.996980" lon="-3.219299"><ele>151</ele><time>2023-01-06T12:33:29Z</time><name>PT2416</name></trkpt>
<trkpt lat="52.996998" lon="-3.219256"><ele>152</ele><time>2023-01-06T12:33:33Z</time><name>PT2417</name></trkpt>
<trkpt lat="52.996989" lon="-3.219209"><ele>152</ele><time>2023-01-06T12:33:37Z</time><name>PT2418</name></trkpt>
<trkpt lat="52.996968" lon="-3.219160"><ele>152</ele><time>2023-01-06T12:33:41Z</time><name>PT2419</name></trkpt>
<trkpt lat="52.996946" lon="-3.219125"><ele>151</ele><time>2023-01-06T12:33:45Z</time><name>PT2420</name></trkpt>
<trkpt lat="52.996926" lon="-3.219097"><ele>153</ele><time>2023-01-06T12:33:48Z</time><name>PT2421</name></trkpt>
<trkpt lat="52.996903" lon="-3.219065"><ele>153</ele><time>2023-01-06T12:33:52Z</time><name>PT2422</name></trkpt>
<trkpt lat="52.996881" lon="-3.219051"><ele>152</ele><time>2023-01-06T12:33:55Z</time><name>PT2423</name></trkpt>
<trkpt lat="52.996862" lon="-3.219030"><ele>153</ele><time>2023-01-06T12:33:58Z</time><name>PT2424</name></trkpt>
<trkpt lat="52.996830" lon="-3.219024"><ele>153</ele><time>2023-01-06T12:34:02Z</time><name>PT2425</name></trkpt>
<trkpt lat="52.996805" lon="-3.219033"><ele>152</ele><time>2023-01-06T12:34:05Z</time><name>PT2426</name></trkpt>
<trkpt lat="52.996775" lon="-3.219026"><ele>153</ele><time>2023-01-06T12:34:08Z</time><name>PT2427</name></trkpt>
<trkpt lat="52.996737" lon="-3.219035"><ele>153</ele><time>2023-01-06T12:34:12Z</time><name>PT2428</name></trkpt>
<trkpt lat="52.996710" lon="-3.219020"><ele>154</ele><time>2023-01-06T12:34:16Z</time><name>PT2429</name></trkpt>
<trkpt lat="52.996692" lon="-3.218991"><ele>153</ele><time>2023-01-06T12:34:20Z</time><name>PT2430</name></trkpt>
<trkpt lat="52.996697" lon="-3.218975"><ele>152</ele><time>2023-01-06T12:34:23Z</time><name>PT2431</name></trkpt>
<trkpt lat="52.996721" lon="-3.218924"><ele>151</ele><time>2023-01-06T12:34:27Z</time><name>PT2432</name></trkpt>
<trkpt lat="52.996741" lon="-3.218890"><ele>152</ele><time>2023-01-06T12:34:30Z</time><name>PT2433</name></trkpt>
<trkpt lat="52.996757" lon="-3.218861"><ele>152</ele><time>2023-01-06T12:34:34Z</time><name>PT2434</name></trkpt>
<trkpt lat="52.996784" lon="-3.218835"><ele>153</ele><time>2023-01-06T12:34:38Z</time><name>PT2435</name></trkpt>
<trkpt lat="52.996809" lon="-3.218795"><ele>155</ele><time>2023-01-06T12:34:41Z</time><name>PT2436</name></trkpt>
<trkpt lat="52.996824" lon="-3.218765"><ele>156</ele><time>2023-01-06T12:34:44Z</time><name>PT2437</name></trkpt>
<trkpt lat="52.996839" lon="-3.218746"><ele>157</ele><time>2023-01-06T12:34:48Z</time><name>PT2438</name></trkpt>
<trkpt lat="52.996880" lon="-3.218704"><ele>159</ele><time>2023-01-06T12:34:52Z</time><name>PT2439</name></trkpt>
<trkpt lat="52.996913" lon="-3.218662"><ele>161</ele><time>2023-01-06T12:34:56Z</time><name>PT2440</name></trkpt>
<trkpt lat="52.996939" lon="-3.218634"><ele>163</ele><time>2023-01-06T12:35:00Z</time><name>PT2441</name></trkpt>
<trkpt lat="52.996960" lon="-3.218604"><ele>163</ele><time>2023-01-06T12:35:03Z</time><name>PT2442</name></trkpt>
<trkpt lat="52.996974" lon="-3.218563"><ele>165</ele><time>2023-01-06T12:35:07Z</time><name>PT2443</name></trkpt>
<trkpt lat="52.996986" lon="-3.218549"><ele>167</ele><time>2023-01-06T12:35:10Z</time><name>PT2444</name></trkpt>
<trkpt lat="52.997005" lon="-3.218531"><ele>169</ele><time>2023-01-06T12:35:13Z</time><name>PT2445</name></trkpt>
<trkpt lat="52.997035" lon="-3.218512"><ele>170</ele><time>2023-01-06T12:35:17Z</time><name>PT2446</name></trkpt>
<trkpt lat="52.997050" lon="-3.218492"><ele>171</ele><time>2023-01-06T12:35:20Z</time><name>PT2447</name></trkpt>
<trkpt lat="52.997071" lon="-3.218459"><ele>172</ele><time>2023-01-06T12:35:24Z</time><name>PT2448</name></trkpt>
<trkpt lat="52.997074" lon="-3.218441"><ele>173</ele><time>2023-01-06T12:35:27Z</time><name>PT2449</name></trkpt>
<trkpt lat="52.997088" lon="-3.218433"><ele>173</ele><time>2023-01-06T12:35:30Z</time><name>PT2450</name></trkpt>
<trkpt lat="52.997109" lon="-3.218437"><ele>172</ele><time>2023-01-06T12:35:33Z</time><name>PT2451</name></trkpt>
<trkpt lat="52.997139" lon="-3.218429"><ele>173</ele><time>2023-01-06T12:35:37Z</time><name>PT2452</name></trkpt>
<trkpt lat="52.997157" lon="-3.218446"><ele>172</ele><time>2023-01-06T12:35:40Z</time><name>PT2453</name></trkpt>
<trkpt lat="52.997155" lon="-3.218466"><ele>171</ele><time>2023-01-06T12:35:44Z</time><name>PT2454</name></trkpt>
<trkpt lat="52.997155" lon="-3.218470"><ele>171</ele><time>2023-01-06T12:35:47Z</time><name>PT2455</name></trkpt>
<trkpt lat="52.997172" lon="-3.218466"><ele>170</ele><time>2023-01-06T12:35:50Z</time><name>PT2456</name></trkpt>
<trkpt lat="52.997203" lon="-3.218470"><ele>171</ele><time>2023-01-06T12:35:54Z</time><name>PT2457</name></trkpt>
<trkpt lat="52.997236" lon="-3.218462"><ele>170</ele><time>2023-01-06T12:35:57Z</time><name>PT2458</name></trkpt>
<trkpt lat="52.997275" lon="-3.218467"><ele>170</ele><time>2023-01-06T12:36:01Z</time><name>PT2459</name></trkpt>
<trkpt lat="52.997298" lon="-3.218473"><ele>170</ele><time>2023-01-06T12:36:04Z</time><name>PT2460</name></trkpt>
<trkpt lat="52.997335" lon="-3.218460"><ele>172</ele><time>2023-01-06T12:36:08Z</time><name>PT2461</name></trkpt>
<trkpt lat="52.997350" lon="-3.218450"><ele>175</ele><time>2023-01-06T12:36:11Z</time><name>PT2462</name></trkpt>
<trkpt lat="52.997371" lon="-3.218467"><ele>175</ele><time>2023-01-06T12:36:15Z</time><name>PT2463</name></trkpt>
<trkpt lat="52.997399" lon="-3.218459"><ele>177</ele><time>2023-01-06T12:36:19Z</time><name>PT2464</name></trkpt>
<trkpt lat="52.997436" lon="-3.218461"><ele>180</ele><time>2023-01-06T12:36:23Z</time><name>PT2465</name></trkpt>
<trkpt lat="52.997458" lon="-3.218460"><ele>178</ele><time>2023-01-06T12:36:26Z</time><name>PT2466</name></trkpt>
<trkpt lat="52.997478" lon="-3.218464"><ele>178</ele><time>2023-01-06T12:36:29Z</time><name>PT2467</name></trkpt>
<trkpt lat="52.997499" lon="-3.218465"><ele>178</ele><time>2023-01-06T12:36:33Z</time><name>PT2468</name></trkpt>
<trkpt lat="52.997531" lon="-3.218464"><ele>178</ele><time>2023-01-06T12:36:37Z</time><name>PT2469</name></trkpt>
<trkpt lat="52.997557" lon="-3.218459"><ele>177</ele><time>2023-01-06T12:36:41Z</time><name>PT2470</name></trkpt>
<trkpt lat="52.997589" lon="-3.218458"><ele>179</ele><time>2023-01-06T12:36:45Z</time><name>PT2471</name></trkpt>
<trkpt lat="52.997616" lon="-3.218465"><ele>181</ele><time>2023-01-06T12:36:49Z</time><name>PT2472</name></trkpt>
<trkpt lat="52.997624" lon="-3.218465"><ele>181</ele><time>2023-01-06T12:36:53Z</time><name>PT2473</name></trkpt>
<trkpt lat="52.997670" lon="-3.218462"><ele>180</ele><time>2023-01-06T12:36:56Z</time><name>PT2474</name></trkpt>
<trkpt lat="52.997729" lon="-3.218441"><ele>179</ele><time>2023-01-06T12:37:00Z</time><name>PT2475</name></trkpt>
<trkpt lat="52.997743" lon="-3.218443"><ele>179</ele><time>2023-01-06T12:37:06Z</time><name>PT2476</name></trkpt>
<trkpt lat="52.997790" lon="-3.218425"><ele>180</ele><time>2023-01-06T12:37:10Z</time><name>PT2477</name></trkpt>
<trkpt lat="52.997838" lon="-3.218410"><ele>183</ele><time>2023-01-06T12:37:14Z</time><name>PT2478</name></trkpt>
<trkpt lat="52.997868" lon="-3.218394"><ele>183</ele><time>2023-01-06T12:37:17Z</time><name>PT2479</name></trkpt>
<trkpt lat="52.997900" lon="-3.218384"><ele>184</ele><time>2023-01-06T12:37:20Z</time><name>PT2480</name></trkpt>
<trkpt lat="52.997940" lon="-3.218363"><ele>185</ele><time>2023-01-06T12:37:24Z</time><name>PT2481</name></trkpt>
<trkpt lat="52.997983" lon="-3.218357"><ele>186</ele><time>2023-01-06T12:37:28Z</time><name>PT2482</name></trkpt>
<trkpt lat="52.998009" lon="-3.218349"><ele>187</ele><time>2023-01-06T12:37:31Z</time><name>PT2483</name></trkpt>
<trkpt lat="52.998033" lon="-3.218343"><ele>187</ele><time>2023-01-06T12:37:34Z</time><name>PT2484</name></trkpt>
<trkpt lat="52.998070" lon="-3.218332"><ele>189</ele><time>2023-01-06T12:37:38Z</time><name>PT2485</name></trkpt>
<trkpt lat="52.998100" lon="-3.218315"><ele>188</ele><time>2023-01-06T12:37:42Z</time><name>PT2486</name></trkpt>
<trkpt lat="52.998153" lon="-3.218311"><ele>191</ele><time>2023-01-06T12:37:46Z</time><name>PT2487</name></trkpt>
<trkpt lat="52.998192" lon="-3.218306"><ele>193</ele><time>2023-01-06T12:37:50Z</time><name>PT2488</name></trkpt>
<trkpt lat="52.998222" lon="-3.218303"><ele>195</ele><time>2023-01-06T12:37:53Z</time><name>PT2489</name></trkpt>
<trkpt lat="52.998240" lon="-3.218281"><ele>194</ele><time>2023-01-06T12:37:56Z</time><name>PT2490</name></trkpt>
<trkpt lat="52.998257" lon="-3.218276"><ele>194</ele><time>2023-01-06T12:38:00Z</time><name>PT2491</name></trkpt>
<trkpt lat="52.998290" lon="-3.218232"><ele>193</ele><time>2023-01-06T12:38:04Z</time><name>PT2492</name></trkpt>
<trkpt lat="52.998329" lon="-3.218215"><ele>193</ele><time>2023-01-06T12:38:07Z</time><name>PT2493</name></trkpt>
<trkpt lat="52.998358" lon="-3.218198"><ele>192</ele><time>2023-01-06T12:38:10Z</time><name>PT2494</name></trkpt>
<trkpt lat="52.998389" lon="-3.218158"><ele>194</ele><time>2023-01-06T12:38:14Z</time><name>PT2495</name></trkpt>
<trkpt lat="52.998411" lon="-3.218130"><ele>194</ele><time>2023-01-06T12:38:17Z</time><name>PT2496</name></trkpt>
<trkpt lat="52.998448" lon="-3.218084"><ele>196</ele><time>2023-01-06T12:38:21Z</time><name>PT2497</name></trkpt>
<trkpt lat="52.998494" lon="-3.218050"><ele>198</ele><time>2023-01-06T12:38:25Z</time><name>PT2498</name></trkpt>
<trkpt lat="52.998524" lon="-3.218022"><ele>199</ele><time>2023-01-06T12:38:28Z</time><name>PT2499</name></trkpt>
<trkpt lat="52.998564" lon="-3.217993"><ele>200</ele><time>2023-01-06T12:38:32Z</time><name>PT2500</name></trkpt>
<trkpt lat="52.998592" lon="-3.217974"><ele>201</ele><time>2023-01-06T12:38:35Z</time><name>PT2501</name></trkpt>
<trkpt lat="52.998626" lon="-3.217964"><ele>200</ele><time>2023-01-06T12:38:39Z</time><name>PT2502</name></trkpt>
<trkpt lat="52.998659" lon="-3.217945"><ele>202</ele><time>2023-01-06T12:38:42Z</time><name>PT2503</name></trkpt>
<trkpt lat="52.998689" lon="-3.217926"><ele>202</ele><time>2023-01-06T12:38:45Z</time><name>PT2504</name></trkpt>
<trkpt lat="52.998722" lon="-3.217895"><ele>202</ele><time>2023-01-06T12:38:49Z</time><name>PT2505</name></trkpt>
<trkpt lat="52.998750" lon="-3.217866"><ele>203</ele><time>2023-01-06T12:38:53Z</time><name>PT2506</name></trkpt>
<trkpt lat="52.998777" lon="-3.217839"><ele>204</ele><time>2023-01-06T12:38:56Z</time><name>PT2507</name></trkpt>
<trkpt lat="52.998810" lon="-3.217824"><ele>205</ele><time>2023-01-06T12:39:00Z</time><name>PT2508</name></trkpt>
<trkpt lat="52.998839" lon="-3.217796"><ele>206</ele><time>2023-01-06T12:39:04Z</time><name>PT2509</name></trkpt>
<trkpt lat="52.998855" lon="-3.217774"><ele>206</ele><time>2023-01-06T12:39:07Z</time><name>PT2510</name></trkpt>
<trkpt lat="52.998882" lon="-3.217739"><ele>204</ele><time>2023-01-06T12:39:11Z</time><name>PT2511</name></trkpt>
<trkpt lat="52.998894" lon="-3.217707"><ele>206</ele><time>2023-01-06T12:39:14Z</time><name>PT2512</name></trkpt>
<trkpt lat="52.998906" lon="-3.217668"><ele>207</ele><time>2023-01-06T12:39:18Z</time><name>PT2513</name></trkpt>
<trkpt lat="52.998908" lon="-3.217642"><ele>208</ele><time>2023-01-06T12:39:21Z</time><name>PT2514</name></trkpt>
<trkpt lat="52.998917" lon="-3.217611"><ele>209</ele><time>2023-01-06T12:39:25Z</time><name>PT2515</name></trkpt>
<trkpt lat="52.998913" lon="-3.217575"><ele>208</ele><time>2023-01-06T12:39:29Z</time><name>PT2516</name></trkpt>
<trkpt lat="52.998905" lon="-3.217547"><ele>208</ele><time>2023-01-06T12:39:32Z</time><name>PT2517</name></trkpt>
<trkpt lat="52.998891" lon="-3.217510"><ele>208</ele><time>2023-01-06T12:39:35Z</time><name>PT2518</name></trkpt>
<trkpt lat="52.998882" lon="-3.217475"><ele>208</ele><time>2023-01-06T12:39:38Z</time><name>PT2519</name></trkpt>
<trkpt lat="52.998878" lon="-3.217423"><ele>208</ele><time>2023-01-06T12:39:42Z</time><name>PT2520</name></trkpt>
<trkpt lat="52.998878" lon="-3.217390"><ele>210</ele><time>2023-01-06T12:39:46Z</time><name>PT2521</name></trkpt>
<trkpt lat="52.998874" lon="-3.217386"><ele>209</ele><time>2023-01-06T12:39:49Z</time><name>PT2522</name></trkpt>
<trkpt lat="52.998874" lon="-3.217388"><ele>208</ele><time>2023-01-06T12:39:56Z</time><name>PT2523</name></trkpt>
<trkpt lat="52.998869" lon="-3.217392"><ele>208</ele><time>2023-01-06T12:40:11Z</time><name>PT2524</name></trkpt>
<trkpt lat="52.998874" lon="-3.217390"><ele>209</ele><time>2023-01-06T12:40:15Z</time><name>PT2525</name></trkpt>
<trkpt lat="52.998871" lon="-3.217386"><ele>208</ele><time>2023-01-06T12:40:18Z</time><name>PT2526</name></trkpt>
<trkpt lat="52.998876" lon="-3.217400"><ele>207</ele><time>2023-01-06T12:40:22Z</time><name>PT2527</name></trkpt>
<trkpt lat="52.998872" lon="-3.217398"><ele>207</ele><time>2023-01-06T12:40:35Z</time><name>PT2528</name></trkpt>
<trkpt lat="52.998876" lon="-3.217406"><ele>206</ele><time>2023-01-06T12:40:38Z</time><name>PT2529</name></trkpt>
<trkpt lat="52.998877" lon="-3.217409"><ele>206</ele><time>2023-01-06T12:40:41Z</time><name>PT2530</name></trkpt>
<trkpt lat="52.998882" lon="-3.217422"><ele>206</ele><time>2023-01-06T12:40:45Z</time><name>PT2531</name></trkpt>
<trkpt lat="52.998896" lon="-3.217409"><ele>207</ele><time>2023-01-06T12:40:49Z</time><name>PT2532</name></trkpt>
<trkpt lat="52.998907" lon="-3.217418"><ele>207</ele><time>2023-01-06T12:40:52Z</time><name>PT2533</name></trkpt>
<trkpt lat="52.998915" lon="-3.217418"><ele>207</ele><time>2023-01-06T12:40:56Z</time><name>PT2534</name></trkpt>
<trkpt lat="52.998910" lon="-3.217425"><ele>207</ele><time>2023-01-06T12:41:03Z</time><name>PT2535</name></trkpt>
<trkpt lat="52.998876" lon="-3.217391"><ele>207</ele><time>2023-01-06T12:41:07Z</time><name>PT2536</name></trkpt>
<trkpt lat="52.998867" lon="-3.217356"><ele>207</ele><time>2023-01-06T12:41:11Z</time><name>PT2537</name></trkpt>
<trkpt lat="52.998865" lon="-3.217351"><ele>207</ele><time>2023-01-06T12:41:14Z</time><name>PT2538</name></trkpt>
<trkpt lat="52.998860" lon="-3.217376"><ele>209</ele><time>2023-01-06T12:41:53Z</time><name>PT2539</name></trkpt>
<trkpt lat="52.998868" lon="-3.217390"><ele>209</ele><time>2023-01-06T12:41:56Z</time><name>PT2540</name></trkpt>
<trkpt lat="52.998896" lon="-3.217403"><ele>209</ele><time>2023-01-06T12:42:00Z</time><name>PT2541</name></trkpt>
<trkpt lat="52.998914" lon="-3.217414"><ele>211</ele><time>2023-01-06T12:42:03Z</time><name>PT2542</name></trkpt>
<trkpt lat="52.998911" lon="-3.217417"><ele>211</ele><time>2023-01-06T12:42:06Z</time><name>PT2543</name></trkpt>
<trkpt lat="52.998925" lon="-3.217441"><ele>211</ele><time>2023-01-06T12:42:09Z</time><name>PT2544</name></trkpt>
<trkpt lat="52.998925" lon="-3.217422"><ele>211</ele><time>2023-01-06T12:42:13Z</time><name>PT2545</name></trkpt>
<trkpt lat="52.998925" lon="-3.217421"><ele>212</ele><time>2023-01-06T12:42:16Z</time><name>PT2546</name></trkpt>
<trkpt lat="52.998931" lon="-3.217412"><ele>211</ele><time>2023-01-06T12:44:10Z</time><name>PT2547</name></trkpt>
<trkpt lat="52.998934" lon="-3.217404"><ele>211</ele><time>2023-01-06T12:44:36Z</time><name>PT2548</name></trkpt>
<trkpt lat="52.998958" lon="-3.217363"><ele>210</ele><time>2023-01-06T12:44:40Z</time><name>PT2549</name></trkpt>
<trkpt lat="52.998964" lon="-3.217372"><ele>210</ele><time>2023-01-06T12:44:44Z</time><name>PT2550</name></trkpt>
<trkpt lat="52.998991" lon="-3.217350"><ele>210</ele><time>2023-01-06T12:44:54Z</time><name>PT2551</name></trkpt>
<trkpt lat="52.999026" lon="-3.217322"><ele>211</ele><time>2023-01-06T12:44:58Z</time><name>PT2552</name></trkpt>
<trkpt lat="52.999055" lon="-3.217305"><ele>211</ele><time>2023-01-06T12:45:02Z</time><name>PT2553</name></trkpt>
<trkpt lat="52.999080" lon="-3.217294"><ele>211</ele><time>2023-01-06T12:45:05Z</time><name>PT2554</name></trkpt>
<trkpt lat="52.999110" lon="-3.217280"><ele>211</ele><time>2023-01-06T12:45:09Z</time><name>PT2555</name></trkpt>
<trkpt lat="52.999142" lon="-3.217272"><ele>211</ele><time>2023-01-06T12:45:12Z</time><name>PT2556</name></trkpt>
<trkpt lat="52.999174" lon="-3.217266"><ele>211</ele><time>2023-01-06T12:45:16Z</time><name>PT2557</name></trkpt>
<trkpt lat="52.999197" lon="-3.217261"><ele>212</ele><time>2023-01-06T12:45:19Z</time><name>PT2558</name></trkpt>
<trkpt lat="52.999222" lon="-3.217261"><ele>213</ele><time>2023-01-06T12:45:22Z</time><name>PT2559</name></trkpt>
<trkpt lat="52.999242" lon="-3.217259"><ele>214</ele><time>2023-01-06T12:45:25Z</time><name>PT2560</name></trkpt>
<trkpt lat="52.999270" lon="-3.217258"><ele>214</ele><time>2023-01-06T12:45:29Z</time><name>PT2561</name></trkpt>
<trkpt lat="52.999284" lon="-3.217257"><ele>215</ele><time>2023-01-06T12:45:32Z</time><name>PT2562</name></trkpt>
<trkpt lat="52.999292" lon="-3.217252"><ele>215</ele><time>2023-01-06T12:45:47Z</time><name>PT2563</name></trkpt>
<trkpt lat="52.999297" lon="-3.217247"><ele>215</ele><time>2023-01-06T12:45:50Z</time><name>PT2564</name></trkpt>
<trkpt lat="52.999313" lon="-3.217266"><ele>216</ele><time>2023-01-06T12:45:54Z</time><name>PT2565</name></trkpt>
<trkpt lat="52.999323" lon="-3.217297"><ele>215</ele><time>2023-01-06T12:45:57Z</time><name>PT2566</name></trkpt>
<trkpt lat="52.999333" lon="-3.217308"><ele>214</ele><time>2023-01-06T12:46:01Z</time><name>PT2567</name></trkpt>
<trkpt lat="52.999359" lon="-3.217311"><ele>213</ele><time>2023-01-06T12:46:04Z</time><name>PT2568</name></trkpt>
<trkpt lat="52.999398" lon="-3.217329"><ele>216</ele><time>2023-01-06T12:46:08Z</time><name>PT2569</name></trkpt>
<trkpt lat="52.999437" lon="-3.217365"><ele>217</ele><time>2023-01-06T12:46:12Z</time><name>PT2570</name></trkpt>
<trkpt lat="52.999471" lon="-3.217396"><ele>218</ele><time>2023-01-06T12:46:16Z</time><name>PT2571</name></trkpt>
<trkpt lat="52.999507" lon="-3.217422"><ele>219</ele><time>2023-01-06T12:46:20Z</time><name>PT2572</name></trkpt>
<trkpt lat="52.999519" lon="-3.217442"><ele>220</ele><time>2023-01-06T12:46:23Z</time><name>PT2573</name></trkpt>
<trkpt lat="52.999543" lon="-3.217455"><ele>220</ele><time>2023-01-06T12:46:27Z</time><name>PT2574</name></trkpt>
<trkpt lat="52.999563" lon="-3.217468"><ele>219</ele><time>2023-01-06T12:46:31Z</time><name>PT2575</name></trkpt>
<trkpt lat="52.999585" lon="-3.217474"><ele>220</ele><time>2023-01-06T12:46:34Z</time><name>PT2576</name></trkpt>
<trkpt lat="52.999619" lon="-3.217491"><ele>221</ele><time>2023-01-06T12:46:38Z</time><name>PT2577</name></trkpt>
<trkpt lat="52.999651" lon="-3.217498"><ele>219</ele><time>2023-01-06T12:46:42Z</time><name>PT2578</name></trkpt>
<trkpt lat="52.999684" lon="-3.217509"><ele>221</ele><time>2023-01-06T12:46:45Z</time><name>PT2579</name></trkpt>
<trkpt lat="52.999689" lon="-3.217515"><ele>221</ele><time>2023-01-06T12:46:48Z</time><name>PT2580</name></trkpt>
<trkpt lat="52.999710" lon="-3.217553"><ele>218</ele><time>2023-01-06T12:46:52Z</time><name>PT2581</name></trkpt>
<trkpt lat="52.999743" lon="-3.217576"><ele>218</ele><time>2023-01-06T12:46:56Z</time><name>PT2582</name></trkpt>
<trkpt lat="52.999760" lon="-3.217604"><ele>217</ele><time>2023-01-06T12:46:59Z</time><name>PT2583</name></trkpt>
<trkpt lat="52.999790" lon="-3.217618"><ele>215</ele><time>2023-01-06T12:47:03Z</time><name>PT2584</name></trkpt>
<trkpt lat="52.999824" lon="-3.217616"><ele>213</ele><time>2023-01-06T12:47:06Z</time><name>PT2585</name></trkpt>
<trkpt lat="52.999854" lon="-3.217616"><ele>212</ele><time>2023-01-06T12:47:09Z</time><name>PT2586</name></trkpt>
<trkpt lat="52.999890" lon="-3.217633"><ele>213</ele><time>2023-01-06T12:47:12Z</time><name>PT2587</name></trkpt>
<trkpt lat="52.999935" lon="-3.217670"><ele>213</ele><time>2023-01-06T12:47:16Z</time><name>PT2588</name></trkpt>
<trkpt lat="52.999954" lon="-3.217682"><ele>212</ele><time>2023-01-06T12:47:20Z</time><name>PT2589</name></trkpt>
<trkpt lat="52.999979" lon="-3.217708"><ele>213</ele><time>2023-01-06T12:47:24Z</time><name>PT2590</name></trkpt>
<trkpt lat="53.000022" lon="-3.217744"><ele>217</ele><time>2023-01-06T12:47:28Z</time><name>PT2591</name></trkpt>
<trkpt lat="53.000028" lon="-3.217742"><ele>218</ele><time>2023-01-06T12:47:32Z</time><name>PT2592</name></trkpt>
<trkpt lat="53.000080" lon="-3.217785"><ele>217</ele><time>2023-01-06T12:47:35Z</time><name>PT2593</name></trkpt>
<trkpt lat="53.000113" lon="-3.217807"><ele>217</ele><time>2023-01-06T12:47:38Z</time><name>PT2594</name></trkpt>
<trkpt lat="53.000168" lon="-3.217838"><ele>216</ele><time>2023-01-06T12:47:42Z</time><name>PT2595</name></trkpt>
<trkpt lat="53.000203" lon="-3.217873"><ele>216</ele><time>2023-01-06T12:47:46Z</time><name>PT2596</name></trkpt>
<trkpt lat="53.000229" lon="-3.217910"><ele>218</ele><time>2023-01-06T12:47:49Z</time><name>PT2597</name></trkpt>
<trkpt lat="53.000257" lon="-3.217947"><ele>218</ele><time>2023-01-06T12:47:53Z</time><name>PT2598</name></trkpt>
<trkpt lat="53.000286" lon="-3.217974"><ele>219</ele><time>2023-01-06T12:47:56Z</time><name>PT2599</name></trkpt>
<trkpt lat="53.000319" lon="-3.217997"><ele>220</ele><time>2023-01-06T12:48:00Z</time><name>PT2600</name></trkpt>
<trkpt lat="53.000345" lon="-3.218013"><ele>220</ele><time>2023-01-06T12:48:04Z</time><name>PT2601</name></trkpt>
<trkpt lat="53.000369" lon="-3.218036"><ele>221</ele><time>2023-01-06T12:48:07Z</time><name>PT2602</name></trkpt>
<trkpt lat="53.000394" lon="-3.218044"><ele>220</ele><time>2023-01-06T12:48:10Z</time><name>PT2603</name></trkpt>
<trkpt lat="53.000425" lon="-3.218061"><ele>219</ele><time>2023-01-06T12:48:13Z</time><name>PT2604</name></trkpt>
<trkpt lat="53.000455" lon="-3.218110"><ele>218</ele><time>2023-01-06T12:48:17Z</time><name>PT2605</name></trkpt>
<trkpt lat="53.000482" lon="-3.218116"><ele>216</ele><time>2023-01-06T12:48:20Z</time><name>PT2606</name></trkpt>
<trkpt lat="53.000503" lon="-3.218161"><ele>216</ele><time>2023-01-06T12:48:23Z</time><name>PT2607</name></trkpt>
<trkpt lat="53.000534" lon="-3.218214"><ele>217</ele><time>2023-01-06T12:48:27Z</time><name>PT2608</name></trkpt>
<trkpt lat="53.000558" lon="-3.218272"><ele>218</ele><time>2023-01-06T12:48:30Z</time><name>PT2609</name></trkpt>
<trkpt lat="53.000573" lon="-3.218339"><ele>220</ele><time>2023-01-06T12:48:33Z</time><name>PT2610</name></trkpt>
<trkpt lat="53.000615" lon="-3.218416"><ele>222</ele><time>2023-01-06T12:48:37Z</time><name>PT2611</name></trkpt>
<trkpt lat="53.000629" lon="-3.218449"><ele>223</ele><time>2023-01-06T12:48:40Z</time><name>PT2612</name></trkpt>
<trkpt lat="53.000642" lon="-3.218461"><ele>224</ele><time>2023-01-06T12:48:44Z</time><name>PT2613</name></trkpt>
<trkpt lat="53.000656" lon="-3.218482"><ele>222</ele><time>2023-01-06T12:48:47Z</time><name>PT2614</name></trkpt>
<trkpt lat="53.000656" lon="-3.218483"><ele>223</ele><time>2023-01-06T12:48:54Z</time><name>PT2615</name></trkpt>
<trkpt lat="53.000675" lon="-3.218498"><ele>223</ele><time>2023-01-06T12:48:57Z</time><name>PT2616</name></trkpt>
<trkpt lat="53.000710" lon="-3.218523"><ele>224</ele><time>2023-01-06T12:49:01Z</time><name>PT2617</name></trkpt>
<trkpt lat="53.000734" lon="-3.218542"><ele>224</ele><time>2023-01-06T12:49:04Z</time><name>PT2618</name></trkpt>
<trkpt lat="53.000745" lon="-3.218551"><ele>224</ele><time>2023-01-06T12:49:08Z</time><name>PT2619</name></trkpt>
<trkpt lat="53.000750" lon="-3.218557"><ele>224</ele><time>2023-01-06T12:49:17Z</time><name>PT2620</name></trkpt>
<trkpt lat="53.000771" lon="-3.218574"><ele>225</ele><time>2023-01-06T12:49:21Z</time><name>PT2621</name></trkpt>
<trkpt lat="53.000786" lon="-3.218584"><ele>226</ele><time>2023-01-06T12:49:24Z</time><name>PT2622</name></trkpt>
<trkpt lat="53.000805" lon="-3.218595"><ele>226</ele><time>2023-01-06T12:49:27Z</time><name>PT2623</name></trkpt>
<trkpt lat="53.000838" lon="-3.218612"><ele>226</ele><time>2023-01-06T12:49:31Z</time><name>PT2624</name></trkpt>
<trkpt lat="53.000871" lon="-3.218638"><ele>227</ele><time>2023-01-06T12:49:35Z</time><name>PT2625</name></trkpt>
<trkpt lat="53.000897" lon="-3.218661"><ele>227</ele><time>2023-01-06T12:49:38Z</time><name>PT2626</name></trkpt>
<trkpt lat="53.000931" lon="-3.218681"><ele>228</ele><time>2023-01-06T12:49:42Z</time><name>PT2627</name></trkpt>
<trkpt lat="53.000964" lon="-3.218710"><ele>229</ele><time>2023-01-06T12:49:46Z</time><name>PT2628</name></trkpt>
<trkpt lat="53.000994" lon="-3.218726"><ele>229</ele><time>2023-01-06T12:49:49Z</time><name>PT2629</name></trkpt>
<trkpt lat="53.001030" lon="-3.218749"><ele>230</ele><time>2023-01-06T12:49:53Z</time><name>PT2630</name></trkpt>
<trkpt lat="53.001058" lon="-3.218764"><ele>230</ele><time>2023-01-06T12:49:56Z</time><name>PT2631</name></trkpt>
<trkpt lat="53.001097" lon="-3.218797"><ele>230</ele><time>2023-01-06T12:50:00Z</time><name>PT2632</name></trkpt>
<trkpt lat="53.001129" lon="-3.218831"><ele>231</ele><time>2023-01-06T12:50:04Z</time><name>PT2633</name></trkpt>
<trkpt lat="53.001168" lon="-3.218856"><ele>231</ele><time>2023-01-06T12:50:08Z</time><name>PT2634</name></trkpt>
<trkpt lat="53.001205" lon="-3.218874"><ele>231</ele><time>2023-01-06T12:50:12Z</time><name>PT2635</name></trkpt>
<trkpt lat="53.001234" lon="-3.218887"><ele>231</ele><time>2023-01-06T12:50:15Z</time><name>PT2636</name></trkpt>
<trkpt lat="53.001271" lon="-3.218918"><ele>232</ele><time>2023-01-06T12:50:19Z</time><name>PT2637</name></trkpt>
<trkpt lat="53.001303" lon="-3.218927"><ele>234</ele><time>2023-01-06T12:50:23Z</time><name>PT2638</name></trkpt>
<trkpt lat="53.001344" lon="-3.218944"><ele>233</ele><time>2023-01-06T12:50:26Z</time><name>PT2639</name></trkpt>
<trkpt lat="53.001384" lon="-3.218954"><ele>235</ele><time>2023-01-06T12:50:30Z</time><name>PT2640</name></trkpt>
<trkpt lat="53.001397" lon="-3.218965"><ele>235</ele><time>2023-01-06T12:50:33Z</time><name>PT2641</name></trkpt>
<trkpt lat="53.001432" lon="-3.218988"><ele>237</ele><time>2023-01-06T12:50:36Z</time><name>PT2642</name></trkpt>
<trkpt lat="53.001472" lon="-3.219027"><ele>237</ele><time>2023-01-06T12:50:40Z</time><name>PT2643</name></trkpt>
<trkpt lat="53.001501" lon="-3.219064"><ele>237</ele><time>2023-01-06T12:50:43Z</time><name>PT2644</name></trkpt>
<trkpt lat="53.001517" lon="-3.219075"><ele>238</ele><time>2023-01-06T12:50:46Z</time><name>PT2645</name></trkpt>
<trkpt lat="53.001545" lon="-3.219100"><ele>240</ele><time>2023-01-06T12:50:50Z</time><name>PT2646</name></trkpt>
<trkpt lat="53.001587" lon="-3.219131"><ele>241</ele><time>2023-01-06T12:50:54Z</time><name>PT2647</name></trkpt>
<trkpt lat="53.001604" lon="-3.219139"><ele>242</ele><time>2023-01-06T12:50:57Z</time><name>PT2648</name></trkpt>
<trkpt lat="53.001634" lon="-3.219150"><ele>243</ele><time>2023-01-06T12:51:00Z</time><name>PT2649</name></trkpt>
<trkpt lat="53.001660" lon="-3.219164"><ele>242</ele><time>2023-01-06T12:51:03Z</time><name>PT2650</name></trkpt>
<trkpt lat="53.001705" lon="-3.219195"><ele>241</ele><time>2023-01-06T12:51:07Z</time><name>PT2651</name></trkpt>
<trkpt lat="53.001724" lon="-3.219209"><ele>240</ele><time>2023-01-06T12:51:10Z</time><name>PT2652</name></trkpt>
<trkpt lat="53.001762" lon="-3.219236"><ele>242</ele><time>2023-01-06T12:51:13Z</time><name>PT2653</name></trkpt>
<trkpt lat="53.001787" lon="-3.219253"><ele>243</ele><time>2023-01-06T12:51:16Z</time><name>PT2654</name></trkpt>
<trkpt lat="53.001821" lon="-3.219281"><ele>243</ele><time>2023-01-06T12:51:20Z</time><name>PT2655</name></trkpt>
<trkpt lat="53.001836" lon="-3.219287"><ele>245</ele><time>2023-01-06T12:51:23Z</time><name>PT2656</name></trkpt>
<trkpt lat="53.001875" lon="-3.219298"><ele>246</ele><time>2023-01-06T12:51:27Z</time><name>PT2657</name></trkpt>
<trkpt lat="53.001906" lon="-3.219290"><ele>246</ele><time>2023-01-06T12:51:31Z</time><name>PT2658</name></trkpt>
<trkpt lat="53.001920" lon="-3.219288"><ele>247</ele><time>2023-01-06T12:51:34Z</time><name>PT2659</name></trkpt>
<trkpt lat="53.001947" lon="-3.219295"><ele>247</ele><time>2023-01-06T12:51:37Z</time><name>PT2660</name></trkpt>
<trkpt lat="53.001985" lon="-3.219329"><ele>247</ele><time>2023-01-06T12:51:41Z</time><name>PT2661</name></trkpt>
<trkpt lat="53.002003" lon="-3.219345"><ele>247</ele><time>2023-01-06T12:51:44Z</time><name>PT2662</name></trkpt>
<trkpt lat="53.002031" lon="-3.219352"><ele>248</ele><time>2023-01-06T12:51:48Z</time><name>PT2663</name></trkpt>
<trkpt lat="53.002069" lon="-3.219374"><ele>248</ele><time>2023-01-06T12:51:52Z</time><name>PT2664</name></trkpt>
<trkpt lat="53.002091" lon="-3.219391"><ele>249</ele><time>2023-01-06T12:51:55Z</time><name>PT2665</name></trkpt>
<trkpt lat="53.002118" lon="-3.219406"><ele>248</ele><time>2023-01-06T12:51:59Z</time><name>PT2666</name></trkpt>
<trkpt lat="53.002149" lon="-3.219430"><ele>249</ele><time>2023-01-06T12:52:03Z</time><name>PT2667</name></trkpt>
<trkpt lat="53.002178" lon="-3.219451"><ele>250</ele><time>2023-01-06T12:52:07Z</time><name>PT2668</name></trkpt>
<trkpt lat="53.002207" lon="-3.219464"><ele>251</ele><time>2023-01-06T12:52:11Z</time><name>PT2669</name></trkpt>
<trkpt lat="53.002231" lon="-3.219479"><ele>251</ele><time>2023-01-06T12:52:14Z</time><name>PT2670</name></trkpt>
<trkpt lat="53.002261" lon="-3.219486"><ele>250</ele><time>2023-01-06T12:52:18Z</time><name>PT2671</name></trkpt>
<trkpt lat="53.002294" lon="-3.219506"><ele>251</ele><time>2023-01-06T12:52:21Z</time><name>PT2672</name></trkpt>
<trkpt lat="53.002335" lon="-3.219523"><ele>251</ele><time>2023-01-06T12:52:25Z</time><name>PT2673</name></trkpt>
<trkpt lat="53.002370" lon="-3.219538"><ele>252</ele><time>2023-01-06T12:52:29Z</time><name>PT2674</name></trkpt>
<trkpt lat="53.002390" lon="-3.219551"><ele>253</ele><time>2023-01-06T12:52:32Z</time><name>PT2675</name></trkpt>
<trkpt lat="53.002420" lon="-3.219565"><ele>252</ele><time>2023-01-06T12:52:36Z</time><name>PT2676</name></trkpt>
<trkpt lat="53.002455" lon="-3.219568"><ele>254</ele><time>2023-01-06T12:52:40Z</time><name>PT2677</name></trkpt>
<trkpt lat="53.002481" lon="-3.219580"><ele>255</ele><time>2023-01-06T12:52:44Z</time><name>PT2678</name></trkpt>
<trkpt lat="53.002516" lon="-3.219597"><ele>256</ele><time>2023-01-06T12:52:48Z</time><name>PT2679</name></trkpt>
<trkpt lat="53.002543" lon="-3.219612"><ele>258</ele><time>2023-01-06T12:52:52Z</time><name>PT2680</name></trkpt>
<trkpt lat="53.002572" lon="-3.219622"><ele>259</ele><time>2023-01-06T12:52:56Z</time><name>PT2681</name></trkpt>
<trkpt lat="53.002604" lon="-3.219640"><ele>259</ele><time>2023-01-06T12:53:00Z</time><name>PT2682</name></trkpt>
<trkpt lat="53.002626" lon="-3.219643"><ele>260</ele><time>2023-01-06T12:53:03Z</time><name>PT2683</name></trkpt>
<trkpt lat="53.002669" lon="-3.219681"><ele>259</ele><time>2023-01-06T12:53:07Z</time><name>PT2684</name></trkpt>
<trkpt lat="53.002688" lon="-3.219689"><ele>259</ele><time>2023-01-06T12:53:10Z</time><name>PT2685</name></trkpt>
<trkpt lat="53.002734" lon="-3.219710"><ele>259</ele><time>2023-01-06T12:53:14Z</time><name>PT2686</name></trkpt>
<trkpt lat="53.002756" lon="-3.219719"><ele>259</ele><time>2023-01-06T12:53:17Z</time><name>PT2687</name></trkpt>
<trkpt lat="53.002791" lon="-3.219754"><ele>260</ele><time>2023-01-06T12:53:21Z</time><name>PT2688</name></trkpt>
<trkpt lat="53.002835" lon="-3.219765"><ele>261</ele><time>2023-01-06T12:53:25Z</time><name>PT2689</name></trkpt>
<trkpt lat="53.002864" lon="-3.219778"><ele>261</ele><time>2023-01-06T12:53:28Z</time><name>PT2690</name></trkpt>
<trkpt lat="53.002906" lon="-3.219803"><ele>261</ele><time>2023-01-06T12:53:32Z</time><name>PT2691</name></trkpt>
<trkpt lat="53.002936" lon="-3.219817"><ele>261</ele><time>2023-01-06T12:53:36Z</time><name>PT2692</name></trkpt>
<trkpt lat="53.002963" lon="-3.219828"><ele>262</ele><time>2023-01-06T12:53:40Z</time><name>PT2693</name></trkpt>
<trkpt lat="53.002988" lon="-3.219842"><ele>263</ele><time>2023-01-06T12:53:43Z</time><name>PT2694</name></trkpt>
<trkpt lat="53.003009" lon="-3.219864"><ele>264</ele><time>2023-01-06T12:53:47Z</time><name>PT2695</name></trkpt>
<trkpt lat="53.003037" lon="-3.219867"><ele>264</ele><time>2023-01-06T12:53:50Z</time><name>PT2696</name></trkpt>
<trkpt lat="53.003066" lon="-3.219903"><ele>263</ele><time>2023-01-06T12:53:54Z</time><name>PT2697</name></trkpt>
<trkpt lat="53.003092" lon="-3.219923"><ele>263</ele><time>2023-01-06T12:53:57Z</time><name>PT2698</name></trkpt>
<trkpt lat="53.003129" lon="-3.219939"><ele>263</ele><time>2023-01-06T12:54:01Z</time><name>PT2699</name></trkpt>
<trkpt lat="53.003149" lon="-3.219964"><ele>263</ele><time>2023-01-06T12:54:05Z</time><name>PT2700</name></trkpt>
<trkpt lat="53.003177" lon="-3.219977"><ele>264</ele><time>2023-01-06T12:54:08Z</time><name>PT2701</name></trkpt>
<trkpt lat="53.003227" lon="-3.219999"><ele>263</ele><time>2023-01-06T12:54:12Z</time><name>PT2702</name></trkpt>
<trkpt lat="53.003235" lon="-3.219996"><ele>266</ele><time>2023-01-06T12:54:16Z</time><name>PT2703</name></trkpt>
<trkpt lat="53.003267" lon="-3.220005"><ele>267</ele><time>2023-01-06T12:54:20Z</time><name>PT2704</name></trkpt>
<trkpt lat="53.003285" lon="-3.220007"><ele>265</ele><time>2023-01-06T12:54:24Z</time><name>PT2705</name></trkpt>
<trkpt lat="53.003292" lon="-3.220017"><ele>265</ele><time>2023-01-06T12:54:28Z</time><name>PT2706</name></trkpt>
<trkpt lat="53.003326" lon="-3.220038"><ele>265</ele><time>2023-01-06T12:54:31Z</time><name>PT2707</name></trkpt>
<trkpt lat="53.003361" lon="-3.220054"><ele>265</ele><time>2023-01-06T12:54:35Z</time><name>PT2708</name></trkpt>
<trkpt lat="53.003395" lon="-3.220069"><ele>266</ele><time>2023-01-06T12:54:38Z</time><name>PT2709</name></trkpt>
<trkpt lat="53.003423" lon="-3.220068"><ele>265</ele><time>2023-01-06T12:54:41Z</time><name>PT2710</name></trkpt>
<trkpt lat="53.003454" lon="-3.220070"><ele>266</ele><time>2023-01-06T12:54:44Z</time><name>PT2711</name></trkpt>
<trkpt lat="53.003478" lon="-3.220065"><ele>266</ele><time>2023-01-06T12:54:47Z</time><name>PT2712</name></trkpt>
<trkpt lat="53.003517" lon="-3.220050"><ele>266</ele><time>2023-01-06T12:54:51Z</time><name>PT2713</name></trkpt>
<trkpt lat="53.003557" lon="-3.220051"><ele>267</ele><time>2023-01-06T12:54:55Z</time><name>PT2714</name></trkpt>
<trkpt lat="53.003599" lon="-3.220041"><ele>268</ele><time>2023-01-06T12:54:58Z</time><name>PT2715</name></trkpt>
<trkpt lat="53.003637" lon="-3.220023"><ele>268</ele><time>2023-01-06T12:55:02Z</time><name>PT2716</name></trkpt>
<trkpt lat="53.003683" lon="-3.220017"><ele>267</ele><time>2023-01-06T12:55:06Z</time><name>PT2717</name></trkpt>
<trkpt lat="53.003716" lon="-3.219997"><ele>269</ele><time>2023-01-06T12:55:10Z</time><name>PT2718</name></trkpt>
<trkpt lat="53.003741" lon="-3.219986"><ele>269</ele><time>2023-01-06T12:55:14Z</time><name>PT2719</name></trkpt>
<trkpt lat="53.003776" lon="-3.219975"><ele>267</ele><time>2023-01-06T12:55:18Z</time><name>PT2720</name></trkpt>
<trkpt lat="53.003804" lon="-3.219952"><ele>268</ele><time>2023-01-06T12:55:22Z</time><name>PT2721</name></trkpt>
<trkpt lat="53.003834" lon="-3.219931"><ele>269</ele><time>2023-01-06T12:55:25Z</time><name>PT2722</name></trkpt>
<trkpt lat="53.003864" lon="-3.219910"><ele>269</ele><time>2023-01-06T12:55:29Z</time><name>PT2723</name></trkpt>
<trkpt lat="53.003881" lon="-3.219900"><ele>269</ele><time>2023-01-06T12:55:32Z</time><name>PT2724</name></trkpt>
<trkpt lat="53.003899" lon="-3.219890"><ele>271</ele><time>2023-01-06T12:55:35Z</time><name>PT2725</name></trkpt>
<trkpt lat="53.003933" lon="-3.219879"><ele>271</ele><time>2023-01-06T12:55:39Z</time><name>PT2726</name></trkpt>
<trkpt lat="53.003960" lon="-3.219866"><ele>275</ele><time>2023-01-06T12:55:43Z</time><name>PT2727</name></trkpt>
<trkpt lat="53.003977" lon="-3.219867"><ele>276</ele><time>2023-01-06T12:55:46Z</time><name>PT2728</name></trkpt>
<trkpt lat="53.004004" lon="-3.219844"><ele>277</ele><time>2023-01-06T12:55:50Z</time><name>PT2729</name></trkpt>
<trkpt lat="53.004027" lon="-3.219838"><ele>276</ele><time>2023-01-06T12:55:53Z</time><name>PT2730</name></trkpt>
<trkpt lat="53.004042" lon="-3.219819"><ele>277</ele><time>2023-01-06T12:55:56Z</time><name>PT2731</name></trkpt>
<trkpt lat="53.004066" lon="-3.219801"><ele>278</ele><time>2023-01-06T12:56:00Z</time><name>PT2732</name></trkpt>
<trkpt lat="53.004090" lon="-3.219774"><ele>278</ele><time>2023-01-06T12:56:04Z</time><name>PT2733</name></trkpt>
<trkpt lat="53.004110" lon="-3.219751"><ele>278</ele><time>2023-01-06T12:56:08Z</time><name>PT2734</name></trkpt>
<trkpt lat="53.004132" lon="-3.219742"><ele>280</ele><time>2023-01-06T12:56:11Z</time><name>PT2735</name></trkpt>
<trkpt lat="53.004135" lon="-3.219736"><ele>280</ele><time>2023-01-06T12:56:14Z</time><name>PT2736</name></trkpt>
<trkpt lat="53.004163" lon="-3.219712"><ele>280</ele><time>2023-01-06T12:56:18Z</time><name>PT2737</name></trkpt>
<trkpt lat="53.004169" lon="-3.219688"><ele>280</ele><time>2023-01-06T12:56:21Z</time><name>PT2738</name></trkpt>
<trkpt lat="53.004135" lon="-3.219662"><ele>280</ele><time>2023-01-06T12:56:25Z</time><name>PT2739</name></trkpt>
<trkpt lat="53.004132" lon="-3.219663"><ele>279</ele><time>2023-01-06T12:56:29Z</time><name>PT2740</name></trkpt>
<trkpt lat="53.004118" lon="-3.219664"><ele>278</ele><time>2023-01-06T12:56:32Z</time><name>PT2741</name></trkpt>
<trkpt lat="53.004089" lon="-3.219655"><ele>278</ele><time>2023-01-06T12:56:36Z</time><name>PT2742</name></trkpt>
<trkpt lat="53.004071" lon="-3.219655"><ele>278</ele><time>2023-01-06T12:56:40Z</time><name>PT2743</name></trkpt>
<trkpt lat="53.004075" lon="-3.219656"><ele>277</ele><time>2023-01-06T12:56:44Z</time><name>PT2744</name></trkpt>
<trkpt lat="53.004077" lon="-3.219658"><ele>277</ele><time>2023-01-06T12:56:47Z</time><name>PT2745</name></trkpt>
<trkpt lat="53.004081" lon="-3.219661"><ele>277</ele><time>2023-01-06T12:56:50Z</time><name>PT2746</name></trkpt>
<trkpt lat="53.004047" lon="-3.219673"><ele>276</ele><time>2023-01-06T12:56:54Z</time><name>PT2747</name></trkpt>
<trkpt lat="53.004007" lon="-3.219675"><ele>277</ele><time>2023-01-06T12:56:58Z</time><name>PT2748</name></trkpt>
<trkpt lat="53.003981" lon="-3.219668"><ele>278</ele><time>2023-01-06T12:57:02Z</time><name>PT2749</name></trkpt>
<trkpt lat="53.003955" lon="-3.219666"><ele>278</ele><time>2023-01-06T12:57:05Z</time><name>PT2750</name></trkpt>
<trkpt lat="53.003925" lon="-3.219659"><ele>278</ele><time>2023-01-06T12:57:09Z</time><name>PT2751</name></trkpt>
<trkpt lat="53.003893" lon="-3.219668"><ele>278</ele><time>2023-01-06T12:57:12Z</time><name>PT2752</name></trkpt>
<trkpt lat="53.003851" lon="-3.219665"><ele>277</ele><time>2023-01-06T12:57:16Z</time><name>PT2753</name></trkpt>
<trkpt lat="53.003808" lon="-3.219665"><ele>278</ele><time>2023-01-06T12:57:20Z</time><name>PT2754</name></trkpt>
<trkpt lat="53.003777" lon="-3.219661"><ele>279</ele><time>2023-01-06T12:57:24Z</time><name>PT2755</name></trkpt>
<trkpt lat="53.003749" lon="-3.219662"><ele>278</ele><time>2023-01-06T12:57:27Z</time><name>PT2756</name></trkpt>
<trkpt lat="53.003717" lon="-3.219657"><ele>279</ele><time>2023-01-06T12:57:30Z</time><name>PT2757</name></trkpt>
<trkpt lat="53.003689" lon="-3.219663"><ele>279</ele><time>2023-01-06T12:57:34Z</time><name>PT2758</name></trkpt>
<trkpt lat="53.003656" lon="-3.219660"><ele>278</ele><time>2023-01-06T12:57:38Z</time><name>PT2759</name></trkpt>
<trkpt lat="53.003630" lon="-3.219666"><ele>278</ele><time>2023-01-06T12:57:42Z</time><name>PT2760</name></trkpt>
<trkpt lat="53.003607" lon="-3.219663"><ele>277</ele><time>2023-01-06T12:57:46Z</time><name>PT2761</name></trkpt>
<trkpt lat="53.003586" lon="-3.219659"><ele>277</ele><time>2023-01-06T12:57:49Z</time><name>PT2762</name></trkpt>
<trkpt lat="53.003580" lon="-3.219663"><ele>276</ele><time>2023-01-06T12:57:53Z</time><name>PT2763</name></trkpt>
<trkpt lat="53.003565" lon="-3.219669"><ele>276</ele><time>2023-01-06T12:57:56Z</time><name>PT2764</name></trkpt>
<trkpt lat="53.003532" lon="-3.219674"><ele>276</ele><time>2023-01-06T12:58:00Z</time><name>PT2765</name></trkpt>
<trkpt lat="53.003514" lon="-3.219673"><ele>278</ele><time>2023-01-06T12:58:03Z</time><name>PT2766</name></trkpt>
<trkpt lat="53.003474" lon="-3.219658"><ele>278</ele><time>2023-01-06T12:58:07Z</time><name>PT2767</name></trkpt>
<trkpt lat="53.003445" lon="-3.219635"><ele>279</ele><time>2023-01-06T12:58:11Z</time><name>PT2768</name></trkpt>
<trkpt lat="53.003420" lon="-3.219645"><ele>278</ele><time>2023-01-06T12:58:14Z</time><name>PT2769</name></trkpt>
<trkpt lat="53.003393" lon="-3.219621"><ele>279</ele><time>2023-01-06T12:58:17Z</time><name>PT2770</name></trkpt>
<trkpt lat="53.003376" lon="-3.219598"><ele>279</ele><time>2023-01-06T12:58:20Z</time><name>PT2771</name></trkpt>
<trkpt lat="53.003360" lon="-3.219581"><ele>278</ele><time>2023-01-06T12:58:24Z</time><name>PT2772</name></trkpt>
<trkpt lat="53.003340" lon="-3.219561"><ele>279</ele><time>2023-01-06T12:58:27Z</time><name>PT2773</name></trkpt>
<trkpt lat="53.003311" lon="-3.219528"><ele>279</ele><time>2023-01-06T12:58:31Z</time><name>PT2774</name></trkpt>
<trkpt lat="53.003292" lon="-3.219504"><ele>280</ele><time>2023-01-06T12:58:34Z</time><name>PT2775</name></trkpt>
<trkpt lat="53.003274" lon="-3.219482"><ele>280</ele><time>2023-01-06T12:58:38Z</time><name>PT2776</name></trkpt>
<trkpt lat="53.003258" lon="-3.219455"><ele>279</ele><time>2023-01-06T12:58:42Z</time><name>PT2777</name></trkpt>
<trkpt lat="53.003237" lon="-3.219433"><ele>279</ele><time>2023-01-06T12:58:46Z</time><name>PT2778</name></trkpt>
<trkpt lat="53.003205" lon="-3.219412"><ele>277</ele><time>2023-01-06T12:58:49Z</time><name>PT2779</name></trkpt>
<trkpt lat="53.003162" lon="-3.219381"><ele>275</ele><time>2023-01-06T12:58:53Z</time><name>PT2780</name></trkpt>
<trkpt lat="53.003137" lon="-3.219355"><ele>274</ele><time>2023-01-06T12:58:57Z</time><name>PT2781</name></trkpt>
<trkpt lat="53.003113" lon="-3.219335"><ele>273</ele><time>2023-01-06T12:59:00Z</time><name>PT2782</name></trkpt>
<trkpt lat="53.003089" lon="-3.219312"><ele>272</ele><time>2023-01-06T12:59:03Z</time><name>PT2783</name></trkpt>
<trkpt lat="53.003053" lon="-3.219309"><ele>273</ele><time>2023-01-06T12:59:07Z</time><name>PT2784</name></trkpt>
<trkpt lat="53.003034" lon="-3.219294"><ele>271</ele><time>2023-01-06T12:59:10Z</time><name>PT2785</name></trkpt>
<trkpt lat="53.002995" lon="-3.219265"><ele>271</ele><time>2023-01-06T12:59:14Z</time><name>PT2786</name></trkpt>
<trkpt lat="53.002969" lon="-3.219236"><ele>271</ele><time>2023-01-06T12:59:17Z</time><name>PT2787</name></trkpt>
<trkpt lat="53.002945" lon="-3.219205"><ele>273</ele><time>2023-01-06T12:59:20Z</time><name>PT2788</name></trkpt>
<trkpt lat="53.002917" lon="-3.219188"><ele>273</ele><time>2023-01-06T12:59:23Z</time><name>PT2789</name></trkpt>
<trkpt lat="53.002885" lon="-3.219169"><ele>272</ele><time>2023-01-06T12:59:27Z</time><name>PT2790</name></trkpt>
<trkpt lat="53.002852" lon="-3.219154"><ele>272</ele><time>2023-01-06T12:59:30Z</time><name>PT2791</name></trkpt>
<trkpt lat="53.002816" lon="-3.219137"><ele>271</ele><time>2023-01-06T12:59:34Z</time><name>PT2792</name></trkpt>
<trkpt lat="53.002780" lon="-3.219127"><ele>270</ele><time>2023-01-06T12:59:38Z</time><name>PT2793</name></trkpt>
<trkpt lat="53.002754" lon="-3.219112"><ele>270</ele><time>2023-01-06T12:59:41Z</time><name>PT2794</name></trkpt>
<trkpt lat="53.002709" lon="-3.219091"><ele>270</ele><time>2023-01-06T12:59:45Z</time><name>PT2795</name></trkpt>
<trkpt lat="53.002659" lon="-3.219078"><ele>272</ele><time>2023-01-06T12:59:49Z</time><name>PT2796</name></trkpt>
<trkpt lat="53.002630" lon="-3.219064"><ele>273</ele><time>2023-01-06T12:59:52Z</time><name>PT2797</name></trkpt>
<trkpt lat="53.002616" lon="-3.219044"><ele>273</ele><time>2023-01-06T12:59:56Z</time><name>PT2798</name></trkpt>
<trkpt lat="53.002583" lon="-3.219014"><ele>273</ele><time>2023-01-06T13:00:00Z</time><name>PT2799</name></trkpt>
<trkpt lat="53.002560" lon="-3.218993"><ele>273</ele><time>2023-01-06T13:00:03Z</time><name>PT2800</name></trkpt>
<trkpt lat="53.002535" lon="-3.218958"><ele>271</ele><time>2023-01-06T13:00:07Z</time><name>PT2801</name></trkpt>
<trkpt lat="53.002508" lon="-3.218934"><ele>271</ele><time>2023-01-06T13:00:10Z</time><name>PT2802</name></trkpt>
<trkpt lat="53.002484" lon="-3.218920"><ele>270</ele><time>2023-01-06T13:00:13Z</time><name>PT2803</name></trkpt>
<trkpt lat="53.002452" lon="-3.218891"><ele>268</ele><time>2023-01-06T13:00:17Z</time><name>PT2804</name></trkpt>
<trkpt lat="53.002425" lon="-3.218861"><ele>269</ele><time>2023-01-06T13:00:20Z</time><name>PT2805</name></trkpt>
<trkpt lat="53.002406" lon="-3.218823"><ele>268</ele><time>2023-01-06T13:00:24Z</time><name>PT2806</name></trkpt>
<trkpt lat="53.002389" lon="-3.218814"><ele>268</ele><time>2023-01-06T13:00:28Z</time><name>PT2807</name></trkpt>
<trkpt lat="53.002368" lon="-3.218809"><ele>269</ele><time>2023-01-06T13:00:31Z</time><name>PT2808</name></trkpt>
<trkpt lat="53.002351" lon="-3.218812"><ele>269</ele><time>2023-01-06T13:00:35Z</time><name>PT2809</name></trkpt>
<trkpt lat="53.002334" lon="-3.218806"><ele>270</ele><time>2023-01-06T13:00:38Z</time><name>PT2810</name></trkpt>
<trkpt lat="53.002330" lon="-3.218807"><ele>270</ele><time>2023-01-06T13:00:42Z</time><name>PT2811</name></trkpt>
<trkpt lat="53.002310" lon="-3.218787"><ele>269</ele><time>2023-01-06T13:00:45Z</time><name>PT2812</name></trkpt>
<trkpt lat="53.002283" lon="-3.218779"><ele>268</ele><time>2023-01-06T13:00:48Z</time><name>PT2813</name></trkpt>
<trkpt lat="53.002260" lon="-3.218770"><ele>268</ele><time>2023-01-06T13:00:52Z</time><name>PT2814</name></trkpt>
<trkpt lat="53.002231" lon="-3.218750"><ele>267</ele><time>2023-01-06T13:00:56Z</time><name>PT2815</name></trkpt>
<trkpt lat="53.002211" lon="-3.218730"><ele>266</ele><time>2023-01-06T13:00:59Z</time><name>PT2816</name></trkpt>
<trkpt lat="53.002204" lon="-3.218727"><ele>266</ele><time>2023-01-06T13:01:03Z</time><name>PT2817</name></trkpt>
<trkpt lat="53.002205" lon="-3.218718"><ele>266</ele><time>2023-01-06T13:01:07Z</time><name>PT2818</name></trkpt>
<trkpt lat="53.002181" lon="-3.218676"><ele>265</ele><time>2023-01-06T13:01:11Z</time><name>PT2819</name></trkpt>
<trkpt lat="53.002154" lon="-3.218641"><ele>265</ele><time>2023-01-06T13:01:15Z</time><name>PT2820</name></trkpt>
<trkpt lat="53.002137" lon="-3.218595"><ele>265</ele><time>2023-01-06T13:01:19Z</time><name>PT2821</name></trkpt>
<trkpt lat="53.002109" lon="-3.218566"><ele>265</ele><time>2023-01-06T13:01:23Z</time><name>PT2822</name></trkpt>
<trkpt lat="53.002100" lon="-3.218514"><ele>265</ele><time>2023-01-06T13:01:27Z</time><name>PT2823</name></trkpt>
<trkpt lat="53.002077" lon="-3.218498"><ele>265</ele><time>2023-01-06T13:01:30Z</time><name>PT2824</name></trkpt>
<trkpt lat="53.002043" lon="-3.218461"><ele>266</ele><time>2023-01-06T13:01:34Z</time><name>PT2825</name></trkpt>
<trkpt lat="53.002018" lon="-3.218428"><ele>266</ele><time>2023-01-06T13:01:37Z</time><name>PT2826</name></trkpt>
<trkpt lat="53.001983" lon="-3.218391"><ele>269</ele><time>2023-01-06T13:01:41Z</time><name>PT2827</name></trkpt>
<trkpt lat="53.001944" lon="-3.218355"><ele>272</ele><time>2023-01-06T13:01:45Z</time><name>PT2828</name></trkpt>
<trkpt lat="53.001919" lon="-3.218326"><ele>273</ele><time>2023-01-06T13:01:48Z</time><name>PT2829</name></trkpt>
<trkpt lat="53.001874" lon="-3.218261"><ele>278</ele><time>2023-01-06T13:01:52Z</time><name>PT2830</name></trkpt>
<trkpt lat="53.001847" lon="-3.218249"><ele>279</ele><time>2023-01-06T13:01:55Z</time><name>PT2831</name></trkpt>
<trkpt lat="53.001824" lon="-3.218224"><ele>279</ele><time>2023-01-06T13:01:58Z</time><name>PT2832</name></trkpt>
<trkpt lat="53.001804" lon="-3.218200"><ele>279</ele><time>2023-01-06T13:02:01Z</time><name>PT2833</name></trkpt>
<trkpt lat="53.001798" lon="-3.218196"><ele>279</ele><time>2023-01-06T13:02:05Z</time><name>PT2834</name></trkpt>
<trkpt lat="53.001794" lon="-3.218187"><ele>279</ele><time>2023-01-06T13:02:08Z</time><name>PT2835</name></trkpt>
<trkpt lat="53.001790" lon="-3.218180"><ele>279</ele><time>2023-01-06T13:02:16Z</time><name>PT2836</name></trkpt>
<trkpt lat="53.001790" lon="-3.218151"><ele>278</ele><time>2023-01-06T13:02:19Z</time><name>PT2837</name></trkpt>
<trkpt lat="53.001805" lon="-3.218129"><ele>280</ele><time>2023-01-06T13:02:23Z</time><name>PT2838</name></trkpt>
<trkpt lat="53.001807" lon="-3.218120"><ele>280</ele><time>2023-01-06T13:02:26Z</time><name>PT2839</name></trkpt>
<trkpt lat="53.001806" lon="-3.218106"><ele>281</ele><time>2023-01-06T13:02:29Z</time><name>PT2840</name></trkpt>
<trkpt lat="53.001799" lon="-3.218096"><ele>281</ele><time>2023-01-06T13:02:32Z</time><name>PT2841</name></trkpt>
<trkpt lat="53.001783" lon="-3.218082"><ele>282</ele><time>2023-01-06T13:02:36Z</time><name>PT2842</name></trkpt>
<trkpt lat="53.001773" lon="-3.218071"><ele>283</ele><time>2023-01-06T13:02:40Z</time><name>PT2843</name></trkpt>
<trkpt lat="53.001774" lon="-3.218072"><ele>283</ele><time>2023-01-06T13:02:44Z</time><name>PT2844</name></trkpt>
<trkpt lat="53.001780" lon="-3.218058"><ele>283</ele><time>2023-01-06T13:03:02Z</time><name>PT2845</name></trkpt>
<trkpt lat="53.001787" lon="-3.218067"><ele>283</ele><time>2023-01-06T13:03:57Z</time><name>PT2846</name></trkpt>
<trkpt lat="53.001780" lon="-3.218053"><ele>283</ele><time>2023-01-06T13:05:40Z</time><name>PT2847</name></trkpt>
<trkpt lat="53.001762" lon="-3.218004"><ele>283</ele><time>2023-01-06T13:05:44Z</time><name>PT2848</name></trkpt>
<trkpt lat="53.001752" lon="-3.217995"><ele>284</ele><time>2023-01-06T13:05:48Z</time><name>PT2849</name></trkpt>
<trkpt lat="53.001757" lon="-3.217992"><ele>284</ele><time>2023-01-06T13:05:55Z</time><name>PT2850</name></trkpt>
<trkpt lat="53.001758" lon="-3.217986"><ele>284</ele><time>2023-01-06T13:05:58Z</time><name>PT2851</name></trkpt>
<trkpt lat="53.001750" lon="-3.217971"><ele>284</ele><time>2023-01-06T13:06:05Z</time><name>PT2852</name></trkpt>
<trkpt lat="53.001729" lon="-3.217921"><ele>285</ele><time>2023-01-06T13:06:09Z</time><name>PT2853</name></trkpt>
<trkpt lat="53.001712" lon="-3.217872"><ele>285</ele><time>2023-01-06T13:06:12Z</time><name>PT2854</name></trkpt>
<trkpt lat="53.001697" lon="-3.217828"><ele>286</ele><time>2023-01-06T13:06:16Z</time><name>PT2855</name></trkpt>
<trkpt lat="53.001679" lon="-3.217783"><ele>287</ele><time>2023-01-06T13:06:19Z</time><name>PT2856</name></trkpt>
<trkpt lat="53.001657" lon="-3.217742"><ele>287</ele><time>2023-01-06T13:06:23Z</time><name>PT2857</name></trkpt>
<trkpt lat="53.001647" lon="-3.217697"><ele>287</ele><time>2023-01-06T13:06:27Z</time><name>PT2858</name></trkpt>
<trkpt lat="53.001628" lon="-3.217656"><ele>290</ele><time>2023-01-06T13:06:31Z</time><name>PT2859</name></trkpt>
<trkpt lat="53.001619" lon="-3.217614"><ele>291</ele><time>2023-01-06T13:06:35Z</time><name>PT2860</name></trkpt>
<trkpt lat="53.001601" lon="-3.217565"><ele>292</ele><time>2023-01-06T13:06:39Z</time><name>PT2861</name></trkpt>
<trkpt lat="53.001590" lon="-3.217531"><ele>291</ele><time>2023-01-06T13:06:43Z</time><name>PT2862</name></trkpt>
<trkpt lat="53.001573" lon="-3.217489"><ele>292</ele><time>2023-01-06T13:06:47Z</time><name>PT2863</name></trkpt>
<trkpt lat="53.001565" lon="-3.217448"><ele>294</ele><time>2023-01-06T13:06:50Z</time><name>PT2864</name></trkpt>
<trkpt lat="53.001561" lon="-3.217401"><ele>295</ele><time>2023-01-06T13:06:54Z</time><name>PT2865</name></trkpt>
<trkpt lat="53.001551" lon="-3.217365"><ele>296</ele><time>2023-01-06T13:06:57Z</time><name>PT2866</name></trkpt>
<trkpt lat="53.001549" lon="-3.217338"><ele>295</ele><time>2023-01-06T13:07:00Z</time><name>PT2867</name></trkpt>
<trkpt lat="53.001546" lon="-3.217306"><ele>296</ele><time>2023-01-06T13:07:03Z</time><name>PT2868</name></trkpt>
<trkpt lat="53.001540" lon="-3.217268"><ele>297</ele><time>2023-01-06T13:07:07Z</time><name>PT2869</name></trkpt>
<trkpt lat="53.001536" lon="-3.217244"><ele>296</ele><time>2023-01-06T13:07:10Z</time><name>PT2870</name></trkpt>
<trkpt lat="53.001535" lon="-3.217205"><ele>297</ele><time>2023-01-06T13:07:14Z</time><name>PT2871</name></trkpt>
<trkpt lat="53.001534" lon="-3.217188"><ele>296</ele><time>2023-01-06T13:07:18Z</time><name>PT2872</name></trkpt>
<trkpt lat="53.001535" lon="-3.217184"><ele>296</ele><time>2023-01-06T13:07:31Z</time><name>PT2873</name></trkpt>
<trkpt lat="53.001558" lon="-3.217125"><ele>297</ele><time>2023-01-06T13:07:35Z</time><name>PT2874</name></trkpt>
<trkpt lat="53.001582" lon="-3.217047"><ele>298</ele><time>2023-01-06T13:07:39Z</time><name>PT2875</name></trkpt>
<trkpt lat="53.001600" lon="-3.216993"><ele>298</ele><time>2023-01-06T13:07:42Z</time><name>PT2876</name></trkpt>
<trkpt lat="53.001612" lon="-3.216945"><ele>297</ele><time>2023-01-06T13:07:46Z</time><name>PT2877</name></trkpt>
<trkpt lat="53.001626" lon="-3.216901"><ele>297</ele><time>2023-01-06T13:07:50Z</time><name>PT2878</name></trkpt>
<trkpt lat="53.001636" lon="-3.216864"><ele>296</ele><time>2023-01-06T13:07:53Z</time><name>PT2879</name></trkpt>
<trkpt lat="53.001651" lon="-3.216827"><ele>297</ele><time>2023-01-06T13:07:56Z</time><name>PT2880</name></trkpt>
<trkpt lat="53.001668" lon="-3.216780"><ele>297</ele><time>2023-01-06T13:08:00Z</time><name>PT2881</name></trkpt>
<trkpt lat="53.001689" lon="-3.216729"><ele>298</ele><time>2023-01-06T13:08:04Z</time><name>PT2882</name></trkpt>
<trkpt lat="53.001714" lon="-3.216675"><ele>300</ele><time>2023-01-06T13:08:08Z</time><name>PT2883</name></trkpt>
<trkpt lat="53.001732" lon="-3.216631"><ele>300</ele><time>2023-01-06T13:08:12Z</time><name>PT2884</name></trkpt>
<trkpt lat="53.001750" lon="-3.216584"><ele>300</ele><time>2023-01-06T13:08:16Z</time><name>PT2885</name></trkpt>
<trkpt lat="53.001760" lon="-3.216554"><ele>300</ele><time>2023-01-06T13:08:19Z</time><name>PT2886</name></trkpt>
<trkpt lat="53.001775" lon="-3.216517"><ele>301</ele><time>2023-01-06T13:08:22Z</time><name>PT2887</name></trkpt>
<trkpt lat="53.001802" lon="-3.216478"><ele>302</ele><time>2023-01-06T13:08:25Z</time><name>PT2888</name></trkpt>
<trkpt lat="53.001831" lon="-3.216426"><ele>304</ele><time>2023-01-06T13:08:29Z</time><name>PT2889</name></trkpt>
<trkpt lat="53.001858" lon="-3.216391"><ele>305</ele><time>2023-01-06T13:08:33Z</time><name>PT2890</name></trkpt>
<trkpt lat="53.001884" lon="-3.216331"><ele>307</ele><time>2023-01-06T13:08:37Z</time><name>PT2891</name></trkpt>
<trkpt lat="53.001905" lon="-3.216263"><ele>308</ele><time>2023-01-06T13:08:41Z</time><name>PT2892</name></trkpt>
<trkpt lat="53.001918" lon="-3.216217"><ele>307</ele><time>2023-01-06T13:08:44Z</time><name>PT2893</name></trkpt>
<trkpt lat="53.001938" lon="-3.216168"><ele>307</ele><time>2023-01-06T13:08:48Z</time><name>PT2894</name></trkpt>
<trkpt lat="53.001955" lon="-3.216105"><ele>310</ele><time>2023-01-06T13:08:52Z</time><name>PT2895</name></trkpt>
<trkpt lat="53.001971" lon="-3.216070"><ele>310</ele><time>2023-01-06T13:08:55Z</time><name>PT2896</name></trkpt>
<trkpt lat="53.002004" lon="-3.216037"><ele>311</ele><time>2023-01-06T13:08:59Z</time><name>PT2897</name></trkpt>
<trkpt lat="53.002014" lon="-3.215987"><ele>310</ele><time>2023-01-06T13:09:03Z</time><name>PT2898</name></trkpt>
<trkpt lat="53.002021" lon="-3.215944"><ele>311</ele><time>2023-01-06T13:09:06Z</time><name>PT2899</name></trkpt>
<trkpt lat="53.002027" lon="-3.215904"><ele>311</ele><time>2023-01-06T13:09:09Z</time><name>PT2900</name></trkpt>
<trkpt lat="53.002046" lon="-3.215858"><ele>313</ele><time>2023-01-06T13:09:13Z</time><name>PT2901</name></trkpt>
<trkpt lat="53.002055" lon="-3.215812"><ele>312</ele><time>2023-01-06T13:09:16Z</time><name>PT2902</name></trkpt>
<trkpt lat="53.002066" lon="-3.215768"><ele>314</ele><time>2023-01-06T13:09:20Z</time><name>PT2903</name></trkpt>
<trkpt lat="53.002084" lon="-3.215736"><ele>313</ele><time>2023-01-06T13:09:23Z</time><name>PT2904</name></trkpt>
<trkpt lat="53.002106" lon="-3.215717"><ele>314</ele><time>2023-01-06T13:09:26Z</time><name>PT2905</name></trkpt>
<trkpt lat="53.002124" lon="-3.215683"><ele>316</ele><time>2023-01-06T13:09:30Z</time><name>PT2906</name></trkpt>
<trkpt lat="53.002125" lon="-3.215670"><ele>315</ele><time>2023-01-06T13:09:33Z</time><name>PT2907</name></trkpt>
<trkpt lat="53.002139" lon="-3.215613"><ele>315</ele><time>2023-01-06T13:09:36Z</time><name>PT2908</name></trkpt>
<trkpt lat="53.002146" lon="-3.215591"><ele>315</ele><time>2023-01-06T13:09:39Z</time><name>PT2909</name></trkpt>
<trkpt lat="53.002153" lon="-3.215585"><ele>315</ele><time>2023-01-06T13:09:43Z</time><name>PT2910</name></trkpt>
<trkpt lat="53.002155" lon="-3.215583"><ele>315</ele><time>2023-01-06T13:09:47Z</time><name>PT2911</name></trkpt>
<trkpt lat="53.002154" lon="-3.215583"><ele>315</ele><time>2023-01-06T13:09:50Z</time><name>PT2912</name></trkpt>
<trkpt lat="53.002154" lon="-3.215586"><ele>315</ele><time>2023-01-06T13:10:18Z</time><name>PT2913</name></trkpt>
<trkpt lat="53.002155" lon="-3.215585"><ele>315</ele><time>2023-01-06T13:10:22Z</time><name>PT2914</name></trkpt>
<trkpt lat="53.002160" lon="-3.215610"><ele>315</ele><time>2023-01-06T13:11:04Z</time><name>PT2915</name></trkpt>
<trkpt lat="53.002150" lon="-3.215627"><ele>315</ele><time>2023-01-06T13:11:08Z</time><name>PT2916</name></trkpt>
<trkpt lat="53.002152" lon="-3.215620"><ele>315</ele><time>2023-01-06T13:11:12Z</time><name>PT2917</name></trkpt>
<trkpt lat="53.002148" lon="-3.215618"><ele>315</ele><time>2023-01-06T13:11:15Z</time><name>PT2918</name></trkpt>
<trkpt lat="53.002159" lon="-3.215580"><ele>315</ele><time>2023-01-06T13:11:26Z</time><name>PT2919</name></trkpt>
<trkpt lat="53.002159" lon="-3.215581"><ele>315</ele><time>2023-01-06T13:11:29Z</time><name>PT2920</name></trkpt>
<trkpt lat="53.002161" lon="-3.215580"><ele>315</ele><time>2023-01-06T13:11:32Z</time><name>PT2921</name></trkpt>
<trkpt lat="53.002160" lon="-3.215581"><ele>315</ele><time>2023-01-06T13:11:46Z</time><name>PT2922</name></trkpt>
<trkpt lat="53.002163" lon="-3.215583"><ele>315</ele><time>2023-01-06T13:11:50Z</time><name>PT2923</name></trkpt>
<trkpt lat="53.002173" lon="-3.215598"><ele>315</ele><time>2023-01-06T13:11:54Z</time><name>PT2924</name></trkpt>
<trkpt lat="53.002171" lon="-3.215588"><ele>315</ele><time>2023-01-06T13:11:57Z</time><name>PT2925</name></trkpt>
<trkpt lat="53.002177" lon="-3.215585"><ele>315</ele><time>2023-01-06T13:12:28Z</time><name>PT2926</name></trkpt>
<trkpt lat="53.002172" lon="-3.215585"><ele>315</ele><time>2023-01-06T13:13:33Z</time><name>PT2927</name></trkpt>
<trkpt lat="53.002170" lon="-3.215587"><ele>314</ele><time>2023-01-06T13:13:37Z</time><name>PT2928</name></trkpt>
<trkpt lat="53.002161" lon="-3.215575"><ele>311</ele><time>2023-01-06T13:16:47Z</time><name>PT2929</name></trkpt>
<trkpt lat="53.002161" lon="-3.215582"><ele>311</ele><time>2023-01-06T13:16:51Z</time><name>PT2930</name></trkpt>
<trkpt lat="53.002166" lon="-3.215584"><ele>312</ele><time>2023-01-06T13:17:20Z</time><name>PT2931</name></trkpt>
<trkpt lat="53.002167" lon="-3.215575"><ele>312</ele><time>2023-01-06T13:17:23Z</time><name>PT2932</name></trkpt>
<trkpt lat="53.002168" lon="-3.215568"><ele>312</ele><time>2023-01-06T13:17:27Z</time><name>PT2933</name></trkpt>
<trkpt lat="53.002168" lon="-3.215572"><ele>313</ele><time>2023-01-06T13:24:43Z</time><name>PT2934</name></trkpt>
<trkpt lat="53.002165" lon="-3.215614"><ele>315</ele><time>2023-01-06T13:24:47Z</time><name>PT2935</name></trkpt>
<trkpt lat="53.002161" lon="-3.215623"><ele>316</ele><time>2023-01-06T13:25:04Z</time><name>PT2936</name></trkpt>
<trkpt lat="53.002174" lon="-3.215635"><ele>316</ele><time>2023-01-06T13:25:37Z</time><name>PT2937</name></trkpt>
<trkpt lat="53.002176" lon="-3.215646"><ele>317</ele><time>2023-01-06T13:25:41Z</time><name>PT2938</name></trkpt>
<trkpt lat="53.002176" lon="-3.215647"><ele>317</ele><time>2023-01-06T13:25:44Z</time><name>PT2939</name></trkpt>
<trkpt lat="53.002168" lon="-3.215649"><ele>317</ele><time>2023-01-06T13:26:04Z</time><name>PT2940</name></trkpt>
<trkpt lat="53.002169" lon="-3.215665"><ele>318</ele><time>2023-01-06T13:26:15Z</time><name>PT2941</name></trkpt>
<trkpt lat="53.002177" lon="-3.215666"><ele>317</ele><time>2023-01-06T13:26:19Z</time><name>PT2942</name></trkpt>
<trkpt lat="53.002177" lon="-3.215665"><ele>318</ele><time>2023-01-06T13:26:22Z</time><name>PT2943</name></trkpt>
<trkpt lat="53.002174" lon="-3.215675"><ele>318</ele><time>2023-01-06T13:26:30Z</time><name>PT2944</name></trkpt>
<trkpt lat="53.002174" lon="-3.215665"><ele>317</ele><time>2023-01-06T13:29:37Z</time><name>PT2945</name></trkpt>
<trkpt lat="53.002173" lon="-3.215659"><ele>317</ele><time>2023-01-06T13:29:41Z</time><name>PT2946</name></trkpt>
<trkpt lat="53.002173" lon="-3.215658"><ele>317</ele><time>2023-01-06T13:29:44Z</time><name>PT2947</name></trkpt>
<trkpt lat="53.002172" lon="-3.215650"><ele>317</ele><time>2023-01-06T13:30:15Z</time><name>PT2948</name></trkpt>
<trkpt lat="53.002182" lon="-3.215649"><ele>317</ele><time>2023-01-06T13:30:19Z</time><name>PT2949</name></trkpt>
<trkpt lat="53.002204" lon="-3.215636"><ele>318</ele><time>2023-01-06T13:30:30Z</time><name>PT2950</name></trkpt>
<trkpt lat="53.002226" lon="-3.215589"><ele>318</ele><time>2023-01-06T13:30:34Z</time><name>PT2951</name></trkpt>
<trkpt lat="53.002237" lon="-3.215546"><ele>318</ele><time>2023-01-06T13:30:37Z</time><name>PT2952</name></trkpt>
<trkpt lat="53.002255" lon="-3.215502"><ele>319</ele><time>2023-01-06T13:30:40Z</time><name>PT2953</name></trkpt>
<trkpt lat="53.002270" lon="-3.215461"><ele>319</ele><time>2023-01-06T13:30:44Z</time><name>PT2954</name></trkpt>
<trkpt lat="53.002293" lon="-3.215409"><ele>320</ele><time>2023-01-06T13:30:48Z</time><name>PT2955</name></trkpt>
<trkpt lat="53.002311" lon="-3.215361"><ele>320</ele><time>2023-01-06T13:30:52Z</time><name>PT2956</name></trkpt>
<trkpt lat="53.002333" lon="-3.215316"><ele>323</ele><time>2023-01-06T13:30:56Z</time><name>PT2957</name></trkpt>
<trkpt lat="53.002344" lon="-3.215261"><ele>326</ele><time>2023-01-06T13:31:00Z</time><name>PT2958</name></trkpt>
<trkpt lat="53.002366" lon="-3.215222"><ele>328</ele><time>2023-01-06T13:31:04Z</time><name>PT2959</name></trkpt>
<trkpt lat="53.002378" lon="-3.215166"><ele>329</ele><time>2023-01-06T13:31:08Z</time><name>PT2960</name></trkpt>
<trkpt lat="53.002395" lon="-3.215113"><ele>331</ele><time>2023-01-06T13:31:12Z</time><name>PT2961</name></trkpt>
<trkpt lat="53.002410" lon="-3.215078"><ele>332</ele><time>2023-01-06T13:31:15Z</time><name>PT2962</name></trkpt>
<trkpt lat="53.002423" lon="-3.215034"><ele>334</ele><time>2023-01-06T13:31:18Z</time><name>PT2963</name></trkpt>
<trkpt lat="53.002440" lon="-3.215019"><ele>333</ele><time>2023-01-06T13:31:22Z</time><name>PT2964</name></trkpt>
<trkpt lat="53.002447" lon="-3.215000"><ele>334</ele><time>2023-01-06T13:31:25Z</time><name>PT2965</name></trkpt>
<trkpt lat="53.002474" lon="-3.214965"><ele>334</ele><time>2023-01-06T13:31:29Z</time><name>PT2966</name></trkpt>
<trkpt lat="53.002502" lon="-3.214934"><ele>334</ele><time>2023-01-06T13:31:32Z</time><name>PT2967</name></trkpt>
<trkpt lat="53.002524" lon="-3.214916"><ele>335</ele><time>2023-01-06T13:31:35Z</time><name>PT2968</name></trkpt>
<trkpt lat="53.002555" lon="-3.214860"><ele>334</ele><time>2023-01-06T13:31:39Z</time><name>PT2969</name></trkpt>
<trkpt lat="53.002584" lon="-3.214827"><ele>334</ele><time>2023-01-06T13:31:43Z</time><name>PT2970</name></trkpt>
<trkpt lat="53.002608" lon="-3.214799"><ele>334</ele><time>2023-01-06T13:31:47Z</time><name>PT2971</name></trkpt>
<trkpt lat="53.002638" lon="-3.214771"><ele>334</ele><time>2023-01-06T13:31:50Z</time><name>PT2972</name></trkpt>
<trkpt lat="53.002659" lon="-3.214726"><ele>334</ele><time>2023-01-06T13:31:54Z</time><name>PT2973</name></trkpt>
<trkpt lat="53.002691" lon="-3.214702"><ele>334</ele><time>2023-01-06T13:31:58Z</time><name>PT2974</name></trkpt>
<trkpt lat="53.002717" lon="-3.214691"><ele>332</ele><time>2023-01-06T13:32:02Z</time><name>PT2975</name></trkpt>
<trkpt lat="53.002730" lon="-3.214683"><ele>334</ele><time>2023-01-06T13:32:05Z</time><name>PT2976</name></trkpt>
<trkpt lat="53.002761" lon="-3.214662"><ele>335</ele><time>2023-01-06T13:32:09Z</time><name>PT2977</name></trkpt>
<trkpt lat="53.002784" lon="-3.214652"><ele>336</ele><time>2023-01-06T13:32:12Z</time><name>PT2978</name></trkpt>
<trkpt lat="53.002804" lon="-3.214644"><ele>335</ele><time>2023-01-06T13:32:16Z</time><name>PT2979</name></trkpt>
<trkpt lat="53.002821" lon="-3.214625"><ele>334</ele><time>2023-01-06T13:32:19Z</time><name>PT2980</name></trkpt>
<trkpt lat="53.002835" lon="-3.214595"><ele>335</ele><time>2023-01-06T13:32:22Z</time><name>PT2981</name></trkpt>
<trkpt lat="53.002856" lon="-3.214577"><ele>336</ele><time>2023-01-06T13:32:25Z</time><name>PT2982</name></trkpt>
<trkpt lat="53.002875" lon="-3.214567"><ele>340</ele><time>2023-01-06T13:32:29Z</time><name>PT2983</name></trkpt>
<trkpt lat="53.002904" lon="-3.214551"><ele>341</ele><time>2023-01-06T13:32:33Z</time><name>PT2984</name></trkpt>
<trkpt lat="53.002914" lon="-3.214546"><ele>341</ele><time>2023-01-06T13:32:37Z</time><name>PT2985</name></trkpt>
<trkpt lat="53.002923" lon="-3.214529"><ele>342</ele><time>2023-01-06T13:32:43Z</time><name>PT2986</name></trkpt>
<trkpt lat="53.002992" lon="-3.214521"><ele>343</ele><time>2023-01-06T13:32:46Z</time><name>PT2987</name></trkpt>
<trkpt lat="53.003025" lon="-3.214500"><ele>342</ele><time>2023-01-06T13:32:50Z</time><name>PT2988</name></trkpt>
<trkpt lat="53.003064" lon="-3.214470"><ele>344</ele><time>2023-01-06T13:32:54Z</time><name>PT2989</name></trkpt>
<trkpt lat="53.003087" lon="-3.214445"><ele>346</ele><time>2023-01-06T13:32:57Z</time><name>PT2990</name></trkpt>
<trkpt lat="53.003109" lon="-3.214426"><ele>347</ele><time>2023-01-06T13:33:00Z</time><name>PT2991</name></trkpt>
<trkpt lat="53.003130" lon="-3.214404"><ele>348</ele><time>2023-01-06T13:33:04Z</time><name>PT2992</name></trkpt>
<trkpt lat="53.003162" lon="-3.214374"><ele>349</ele><time>2023-01-06T13:33:08Z</time><name>PT2993</name></trkpt>
<trkpt lat="53.003189" lon="-3.214371"><ele>350</ele><time>2023-01-06T13:33:11Z</time><name>PT2994</name></trkpt>
<trkpt lat="53.003211" lon="-3.214344"><ele>351</ele><time>2023-01-06T13:33:15Z</time><name>PT2995</name></trkpt>
<trkpt lat="53.003228" lon="-3.214326"><ele>351</ele><time>2023-01-06T13:33:18Z</time><name>PT2996</name></trkpt>
<trkpt lat="53.003249" lon="-3.214301"><ele>350</ele><time>2023-01-06T13:33:22Z</time><name>PT2997</name></trkpt>
<trkpt lat="53.003270" lon="-3.214283"><ele>351</ele><time>2023-01-06T13:33:25Z</time><name>PT2998</name></trkpt>
<trkpt lat="53.003292" lon="-3.214240"><ele>351</ele><time>2023-01-06T13:33:29Z</time><name>PT2999</name></trkpt>
<trkpt lat="53.003319" lon="-3.214225"><ele>351</ele><time>2023-01-06T13:33:32Z</time><name>PT3000</name></trkpt>
<trkpt lat="53.003337" lon="-3.214204"><ele>352</ele><time>2023-01-06T13:33:36Z</time><name>PT3001</name></trkpt>
<trkpt lat="53.003361" lon="-3.214179"><ele>351</ele><time>2023-01-06T13:33:40Z</time><name>PT3002</name></trkpt>
<trkpt lat="53.003392" lon="-3.214169"><ele>350</ele><time>2023-01-06T13:33:44Z</time><name>PT3003</name></trkpt>
<trkpt lat="53.003417" lon="-3.214150"><ele>350</ele><time>2023-01-06T13:33:48Z</time><name>PT3004</name></trkpt>
<trkpt lat="53.003434" lon="-3.214130"><ele>352</ele><time>2023-01-06T13:33:51Z</time><name>PT3005</name></trkpt>
<trkpt lat="53.003450" lon="-3.214122"><ele>352</ele><time>2023-01-06T13:33:54Z</time><name>PT3006</name></trkpt>
<trkpt lat="53.003477" lon="-3.214100"><ele>353</ele><time>2023-01-06T13:33:58Z</time><name>PT3007</name></trkpt>
<trkpt lat="53.003497" lon="-3.214077"><ele>354</ele><time>2023-01-06T13:34:01Z</time><name>PT3008</name></trkpt>
<trkpt lat="53.003527" lon="-3.214068"><ele>355</ele><time>2023-01-06T13:34:05Z</time><name>PT3009</name></trkpt>
<trkpt lat="53.003555" lon="-3.214056"><ele>357</ele><time>2023-01-06T13:34:08Z</time><name>PT3010</name></trkpt>
<trkpt lat="53.003585" lon="-3.214048"><ele>357</ele><time>2023-01-06T13:34:12Z</time><name>PT3011</name></trkpt>
<trkpt lat="53.003603" lon="-3.214047"><ele>357</ele><time>2023-01-06T13:34:15Z</time><name>PT3012</name></trkpt>
<trkpt lat="53.003625" lon="-3.214027"><ele>357</ele><time>2023-01-06T13:34:19Z</time><name>PT3013</name></trkpt>
<trkpt lat="53.003642" lon="-3.214023"><ele>357</ele><time>2023-01-06T13:34:22Z</time><name>PT3014</name></trkpt>
<trkpt lat="53.003661" lon="-3.214001"><ele>358</ele><time>2023-01-06T13:34:26Z</time><name>PT3015</name></trkpt>
<trkpt lat="53.003685" lon="-3.213983"><ele>359</ele><time>2023-01-06T13:34:30Z</time><name>PT3016</name></trkpt>
<trkpt lat="53.003702" lon="-3.213972"><ele>363</ele><time>2023-01-06T13:34:33Z</time><name>PT3017</name></trkpt>
<trkpt lat="53.003705" lon="-3.213979"><ele>364</ele><time>2023-01-06T13:34:36Z</time><name>PT3018</name></trkpt>
<trkpt lat="53.003715" lon="-3.213960"><ele>365</ele><time>2023-01-06T13:34:39Z</time><name>PT3019</name></trkpt>
<trkpt lat="53.003733" lon="-3.213944"><ele>366</ele><time>2023-01-06T13:34:43Z</time><name>PT3020</name></trkpt>
<trkpt lat="53.003760" lon="-3.213937"><ele>367</ele><time>2023-01-06T13:34:47Z</time><name>PT3021</name></trkpt>
<trkpt lat="53.003780" lon="-3.213922"><ele>368</ele><time>2023-01-06T13:34:50Z</time><name>PT3022</name></trkpt>
<trkpt lat="53.003800" lon="-3.213917"><ele>368</ele><time>2023-01-06T13:34:53Z</time><name>PT3023</name></trkpt>
<trkpt lat="53.003820" lon="-3.213909"><ele>369</ele><time>2023-01-06T13:34:56Z</time><name>PT3024</name></trkpt>
<trkpt lat="53.003839" lon="-3.213890"><ele>370</ele><time>2023-01-06T13:34:59Z</time><name>PT3025</name></trkpt>
<trkpt lat="53.003856" lon="-3.213874"><ele>370</ele><time>2023-01-06T13:35:02Z</time><name>PT3026</name></trkpt>
<trkpt lat="53.003879" lon="-3.213861"><ele>371</ele><time>2023-01-06T13:35:06Z</time><name>PT3027</name></trkpt>
<trkpt lat="53.003896" lon="-3.213845"><ele>371</ele><time>2023-01-06T13:35:10Z</time><name>PT3028</name></trkpt>
<trkpt lat="53.003913" lon="-3.213841"><ele>372</ele><time>2023-01-06T13:35:14Z</time><name>PT3029</name></trkpt>
<trkpt lat="53.003928" lon="-3.213834"><ele>372</ele><time>2023-01-06T13:35:17Z</time><name>PT3030</name></trkpt>
<trkpt lat="53.003957" lon="-3.213793"><ele>372</ele><time>2023-01-06T13:35:21Z</time><name>PT3031</name></trkpt>
<trkpt lat="53.003983" lon="-3.213754"><ele>372</ele><time>2023-01-06T13:35:25Z</time><name>PT3032</name></trkpt>
<trkpt lat="53.004004" lon="-3.213723"><ele>372</ele><time>2023-01-06T13:35:28Z</time><name>PT3033</name></trkpt>
<trkpt lat="53.004024" lon="-3.213691"><ele>372</ele><time>2023-01-06T13:35:31Z</time><name>PT3034</name></trkpt>
<trkpt lat="53.004051" lon="-3.213648"><ele>372</ele><time>2023-01-06T13:35:35Z</time><name>PT3035</name></trkpt>
<trkpt lat="53.004084" lon="-3.213625"><ele>372</ele><time>2023-01-06T13:35:39Z</time><name>PT3036</name></trkpt>
<trkpt lat="53.004108" lon="-3.213620"><ele>373</ele><time>2023-01-06T13:35:42Z</time><name>PT3037</name></trkpt>
<trkpt lat="53.004141" lon="-3.213609"><ele>373</ele><time>2023-01-06T13:35:46Z</time><name>PT3038</name></trkpt>
<trkpt lat="53.004173" lon="-3.213591"><ele>374</ele><time>2023-01-06T13:35:50Z</time><name>PT3039</name></trkpt>
<trkpt lat="53.004201" lon="-3.213570"><ele>375</ele><time>2023-01-06T13:35:54Z</time><name>PT3040</name></trkpt>
<trkpt lat="53.004229" lon="-3.213556"><ele>375</ele><time>2023-01-06T13:35:58Z</time><name>PT3041</name></trkpt>
<trkpt lat="53.004263" lon="-3.213546"><ele>376</ele><time>2023-01-06T13:36:02Z</time><name>PT3042</name></trkpt>
<trkpt lat="53.004285" lon="-3.213527"><ele>377</ele><time>2023-01-06T13:36:06Z</time><name>PT3043</name></trkpt>
<trkpt lat="53.004302" lon="-3.213508"><ele>376</ele><time>2023-01-06T13:36:09Z</time><name>PT3044</name></trkpt>
<trkpt lat="53.004320" lon="-3.213485"><ele>376</ele><time>2023-01-06T13:36:12Z</time><name>PT3045</name></trkpt>
<trkpt lat="53.004342" lon="-3.213475"><ele>376</ele><time>2023-01-06T13:36:15Z</time><name>PT3046</name></trkpt>
<trkpt lat="53.004364" lon="-3.213476"><ele>377</ele><time>2023-01-06T13:36:18Z</time><name>PT3047</name></trkpt>
<trkpt lat="53.004393" lon="-3.213506"><ele>378</ele><time>2023-01-06T13:36:22Z</time><name>PT3048</name></trkpt>
<trkpt lat="53.004414" lon="-3.213525"><ele>379</ele><time>2023-01-06T13:36:25Z</time><name>PT3049</name></trkpt>
<trkpt lat="53.004443" lon="-3.213554"><ele>380</ele><time>2023-01-06T13:36:29Z</time><name>PT3050</name></trkpt>
<trkpt lat="53.004466" lon="-3.213574"><ele>380</ele><time>2023-01-06T13:36:32Z</time><name>PT3051</name></trkpt>
<trkpt lat="53.004498" lon="-3.213594"><ele>381</ele><time>2023-01-06T13:36:36Z</time><name>PT3052</name></trkpt>
<trkpt lat="53.004522" lon="-3.213606"><ele>381</ele><time>2023-01-06T13:36:39Z</time><name>PT3053</name></trkpt>
<trkpt lat="53.004544" lon="-3.213623"><ele>382</ele><time>2023-01-06T13:36:42Z</time><name>PT3054</name></trkpt>
<trkpt lat="53.004567" lon="-3.213641"><ele>382</ele><time>2023-01-06T13:36:45Z</time><name>PT3055</name></trkpt>
<trkpt lat="53.004589" lon="-3.213664"><ele>383</ele><time>2023-01-06T13:36:48Z</time><name>PT3056</name></trkpt>
<trkpt lat="53.004616" lon="-3.213694"><ele>384</ele><time>2023-01-06T13:36:52Z</time><name>PT3057</name></trkpt>
<trkpt lat="53.004645" lon="-3.213722"><ele>385</ele><time>2023-01-06T13:36:56Z</time><name>PT3058</name></trkpt>
<trkpt lat="53.004675" lon="-3.213750"><ele>385</ele><time>2023-01-06T13:37:00Z</time><name>PT3059</name></trkpt>
<trkpt lat="53.004699" lon="-3.213771"><ele>386</ele><time>2023-01-06T13:37:03Z</time><name>PT3060</name></trkpt>
<trkpt lat="53.004730" lon="-3.213801"><ele>387</ele><time>2023-01-06T13:37:07Z</time><name>PT3061</name></trkpt>
<trkpt lat="53.004754" lon="-3.213826"><ele>387</ele><time>2023-01-06T13:37:10Z</time><name>PT3062</name></trkpt>
<trkpt lat="53.004785" lon="-3.213860"><ele>388</ele><time>2023-01-06T13:37:14Z</time><name>PT3063</name></trkpt>
<trkpt lat="53.004807" lon="-3.213880"><ele>388</ele><time>2023-01-06T13:37:17Z</time><name>PT3064</name></trkpt>
<trkpt lat="53.004838" lon="-3.213902"><ele>389</ele><time>2023-01-06T13:37:21Z</time><name>PT3065</name></trkpt>
<trkpt lat="53.004866" lon="-3.213923"><ele>389</ele><time>2023-01-06T13:37:25Z</time><name>PT3066</name></trkpt>
<trkpt lat="53.004888" lon="-3.213939"><ele>390</ele><time>2023-01-06T13:37:28Z</time><name>PT3067</name></trkpt>
<trkpt lat="53.004912" lon="-3.213973"><ele>391</ele><time>2023-01-06T13:37:32Z</time><name>PT3068</name></trkpt>
<trkpt lat="53.004909" lon="-3.213969"><ele>391</ele><time>2023-01-06T13:37:36Z</time><name>PT3069</name></trkpt>
<trkpt lat="53.004917" lon="-3.214000"><ele>391</ele><time>2023-01-06T13:37:40Z</time><name>PT3070</name></trkpt>
<trkpt lat="53.004923" lon="-3.214036"><ele>391</ele><time>2023-01-06T13:37:44Z</time><name>PT3071</name></trkpt>
<trkpt lat="53.004927" lon="-3.214075"><ele>391</ele><time>2023-01-06T13:37:47Z</time><name>PT3072</name></trkpt>
<trkpt lat="53.004928" lon="-3.214148"><ele>391</ele><time>2023-01-06T13:37:51Z</time><name>PT3073</name></trkpt>
<trkpt lat="53.004924" lon="-3.214185"><ele>391</ele><time>2023-01-06T13:37:54Z</time><name>PT3074</name></trkpt>
<trkpt lat="53.004926" lon="-3.214247"><ele>391</ele><time>2023-01-06T13:37:58Z</time><name>PT3075</name></trkpt>
<trkpt lat="53.004930" lon="-3.214293"><ele>390</ele><time>2023-01-06T13:38:01Z</time><name>PT3076</name></trkpt>
<trkpt lat="53.004928" lon="-3.214358"><ele>390</ele><time>2023-01-06T13:38:05Z</time><name>PT3077</name></trkpt>
<trkpt lat="53.004930" lon="-3.214426"><ele>389</ele><time>2023-01-06T13:38:09Z</time><name>PT3078</name></trkpt>
<trkpt lat="53.004929" lon="-3.214473"><ele>389</ele><time>2023-01-06T13:38:12Z</time><name>PT3079</name></trkpt>
<trkpt lat="53.004928" lon="-3.214521"><ele>389</ele><time>2023-01-06T13:38:15Z</time><name>PT3080</name></trkpt>
<trkpt lat="53.004929" lon="-3.214570"><ele>389</ele><time>2023-01-06T13:38:18Z</time><name>PT3081</name></trkpt>
<trkpt lat="53.004923" lon="-3.214622"><ele>389</ele><time>2023-01-06T13:38:21Z</time><name>PT3082</name></trkpt>
<trkpt lat="53.004919" lon="-3.214681"><ele>389</ele><time>2023-01-06T13:38:24Z</time><name>PT3083</name></trkpt>
<trkpt lat="53.004918" lon="-3.214734"><ele>389</ele><time>2023-01-06T13:38:28Z</time><name>PT3084</name></trkpt>
<trkpt lat="53.004927" lon="-3.214797"><ele>389</ele><time>2023-01-06T13:38:32Z</time><name>PT3085</name></trkpt>
<trkpt lat="53.004933" lon="-3.214861"><ele>389</ele><time>2023-01-06T13:38:36Z</time><name>PT3086</name></trkpt>
<trkpt lat="53.004939" lon="-3.214912"><ele>390</ele><time>2023-01-06T13:38:39Z</time><name>PT3087</name></trkpt>
<trkpt lat="53.004944" lon="-3.214978"><ele>390</ele><time>2023-01-06T13:38:43Z</time><name>PT3088</name></trkpt>
<trkpt lat="53.004950" lon="-3.215021"><ele>390</ele><time>2023-01-06T13:38:46Z</time><name>PT3089</name></trkpt>
<trkpt lat="53.004947" lon="-3.215084"><ele>390</ele><time>2023-01-06T13:38:50Z</time><name>PT3090</name></trkpt>
<trkpt lat="53.004938" lon="-3.215143"><ele>390</ele><time>2023-01-06T13:38:54Z</time><name>PT3091</name></trkpt>
<trkpt lat="53.004935" lon="-3.215195"><ele>390</ele><time>2023-01-06T13:38:57Z</time><name>PT3092</name></trkpt>
<trkpt lat="53.004936" lon="-3.215265"><ele>389</ele><time>2023-01-06T13:39:01Z</time><name>PT3093</name></trkpt>
<trkpt lat="53.004939" lon="-3.215332"><ele>390</ele><time>2023-01-06T13:39:04Z</time><name>PT3094</name></trkpt>
<trkpt lat="53.004936" lon="-3.215429"><ele>390</ele><time>2023-01-06T13:39:08Z</time><name>PT3095</name></trkpt>
<trkpt lat="53.004941" lon="-3.215503"><ele>391</ele><time>2023-01-06T13:39:12Z</time><name>PT3096</name></trkpt>
<trkpt lat="53.004944" lon="-3.215559"><ele>391</ele><time>2023-01-06T13:39:15Z</time><name>PT3097</name></trkpt>
<trkpt lat="53.004947" lon="-3.215625"><ele>392</ele><time>2023-01-06T13:39:19Z</time><name>PT3098</name></trkpt>
<trkpt lat="53.004947" lon="-3.215678"><ele>392</ele><time>2023-01-06T13:39:22Z</time><name>PT3099</name></trkpt>
<trkpt lat="53.004953" lon="-3.215727"><ele>393</ele><time>2023-01-06T13:39:25Z</time><name>PT3100</name></trkpt>
<trkpt lat="53.004961" lon="-3.215809"><ele>393</ele><time>2023-01-06T13:39:29Z</time><name>PT3101</name></trkpt>
<trkpt lat="53.004970" lon="-3.215880"><ele>393</ele><time>2023-01-06T13:39:33Z</time><name>PT3102</name></trkpt>
<trkpt lat="53.004980" lon="-3.215930"><ele>394</ele><time>2023-01-06T13:39:36Z</time><name>PT3103</name></trkpt>
<trkpt lat="53.004992" lon="-3.216002"><ele>395</ele><time>2023-01-06T13:39:40Z</time><name>PT3104</name></trkpt>
<trkpt lat="53.005004" lon="-3.216063"><ele>396</ele><time>2023-01-06T13:39:43Z</time><name>PT3105</name></trkpt>
<trkpt lat="53.005019" lon="-3.216119"><ele>396</ele><time>2023-01-06T13:39:47Z</time><name>PT3106</name></trkpt>
<trkpt lat="53.005039" lon="-3.216179"><ele>397</ele><time>2023-01-06T13:39:51Z</time><name>PT3107</name></trkpt>
<trkpt lat="53.005057" lon="-3.216218"><ele>397</ele><time>2023-01-06T13:39:54Z</time><name>PT3108</name></trkpt>
<trkpt lat="53.005088" lon="-3.216260"><ele>397</ele><time>2023-01-06T13:39:58Z</time><name>PT3109</name></trkpt>
<trkpt lat="53.005110" lon="-3.216288"><ele>398</ele><time>2023-01-06T13:40:01Z</time><name>PT3110</name></trkpt>
<trkpt lat="53.005132" lon="-3.216325"><ele>398</ele><time>2023-01-06T13:40:04Z</time><name>PT3111</name></trkpt>
<trkpt lat="53.005152" lon="-3.216355"><ele>398</ele><time>2023-01-06T13:40:07Z</time><name>PT3112</name></trkpt>
<trkpt lat="53.005164" lon="-3.216365"><ele>398</ele><time>2023-01-06T13:40:11Z</time><name>PT3113</name></trkpt>
<trkpt lat="53.005166" lon="-3.216368"><ele>398</ele><time>2023-01-06T13:40:14Z</time><name>PT3114</name></trkpt>
<trkpt lat="53.005165" lon="-3.216370"><ele>398</ele><time>2023-01-06T13:40:17Z</time><name>PT3115</name></trkpt>
<trkpt lat="53.005168" lon="-3.216369"><ele>398</ele><time>2023-01-06T13:40:44Z</time><name>PT3116</name></trkpt>
<trkpt lat="53.005178" lon="-3.216388"><ele>398</ele><time>2023-01-06T13:40:52Z</time><name>PT3117</name></trkpt>
<trkpt lat="53.005208" lon="-3.216422"><ele>398</ele><time>2023-01-06T13:40:56Z</time><name>PT3118</name></trkpt>
<trkpt lat="53.005234" lon="-3.216461"><ele>398</ele><time>2023-01-06T13:40:59Z</time><name>PT3119</name></trkpt>
<trkpt lat="53.005259" lon="-3.216503"><ele>398</ele><time>2023-01-06T13:41:02Z</time><name>PT3120</name></trkpt>
<trkpt lat="53.005285" lon="-3.216541"><ele>398</ele><time>2023-01-06T13:41:05Z</time><name>PT3121</name></trkpt>
<trkpt lat="53.005323" lon="-3.216584"><ele>397</ele><time>2023-01-06T13:41:09Z</time><name>PT3122</name></trkpt>
<trkpt lat="53.005350" lon="-3.216618"><ele>397</ele><time>2023-01-06T13:41:12Z</time><name>PT3123</name></trkpt>
<trkpt lat="53.005378" lon="-3.216652"><ele>397</ele><time>2023-01-06T13:41:15Z</time><name>PT3124</name></trkpt>
<trkpt lat="53.005409" lon="-3.216689"><ele>397</ele><time>2023-01-06T13:41:18Z</time><name>PT3125</name></trkpt>
<trkpt lat="53.005447" lon="-3.216740"><ele>397</ele><time>2023-01-06T13:41:22Z</time><name>PT3126</name></trkpt>
<trkpt lat="53.005482" lon="-3.216795"><ele>396</ele><time>2023-01-06T13:41:26Z</time><name>PT3127</name></trkpt>
<trkpt lat="53.005516" lon="-3.216845"><ele>395</ele><time>2023-01-06T13:41:30Z</time><name>PT3128</name></trkpt>
<trkpt lat="53.005540" lon="-3.216885"><ele>395</ele><time>2023-01-06T13:41:33Z</time><name>PT3129</name></trkpt>
<trkpt lat="53.005568" lon="-3.216917"><ele>395</ele><time>2023-01-06T13:41:36Z</time><name>PT3130</name></trkpt>
<trkpt lat="53.005590" lon="-3.216944"><ele>395</ele><time>2023-01-06T13:41:39Z</time><name>PT3131</name></trkpt>
<trkpt lat="53.005628" lon="-3.216973"><ele>396</ele><time>2023-01-06T13:41:43Z</time><name>PT3132</name></trkpt>
<trkpt lat="53.005668" lon="-3.217017"><ele>396</ele><time>2023-01-06T13:41:47Z</time><name>PT3133</name></trkpt>
<trkpt lat="53.005697" lon="-3.217043"><ele>396</ele><time>2023-01-06T13:41:50Z</time><name>PT3134</name></trkpt>
<trkpt lat="53.005728" lon="-3.217068"><ele>396</ele><time>2023-01-06T13:41:53Z</time><name>PT3135</name></trkpt>
<trkpt lat="53.005755" lon="-3.217092"><ele>396</ele><time>2023-01-06T13:41:56Z</time><name>PT3136</name></trkpt>
<trkpt lat="53.005796" lon="-3.217120"><ele>395</ele><time>2023-01-06T13:42:00Z</time><name>PT3137</name></trkpt>
<trkpt lat="53.005833" lon="-3.217153"><ele>395</ele><time>2023-01-06T13:42:04Z</time><name>PT3138</name></trkpt>
<trkpt lat="53.005872" lon="-3.217198"><ele>396</ele><time>2023-01-06T13:42:08Z</time><name>PT3139</name></trkpt>
<trkpt lat="53.005912" lon="-3.217221"><ele>396</ele><time>2023-01-06T13:42:12Z</time><name>PT3140</name></trkpt>
<trkpt lat="53.005951" lon="-3.217250"><ele>396</ele><time>2023-01-06T13:42:16Z</time><name>PT3141</name></trkpt>
<trkpt lat="53.005980" lon="-3.217280"><ele>396</ele><time>2023-01-06T13:42:19Z</time><name>PT3142</name></trkpt>
<trkpt lat="53.006007" lon="-3.217300"><ele>396</ele><time>2023-01-06T13:42:22Z</time><name>PT3143</name></trkpt>
<trkpt lat="53.006031" lon="-3.217323"><ele>396</ele><time>2023-01-06T13:42:25Z</time><name>PT3144</name></trkpt>
<trkpt lat="53.006068" lon="-3.217358"><ele>396</ele><time>2023-01-06T13:42:29Z</time><name>PT3145</name></trkpt>
<trkpt lat="53.006103" lon="-3.217388"><ele>397</ele><time>2023-01-06T13:42:33Z</time><name>PT3146</name></trkpt>
<trkpt lat="53.006126" lon="-3.217413"><ele>398</ele><time>2023-01-06T13:42:36Z</time><name>PT3147</name></trkpt>
<trkpt lat="53.006150" lon="-3.217439"><ele>399</ele><time>2023-01-06T13:42:39Z</time><name>PT3148</name></trkpt>
<trkpt lat="53.006182" lon="-3.217473"><ele>399</ele><time>2023-01-06T13:42:43Z</time><name>PT3149</name></trkpt>
<trkpt lat="53.006207" lon="-3.217498"><ele>399</ele><time>2023-01-06T13:42:46Z</time><name>PT3150</name></trkpt>
<trkpt lat="53.006231" lon="-3.217521"><ele>400</ele><time>2023-01-06T13:42:49Z</time><name>PT3151</name></trkpt>
<trkpt lat="53.006254" lon="-3.217545"><ele>400</ele><time>2023-01-06T13:42:52Z</time><name>PT3152</name></trkpt>
<trkpt lat="53.006284" lon="-3.217579"><ele>401</ele><time>2023-01-06T13:42:56Z</time><name>PT3153</name></trkpt>
<trkpt lat="53.006312" lon="-3.217611"><ele>401</ele><time>2023-01-06T13:43:00Z</time><name>PT3154</name></trkpt>
<trkpt lat="53.006331" lon="-3.217639"><ele>401</ele><time>2023-01-06T13:43:03Z</time><name>PT3155</name></trkpt>
<trkpt lat="53.006359" lon="-3.217686"><ele>402</ele><time>2023-01-06T13:43:07Z</time><name>PT3156</name></trkpt>
<trkpt lat="53.006380" lon="-3.217719"><ele>402</ele><time>2023-01-06T13:43:10Z</time><name>PT3157</name></trkpt>
<trkpt lat="53.006404" lon="-3.217753"><ele>403</ele><time>2023-01-06T13:43:13Z</time><name>PT3158</name></trkpt>
<trkpt lat="53.006428" lon="-3.217782"><ele>403</ele><time>2023-01-06T13:43:16Z</time><name>PT3159</name></trkpt>
<trkpt lat="53.006459" lon="-3.217827"><ele>404</ele><time>2023-01-06T13:43:20Z</time><name>PT3160</name></trkpt>
<trkpt lat="53.006485" lon="-3.217866"><ele>404</ele><time>2023-01-06T13:43:24Z</time><name>PT3161</name></trkpt>
<trkpt lat="53.006517" lon="-3.217906"><ele>404</ele><time>2023-01-06T13:43:28Z</time><name>PT3162</name></trkpt>
<trkpt lat="53.006548" lon="-3.217935"><ele>405</ele><time>2023-01-06T13:43:32Z</time><name>PT3163</name></trkpt>
<trkpt lat="53.006569" lon="-3.217962"><ele>405</ele><time>2023-01-06T13:43:35Z</time><name>PT3164</name></trkpt>
<trkpt lat="53.006598" lon="-3.218000"><ele>406</ele><time>2023-01-06T13:43:39Z</time><name>PT3165</name></trkpt>
<trkpt lat="53.006631" lon="-3.218042"><ele>407</ele><time>2023-01-06T13:43:43Z</time><name>PT3166</name></trkpt>
<trkpt lat="53.006653" lon="-3.218073"><ele>407</ele><time>2023-01-06T13:43:46Z</time><name>PT3167</name></trkpt>
<trkpt lat="53.006674" lon="-3.218101"><ele>407</ele><time>2023-01-06T13:43:49Z</time><name>PT3168</name></trkpt>
<trkpt lat="53.006697" lon="-3.218130"><ele>407</ele><time>2023-01-06T13:43:52Z</time><name>PT3169</name></trkpt>
<trkpt lat="53.006719" lon="-3.218167"><ele>408</ele><time>2023-01-06T13:43:55Z</time><name>PT3170</name></trkpt>
<trkpt lat="53.006745" lon="-3.218204"><ele>409</ele><time>2023-01-06T13:43:59Z</time><name>PT3171</name></trkpt>
<trkpt lat="53.006767" lon="-3.218233"><ele>410</ele><time>2023-01-06T13:44:02Z</time><name>PT3172</name></trkpt>
<trkpt lat="53.006799" lon="-3.218267"><ele>410</ele><time>2023-01-06T13:44:06Z</time><name>PT3173</name></trkpt>
<trkpt lat="53.006825" lon="-3.218306"><ele>411</ele><time>2023-01-06T13:44:10Z</time><name>PT3174</name></trkpt>
<trkpt lat="53.006846" lon="-3.218345"><ele>412</ele><time>2023-01-06T13:44:14Z</time><name>PT3175</name></trkpt>
<trkpt lat="53.006873" lon="-3.218384"><ele>413</ele><time>2023-01-06T13:44:18Z</time><name>PT3176</name></trkpt>
<trkpt lat="53.006898" lon="-3.218423"><ele>414</ele><time>2023-01-06T13:44:22Z</time><name>PT3177</name></trkpt>
<trkpt lat="53.006912" lon="-3.218445"><ele>415</ele><time>2023-01-06T13:44:25Z</time><name>PT3178</name></trkpt>
<trkpt lat="53.006934" lon="-3.218483"><ele>416</ele><time>2023-01-06T13:44:29Z</time><name>PT3179</name></trkpt>
<trkpt lat="53.006950" lon="-3.218514"><ele>416</ele><time>2023-01-06T13:44:32Z</time><name>PT3180</name></trkpt>
<trkpt lat="53.006966" lon="-3.218545"><ele>416</ele><time>2023-01-06T13:44:35Z</time><name>PT3181</name></trkpt>
<trkpt lat="53.006988" lon="-3.218586"><ele>417</ele><time>2023-01-06T13:44:39Z</time><name>PT3182</name></trkpt>
<trkpt lat="53.007003" lon="-3.218612"><ele>418</ele><time>2023-01-06T13:44:42Z</time><name>PT3183</name></trkpt>
<trkpt lat="53.007025" lon="-3.218653"><ele>419</ele><time>2023-01-06T13:44:46Z</time><name>PT3184</name></trkpt>
<trkpt lat="53.007043" lon="-3.218685"><ele>420</ele><time>2023-01-06T13:44:50Z</time><name>PT3185</name></trkpt>
<trkpt lat="53.007064" lon="-3.218724"><ele>421</ele><time>2023-01-06T13:44:54Z</time><name>PT3186</name></trkpt>
<trkpt lat="53.007081" lon="-3.218745"><ele>421</ele><time>2023-01-06T13:44:57Z</time><name>PT3187</name></trkpt>
<trkpt lat="53.007104" lon="-3.218769"><ele>422</ele><time>2023-01-06T13:45:01Z</time><name>PT3188</name></trkpt>
<trkpt lat="53.007113" lon="-3.218788"><ele>422</ele><time>2023-01-06T13:45:04Z</time><name>PT3189</name></trkpt>
<trkpt lat="53.007114" lon="-3.218827"><ele>423</ele><time>2023-01-06T13:45:07Z</time><name>PT3190</name></trkpt>
<trkpt lat="53.007122" lon="-3.218867"><ele>424</ele><time>2023-01-06T13:45:10Z</time><name>PT3191</name></trkpt>
<trkpt lat="53.007133" lon="-3.218915"><ele>425</ele><time>2023-01-06T13:45:14Z</time><name>PT3192</name></trkpt>
<trkpt lat="53.007145" lon="-3.218966"><ele>426</ele><time>2023-01-06T13:45:18Z</time><name>PT3193</name></trkpt>
<trkpt lat="53.007152" lon="-3.219007"><ele>427</ele><time>2023-01-06T13:45:21Z</time><name>PT3194</name></trkpt>
<trkpt lat="53.007163" lon="-3.219068"><ele>427</ele><time>2023-01-06T13:45:25Z</time><name>PT3195</name></trkpt>
<trkpt lat="53.007177" lon="-3.219106"><ele>428</ele><time>2023-01-06T13:45:28Z</time><name>PT3196</name></trkpt>
<trkpt lat="53.007195" lon="-3.219159"><ele>429</ele><time>2023-01-06T13:45:32Z</time><name>PT3197</name></trkpt>
<trkpt lat="53.007206" lon="-3.219217"><ele>430</ele><time>2023-01-06T13:45:36Z</time><name>PT3198</name></trkpt>
<trkpt lat="53.007224" lon="-3.219273"><ele>430</ele><time>2023-01-06T13:45:40Z</time><name>PT3199</name></trkpt>
<trkpt lat="53.007237" lon="-3.219306"><ele>431</ele><time>2023-01-06T13:45:43Z</time><name>PT3200</name></trkpt>
<trkpt lat="53.007253" lon="-3.219345"><ele>431</ele><time>2023-01-06T13:45:47Z</time><name>PT3201</name></trkpt>
<trkpt lat="53.007267" lon="-3.219381"><ele>432</ele><time>2023-01-06T13:45:50Z</time><name>PT3202</name></trkpt>
<trkpt lat="53.007286" lon="-3.219428"><ele>432</ele><time>2023-01-06T13:45:54Z</time><name>PT3203</name></trkpt>
<trkpt lat="53.007300" lon="-3.219468"><ele>432</ele><time>2023-01-06T13:45:57Z</time><name>PT3204</name></trkpt>
<trkpt lat="53.007310" lon="-3.219510"><ele>431</ele><time>2023-01-06T13:46:00Z</time><name>PT3205</name></trkpt>
<trkpt lat="53.007327" lon="-3.219566"><ele>431</ele><time>2023-01-06T13:46:04Z</time><name>PT3206</name></trkpt>
<trkpt lat="53.007343" lon="-3.219607"><ele>431</ele><time>2023-01-06T13:46:07Z</time><name>PT3207</name></trkpt>
<trkpt lat="53.007355" lon="-3.219649"><ele>430</ele><time>2023-01-06T13:46:10Z</time><name>PT3208</name></trkpt>
<trkpt lat="53.007369" lon="-3.219692"><ele>430</ele><time>2023-01-06T13:46:13Z</time><name>PT3209</name></trkpt>
<trkpt lat="53.007388" lon="-3.219749"><ele>429</ele><time>2023-01-06T13:46:17Z</time><name>PT3210</name></trkpt>
<trkpt lat="53.007427" lon="-3.219771"><ele>429</ele><time>2023-01-06T13:46:21Z</time><name>PT3211</name></trkpt>
<trkpt lat="53.007463" lon="-3.219808"><ele>429</ele><time>2023-01-06T13:46:25Z</time><name>PT3212</name></trkpt>
<trkpt lat="53.007476" lon="-3.219855"><ele>429</ele><time>2023-01-06T13:46:29Z</time><name>PT3213</name></trkpt>
<trkpt lat="53.007479" lon="-3.219900"><ele>429</ele><time>2023-01-06T13:46:32Z</time><name>PT3214</name></trkpt>
<trkpt lat="53.007480" lon="-3.219944"><ele>430</ele><time>2023-01-06T13:46:35Z</time><name>PT3215</name></trkpt>
<trkpt lat="53.007488" lon="-3.219999"><ele>430</ele><time>2023-01-06T13:46:39Z</time><name>PT3216</name></trkpt>
<trkpt lat="53.007497" lon="-3.220042"><ele>431</ele><time>2023-01-06T13:46:43Z</time><name>PT3217</name></trkpt>
<trkpt lat="53.007504" lon="-3.220089"><ele>431</ele><time>2023-01-06T13:46:47Z</time><name>PT3218</name></trkpt>
<trkpt lat="53.007505" lon="-3.220127"><ele>432</ele><time>2023-01-06T13:46:50Z</time><name>PT3219</name></trkpt>
<trkpt lat="53.007510" lon="-3.220178"><ele>432</ele><time>2023-01-06T13:46:54Z</time><name>PT3220</name></trkpt>
<trkpt lat="53.007511" lon="-3.220212"><ele>432</ele><time>2023-01-06T13:46:57Z</time><name>PT3221</name></trkpt>
<trkpt lat="53.007515" lon="-3.220251"><ele>432</ele><time>2023-01-06T13:47:00Z</time><name>PT3222</name></trkpt>
<trkpt lat="53.007519" lon="-3.220293"><ele>433</ele><time>2023-01-06T13:47:03Z</time><name>PT3223</name></trkpt>
<trkpt lat="53.007527" lon="-3.220345"><ele>433</ele><time>2023-01-06T13:47:07Z</time><name>PT3224</name></trkpt>
<trkpt lat="53.007533" lon="-3.220388"><ele>433</ele><time>2023-01-06T13:47:10Z</time><name>PT3225</name></trkpt>
<trkpt lat="53.007549" lon="-3.220431"><ele>434</ele><time>2023-01-06T13:47:14Z</time><name>PT3226</name></trkpt>
<trkpt lat="53.007562" lon="-3.220469"><ele>434</ele><time>2023-01-06T13:47:17Z</time><name>PT3227</name></trkpt>
<trkpt lat="53.007577" lon="-3.220496"><ele>435</ele><time>2023-01-06T13:47:20Z</time><name>PT3228</name></trkpt>
<trkpt lat="53.007589" lon="-3.220533"><ele>435</ele><time>2023-01-06T13:47:23Z</time><name>PT3229</name></trkpt>
<trkpt lat="53.007605" lon="-3.220583"><ele>435</ele><time>2023-01-06T13:47:27Z</time><name>PT3230</name></trkpt>
<trkpt lat="53.007621" lon="-3.220636"><ele>436</ele><time>2023-01-06T13:47:31Z</time><name>PT3231</name></trkpt>
<trkpt lat="53.007635" lon="-3.220676"><ele>436</ele><time>2023-01-06T13:47:34Z</time><name>PT3232</name></trkpt>
<trkpt lat="53.007653" lon="-3.220728"><ele>437</ele><time>2023-01-06T13:47:38Z</time><name>PT3233</name></trkpt>
<trkpt lat="53.007664" lon="-3.220773"><ele>437</ele><time>2023-01-06T13:47:42Z</time><name>PT3234</name></trkpt>
<trkpt lat="53.007669" lon="-3.220808"><ele>437</ele><time>2023-01-06T13:47:45Z</time><name>PT3235</name></trkpt>
<trkpt lat="53.007671" lon="-3.220828"><ele>438</ele><time>2023-01-06T13:47:49Z</time><name>PT3236</name></trkpt>
<trkpt lat="53.007671" lon="-3.220831"><ele>438</ele><time>2023-01-06T13:47:52Z</time><name>PT3237</name></trkpt>
<trkpt lat="53.007679" lon="-3.220839"><ele>437</ele><time>2023-01-06T13:48:22Z</time><name>PT3238</name></trkpt>
<trkpt lat="53.007688" lon="-3.220843"><ele>437</ele><time>2023-01-06T13:48:26Z</time><name>PT3239</name></trkpt>
<trkpt lat="53.007690" lon="-3.220850"><ele>437</ele><time>2023-01-06T13:48:32Z</time><name>PT3240</name></trkpt>
<trkpt lat="53.007693" lon="-3.220910"><ele>438</ele><time>2023-01-06T13:48:35Z</time><name>PT3241</name></trkpt>
<trkpt lat="53.007696" lon="-3.220956"><ele>438</ele><time>2023-01-06T13:48:38Z</time><name>PT3242</name></trkpt>
<trkpt lat="53.007695" lon="-3.221015"><ele>441</ele><time>2023-01-06T13:48:42Z</time><name>PT3243</name></trkpt>
<trkpt lat="53.007710" lon="-3.221080"><ele>442</ele><time>2023-01-06T13:48:46Z</time><name>PT3244</name></trkpt>
<trkpt lat="53.007724" lon="-3.221136"><ele>442</ele><time>2023-01-06T13:48:50Z</time><name>PT3245</name></trkpt>
<trkpt lat="53.007728" lon="-3.221183"><ele>443</ele><time>2023-01-06T13:48:53Z</time><name>PT3246</name></trkpt>
<trkpt lat="53.007732" lon="-3.221223"><ele>443</ele><time>2023-01-06T13:48:56Z</time><name>PT3247</name></trkpt>
<trkpt lat="53.007747" lon="-3.221288"><ele>443</ele><time>2023-01-06T13:49:00Z</time><name>PT3248</name></trkpt>
<trkpt lat="53.007762" lon="-3.221352"><ele>444</ele><time>2023-01-06T13:49:04Z</time><name>PT3249</name></trkpt>
<trkpt lat="53.007759" lon="-3.221362"><ele>444</ele><time>2023-01-06T13:49:07Z</time><name>PT3250</name></trkpt>
<trkpt lat="53.007770" lon="-3.221397"><ele>444</ele><time>2023-01-06T13:49:10Z</time><name>PT3251</name></trkpt>
<trkpt lat="53.007779" lon="-3.221455"><ele>444</ele><time>2023-01-06T13:49:14Z</time><name>PT3252</name></trkpt>
<trkpt lat="53.007791" lon="-3.221520"><ele>445</ele><time>2023-01-06T13:49:18Z</time><name>PT3253</name></trkpt>
<trkpt lat="53.007804" lon="-3.221568"><ele>446</ele><time>2023-01-06T13:49:21Z</time><name>PT3254</name></trkpt>
<trkpt lat="53.007820" lon="-3.221619"><ele>447</ele><time>2023-01-06T13:49:25Z</time><name>PT3255</name></trkpt>
<trkpt lat="53.007833" lon="-3.221652"><ele>448</ele><time>2023-01-06T13:49:28Z</time><name>PT3256</name></trkpt>
<trkpt lat="53.007855" lon="-3.221666"><ele>448</ele><time>2023-01-06T13:49:31Z</time><name>PT3257</name></trkpt>
<trkpt lat="53.007885" lon="-3.221663"><ele>449</ele><time>2023-01-06T13:49:34Z</time><name>PT3258</name></trkpt>
<trkpt lat="53.007924" lon="-3.221650"><ele>449</ele><time>2023-01-06T13:49:38Z</time><name>PT3259</name></trkpt>
<trkpt lat="53.007963" lon="-3.221646"><ele>448</ele><time>2023-01-06T13:49:42Z</time><name>PT3260</name></trkpt>
<trkpt lat="53.007994" lon="-3.221638"><ele>448</ele><time>2023-01-06T13:49:45Z</time><name>PT3261</name></trkpt>
<trkpt lat="53.008034" lon="-3.221615"><ele>448</ele><time>2023-01-06T13:49:49Z</time><name>PT3262</name></trkpt>
<trkpt lat="53.008065" lon="-3.221605"><ele>448</ele><time>2023-01-06T13:49:52Z</time><name>PT3263</name></trkpt>
<trkpt lat="53.008085" lon="-3.221593"><ele>449</ele><time>2023-01-06T13:49:56Z</time><name>PT3264</name></trkpt>
<trkpt lat="53.008089" lon="-3.221591"><ele>449</ele><time>2023-01-06T13:49:59Z</time><name>PT3265</name></trkpt>
<trkpt lat="53.008107" lon="-3.221585"><ele>449</ele><time>2023-01-06T13:50:02Z</time><name>PT3266</name></trkpt>
<trkpt lat="53.008109" lon="-3.221584"><ele>449</ele><time>2023-01-06T13:50:06Z</time><name>PT3267</name></trkpt>
<trkpt lat="53.008119" lon="-3.221584"><ele>449</ele><time>2023-01-06T13:50:09Z</time><name>PT3268</name></trkpt>
<trkpt lat="53.008141" lon="-3.221572"><ele>449</ele><time>2023-01-06T13:50:12Z</time><name>PT3269</name></trkpt>
<trkpt lat="53.008147" lon="-3.221570"><ele>449</ele><time>2023-01-06T13:50:15Z</time><name>PT3270</name></trkpt>
<trkpt lat="53.008174" lon="-3.221569"><ele>449</ele><time>2023-01-06T13:50:18Z</time><name>PT3271</name></trkpt>
<trkpt lat="53.008202" lon="-3.221558"><ele>450</ele><time>2023-01-06T13:50:21Z</time><name>PT3272</name></trkpt>
<trkpt lat="53.008253" lon="-3.221553"><ele>450</ele><time>2023-01-06T13:50:25Z</time><name>PT3273</name></trkpt>
<trkpt lat="53.008296" lon="-3.221537"><ele>451</ele><time>2023-01-06T13:50:29Z</time><name>PT3274</name></trkpt>
<trkpt lat="53.008326" lon="-3.221515"><ele>452</ele><time>2023-01-06T13:50:32Z</time><name>PT3275</name></trkpt>
<trkpt lat="53.008354" lon="-3.221490"><ele>452</ele><time>2023-01-06T13:50:35Z</time><name>PT3276</name></trkpt>
<trkpt lat="53.008394" lon="-3.221448"><ele>452</ele><time>2023-01-06T13:50:39Z</time><name>PT3277</name></trkpt>
<trkpt lat="53.008437" lon="-3.221421"><ele>452</ele><time>2023-01-06T13:50:43Z</time><name>PT3278</name></trkpt>
<trkpt lat="53.008479" lon="-3.221385"><ele>453</ele><time>2023-01-06T13:50:47Z</time><name>PT3279</name></trkpt>
<trkpt lat="53.008520" lon="-3.221363"><ele>453</ele><time>2023-01-06T13:50:51Z</time><name>PT3280</name></trkpt>
<trkpt lat="53.008551" lon="-3.221351"><ele>454</ele><time>2023-01-06T13:50:54Z</time><name>PT3281</name></trkpt>
<trkpt lat="53.008589" lon="-3.221337"><ele>455</ele><time>2023-01-06T13:50:58Z</time><name>PT3282</name></trkpt>
<trkpt lat="53.008620" lon="-3.221322"><ele>455</ele><time>2023-01-06T13:51:01Z</time><name>PT3283</name></trkpt>
<trkpt lat="53.008647" lon="-3.221305"><ele>456</ele><time>2023-01-06T13:51:04Z</time><name>PT3284</name></trkpt>
<trkpt lat="53.008683" lon="-3.221270"><ele>456</ele><time>2023-01-06T13:51:08Z</time><name>PT3285</name></trkpt>
<trkpt lat="53.008720" lon="-3.221245"><ele>456</ele><time>2023-01-06T13:51:12Z</time><name>PT3286</name></trkpt>
<trkpt lat="53.008727" lon="-3.221242"><ele>456</ele><time>2023-01-06T13:51:15Z</time><name>PT3287</name></trkpt>
<trkpt lat="53.008762" lon="-3.221233"><ele>456</ele><time>2023-01-06T13:51:19Z</time><name>PT3288</name></trkpt>
<trkpt lat="53.008790" lon="-3.221238"><ele>455</ele><time>2023-01-06T13:51:22Z</time><name>PT3289</name></trkpt>
<trkpt lat="53.008834" lon="-3.221232"><ele>455</ele><time>2023-01-06T13:51:26Z</time><name>PT3290</name></trkpt>
<trkpt lat="53.008885" lon="-3.221230"><ele>456</ele><time>2023-01-06T13:51:30Z</time><name>PT3291</name></trkpt>
<trkpt lat="53.008919" lon="-3.221226"><ele>457</ele><time>2023-01-06T13:51:33Z</time><name>PT3292</name></trkpt>
<trkpt lat="53.008957" lon="-3.221230"><ele>457</ele><time>2023-01-06T13:51:36Z</time><name>PT3293</name></trkpt>
<trkpt lat="53.009003" lon="-3.221229"><ele>456</ele><time>2023-01-06T13:51:40Z</time><name>PT3294</name></trkpt>
<trkpt lat="53.009048" lon="-3.221216"><ele>458</ele><time>2023-01-06T13:51:44Z</time><name>PT3295</name></trkpt>
<trkpt lat="53.009084" lon="-3.221212"><ele>458</ele><time>2023-01-06T13:51:47Z</time><name>PT3296</name></trkpt>
<trkpt lat="53.009120" lon="-3.221211"><ele>458</ele><time>2023-01-06T13:51:50Z</time><name>PT3297</name></trkpt>
<trkpt lat="53.009162" lon="-3.221202"><ele>456</ele><time>2023-01-06T13:51:53Z</time><name>PT3298</name></trkpt>
<trkpt lat="53.009197" lon="-3.221198"><ele>456</ele><time>2023-01-06T13:51:56Z</time><name>PT3299</name></trkpt>
<trkpt lat="53.009247" lon="-3.221207"><ele>456</ele><time>2023-01-06T13:52:00Z</time><name>PT3300</name></trkpt>
<trkpt lat="53.009292" lon="-3.221218"><ele>456</ele><time>2023-01-06T13:52:04Z</time><name>PT3301</name></trkpt>
<trkpt lat="53.009328" lon="-3.221225"><ele>457</ele><time>2023-01-06T13:52:07Z</time><name>PT3302</name></trkpt>
<trkpt lat="53.009378" lon="-3.221231"><ele>457</ele><time>2023-01-06T13:52:11Z</time><name>PT3303</name></trkpt>
<trkpt lat="53.009409" lon="-3.221233"><ele>456</ele><time>2023-01-06T13:52:14Z</time><name>PT3304</name></trkpt>
<trkpt lat="53.009453" lon="-3.221229"><ele>457</ele><time>2023-01-06T13:52:18Z</time><name>PT3305</name></trkpt>
<trkpt lat="53.009502" lon="-3.221227"><ele>457</ele><time>2023-01-06T13:52:22Z</time><name>PT3306</name></trkpt>
<trkpt lat="53.009550" lon="-3.221227"><ele>457</ele><time>2023-01-06T13:52:26Z</time><name>PT3307</name></trkpt>
<trkpt lat="53.009596" lon="-3.221246"><ele>456</ele><time>2023-01-06T13:52:30Z</time><name>PT3308</name></trkpt>
<trkpt lat="53.009615" lon="-3.221263"><ele>456</ele><time>2023-01-06T13:52:34Z</time><name>PT3309</name></trkpt>
<trkpt lat="53.009656" lon="-3.221293"><ele>456</ele><time>2023-01-06T13:52:38Z</time><name>PT3310</name></trkpt>
<trkpt lat="53.009688" lon="-3.221323"><ele>456</ele><time>2023-01-06T13:52:41Z</time><name>PT3311</name></trkpt>
<trkpt lat="53.009727" lon="-3.221369"><ele>454</ele><time>2023-01-06T13:52:45Z</time><name>PT3312</name></trkpt>
<trkpt lat="53.009762" lon="-3.221414"><ele>454</ele><time>2023-01-06T13:52:49Z</time><name>PT3313</name></trkpt>
<trkpt lat="53.009787" lon="-3.221465"><ele>454</ele><time>2023-01-06T13:52:53Z</time><name>PT3314</name></trkpt>
<trkpt lat="53.009822" lon="-3.221510"><ele>454</ele><time>2023-01-06T13:52:57Z</time><name>PT3315</name></trkpt>
<trkpt lat="53.009862" lon="-3.221553"><ele>454</ele><time>2023-01-06T13:53:01Z</time><name>PT3316</name></trkpt>
<trkpt lat="53.009880" lon="-3.221574"><ele>454</ele><time>2023-01-06T13:53:04Z</time><name>PT3317</name></trkpt>
<trkpt lat="53.009903" lon="-3.221579"><ele>453</ele><time>2023-01-06T13:53:07Z</time><name>PT3318</name></trkpt>
<trkpt lat="53.009924" lon="-3.221573"><ele>453</ele><time>2023-01-06T13:53:11Z</time><name>PT3319</name></trkpt>
<trkpt lat="53.009940" lon="-3.221548"><ele>453</ele><time>2023-01-06T13:53:14Z</time><name>PT3320</name></trkpt>
<trkpt lat="53.009960" lon="-3.221522"><ele>453</ele><time>2023-01-06T13:53:18Z</time><name>PT3321</name></trkpt>
<trkpt lat="53.009973" lon="-3.221499"><ele>454</ele><time>2023-01-06T13:53:21Z</time><name>PT3322</name></trkpt>
<trkpt lat="53.009996" lon="-3.221484"><ele>455</ele><time>2023-01-06T13:53:25Z</time><name>PT3323</name></trkpt>
<trkpt lat="53.010026" lon="-3.221473"><ele>455</ele><time>2023-01-06T13:53:29Z</time><name>PT3324</name></trkpt>
<trkpt lat="53.010052" lon="-3.221475"><ele>456</ele><time>2023-01-06T13:53:33Z</time><name>PT3325</name></trkpt>
<trkpt lat="53.010060" lon="-3.221476"><ele>456</ele><time>2023-01-06T13:53:37Z</time><name>PT3326</name></trkpt>
<trkpt lat="53.010061" lon="-3.221473"><ele>454</ele><time>2023-01-06T13:53:40Z</time><name>PT3327</name></trkpt>
<trkpt lat="53.010061" lon="-3.221465"><ele>454</ele><time>2023-01-06T13:53:44Z</time><name>PT3328</name></trkpt>
<trkpt lat="53.010075" lon="-3.221465"><ele>455</ele><time>2023-01-06T13:53:55Z</time><name>PT3329</name></trkpt>
<trkpt lat="53.010104" lon="-3.221477"><ele>456</ele><time>2023-01-06T13:53:58Z</time><name>PT3330</name></trkpt>
<trkpt lat="53.010133" lon="-3.221478"><ele>457</ele><time>2023-01-06T13:54:02Z</time><name>PT3331</name></trkpt>
<trkpt lat="53.010137" lon="-3.221477"><ele>457</ele><time>2023-01-06T13:54:06Z</time><name>PT3332</name></trkpt>
<trkpt lat="53.010148" lon="-3.221479"><ele>457</ele><time>2023-01-06T13:54:12Z</time><name>PT3333</name></trkpt>
<trkpt lat="53.010176" lon="-3.221485"><ele>458</ele><time>2023-01-06T13:54:15Z</time><name>PT3334</name></trkpt>
<trkpt lat="53.010176" lon="-3.221483"><ele>458</ele><time>2023-01-06T13:54:19Z</time><name>PT3335</name></trkpt>
<trkpt lat="53.010178" lon="-3.221483"><ele>458</ele><time>2023-01-06T13:54:22Z</time><name>PT3336</name></trkpt>
<trkpt lat="53.010208" lon="-3.221471"><ele>459</ele><time>2023-01-06T13:54:25Z</time><name>PT3337</name></trkpt>
<trkpt lat="53.010243" lon="-3.221452"><ele>460</ele><time>2023-01-06T13:54:29Z</time><name>PT3338</name></trkpt>
<trkpt lat="53.010267" lon="-3.221450"><ele>459</ele><time>2023-01-06T13:54:32Z</time><name>PT3339</name></trkpt>
<trkpt lat="53.010297" lon="-3.221444"><ele>460</ele><time>2023-01-06T13:54:35Z</time><name>PT3340</name></trkpt>
<trkpt lat="53.010336" lon="-3.221416"><ele>460</ele><time>2023-01-06T13:54:39Z</time><name>PT3341</name></trkpt>
<trkpt lat="53.010377" lon="-3.221385"><ele>460</ele><time>2023-01-06T13:54:43Z</time><name>PT3342</name></trkpt>
<trkpt lat="53.010408" lon="-3.221359"><ele>461</ele><time>2023-01-06T13:54:46Z</time><name>PT3343</name></trkpt>
<trkpt lat="53.010434" lon="-3.221336"><ele>461</ele><time>2023-01-06T13:54:49Z</time><name>PT3344</name></trkpt>
<trkpt lat="53.010466" lon="-3.221316"><ele>461</ele><time>2023-01-06T13:54:53Z</time><name>PT3345</name></trkpt>
<trkpt lat="53.010494" lon="-3.221294"><ele>462</ele><time>2023-01-06T13:54:56Z</time><name>PT3346</name></trkpt>
<trkpt lat="53.010531" lon="-3.221264"><ele>462</ele><time>2023-01-06T13:55:00Z</time><name>PT3347</name></trkpt>
<trkpt lat="53.010569" lon="-3.221237"><ele>463</ele><time>2023-01-06T13:55:04Z</time><name>PT3348</name></trkpt>
<trkpt lat="53.010607" lon="-3.221207"><ele>463</ele><time>2023-01-06T13:55:08Z</time><name>PT3349</name></trkpt>
<trkpt lat="53.010642" lon="-3.221178"><ele>465</ele><time>2023-01-06T13:55:12Z</time><name>PT3350</name></trkpt>
<trkpt lat="53.010670" lon="-3.221159"><ele>464</ele><time>2023-01-06T13:55:15Z</time><name>PT3351</name></trkpt>
<trkpt lat="53.010702" lon="-3.221134"><ele>465</ele><time>2023-01-06T13:55:19Z</time><name>PT3352</name></trkpt>
<trkpt lat="53.010730" lon="-3.221110"><ele>466</ele><time>2023-01-06T13:55:22Z</time><name>PT3353</name></trkpt>
<trkpt lat="53.010758" lon="-3.221087"><ele>466</ele><time>2023-01-06T13:55:25Z</time><name>PT3354</name></trkpt>
<trkpt lat="53.010787" lon="-3.221059"><ele>466</ele><time>2023-01-06T13:55:28Z</time><name>PT3355</name></trkpt>
<trkpt lat="53.010821" lon="-3.221023"><ele>466</ele><time>2023-01-06T13:55:32Z</time><name>PT3356</name></trkpt>
<trkpt lat="53.010848" lon="-3.221003"><ele>466</ele><time>2023-01-06T13:55:35Z</time><name>PT3357</name></trkpt>
<trkpt lat="53.010883" lon="-3.220977"><ele>467</ele><time>2023-01-06T13:55:39Z</time><name>PT3358</name></trkpt>
<trkpt lat="53.010914" lon="-3.220946"><ele>467</ele><time>2023-01-06T13:55:43Z</time><name>PT3359</name></trkpt>
<trkpt lat="53.010935" lon="-3.220922"><ele>468</ele><time>2023-01-06T13:55:46Z</time><name>PT3360</name></trkpt>
<trkpt lat="53.010965" lon="-3.220891"><ele>468</ele><time>2023-01-06T13:55:50Z</time><name>PT3361</name></trkpt>
<trkpt lat="53.010998" lon="-3.220852"><ele>468</ele><time>2023-01-06T13:55:54Z</time><name>PT3362</name></trkpt>
<trkpt lat="53.011032" lon="-3.220806"><ele>469</ele><time>2023-01-06T13:55:58Z</time><name>PT3363</name></trkpt>
<trkpt lat="53.011065" lon="-3.220765"><ele>470</ele><time>2023-01-06T13:56:02Z</time><name>PT3364</name></trkpt>
<trkpt lat="53.011099" lon="-3.220727"><ele>470</ele><time>2023-01-06T13:56:06Z</time><name>PT3365</name></trkpt>
<trkpt lat="53.011132" lon="-3.220702"><ele>471</ele><time>2023-01-06T13:56:10Z</time><name>PT3366</name></trkpt>
<trkpt lat="53.011158" lon="-3.220669"><ele>471</ele><time>2023-01-06T13:56:14Z</time><name>PT3367</name></trkpt>
<trkpt lat="53.011171" lon="-3.220646"><ele>472</ele><time>2023-01-06T13:56:17Z</time><name>PT3368</name></trkpt>
<trkpt lat="53.011173" lon="-3.220641"><ele>473</ele><time>2023-01-06T13:56:21Z</time><name>PT3369</name></trkpt>
<trkpt lat="53.011185" lon="-3.220628"><ele>473</ele><time>2023-01-06T13:56:25Z</time><name>PT3370</name></trkpt>
<trkpt lat="53.011218" lon="-3.220597"><ele>473</ele><time>2023-01-06T13:56:29Z</time><name>PT3371</name></trkpt>
<trkpt lat="53.011255" lon="-3.220569"><ele>474</ele><time>2023-01-06T13:56:33Z</time><name>PT3372</name></trkpt>
<trkpt lat="53.011278" lon="-3.220547"><ele>474</ele><time>2023-01-06T13:56:37Z</time><name>PT3373</name></trkpt>
<trkpt lat="53.011305" lon="-3.220528"><ele>473</ele><time>2023-01-06T13:56:40Z</time><name>PT3374</name></trkpt>
<trkpt lat="53.011330" lon="-3.220506"><ele>474</ele><time>2023-01-06T13:56:43Z</time><name>PT3375</name></trkpt>
<trkpt lat="53.011363" lon="-3.220470"><ele>475</ele><time>2023-01-06T13:56:47Z</time><name>PT3376</name></trkpt>
<trkpt lat="53.011395" lon="-3.220435"><ele>475</ele><time>2023-01-06T13:56:51Z</time><name>PT3377</name></trkpt>
<trkpt lat="53.011431" lon="-3.220394"><ele>476</ele><time>2023-01-06T13:56:55Z</time><name>PT3378</name></trkpt>
<trkpt lat="53.011467" lon="-3.220363"><ele>476</ele><time>2023-01-06T13:56:59Z</time><name>PT3379</name></trkpt>
<trkpt lat="53.011500" lon="-3.220335"><ele>477</ele><time>2023-01-06T13:57:03Z</time><name>PT3380</name></trkpt>
<trkpt lat="53.011539" lon="-3.220306"><ele>478</ele><time>2023-01-06T13:57:07Z</time><name>PT3381</name></trkpt>
<trkpt lat="53.011573" lon="-3.220265"><ele>479</ele><time>2023-01-06T13:57:11Z</time><name>PT3382</name></trkpt>
<trkpt lat="53.011600" lon="-3.220237"><ele>479</ele><time>2023-01-06T13:57:14Z</time><name>PT3383</name></trkpt>
<trkpt lat="53.011625" lon="-3.220201"><ele>479</ele><time>2023-01-06T13:57:17Z</time><name>PT3384</name></trkpt>
<trkpt lat="53.011661" lon="-3.220165"><ele>480</ele><time>2023-01-06T13:57:21Z</time><name>PT3385</name></trkpt>
<trkpt lat="53.011688" lon="-3.220138"><ele>480</ele><time>2023-01-06T13:57:24Z</time><name>PT3386</name></trkpt>
<trkpt lat="53.011705" lon="-3.220123"><ele>480</ele><time>2023-01-06T13:57:27Z</time><name>PT3387</name></trkpt>
<trkpt lat="53.011736" lon="-3.220093"><ele>481</ele><time>2023-01-06T13:57:31Z</time><name>PT3388</name></trkpt>
<trkpt lat="53.011760" lon="-3.220072"><ele>481</ele><time>2023-01-06T13:57:34Z</time><name>PT3389</name></trkpt>
<trkpt lat="53.011792" lon="-3.220032"><ele>481</ele><time>2023-01-06T13:57:38Z</time><name>PT3390</name></trkpt>
<trkpt lat="53.011827" lon="-3.219995"><ele>481</ele><time>2023-01-06T13:57:42Z</time><name>PT3391</name></trkpt>
<trkpt lat="53.011854" lon="-3.219965"><ele>482</ele><time>2023-01-06T13:57:45Z</time><name>PT3392</name></trkpt>
<trkpt lat="53.011886" lon="-3.219926"><ele>482</ele><time>2023-01-06T13:57:49Z</time><name>PT3393</name></trkpt>
<trkpt lat="53.011909" lon="-3.219891"><ele>483</ele><time>2023-01-06T13:57:52Z</time><name>PT3394</name></trkpt>
<trkpt lat="53.011932" lon="-3.219859"><ele>482</ele><time>2023-01-06T13:57:55Z</time><name>PT3395</name></trkpt>
<trkpt lat="53.011946" lon="-3.219844"><ele>483</ele><time>2023-01-06T13:57:58Z</time><name>PT3396</name></trkpt>
<trkpt lat="53.011949" lon="-3.219841"><ele>483</ele><time>2023-01-06T13:58:02Z</time><name>PT3397</name></trkpt>
<trkpt lat="53.011975" lon="-3.219804"><ele>483</ele><time>2023-01-06T13:58:05Z</time><name>PT3398</name></trkpt>
<trkpt lat="53.012010" lon="-3.219758"><ele>483</ele><time>2023-01-06T13:58:08Z</time><name>PT3399</name></trkpt>
<trkpt lat="53.012050" lon="-3.219734"><ele>484</ele><time>2023-01-06T13:58:12Z</time><name>PT3400</name></trkpt>
<trkpt lat="53.012082" lon="-3.219711"><ele>484</ele><time>2023-01-06T13:58:15Z</time><name>PT3401</name></trkpt>
<trkpt lat="53.012129" lon="-3.219686"><ele>484</ele><time>2023-01-06T13:58:19Z</time><name>PT3402</name></trkpt>
<trkpt lat="53.012163" lon="-3.219663"><ele>485</ele><time>2023-01-06T13:58:22Z</time><name>PT3403</name></trkpt>
<trkpt lat="53.012206" lon="-3.219627"><ele>485</ele><time>2023-01-06T13:58:26Z</time><name>PT3404</name></trkpt>
<trkpt lat="53.012238" lon="-3.219603"><ele>485</ele><time>2023-01-06T13:58:29Z</time><name>PT3405</name></trkpt>
<trkpt lat="53.012279" lon="-3.219563"><ele>486</ele><time>2023-01-06T13:58:33Z</time><name>PT3406</name></trkpt>
<trkpt lat="53.012290" lon="-3.219550"><ele>487</ele><time>2023-01-06T13:58:36Z</time><name>PT3407</name></trkpt>
<trkpt lat="53.012314" lon="-3.219526"><ele>487</ele><time>2023-01-06T13:58:40Z</time><name>PT3408</name></trkpt>
<trkpt lat="53.012355" lon="-3.219498"><ele>487</ele><time>2023-01-06T13:58:44Z</time><name>PT3409</name></trkpt>
<trkpt lat="53.012394" lon="-3.219472"><ele>488</ele><time>2023-01-06T13:58:48Z</time><name>PT3410</name></trkpt>
<trkpt lat="53.012436" lon="-3.219462"><ele>488</ele><time>2023-01-06T13:58:52Z</time><name>PT3411</name></trkpt>
<trkpt lat="53.012478" lon="-3.219472"><ele>489</ele><time>2023-01-06T13:58:56Z</time><name>PT3412</name></trkpt>
<trkpt lat="53.012534" lon="-3.219463"><ele>491</ele><time>2023-01-06T13:59:00Z</time><name>PT3413</name></trkpt>
<trkpt lat="53.012567" lon="-3.219470"><ele>491</ele><time>2023-01-06T13:59:03Z</time><name>PT3414</name></trkpt>
<trkpt lat="53.012584" lon="-3.219479"><ele>491</ele><time>2023-01-06T13:59:07Z</time><name>PT3415</name></trkpt>
<trkpt lat="53.012581" lon="-3.219473"><ele>491</ele><time>2023-01-06T13:59:11Z</time><name>PT3416</name></trkpt>
<trkpt lat="53.012577" lon="-3.219474"><ele>491</ele><time>2023-01-06T13:59:29Z</time><name>PT3417</name></trkpt>
<trkpt lat="53.012572" lon="-3.219470"><ele>491</ele><time>2023-01-06T13:59:33Z</time><name>PT3418</name></trkpt>
<trkpt lat="53.012571" lon="-3.219472"><ele>491</ele><time>2023-01-06T13:59:37Z</time><name>PT3419</name></trkpt>
<trkpt lat="53.012584" lon="-3.219484"><ele>491</ele><time>2023-01-06T13:59:55Z</time><name>PT3420</name></trkpt>
<trkpt lat="53.012623" lon="-3.219508"><ele>491</ele><time>2023-01-06T13:59:58Z</time><name>PT3421</name></trkpt>
<trkpt lat="53.012673" lon="-3.219546"><ele>491</ele><time>2023-01-06T14:00:02Z</time><name>PT3422</name></trkpt>
<trkpt lat="53.012710" lon="-3.219574"><ele>491</ele><time>2023-01-06T14:00:05Z</time><name>PT3423</name></trkpt>
<trkpt lat="53.012743" lon="-3.219608"><ele>490</ele><time>2023-01-06T14:00:08Z</time><name>PT3424</name></trkpt>
<trkpt lat="53.012774" lon="-3.219639"><ele>490</ele><time>2023-01-06T14:00:11Z</time><name>PT3425</name></trkpt>
<trkpt lat="53.012818" lon="-3.219673"><ele>489</ele><time>2023-01-06T14:00:15Z</time><name>PT3426</name></trkpt>
<trkpt lat="53.012855" lon="-3.219700"><ele>489</ele><time>2023-01-06T14:00:18Z</time><name>PT3427</name></trkpt>
<trkpt lat="53.012894" lon="-3.219714"><ele>489</ele><time>2023-01-06T14:00:21Z</time><name>PT3428</name></trkpt>
<trkpt lat="53.012939" lon="-3.219748"><ele>489</ele><time>2023-01-06T14:00:25Z</time><name>PT3429</name></trkpt>
<trkpt lat="53.012975" lon="-3.219774"><ele>488</ele><time>2023-01-06T14:00:29Z</time><name>PT3430</name></trkpt>
<trkpt lat="53.013018" lon="-3.219798"><ele>489</ele><time>2023-01-06T14:00:33Z</time><name>PT3431</name></trkpt>
<trkpt lat="53.013053" lon="-3.219817"><ele>489</ele><time>2023-01-06T14:00:36Z</time><name>PT3432</name></trkpt>
<trkpt lat="53.013091" lon="-3.219848"><ele>490</ele><time>2023-01-06T14:00:40Z</time><name>PT3433</name></trkpt>
<trkpt lat="53.013125" lon="-3.219878"><ele>490</ele><time>2023-01-06T14:00:43Z</time><name>PT3434</name></trkpt>
<trkpt lat="53.013172" lon="-3.219907"><ele>492</ele><time>2023-01-06T14:00:47Z</time><name>PT3435</name></trkpt>
<trkpt lat="53.013217" lon="-3.219944"><ele>492</ele><time>2023-01-06T14:00:51Z</time><name>PT3436</name></trkpt>
<trkpt lat="53.013252" lon="-3.219974"><ele>492</ele><time>2023-01-06T14:00:54Z</time><name>PT3437</name></trkpt>
<trkpt lat="53.013298" lon="-3.220011"><ele>492</ele><time>2023-01-06T14:00:58Z</time><name>PT3438</name></trkpt>
<trkpt lat="53.013339" lon="-3.220047"><ele>492</ele><time>2023-01-06T14:01:02Z</time><name>PT3439</name></trkpt>
<trkpt lat="53.013367" lon="-3.220079"><ele>492</ele><time>2023-01-06T14:01:05Z</time><name>PT3440</name></trkpt>
<trkpt lat="53.013402" lon="-3.220106"><ele>493</ele><time>2023-01-06T14:01:08Z</time><name>PT3441</name></trkpt>
<trkpt lat="53.013435" lon="-3.220133"><ele>492</ele><time>2023-01-06T14:01:11Z</time><name>PT3442</name></trkpt>
<trkpt lat="53.013468" lon="-3.220156"><ele>491</ele><time>2023-01-06T14:01:14Z</time><name>PT3443</name></trkpt>
<trkpt lat="53.013502" lon="-3.220184"><ele>491</ele><time>2023-01-06T14:01:17Z</time><name>PT3444</name></trkpt>
<trkpt lat="53.013540" lon="-3.220220"><ele>491</ele><time>2023-01-06T14:01:21Z</time><name>PT3445</name></trkpt>
<trkpt lat="53.013572" lon="-3.220242"><ele>491</ele><time>2023-01-06T14:01:24Z</time><name>PT3446</name></trkpt>
<trkpt lat="53.013601" lon="-3.220266"><ele>492</ele><time>2023-01-06T14:01:27Z</time><name>PT3447</name></trkpt>
<trkpt lat="53.013643" lon="-3.220295"><ele>492</ele><time>2023-01-06T14:01:31Z</time><name>PT3448</name></trkpt>
<trkpt lat="53.013675" lon="-3.220321"><ele>492</ele><time>2023-01-06T14:01:34Z</time><name>PT3449</name></trkpt>
<trkpt lat="53.013702" lon="-3.220347"><ele>493</ele><time>2023-01-06T14:01:37Z</time><name>PT3450</name></trkpt>
<trkpt lat="53.013735" lon="-3.220382"><ele>493</ele><time>2023-01-06T14:01:40Z</time><name>PT3451</name></trkpt>
<trkpt lat="53.013774" lon="-3.220405"><ele>492</ele><time>2023-01-06T14:01:44Z</time><name>PT3452</name></trkpt>
<trkpt lat="53.013825" lon="-3.220446"><ele>493</ele><time>2023-01-06T14:01:48Z</time><name>PT3453</name></trkpt>
<trkpt lat="53.013863" lon="-3.220472"><ele>494</ele><time>2023-01-06T14:01:51Z</time><name>PT3454</name></trkpt>
<trkpt lat="53.013909" lon="-3.220504"><ele>494</ele><time>2023-01-06T14:01:55Z</time><name>PT3455</name></trkpt>
<trkpt lat="53.013943" lon="-3.220531"><ele>494</ele><time>2023-01-06T14:01:58Z</time><name>PT3456</name></trkpt>
<trkpt lat="53.013976" lon="-3.220565"><ele>494</ele><time>2023-01-06T14:02:01Z</time><name>PT3457</name></trkpt>
<trkpt lat="53.014012" lon="-3.220613"><ele>494</ele><time>2023-01-06T14:02:05Z</time><name>PT3458</name></trkpt>
<trkpt lat="53.014041" lon="-3.220643"><ele>494</ele><time>2023-01-06T14:02:08Z</time><name>PT3459</name></trkpt>
<trkpt lat="53.014074" lon="-3.220668"><ele>493</ele><time>2023-01-06T14:02:11Z</time><name>PT3460</name></trkpt>
<trkpt lat="53.014113" lon="-3.220695"><ele>493</ele><time>2023-01-06T14:02:15Z</time><name>PT3461</name></trkpt>
<trkpt lat="53.014157" lon="-3.220728"><ele>493</ele><time>2023-01-06T14:02:19Z</time><name>PT3462</name></trkpt>
<trkpt lat="53.014157" lon="-3.220730"><ele>493</ele><time>2023-01-06T14:02:22Z</time><name>PT3463</name></trkpt>
<trkpt lat="53.014170" lon="-3.220744"><ele>493</ele><time>2023-01-06T14:02:26Z</time><name>PT3464</name></trkpt>
<trkpt lat="53.014205" lon="-3.220783"><ele>492</ele><time>2023-01-06T14:02:29Z</time><name>PT3465</name></trkpt>
<trkpt lat="53.014238" lon="-3.220817"><ele>490</ele><time>2023-01-06T14:02:32Z</time><name>PT3466</name></trkpt>
<trkpt lat="53.014285" lon="-3.220851"><ele>491</ele><time>2023-01-06T14:02:36Z</time><name>PT3467</name></trkpt>
<trkpt lat="53.014316" lon="-3.220889"><ele>490</ele><time>2023-01-06T14:02:39Z</time><name>PT3468</name></trkpt>
<trkpt lat="53.014358" lon="-3.220935"><ele>489</ele><time>2023-01-06T14:02:43Z</time><name>PT3469</name></trkpt>
<trkpt lat="53.014387" lon="-3.220973"><ele>488</ele><time>2023-01-06T14:02:46Z</time><name>PT3470</name></trkpt>
<trkpt lat="53.014416" lon="-3.221003"><ele>488</ele><time>2023-01-06T14:02:49Z</time><name>PT3471</name></trkpt>
<trkpt lat="53.014453" lon="-3.221049"><ele>487</ele><time>2023-01-06T14:02:53Z</time><name>PT3472</name></trkpt>
<trkpt lat="53.014492" lon="-3.221089"><ele>487</ele><time>2023-01-06T14:02:57Z</time><name>PT3473</name></trkpt>
<trkpt lat="53.014525" lon="-3.221116"><ele>486</ele><time>2023-01-06T14:03:00Z</time><name>PT3474</name></trkpt>
<trkpt lat="53.014562" lon="-3.221149"><ele>485</ele><time>2023-01-06T14:03:04Z</time><name>PT3475</name></trkpt>
<trkpt lat="53.014595" lon="-3.221178"><ele>486</ele><time>2023-01-06T14:03:07Z</time><name>PT3476</name></trkpt>
<trkpt lat="53.014635" lon="-3.221209"><ele>486</ele><time>2023-01-06T14:03:11Z</time><name>PT3477</name></trkpt>
<trkpt lat="53.014650" lon="-3.221222"><ele>486</ele><time>2023-01-06T14:03:14Z</time><name>PT3478</name></trkpt>
<trkpt lat="53.014685" lon="-3.221248"><ele>485</ele><time>2023-01-06T14:03:18Z</time><name>PT3479</name></trkpt>
<trkpt lat="53.014722" lon="-3.221277"><ele>484</ele><time>2023-01-06T14:03:21Z</time><name>PT3480</name></trkpt>
<trkpt lat="53.014771" lon="-3.221303"><ele>484</ele><time>2023-01-06T14:03:25Z</time><name>PT3481</name></trkpt>
<trkpt lat="53.014809" lon="-3.221358"><ele>484</ele><time>2023-01-06T14:03:29Z</time><name>PT3482</name></trkpt>
<trkpt lat="53.014859" lon="-3.221403"><ele>485</ele><time>2023-01-06T14:03:33Z</time><name>PT3483</name></trkpt>
<trkpt lat="53.014896" lon="-3.221432"><ele>486</ele><time>2023-01-06T14:03:36Z</time><name>PT3484</name></trkpt>
<trkpt lat="53.014940" lon="-3.221462"><ele>485</ele><time>2023-01-06T14:03:40Z</time><name>PT3485</name></trkpt>
<trkpt lat="53.014976" lon="-3.221486"><ele>485</ele><time>2023-01-06T14:03:43Z</time><name>PT3486</name></trkpt>
<trkpt lat="53.015007" lon="-3.221514"><ele>484</ele><time>2023-01-06T14:03:46Z</time><name>PT3487</name></trkpt>
<trkpt lat="53.015040" lon="-3.221530"><ele>483</ele><time>2023-01-06T14:03:49Z</time><name>PT3488</name></trkpt>
<trkpt lat="53.015074" lon="-3.221542"><ele>483</ele><time>2023-01-06T14:03:52Z</time><name>PT3489</name></trkpt>
<trkpt lat="53.015124" lon="-3.221566"><ele>482</ele><time>2023-01-06T14:03:56Z</time><name>PT3490</name></trkpt>
<trkpt lat="53.015156" lon="-3.221598"><ele>482</ele><time>2023-01-06T14:03:59Z</time><name>PT3491</name></trkpt>
<trkpt lat="53.015199" lon="-3.221647"><ele>482</ele><time>2023-01-06T14:04:03Z</time><name>PT3492</name></trkpt>
<trkpt lat="53.015239" lon="-3.221695"><ele>482</ele><time>2023-01-06T14:04:07Z</time><name>PT3493</name></trkpt>
<trkpt lat="53.015277" lon="-3.221738"><ele>482</ele><time>2023-01-06T14:04:11Z</time><name>PT3494</name></trkpt>
<trkpt lat="53.015314" lon="-3.221763"><ele>482</ele><time>2023-01-06T14:04:14Z</time><name>PT3495</name></trkpt>
<trkpt lat="53.015361" lon="-3.221803"><ele>481</ele><time>2023-01-06T14:04:18Z</time><name>PT3496</name></trkpt>
<trkpt lat="53.015396" lon="-3.221818"><ele>482</ele><time>2023-01-06T14:04:21Z</time><name>PT3497</name></trkpt>
<trkpt lat="53.015447" lon="-3.221842"><ele>482</ele><time>2023-01-06T14:04:25Z</time><name>PT3498</name></trkpt>
<trkpt lat="53.015482" lon="-3.221868"><ele>481</ele><time>2023-01-06T14:04:28Z</time><name>PT3499</name></trkpt>
<trkpt lat="53.015532" lon="-3.221899"><ele>481</ele><time>2023-01-06T14:04:32Z</time><name>PT3500</name></trkpt>
<trkpt lat="53.015580" lon="-3.221932"><ele>480</ele><time>2023-01-06T14:04:36Z</time><name>PT3501</name></trkpt>
<trkpt lat="53.015615" lon="-3.221941"><ele>481</ele><time>2023-01-06T14:04:39Z</time><name>PT3502</name></trkpt>
<trkpt lat="53.015661" lon="-3.221951"><ele>480</ele><time>2023-01-06T14:04:43Z</time><name>PT3503</name></trkpt>
<trkpt lat="53.015699" lon="-3.221962"><ele>480</ele><time>2023-01-06T14:04:46Z</time><name>PT3504</name></trkpt>
<trkpt lat="53.015751" lon="-3.221979"><ele>480</ele><time>2023-01-06T14:04:50Z</time><name>PT3505</name></trkpt>
<trkpt lat="53.015794" lon="-3.222015"><ele>479</ele><time>2023-01-06T14:04:54Z</time><name>PT3506</name></trkpt>
<trkpt lat="53.015845" lon="-3.222020"><ele>480</ele><time>2023-01-06T14:04:58Z</time><name>PT3507</name></trkpt>
<trkpt lat="53.015894" lon="-3.222034"><ele>479</ele><time>2023-01-06T14:05:02Z</time><name>PT3508</name></trkpt>
<trkpt lat="53.015930" lon="-3.222031"><ele>479</ele><time>2023-01-06T14:05:05Z</time><name>PT3509</name></trkpt>
<trkpt lat="53.015968" lon="-3.222032"><ele>479</ele><time>2023-01-06T14:05:08Z</time><name>PT3510</name></trkpt>
<trkpt lat="53.016020" lon="-3.222055"><ele>479</ele><time>2023-01-06T14:05:12Z</time><name>PT3511</name></trkpt>
<trkpt lat="53.016060" lon="-3.222038"><ele>480</ele><time>2023-01-06T14:05:15Z</time><name>PT3512</name></trkpt>
<trkpt lat="53.016096" lon="-3.222028"><ele>480</ele><time>2023-01-06T14:05:18Z</time><name>PT3513</name></trkpt>
<trkpt lat="53.016145" lon="-3.222041"><ele>480</ele><time>2023-01-06T14:05:22Z</time><name>PT3514</name></trkpt>
<trkpt lat="53.016195" lon="-3.222055"><ele>480</ele><time>2023-01-06T14:05:26Z</time><name>PT3515</name></trkpt>
<trkpt lat="53.016247" lon="-3.222062"><ele>480</ele><time>2023-01-06T14:05:30Z</time><name>PT3516</name></trkpt>
<trkpt lat="53.016283" lon="-3.222075"><ele>480</ele><time>2023-01-06T14:05:33Z</time><name>PT3517</name></trkpt>
<trkpt lat="53.016319" lon="-3.222079"><ele>481</ele><time>2023-01-06T14:05:36Z</time><name>PT3518</name></trkpt>
<trkpt lat="53.016356" lon="-3.222086"><ele>481</ele><time>2023-01-06T14:05:39Z</time><name>PT3519</name></trkpt>
<trkpt lat="53.016396" lon="-3.222098"><ele>481</ele><time>2023-01-06T14:05:42Z</time><name>PT3520</name></trkpt>
<trkpt lat="53.016439" lon="-3.222109"><ele>482</ele><time>2023-01-06T14:05:46Z</time><name>PT3521</name></trkpt>
<trkpt lat="53.016479" lon="-3.222133"><ele>482</ele><time>2023-01-06T14:05:50Z</time><name>PT3522</name></trkpt>
<trkpt lat="53.016510" lon="-3.222136"><ele>482</ele><time>2023-01-06T14:05:53Z</time><name>PT3523</name></trkpt>
<trkpt lat="53.016545" lon="-3.222138"><ele>483</ele><time>2023-01-06T14:05:56Z</time><name>PT3524</name></trkpt>
<trkpt lat="53.016591" lon="-3.222145"><ele>484</ele><time>2023-01-06T14:06:00Z</time><name>PT3525</name></trkpt>
<trkpt lat="53.016619" lon="-3.222158"><ele>484</ele><time>2023-01-06T14:06:03Z</time><name>PT3526</name></trkpt>
<trkpt lat="53.016649" lon="-3.222174"><ele>485</ele><time>2023-01-06T14:06:06Z</time><name>PT3527</name></trkpt>
<trkpt lat="53.016676" lon="-3.222190"><ele>485</ele><time>2023-01-06T14:06:09Z</time><name>PT3528</name></trkpt>
<trkpt lat="53.016711" lon="-3.222203"><ele>486</ele><time>2023-01-06T14:06:13Z</time><name>PT3529</name></trkpt>
<trkpt lat="53.016735" lon="-3.222203"><ele>486</ele><time>2023-01-06T14:06:16Z</time><name>PT3530</name></trkpt>
<trkpt lat="53.016777" lon="-3.222198"><ele>487</ele><time>2023-01-06T14:06:20Z</time><name>PT3531</name></trkpt>
<trkpt lat="53.016815" lon="-3.222206"><ele>488</ele><time>2023-01-06T14:06:24Z</time><name>PT3532</name></trkpt>
<trkpt lat="53.016850" lon="-3.222206"><ele>489</ele><time>2023-01-06T14:06:28Z</time><name>PT3533</name></trkpt>
<trkpt lat="53.016875" lon="-3.222196"><ele>489</ele><time>2023-01-06T14:06:31Z</time><name>PT3534</name></trkpt>
<trkpt lat="53.016903" lon="-3.222194"><ele>489</ele><time>2023-01-06T14:06:34Z</time><name>PT3535</name></trkpt>
<trkpt lat="53.016945" lon="-3.222209"><ele>489</ele><time>2023-01-06T14:06:38Z</time><name>PT3536</name></trkpt>
<trkpt lat="53.016978" lon="-3.222217"><ele>490</ele><time>2023-01-06T14:06:41Z</time><name>PT3537</name></trkpt>
<trkpt lat="53.017009" lon="-3.222223"><ele>490</ele><time>2023-01-06T14:06:44Z</time><name>PT3538</name></trkpt>
<trkpt lat="53.017044" lon="-3.222243"><ele>491</ele><time>2023-01-06T14:06:48Z</time><name>PT3539</name></trkpt>
<trkpt lat="53.017055" lon="-3.222240"><ele>491</ele><time>2023-01-06T14:06:52Z</time><name>PT3540</name></trkpt>
<trkpt lat="53.017058" lon="-3.222239"><ele>491</ele><time>2023-01-06T14:06:59Z</time><name>PT3541</name></trkpt>
<trkpt lat="53.017058" lon="-3.222244"><ele>491</ele><time>2023-01-06T14:07:03Z</time><name>PT3542</name></trkpt>
<trkpt lat="53.017068" lon="-3.222260"><ele>491</ele><time>2023-01-06T14:07:07Z</time><name>PT3543</name></trkpt>
<trkpt lat="53.017073" lon="-3.222259"><ele>491</ele><time>2023-01-06T14:07:11Z</time><name>PT3544</name></trkpt>
<trkpt lat="53.017087" lon="-3.222240"><ele>490</ele><time>2023-01-06T14:07:18Z</time><name>PT3545</name></trkpt>
<trkpt lat="53.017116" lon="-3.222197"><ele>490</ele><time>2023-01-06T14:07:22Z</time><name>PT3546</name></trkpt>
<trkpt lat="53.017143" lon="-3.222170"><ele>490</ele><time>2023-01-06T14:07:25Z</time><name>PT3547</name></trkpt>
<trkpt lat="53.017180" lon="-3.222131"><ele>490</ele><time>2023-01-06T14:07:29Z</time><name>PT3548</name></trkpt>
<trkpt lat="53.017208" lon="-3.222097"><ele>489</ele><time>2023-01-06T14:07:32Z</time><name>PT3549</name></trkpt>
<trkpt lat="53.017245" lon="-3.222050"><ele>489</ele><time>2023-01-06T14:07:36Z</time><name>PT3550</name></trkpt>
<trkpt lat="53.017272" lon="-3.222016"><ele>489</ele><time>2023-01-06T14:07:39Z</time><name>PT3551</name></trkpt>
<trkpt lat="53.017301" lon="-3.221986"><ele>489</ele><time>2023-01-06T14:07:42Z</time><name>PT3552</name></trkpt>
<trkpt lat="53.017339" lon="-3.221937"><ele>490</ele><time>2023-01-06T14:07:46Z</time><name>PT3553</name></trkpt>
<trkpt lat="53.017368" lon="-3.221903"><ele>490</ele><time>2023-01-06T14:07:49Z</time><name>PT3554</name></trkpt>
<trkpt lat="53.017399" lon="-3.221866"><ele>490</ele><time>2023-01-06T14:07:52Z</time><name>PT3555</name></trkpt>
<trkpt lat="53.017436" lon="-3.221815"><ele>489</ele><time>2023-01-06T14:07:56Z</time><name>PT3556</name></trkpt>
<trkpt lat="53.017465" lon="-3.221783"><ele>489</ele><time>2023-01-06T14:07:59Z</time><name>PT3557</name></trkpt>
<trkpt lat="53.017506" lon="-3.221728"><ele>490</ele><time>2023-01-06T14:08:03Z</time><name>PT3558</name></trkpt>
<trkpt lat="53.017545" lon="-3.221679"><ele>488</ele><time>2023-01-06T14:08:07Z</time><name>PT3559</name></trkpt>
<trkpt lat="53.017579" lon="-3.221620"><ele>487</ele><time>2023-01-06T14:08:11Z</time><name>PT3560</name></trkpt>
<trkpt lat="53.017619" lon="-3.221564"><ele>487</ele><time>2023-01-06T14:08:15Z</time><name>PT3561</name></trkpt>
<trkpt lat="53.017666" lon="-3.221515"><ele>488</ele><time>2023-01-06T14:08:19Z</time><name>PT3562</name></trkpt>
<trkpt lat="53.017697" lon="-3.221479"><ele>489</ele><time>2023-01-06T14:08:22Z</time><name>PT3563</name></trkpt>
<trkpt lat="53.017732" lon="-3.221437"><ele>489</ele><time>2023-01-06T14:08:26Z</time><name>PT3564</name></trkpt>
<trkpt lat="53.017762" lon="-3.221395"><ele>489</ele><time>2023-01-06T14:08:30Z</time><name>PT3565</name></trkpt>
<trkpt lat="53.017794" lon="-3.221362"><ele>490</ele><time>2023-01-06T14:08:33Z</time><name>PT3566</name></trkpt>
<trkpt lat="53.017822" lon="-3.221326"><ele>490</ele><time>2023-01-06T14:08:36Z</time><name>PT3567</name></trkpt>
<trkpt lat="53.017853" lon="-3.221282"><ele>490</ele><time>2023-01-06T14:08:40Z</time><name>PT3568</name></trkpt>
<trkpt lat="53.017887" lon="-3.221243"><ele>490</ele><time>2023-01-06T14:08:44Z</time><name>PT3569</name></trkpt>
<trkpt lat="53.017916" lon="-3.221211"><ele>491</ele><time>2023-01-06T14:08:47Z</time><name>PT3570</name></trkpt>
<trkpt lat="53.017946" lon="-3.221166"><ele>491</ele><time>2023-01-06T14:08:51Z</time><name>PT3571</name></trkpt>
<trkpt lat="53.017976" lon="-3.221126"><ele>491</ele><time>2023-01-06T14:08:55Z</time><name>PT3572</name></trkpt>
<trkpt lat="53.017995" lon="-3.221092"><ele>491</ele><time>2023-01-06T14:08:58Z</time><name>PT3573</name></trkpt>
<trkpt lat="53.018024" lon="-3.221045"><ele>491</ele><time>2023-01-06T14:09:02Z</time><name>PT3574</name></trkpt>
<trkpt lat="53.018045" lon="-3.221007"><ele>492</ele><time>2023-01-06T14:09:05Z</time><name>PT3575</name></trkpt>
<trkpt lat="53.018070" lon="-3.220959"><ele>493</ele><time>2023-01-06T14:09:09Z</time><name>PT3576</name></trkpt>
<trkpt lat="53.018095" lon="-3.220918"><ele>494</ele><time>2023-01-06T14:09:13Z</time><name>PT3577</name></trkpt>
<trkpt lat="53.018116" lon="-3.220885"><ele>495</ele><time>2023-01-06T14:09:16Z</time><name>PT3578</name></trkpt>
<trkpt lat="53.018133" lon="-3.220861"><ele>496</ele><time>2023-01-06T14:09:19Z</time><name>PT3579</name></trkpt>
<trkpt lat="53.018153" lon="-3.220814"><ele>496</ele><time>2023-01-06T14:09:23Z</time><name>PT3580</name></trkpt>
<trkpt lat="53.018177" lon="-3.220774"><ele>497</ele><time>2023-01-06T14:09:27Z</time><name>PT3581</name></trkpt>
<trkpt lat="53.018185" lon="-3.220758"><ele>497</ele><time>2023-01-06T14:09:31Z</time><name>PT3582</name></trkpt>
<trkpt lat="53.018203" lon="-3.220712"><ele>498</ele><time>2023-01-06T14:09:35Z</time><name>PT3583</name></trkpt>
<trkpt lat="53.018213" lon="-3.220679"><ele>499</ele><time>2023-01-06T14:09:38Z</time><name>PT3584</name></trkpt>
<trkpt lat="53.018225" lon="-3.220639"><ele>499</ele><time>2023-01-06T14:09:42Z</time><name>PT3585</name></trkpt>
<trkpt lat="53.018244" lon="-3.220602"><ele>500</ele><time>2023-01-06T14:09:46Z</time><name>PT3586</name></trkpt>
<trkpt lat="53.018263" lon="-3.220560"><ele>502</ele><time>2023-01-06T14:09:50Z</time><name>PT3587</name></trkpt>
<trkpt lat="53.018282" lon="-3.220520"><ele>503</ele><time>2023-01-06T14:09:54Z</time><name>PT3588</name></trkpt>
<trkpt lat="53.018291" lon="-3.220486"><ele>503</ele><time>2023-01-06T14:09:57Z</time><name>PT3589</name></trkpt>
<trkpt lat="53.018302" lon="-3.220442"><ele>504</ele><time>2023-01-06T14:10:01Z</time><name>PT3590</name></trkpt>
<trkpt lat="53.018308" lon="-3.220405"><ele>505</ele><time>2023-01-06T14:10:04Z</time><name>PT3591</name></trkpt>
<trkpt lat="53.018325" lon="-3.220357"><ele>506</ele><time>2023-01-06T14:10:08Z</time><name>PT3592</name></trkpt>
<trkpt lat="53.018339" lon="-3.220320"><ele>507</ele><time>2023-01-06T14:10:11Z</time><name>PT3593</name></trkpt>
<trkpt lat="53.018359" lon="-3.220270"><ele>508</ele><time>2023-01-06T14:10:15Z</time><name>PT3594</name></trkpt>
<trkpt lat="53.018375" lon="-3.220220"><ele>509</ele><time>2023-01-06T14:10:19Z</time><name>PT3595</name></trkpt>
<trkpt lat="53.018384" lon="-3.220179"><ele>509</ele><time>2023-01-06T14:10:22Z</time><name>PT3596</name></trkpt>
<trkpt lat="53.018399" lon="-3.220125"><ele>510</ele><time>2023-01-06T14:10:26Z</time><name>PT3597</name></trkpt>
<trkpt lat="53.018408" lon="-3.220071"><ele>512</ele><time>2023-01-06T14:10:30Z</time><name>PT3598</name></trkpt>
<trkpt lat="53.018415" lon="-3.220019"><ele>513</ele><time>2023-01-06T14:10:34Z</time><name>PT3599</name></trkpt>
<trkpt lat="53.018424" lon="-3.219964"><ele>515</ele><time>2023-01-06T14:10:38Z</time><name>PT3600</name></trkpt>
<trkpt lat="53.018431" lon="-3.219916"><ele>516</ele><time>2023-01-06T14:10:42Z</time><name>PT3601</name></trkpt>
<trkpt lat="53.018439" lon="-3.219890"><ele>516</ele><time>2023-01-06T14:10:45Z</time><name>PT3602</name></trkpt>
<trkpt lat="53.018451" lon="-3.219862"><ele>517</ele><time>2023-01-06T14:10:48Z</time><name>PT3603</name></trkpt>
<trkpt lat="53.018463" lon="-3.219823"><ele>518</ele><time>2023-01-06T14:10:52Z</time><name>PT3604</name></trkpt>
<trkpt lat="53.018475" lon="-3.219793"><ele>518</ele><time>2023-01-06T14:10:55Z</time><name>PT3605</name></trkpt>
<trkpt lat="53.018483" lon="-3.219761"><ele>519</ele><time>2023-01-06T14:10:58Z</time><name>PT3606</name></trkpt>
<trkpt lat="53.018498" lon="-3.219726"><ele>519</ele><time>2023-01-06T14:11:02Z</time><name>PT3607</name></trkpt>
<trkpt lat="53.018506" lon="-3.219679"><ele>520</ele><time>2023-01-06T14:11:06Z</time><name>PT3608</name></trkpt>
<trkpt lat="53.018512" lon="-3.219643"><ele>521</ele><time>2023-01-06T14:11:09Z</time><name>PT3609</name></trkpt>
<trkpt lat="53.018516" lon="-3.219608"><ele>521</ele><time>2023-01-06T14:11:12Z</time><name>PT3610</name></trkpt>
<trkpt lat="53.018531" lon="-3.219574"><ele>523</ele><time>2023-01-06T14:11:16Z</time><name>PT3611</name></trkpt>
<trkpt lat="53.018536" lon="-3.219551"><ele>523</ele><time>2023-01-06T14:11:19Z</time><name>PT3612</name></trkpt>
<trkpt lat="53.018542" lon="-3.219514"><ele>523</ele><time>2023-01-06T14:11:22Z</time><name>PT3613</name></trkpt>
<trkpt lat="53.018547" lon="-3.219471"><ele>524</ele><time>2023-01-06T14:11:25Z</time><name>PT3614</name></trkpt>
<trkpt lat="53.018543" lon="-3.219431"><ele>525</ele><time>2023-01-06T14:11:29Z</time><name>PT3615</name></trkpt>
<trkpt lat="53.018555" lon="-3.219391"><ele>525</ele><time>2023-01-06T14:11:32Z</time><name>PT3616</name></trkpt>
<trkpt lat="53.018560" lon="-3.219322"><ele>525</ele><time>2023-01-06T14:11:36Z</time><name>PT3617</name></trkpt>
<trkpt lat="53.018565" lon="-3.219250"><ele>526</ele><time>2023-01-06T14:11:40Z</time><name>PT3618</name></trkpt>
<trkpt lat="53.018568" lon="-3.219202"><ele>526</ele><time>2023-01-06T14:11:43Z</time><name>PT3619</name></trkpt>
<trkpt lat="53.018578" lon="-3.219134"><ele>526</ele><time>2023-01-06T14:11:47Z</time><name>PT3620</name></trkpt>
<trkpt lat="53.018584" lon="-3.219067"><ele>527</ele><time>2023-01-06T14:11:51Z</time><name>PT3621</name></trkpt>
<trkpt lat="53.018590" lon="-3.219013"><ele>526</ele><time>2023-01-06T14:11:54Z</time><name>PT3622</name></trkpt>
<trkpt lat="53.018596" lon="-3.218954"><ele>527</ele><time>2023-01-06T14:11:57Z</time><name>PT3623</name></trkpt>
<trkpt lat="53.018605" lon="-3.218899"><ele>527</ele><time>2023-01-06T14:12:00Z</time><name>PT3624</name></trkpt>
<trkpt lat="53.018612" lon="-3.218841"><ele>528</ele><time>2023-01-06T14:12:03Z</time><name>PT3625</name></trkpt>
<trkpt lat="53.018614" lon="-3.218770"><ele>528</ele><time>2023-01-06T14:12:07Z</time><name>PT3626</name></trkpt>
<trkpt lat="53.018617" lon="-3.218714"><ele>528</ele><time>2023-01-06T14:12:10Z</time><name>PT3627</name></trkpt>
<trkpt lat="53.018621" lon="-3.218658"><ele>529</ele><time>2023-01-06T14:12:13Z</time><name>PT3628</name></trkpt>
<trkpt lat="53.018620" lon="-3.218609"><ele>530</ele><time>2023-01-06T14:12:16Z</time><name>PT3629</name></trkpt>
<trkpt lat="53.018621" lon="-3.218539"><ele>530</ele><time>2023-01-06T14:12:20Z</time><name>PT3630</name></trkpt>
<trkpt lat="53.018620" lon="-3.218469"><ele>531</ele><time>2023-01-06T14:12:24Z</time><name>PT3631</name></trkpt>
<trkpt lat="53.018619" lon="-3.218408"><ele>531</ele><time>2023-01-06T14:12:27Z</time><name>PT3632</name></trkpt>
<trkpt lat="53.018619" lon="-3.218340"><ele>531</ele><time>2023-01-06T14:12:31Z</time><name>PT3633</name></trkpt>
<trkpt lat="53.018617" lon="-3.218286"><ele>532</ele><time>2023-01-06T14:12:34Z</time><name>PT3634</name></trkpt>
<trkpt lat="53.018614" lon="-3.218212"><ele>532</ele><time>2023-01-06T14:12:38Z</time><name>PT3635</name></trkpt>
<trkpt lat="53.018615" lon="-3.218129"><ele>531</ele><time>2023-01-06T14:12:42Z</time><name>PT3636</name></trkpt>
<trkpt lat="53.018617" lon="-3.218076"><ele>531</ele><time>2023-01-06T14:12:46Z</time><name>PT3637</name></trkpt>
<trkpt lat="53.018614" lon="-3.217997"><ele>532</ele><time>2023-01-06T14:12:50Z</time><name>PT3638</name></trkpt>
<trkpt lat="53.018611" lon="-3.217911"><ele>534</ele><time>2023-01-06T14:12:54Z</time><name>PT3639</name></trkpt>
<trkpt lat="53.018610" lon="-3.217855"><ele>535</ele><time>2023-01-06T14:12:57Z</time><name>PT3640</name></trkpt>
<trkpt lat="53.018610" lon="-3.217783"><ele>535</ele><time>2023-01-06T14:13:01Z</time><name>PT3641</name></trkpt>
<trkpt lat="53.018613" lon="-3.217703"><ele>535</ele><time>2023-01-06T14:13:05Z</time><name>PT3642</name></trkpt>
<trkpt lat="53.018612" lon="-3.217645"><ele>536</ele><time>2023-01-06T14:13:08Z</time><name>PT3643</name></trkpt>
<trkpt lat="53.018625" lon="-3.217585"><ele>539</ele><time>2023-01-06T14:13:11Z</time><name>PT3644</name></trkpt>
<trkpt lat="53.018642" lon="-3.217531"><ele>541</ele><time>2023-01-06T14:13:14Z</time><name>PT3645</name></trkpt>
<trkpt lat="53.018663" lon="-3.217465"><ele>541</ele><time>2023-01-06T14:13:18Z</time><name>PT3646</name></trkpt>
<trkpt lat="53.018681" lon="-3.217398"><ele>542</ele><time>2023-01-06T14:13:22Z</time><name>PT3647</name></trkpt>
<trkpt lat="53.018694" lon="-3.217351"><ele>543</ele><time>2023-01-06T14:13:25Z</time><name>PT3648</name></trkpt>
<trkpt lat="53.018708" lon="-3.217308"><ele>544</ele><time>2023-01-06T14:13:28Z</time><name>PT3649</name></trkpt>
<trkpt lat="53.018725" lon="-3.217275"><ele>544</ele><time>2023-01-06T14:13:31Z</time><name>PT3650</name></trkpt>
<trkpt lat="53.018737" lon="-3.217223"><ele>545</ele><time>2023-01-06T14:13:35Z</time><name>PT3651</name></trkpt>
<trkpt lat="53.018753" lon="-3.217173"><ele>546</ele><time>2023-01-06T14:13:39Z</time><name>PT3652</name></trkpt>
<trkpt lat="53.018765" lon="-3.217128"><ele>548</ele><time>2023-01-06T14:13:43Z</time><name>PT3653</name></trkpt>
<trkpt lat="53.018777" lon="-3.217078"><ele>547</ele><time>2023-01-06T14:13:47Z</time><name>PT3654</name></trkpt>
<trkpt lat="53.018785" lon="-3.217042"><ele>547</ele><time>2023-01-06T14:13:50Z</time><name>PT3655</name></trkpt>
<trkpt lat="53.018799" lon="-3.217007"><ele>547</ele><time>2023-01-06T14:13:54Z</time><name>PT3656</name></trkpt>
<trkpt lat="53.018805" lon="-3.216977"><ele>546</ele><time>2023-01-06T14:13:57Z</time><name>PT3657</name></trkpt>
<trkpt lat="53.018811" lon="-3.216923"><ele>547</ele><time>2023-01-06T14:14:01Z</time><name>PT3658</name></trkpt>
<trkpt lat="53.018822" lon="-3.216891"><ele>547</ele><time>2023-01-06T14:14:04Z</time><name>PT3659</name></trkpt>
<trkpt lat="53.018828" lon="-3.216854"><ele>547</ele><time>2023-01-06T14:14:07Z</time><name>PT3660</name></trkpt>
<trkpt lat="53.018835" lon="-3.216798"><ele>548</ele><time>2023-01-06T14:14:11Z</time><name>PT3661</name></trkpt>
<trkpt lat="53.018840" lon="-3.216756"><ele>549</ele><time>2023-01-06T14:14:14Z</time><name>PT3662</name></trkpt>
<trkpt lat="53.018852" lon="-3.216701"><ele>550</ele><time>2023-01-06T14:14:18Z</time><name>PT3663</name></trkpt>
<trkpt lat="53.018855" lon="-3.216648"><ele>551</ele><time>2023-01-06T14:14:21Z</time><name>PT3664</name></trkpt>
<trkpt lat="53.018843" lon="-3.216585"><ele>551</ele><time>2023-01-06T14:14:25Z</time><name>PT3665</name></trkpt>
<trkpt lat="53.018844" lon="-3.216534"><ele>551</ele><time>2023-01-06T14:14:28Z</time><name>PT3666</name></trkpt>
<trkpt lat="53.018849" lon="-3.216480"><ele>551</ele><time>2023-01-06T14:14:31Z</time><name>PT3667</name></trkpt>
<trkpt lat="53.018851" lon="-3.216425"><ele>551</ele><time>2023-01-06T14:14:34Z</time><name>PT3668</name></trkpt>
<trkpt lat="53.018840" lon="-3.216346"><ele>550</ele><time>2023-01-06T14:14:38Z</time><name>PT3669</name></trkpt>
<trkpt lat="53.018828" lon="-3.216293"><ele>550</ele><time>2023-01-06T14:14:41Z</time><name>PT3670</name></trkpt>
<trkpt lat="53.018838" lon="-3.216242"><ele>550</ele><time>2023-01-06T14:14:44Z</time><name>PT3671</name></trkpt>
<trkpt lat="53.018846" lon="-3.216190"><ele>551</ele><time>2023-01-06T14:14:47Z</time><name>PT3672</name></trkpt>
<trkpt lat="53.018852" lon="-3.216177"><ele>552</ele><time>2023-01-06T14:14:51Z</time><name>PT3673</name></trkpt>
<trkpt lat="53.018852" lon="-3.216175"><ele>552</ele><time>2023-01-06T14:14:54Z</time><name>PT3674</name></trkpt>
<trkpt lat="53.018854" lon="-3.216170"><ele>552</ele><time>2023-01-06T14:15:29Z</time><name>PT3675</name></trkpt>
<trkpt lat="53.018851" lon="-3.216101"><ele>551</ele><time>2023-01-06T14:15:33Z</time><name>PT3676</name></trkpt>
<trkpt lat="53.018851" lon="-3.216040"><ele>551</ele><time>2023-01-06T14:15:36Z</time><name>PT3677</name></trkpt>
<trkpt lat="53.018843" lon="-3.215967"><ele>551</ele><time>2023-01-06T14:15:40Z</time><name>PT3678</name></trkpt>
<trkpt lat="53.018834" lon="-3.215905"><ele>551</ele><time>2023-01-06T14:15:43Z</time><name>PT3679</name></trkpt>
<trkpt lat="53.018818" lon="-3.215823"><ele>551</ele><time>2023-01-06T14:15:47Z</time><name>PT3680</name></trkpt>
<trkpt lat="53.018808" lon="-3.215770"><ele>551</ele><time>2023-01-06T14:15:50Z</time><name>PT3681</name></trkpt>
<trkpt lat="53.018796" lon="-3.215700"><ele>550</ele><time>2023-01-06T14:15:54Z</time><name>PT3682</name></trkpt>
<trkpt lat="53.018785" lon="-3.215636"><ele>550</ele><time>2023-01-06T14:15:57Z</time><name>PT3683</name></trkpt>
<trkpt lat="53.018773" lon="-3.215569"><ele>550</ele><time>2023-01-06T14:16:00Z</time><name>PT3684</name></trkpt>
<trkpt lat="53.018761" lon="-3.215482"><ele>549</ele><time>2023-01-06T14:16:04Z</time><name>PT3685</name></trkpt>
<trkpt lat="53.018756" lon="-3.215419"><ele>549</ele><time>2023-01-06T14:16:07Z</time><name>PT3686</name></trkpt>
<trkpt lat="53.018749" lon="-3.215365"><ele>549</ele><time>2023-01-06T14:16:10Z</time><name>PT3687</name></trkpt>
<trkpt lat="53.018744" lon="-3.215293"><ele>549</ele><time>2023-01-06T14:16:14Z</time><name>PT3688</name></trkpt>
<trkpt lat="53.018738" lon="-3.215222"><ele>549</ele><time>2023-01-06T14:16:18Z</time><name>PT3689</name></trkpt>
<trkpt lat="53.018718" lon="-3.215154"><ele>548</ele><time>2023-01-06T14:16:21Z</time><name>PT3690</name></trkpt>
<trkpt lat="53.018705" lon="-3.215096"><ele>547</ele><time>2023-01-06T14:16:24Z</time><name>PT3691</name></trkpt>
<trkpt lat="53.018689" lon="-3.215034"><ele>547</ele><time>2023-01-06T14:16:27Z</time><name>PT3692</name></trkpt>
<trkpt lat="53.018664" lon="-3.214959"><ele>546</ele><time>2023-01-06T14:16:31Z</time><name>PT3693</name></trkpt>
<trkpt lat="53.018647" lon="-3.214890"><ele>545</ele><time>2023-01-06T14:16:34Z</time><name>PT3694</name></trkpt>
<trkpt lat="53.018627" lon="-3.214838"><ele>545</ele><time>2023-01-06T14:16:37Z</time><name>PT3695</name></trkpt>
<trkpt lat="53.018612" lon="-3.214780"><ele>545</ele><time>2023-01-06T14:16:40Z</time><name>PT3696</name></trkpt>
<trkpt lat="53.018598" lon="-3.214696"><ele>544</ele><time>2023-01-06T14:16:44Z</time><name>PT3697</name></trkpt>
<trkpt lat="53.018594" lon="-3.214616"><ele>544</ele><time>2023-01-06T14:16:48Z</time><name>PT3698</name></trkpt>
<trkpt lat="53.018596" lon="-3.214552"><ele>544</ele><time>2023-01-06T14:16:51Z</time><name>PT3699</name></trkpt>
<trkpt lat="53.018587" lon="-3.214478"><ele>544</ele><time>2023-01-06T14:16:55Z</time><name>PT3700</name></trkpt>
<trkpt lat="53.018589" lon="-3.214399"><ele>544</ele><time>2023-01-06T14:16:59Z</time><name>PT3701</name></trkpt>
<trkpt lat="53.018600" lon="-3.214359"><ele>544</ele><time>2023-01-06T14:17:02Z</time><name>PT3702</name></trkpt>
<trkpt lat="53.018603" lon="-3.214280"><ele>543</ele><time>2023-01-06T14:17:06Z</time><name>PT3703</name></trkpt>
<trkpt lat="53.018607" lon="-3.214203"><ele>543</ele><time>2023-01-06T14:17:10Z</time><name>PT3704</name></trkpt>
<trkpt lat="53.018615" lon="-3.214127"><ele>542</ele><time>2023-01-06T14:17:13Z</time><name>PT3705</name></trkpt>
<trkpt lat="53.018617" lon="-3.214068"><ele>542</ele><time>2023-01-06T14:17:16Z</time><name>PT3706</name></trkpt>
<trkpt lat="53.018617" lon="-3.213982"><ele>542</ele><time>2023-01-06T14:17:20Z</time><name>PT3707</name></trkpt>
<trkpt lat="53.018615" lon="-3.213920"><ele>541</ele><time>2023-01-06T14:17:23Z</time><name>PT3708</name></trkpt>
<trkpt lat="53.018612" lon="-3.213869"><ele>541</ele><time>2023-01-06T14:17:26Z</time><name>PT3709</name></trkpt>
<trkpt lat="53.018608" lon="-3.213793"><ele>538</ele><time>2023-01-06T14:17:30Z</time><name>PT3710</name></trkpt>
<trkpt lat="53.018596" lon="-3.213715"><ele>537</ele><time>2023-01-06T14:17:34Z</time><name>PT3711</name></trkpt>
<trkpt lat="53.018589" lon="-3.213642"><ele>536</ele><time>2023-01-06T14:17:38Z</time><name>PT3712</name></trkpt>
<trkpt lat="53.018593" lon="-3.213558"><ele>535</ele><time>2023-01-06T14:17:42Z</time><name>PT3713</name></trkpt>
<trkpt lat="53.018610" lon="-3.213486"><ele>534</ele><time>2023-01-06T14:17:46Z</time><name>PT3714</name></trkpt>
<trkpt lat="53.018628" lon="-3.213441"><ele>534</ele><time>2023-01-06T14:17:49Z</time><name>PT3715</name></trkpt>
<trkpt lat="53.018645" lon="-3.213393"><ele>535</ele><time>2023-01-06T14:17:52Z</time><name>PT3716</name></trkpt>
<trkpt lat="53.018662" lon="-3.213346"><ele>534</ele><time>2023-01-06T14:17:55Z</time><name>PT3717</name></trkpt>
<trkpt lat="53.018674" lon="-3.213282"><ele>534</ele><time>2023-01-06T14:17:59Z</time><name>PT3718</name></trkpt>
<trkpt lat="53.018681" lon="-3.213219"><ele>534</ele><time>2023-01-06T14:18:03Z</time><name>PT3719</name></trkpt>
<trkpt lat="53.018687" lon="-3.213140"><ele>533</ele><time>2023-01-06T14:18:07Z</time><name>PT3720</name></trkpt>
<trkpt lat="53.018694" lon="-3.213075"><ele>532</ele><time>2023-01-06T14:18:11Z</time><name>PT3721</name></trkpt>
<trkpt lat="53.018701" lon="-3.212999"><ele>532</ele><time>2023-01-06T14:18:15Z</time><name>PT3722</name></trkpt>
<trkpt lat="53.018711" lon="-3.212935"><ele>531</ele><time>2023-01-06T14:18:18Z</time><name>PT3723</name></trkpt>
<trkpt lat="53.018722" lon="-3.212874"><ele>530</ele><time>2023-01-06T14:18:22Z</time><name>PT3724</name></trkpt>
<trkpt lat="53.018724" lon="-3.212865"><ele>531</ele><time>2023-01-06T14:18:25Z</time><name>PT3725</name></trkpt>
<trkpt lat="53.018728" lon="-3.212844"><ele>530</ele><time>2023-01-06T14:18:29Z</time><name>PT3726</name></trkpt>
<trkpt lat="53.018742" lon="-3.212800"><ele>529</ele><time>2023-01-06T14:18:32Z</time><name>PT3727</name></trkpt>
<trkpt lat="53.018754" lon="-3.212756"><ele>529</ele><time>2023-01-06T14:18:35Z</time><name>PT3728</name></trkpt>
<trkpt lat="53.018768" lon="-3.212704"><ele>529</ele><time>2023-01-06T14:18:39Z</time><name>PT3729</name></trkpt>
<trkpt lat="53.018788" lon="-3.212665"><ele>528</ele><time>2023-01-06T14:18:43Z</time><name>PT3730</name></trkpt>
<trkpt lat="53.018798" lon="-3.212635"><ele>527</ele><time>2023-01-06T14:18:46Z</time><name>PT3731</name></trkpt>
<trkpt lat="53.018815" lon="-3.212575"><ele>526</ele><time>2023-01-06T14:18:50Z</time><name>PT3732</name></trkpt>
<trkpt lat="53.018832" lon="-3.212528"><ele>526</ele><time>2023-01-06T14:18:53Z</time><name>PT3733</name></trkpt>
<trkpt lat="53.018854" lon="-3.212481"><ele>525</ele><time>2023-01-06T14:18:56Z</time><name>PT3734</name></trkpt>
<trkpt lat="53.018875" lon="-3.212416"><ele>524</ele><time>2023-01-06T14:19:00Z</time><name>PT3735</name></trkpt>
<trkpt lat="53.018889" lon="-3.212372"><ele>523</ele><time>2023-01-06T14:19:03Z</time><name>PT3736</name></trkpt>
<trkpt lat="53.018903" lon="-3.212319"><ele>522</ele><time>2023-01-06T14:19:06Z</time><name>PT3737</name></trkpt>
<trkpt lat="53.018928" lon="-3.212261"><ele>521</ele><time>2023-01-06T14:19:10Z</time><name>PT3738</name></trkpt>
<trkpt lat="53.018943" lon="-3.212202"><ele>520</ele><time>2023-01-06T14:19:14Z</time><name>PT3739</name></trkpt>
<trkpt lat="53.018957" lon="-3.212137"><ele>520</ele><time>2023-01-06T14:19:18Z</time><name>PT3740</name></trkpt>
<trkpt lat="53.018969" lon="-3.212072"><ele>518</ele><time>2023-01-06T14:19:22Z</time><name>PT3741</name></trkpt>
<trkpt lat="53.018981" lon="-3.212021"><ele>517</ele><time>2023-01-06T14:19:25Z</time><name>PT3742</name></trkpt>
<trkpt lat="53.018992" lon="-3.211957"><ele>516</ele><time>2023-01-06T14:19:29Z</time><name>PT3743</name></trkpt>
<trkpt lat="53.019001" lon="-3.211903"><ele>515</ele><time>2023-01-06T14:19:32Z</time><name>PT3744</name></trkpt>
<trkpt lat="53.019018" lon="-3.211839"><ele>515</ele><time>2023-01-06T14:19:36Z</time><name>PT3745</name></trkpt>
<trkpt lat="53.019030" lon="-3.211765"><ele>514</ele><time>2023-01-06T14:19:40Z</time><name>PT3746</name></trkpt>
<trkpt lat="53.019045" lon="-3.211698"><ele>513</ele><time>2023-01-06T14:19:44Z</time><name>PT3747</name></trkpt>
<trkpt lat="53.019057" lon="-3.211640"><ele>513</ele><time>2023-01-06T14:19:47Z</time><name>PT3748</name></trkpt>
<trkpt lat="53.019070" lon="-3.211569"><ele>512</ele><time>2023-01-06T14:19:51Z</time><name>PT3749</name></trkpt>
<trkpt lat="53.019075" lon="-3.211517"><ele>512</ele><time>2023-01-06T14:19:54Z</time><name>PT3750</name></trkpt>
<trkpt lat="53.019094" lon="-3.211469"><ele>512</ele><time>2023-01-06T14:19:57Z</time><name>PT3751</name></trkpt>
<trkpt lat="53.019107" lon="-3.211424"><ele>511</ele><time>2023-01-06T14:20:00Z</time><name>PT3752</name></trkpt>
<trkpt lat="53.019122" lon="-3.211355"><ele>510</ele><time>2023-01-06T14:20:04Z</time><name>PT3753</name></trkpt>
<trkpt lat="53.019142" lon="-3.211286"><ele>511</ele><time>2023-01-06T14:20:08Z</time><name>PT3754</name></trkpt>
<trkpt lat="53.019161" lon="-3.211234"><ele>510</ele><time>2023-01-06T14:20:11Z</time><name>PT3755</name></trkpt>
<trkpt lat="53.019177" lon="-3.211176"><ele>510</ele><time>2023-01-06T14:20:14Z</time><name>PT3756</name></trkpt>
<trkpt lat="53.019192" lon="-3.211134"><ele>510</ele><time>2023-01-06T14:20:17Z</time><name>PT3757</name></trkpt>
<trkpt lat="53.019216" lon="-3.211068"><ele>509</ele><time>2023-01-06T14:20:21Z</time><name>PT3758</name></trkpt>
<trkpt lat="53.019236" lon="-3.211015"><ele>508</ele><time>2023-01-06T14:20:25Z</time><name>PT3759</name></trkpt>
<trkpt lat="53.019247" lon="-3.210973"><ele>507</ele><time>2023-01-06T14:20:28Z</time><name>PT3760</name></trkpt>
<trkpt lat="53.019269" lon="-3.210906"><ele>506</ele><time>2023-01-06T14:20:32Z</time><name>PT3761</name></trkpt>
<trkpt lat="53.019285" lon="-3.210873"><ele>506</ele><time>2023-01-06T14:20:35Z</time><name>PT3762</name></trkpt>
<trkpt lat="53.019310" lon="-3.210811"><ele>505</ele><time>2023-01-06T14:20:39Z</time><name>PT3763</name></trkpt>
<trkpt lat="53.019333" lon="-3.210749"><ele>503</ele><time>2023-01-06T14:20:43Z</time><name>PT3764</name></trkpt>
<trkpt lat="53.019352" lon="-3.210700"><ele>501</ele><time>2023-01-06T14:20:46Z</time><name>PT3765</name></trkpt>
<trkpt lat="53.019375" lon="-3.210643"><ele>500</ele><time>2023-01-06T14:20:50Z</time><name>PT3766</name></trkpt>
<trkpt lat="53.019391" lon="-3.210605"><ele>499</ele><time>2023-01-06T14:20:53Z</time><name>PT3767</name></trkpt>
<trkpt lat="53.019423" lon="-3.210557"><ele>497</ele><time>2023-01-06T14:20:57Z</time><name>PT3768</name></trkpt>
<trkpt lat="53.019442" lon="-3.210523"><ele>496</ele><time>2023-01-06T14:21:00Z</time><name>PT3769</name></trkpt>
<trkpt lat="53.019473" lon="-3.210487"><ele>495</ele><time>2023-01-06T14:21:04Z</time><name>PT3770</name></trkpt>
<trkpt lat="53.019506" lon="-3.210448"><ele>494</ele><time>2023-01-06T14:21:08Z</time><name>PT3771</name></trkpt>
<trkpt lat="53.019541" lon="-3.210413"><ele>493</ele><time>2023-01-06T14:21:12Z</time><name>PT3772</name></trkpt>
<trkpt lat="53.019575" lon="-3.210374"><ele>492</ele><time>2023-01-06T14:21:16Z</time><name>PT3773</name></trkpt>
<trkpt lat="53.019597" lon="-3.210326"><ele>491</ele><time>2023-01-06T14:21:20Z</time><name>PT3774</name></trkpt>
<trkpt lat="53.019619" lon="-3.210298"><ele>490</ele><time>2023-01-06T14:21:23Z</time><name>PT3775</name></trkpt>
<trkpt lat="53.019657" lon="-3.210257"><ele>490</ele><time>2023-01-06T14:21:27Z</time><name>PT3776</name></trkpt>
<trkpt lat="53.019695" lon="-3.210213"><ele>488</ele><time>2023-01-06T14:21:31Z</time><name>PT3777</name></trkpt>
<trkpt lat="53.019730" lon="-3.210182"><ele>487</ele><time>2023-01-06T14:21:35Z</time><name>PT3778</name></trkpt>
<trkpt lat="53.019756" lon="-3.210157"><ele>486</ele><time>2023-01-06T14:21:38Z</time><name>PT3779</name></trkpt>
<trkpt lat="53.019780" lon="-3.210107"><ele>485</ele><time>2023-01-06T14:21:42Z</time><name>PT3780</name></trkpt>
<trkpt lat="53.019810" lon="-3.210075"><ele>484</ele><time>2023-01-06T14:21:46Z</time><name>PT3781</name></trkpt>
<trkpt lat="53.019843" lon="-3.210033"><ele>484</ele><time>2023-01-06T14:21:50Z</time><name>PT3782</name></trkpt>
<trkpt lat="53.019877" lon="-3.210005"><ele>483</ele><time>2023-01-06T14:21:54Z</time><name>PT3783</name></trkpt>
<trkpt lat="53.019912" lon="-3.209971"><ele>481</ele><time>2023-01-06T14:21:58Z</time><name>PT3784</name></trkpt>
<trkpt lat="53.019946" lon="-3.209945"><ele>480</ele><time>2023-01-06T14:22:02Z</time><name>PT3785</name></trkpt>
<trkpt lat="53.019976" lon="-3.209924"><ele>479</ele><time>2023-01-06T14:22:06Z</time><name>PT3786</name></trkpt>
<trkpt lat="53.020010" lon="-3.209901"><ele>478</ele><time>2023-01-06T14:22:10Z</time><name>PT3787</name></trkpt>
<trkpt lat="53.020038" lon="-3.209881"><ele>478</ele><time>2023-01-06T14:22:13Z</time><name>PT3788</name></trkpt>
<trkpt lat="53.020071" lon="-3.209844"><ele>478</ele><time>2023-01-06T14:22:17Z</time><name>PT3789</name></trkpt>
<trkpt lat="53.020089" lon="-3.209813"><ele>477</ele><time>2023-01-06T14:22:20Z</time><name>PT3790</name></trkpt>
<trkpt lat="53.020115" lon="-3.209799"><ele>475</ele><time>2023-01-06T14:22:23Z</time><name>PT3791</name></trkpt>
<trkpt lat="53.020146" lon="-3.209764"><ele>473</ele><time>2023-01-06T14:22:27Z</time><name>PT3792</name></trkpt>
<trkpt lat="53.020165" lon="-3.209741"><ele>472</ele><time>2023-01-06T14:22:30Z</time><name>PT3793</name></trkpt>
<trkpt lat="53.020197" lon="-3.209718"><ele>472</ele><time>2023-01-06T14:22:34Z</time><name>PT3794</name></trkpt>
<trkpt lat="53.020236" lon="-3.209685"><ele>471</ele><time>2023-01-06T14:22:38Z</time><name>PT3795</name></trkpt>
<trkpt lat="53.020268" lon="-3.209666"><ele>471</ele><time>2023-01-06T14:22:41Z</time><name>PT3796</name></trkpt>
<trkpt lat="53.020293" lon="-3.209649"><ele>470</ele><time>2023-01-06T14:22:44Z</time><name>PT3797</name></trkpt>
<trkpt lat="53.020322" lon="-3.209626"><ele>470</ele><time>2023-01-06T14:22:47Z</time><name>PT3798</name></trkpt>
<trkpt lat="53.020364" lon="-3.209599"><ele>469</ele><time>2023-01-06T14:22:51Z</time><name>PT3799</name></trkpt>
<trkpt lat="53.020396" lon="-3.209586"><ele>468</ele><time>2023-01-06T14:22:54Z</time><name>PT3800</name></trkpt>
<trkpt lat="53.020435" lon="-3.209566"><ele>467</ele><time>2023-01-06T14:22:57Z</time><name>PT3801</name></trkpt>
<trkpt lat="53.020478" lon="-3.209535"><ele>466</ele><time>2023-01-06T14:23:01Z</time><name>PT3802</name></trkpt>
<trkpt lat="53.020511" lon="-3.209513"><ele>465</ele><time>2023-01-06T14:23:04Z</time><name>PT3803</name></trkpt>
<trkpt lat="53.020555" lon="-3.209483"><ele>463</ele><time>2023-01-06T14:23:08Z</time><name>PT3804</name></trkpt>
<trkpt lat="53.020586" lon="-3.209471"><ele>462</ele><time>2023-01-06T14:23:11Z</time><name>PT3805</name></trkpt>
<trkpt lat="53.020618" lon="-3.209459"><ele>461</ele><time>2023-01-06T14:23:14Z</time><name>PT3806</name></trkpt>
<trkpt lat="53.020649" lon="-3.209437"><ele>461</ele><time>2023-01-06T14:23:17Z</time><name>PT3807</name></trkpt>
<trkpt lat="53.020694" lon="-3.209407"><ele>461</ele><time>2023-01-06T14:23:21Z</time><name>PT3808</name></trkpt>
<trkpt lat="53.020747" lon="-3.209372"><ele>460</ele><time>2023-01-06T14:23:25Z</time><name>PT3809</name></trkpt>
<trkpt lat="53.020778" lon="-3.209345"><ele>460</ele><time>2023-01-06T14:23:28Z</time><name>PT3810</name></trkpt>
<trkpt lat="53.020811" lon="-3.209312"><ele>460</ele><time>2023-01-06T14:23:31Z</time><name>PT3811</name></trkpt>
<trkpt lat="53.020841" lon="-3.209278"><ele>458</ele><time>2023-01-06T14:23:34Z</time><name>PT3812</name></trkpt>
<trkpt lat="53.020868" lon="-3.209238"><ele>458</ele><time>2023-01-06T14:23:37Z</time><name>PT3813</name></trkpt>
<trkpt lat="53.020906" lon="-3.209184"><ele>457</ele><time>2023-01-06T14:23:41Z</time><name>PT3814</name></trkpt>
<trkpt lat="53.020948" lon="-3.209131"><ele>457</ele><time>2023-01-06T14:23:45Z</time><name>PT3815</name></trkpt>
<trkpt lat="53.020973" lon="-3.209088"><ele>456</ele><time>2023-01-06T14:23:48Z</time><name>PT3816</name></trkpt>
<trkpt lat="53.020980" lon="-3.209015"><ele>455</ele><time>2023-01-06T14:23:52Z</time><name>PT3817</name></trkpt>
<trkpt lat="53.020979" lon="-3.208948"><ele>456</ele><time>2023-01-06T14:23:55Z</time><name>PT3818</name></trkpt>
<trkpt lat="53.020967" lon="-3.208869"><ele>456</ele><time>2023-01-06T14:23:59Z</time><name>PT3819</name></trkpt>
<trkpt lat="53.020952" lon="-3.208786"><ele>457</ele><time>2023-01-06T14:24:03Z</time><name>PT3820</name></trkpt>
<trkpt lat="53.020933" lon="-3.208704"><ele>458</ele><time>2023-01-06T14:24:07Z</time><name>PT3821</name></trkpt>
<trkpt lat="53.020929" lon="-3.208641"><ele>457</ele><time>2023-01-06T14:24:10Z</time><name>PT3822</name></trkpt>
<trkpt lat="53.020932" lon="-3.208581"><ele>459</ele><time>2023-01-06T14:24:13Z</time><name>PT3823</name></trkpt>
<trkpt lat="53.020950" lon="-3.208517"><ele>457</ele><time>2023-01-06T14:24:17Z</time><name>PT3824</name></trkpt>
<trkpt lat="53.020971" lon="-3.208472"><ele>457</ele><time>2023-01-06T14:24:20Z</time><name>PT3825</name></trkpt>
<trkpt lat="53.020997" lon="-3.208429"><ele>457</ele><time>2023-01-06T14:24:23Z</time><name>PT3826</name></trkpt>
<trkpt lat="53.021032" lon="-3.208371"><ele>455</ele><time>2023-01-06T14:24:27Z</time><name>PT3827</name></trkpt>
<trkpt lat="53.021064" lon="-3.208312"><ele>454</ele><time>2023-01-06T14:24:31Z</time><name>PT3828</name></trkpt>
<trkpt lat="53.021097" lon="-3.208258"><ele>453</ele><time>2023-01-06T14:24:35Z</time><name>PT3829</name></trkpt>
<trkpt lat="53.021121" lon="-3.208219"><ele>452</ele><time>2023-01-06T14:24:38Z</time><name>PT3830</name></trkpt>
<trkpt lat="53.021156" lon="-3.208159"><ele>450</ele><time>2023-01-06T14:24:42Z</time><name>PT3831</name></trkpt>
<trkpt lat="53.021176" lon="-3.208118"><ele>450</ele><time>2023-01-06T14:24:45Z</time><name>PT3832</name></trkpt>
<trkpt lat="53.021206" lon="-3.208061"><ele>449</ele><time>2023-01-06T14:24:49Z</time><name>PT3833</name></trkpt>
<trkpt lat="53.021227" lon="-3.208021"><ele>449</ele><time>2023-01-06T14:24:52Z</time><name>PT3834</name></trkpt>
<trkpt lat="53.021257" lon="-3.207975"><ele>448</ele><time>2023-01-06T14:24:56Z</time><name>PT3835</name></trkpt>
<trkpt lat="53.021286" lon="-3.207938"><ele>447</ele><time>2023-01-06T14:24:59Z</time><name>PT3836</name></trkpt>
<trkpt lat="53.021320" lon="-3.207877"><ele>446</ele><time>2023-01-06T14:25:03Z</time><name>PT3837</name></trkpt>
<trkpt lat="53.021352" lon="-3.207818"><ele>444</ele><time>2023-01-06T14:25:07Z</time><name>PT3838</name></trkpt>
<trkpt lat="53.021385" lon="-3.207761"><ele>444</ele><time>2023-01-06T14:25:11Z</time><name>PT3839</name></trkpt>
<trkpt lat="53.021410" lon="-3.207717"><ele>443</ele><time>2023-01-06T14:25:14Z</time><name>PT3840</name></trkpt>
<trkpt lat="53.021442" lon="-3.207657"><ele>443</ele><time>2023-01-06T14:25:18Z</time><name>PT3841</name></trkpt>
<trkpt lat="53.021460" lon="-3.207618"><ele>442</ele><time>2023-01-06T14:25:21Z</time><name>PT3842</name></trkpt>
<trkpt lat="53.021485" lon="-3.207568"><ele>441</ele><time>2023-01-06T14:25:25Z</time><name>PT3843</name></trkpt>
<trkpt lat="53.021503" lon="-3.207524"><ele>441</ele><time>2023-01-06T14:25:28Z</time><name>PT3844</name></trkpt>
<trkpt lat="53.021535" lon="-3.207453"><ele>440</ele><time>2023-01-06T14:25:32Z</time><name>PT3845</name></trkpt>
<trkpt lat="53.021565" lon="-3.207399"><ele>440</ele><time>2023-01-06T14:25:36Z</time><name>PT3846</name></trkpt>
<trkpt lat="53.021588" lon="-3.207362"><ele>439</ele><time>2023-01-06T14:25:39Z</time><name>PT3847</name></trkpt>
<trkpt lat="53.021613" lon="-3.207322"><ele>439</ele><time>2023-01-06T14:25:42Z</time><name>PT3848</name></trkpt>
<trkpt lat="53.021649" lon="-3.207270"><ele>437</ele><time>2023-01-06T14:25:46Z</time><name>PT3849</name></trkpt>
<trkpt lat="53.021673" lon="-3.207239"><ele>437</ele><time>2023-01-06T14:25:49Z</time><name>PT3850</name></trkpt>
<trkpt lat="53.021711" lon="-3.207181"><ele>436</ele><time>2023-01-06T14:25:53Z</time><name>PT3851</name></trkpt>
<trkpt lat="53.021743" lon="-3.207129"><ele>435</ele><time>2023-01-06T14:25:57Z</time><name>PT3852</name></trkpt>
<trkpt lat="53.021776" lon="-3.207090"><ele>434</ele><time>2023-01-06T14:26:01Z</time><name>PT3853</name></trkpt>
<trkpt lat="53.021804" lon="-3.207048"><ele>433</ele><time>2023-01-06T14:26:04Z</time><name>PT3854</name></trkpt>
<trkpt lat="53.021825" lon="-3.207011"><ele>432</ele><time>2023-01-06T14:26:07Z</time><name>PT3855</name></trkpt>
<trkpt lat="53.021867" lon="-3.206967"><ele>431</ele><time>2023-01-06T14:26:11Z</time><name>PT3856</name></trkpt>
<trkpt lat="53.021894" lon="-3.206932"><ele>431</ele><time>2023-01-06T14:26:14Z</time><name>PT3857</name></trkpt>
<trkpt lat="53.021919" lon="-3.206900"><ele>430</ele><time>2023-01-06T14:26:17Z</time><name>PT3858</name></trkpt>
<trkpt lat="53.021956" lon="-3.206855"><ele>429</ele><time>2023-01-06T14:26:21Z</time><name>PT3859</name></trkpt>
<trkpt lat="53.021996" lon="-3.206794"><ele>429</ele><time>2023-01-06T14:26:25Z</time><name>PT3860</name></trkpt>
<trkpt lat="53.022024" lon="-3.206748"><ele>429</ele><time>2023-01-06T14:26:28Z</time><name>PT3861</name></trkpt>
<trkpt lat="53.022055" lon="-3.206709"><ele>429</ele><time>2023-01-06T14:26:31Z</time><name>PT3862</name></trkpt>
<trkpt lat="53.022098" lon="-3.206667"><ele>429</ele><time>2023-01-06T14:26:35Z</time><name>PT3863</name></trkpt>
<trkpt lat="53.022124" lon="-3.206640"><ele>429</ele><time>2023-01-06T14:26:38Z</time><name>PT3864</name></trkpt>
<trkpt lat="53.022160" lon="-3.206600"><ele>427</ele><time>2023-01-06T14:26:42Z</time><name>PT3865</name></trkpt>
<trkpt lat="53.022199" lon="-3.206551"><ele>427</ele><time>2023-01-06T14:26:46Z</time><name>PT3866</name></trkpt>
<trkpt lat="53.022234" lon="-3.206499"><ele>425</ele><time>2023-01-06T14:26:50Z</time><name>PT3867</name></trkpt>
<trkpt lat="53.022272" lon="-3.206441"><ele>426</ele><time>2023-01-06T14:26:54Z</time><name>PT3868</name></trkpt>
<trkpt lat="53.022297" lon="-3.206408"><ele>424</ele><time>2023-01-06T14:26:57Z</time><name>PT3869</name></trkpt>
<trkpt lat="53.022333" lon="-3.206358"><ele>422</ele><time>2023-01-06T14:27:01Z</time><name>PT3870</name></trkpt>
<trkpt lat="53.022358" lon="-3.206319"><ele>422</ele><time>2023-01-06T14:27:04Z</time><name>PT3871</name></trkpt>
<trkpt lat="53.022388" lon="-3.206279"><ele>421</ele><time>2023-01-06T14:27:07Z</time><name>PT3872</name></trkpt>
<trkpt lat="53.022412" lon="-3.206245"><ele>421</ele><time>2023-01-06T14:27:10Z</time><name>PT3873</name></trkpt>
<trkpt lat="53.022445" lon="-3.206189"><ele>420</ele><time>2023-01-06T14:27:14Z</time><name>PT3874</name></trkpt>
<trkpt lat="53.022485" lon="-3.206143"><ele>420</ele><time>2023-01-06T14:27:18Z</time><name>PT3875</name></trkpt>
<trkpt lat="53.022515" lon="-3.206113"><ele>419</ele><time>2023-01-06T14:27:21Z</time><name>PT3876</name></trkpt>
<trkpt lat="53.022548" lon="-3.206077"><ele>418</ele><time>2023-01-06T14:27:25Z</time><name>PT3877</name></trkpt>
<trkpt lat="53.022577" lon="-3.206042"><ele>417</ele><time>2023-01-06T14:27:29Z</time><name>PT3878</name></trkpt>
<trkpt lat="53.022609" lon="-3.206004"><ele>416</ele><time>2023-01-06T14:27:33Z</time><name>PT3879</name></trkpt>
<trkpt lat="53.022645" lon="-3.205969"><ele>415</ele><time>2023-01-06T14:27:37Z</time><name>PT3880</name></trkpt>
<trkpt lat="53.022672" lon="-3.205941"><ele>414</ele><time>2023-01-06T14:27:40Z</time><name>PT3881</name></trkpt>
<trkpt lat="53.022709" lon="-3.205898"><ele>414</ele><time>2023-01-06T14:27:44Z</time><name>PT3882</name></trkpt>
<trkpt lat="53.022736" lon="-3.205869"><ele>413</ele><time>2023-01-06T14:27:47Z</time><name>PT3883</name></trkpt>
<trkpt lat="53.022769" lon="-3.205833"><ele>413</ele><time>2023-01-06T14:27:51Z</time><name>PT3884</name></trkpt>
<trkpt lat="53.022798" lon="-3.205793"><ele>412</ele><time>2023-01-06T14:27:54Z</time><name>PT3885</name></trkpt>
<trkpt lat="53.022836" lon="-3.205755"><ele>412</ele><time>2023-01-06T14:27:58Z</time><name>PT3886</name></trkpt>
<trkpt lat="53.022863" lon="-3.205724"><ele>411</ele><time>2023-01-06T14:28:01Z</time><name>PT3887</name></trkpt>
<trkpt lat="53.022906" lon="-3.205688"><ele>412</ele><time>2023-01-06T14:28:05Z</time><name>PT3888</name></trkpt>
<trkpt lat="53.022935" lon="-3.205662"><ele>411</ele><time>2023-01-06T14:28:08Z</time><name>PT3889</name></trkpt>
<trkpt lat="53.022967" lon="-3.205636"><ele>410</ele><time>2023-01-06T14:28:11Z</time><name>PT3890</name></trkpt>
<trkpt lat="53.023000" lon="-3.205608"><ele>411</ele><time>2023-01-06T14:28:14Z</time><name>PT3891</name></trkpt>
<trkpt lat="53.023040" lon="-3.205574"><ele>410</ele><time>2023-01-06T14:28:18Z</time><name>PT3892</name></trkpt>
<trkpt lat="53.023075" lon="-3.205548"><ele>410</ele><time>2023-01-06T14:28:21Z</time><name>PT3893</name></trkpt>
<trkpt lat="53.023121" lon="-3.205533"><ele>409</ele><time>2023-01-06T14:28:25Z</time><name>PT3894</name></trkpt>
<trkpt lat="53.023173" lon="-3.205538"><ele>409</ele><time>2023-01-06T14:28:29Z</time><name>PT3895</name></trkpt>
<trkpt lat="53.023223" lon="-3.205551"><ele>408</ele><time>2023-01-06T14:28:33Z</time><name>PT3896</name></trkpt>
<trkpt lat="53.023273" lon="-3.205554"><ele>407</ele><time>2023-01-06T14:28:37Z</time><name>PT3897</name></trkpt>
<trkpt lat="53.023320" lon="-3.205564"><ele>407</ele><time>2023-01-06T14:28:41Z</time><name>PT3898</name></trkpt>
<trkpt lat="53.023353" lon="-3.205566"><ele>407</ele><time>2023-01-06T14:28:44Z</time><name>PT3899</name></trkpt>
<trkpt lat="53.023398" lon="-3.205563"><ele>406</ele><time>2023-01-06T14:28:48Z</time><name>PT3900</name></trkpt>
<trkpt lat="53.023433" lon="-3.205555"><ele>406</ele><time>2023-01-06T14:28:51Z</time><name>PT3901</name></trkpt>
<trkpt lat="53.023468" lon="-3.205549"><ele>406</ele><time>2023-01-06T14:28:54Z</time><name>PT3902</name></trkpt>
<trkpt lat="53.023508" lon="-3.205541"><ele>405</ele><time>2023-01-06T14:28:57Z</time><name>PT3903</name></trkpt>
<trkpt lat="53.023554" lon="-3.205517"><ele>405</ele><time>2023-01-06T14:29:01Z</time><name>PT3904</name></trkpt>
<trkpt lat="53.023590" lon="-3.205499"><ele>405</ele><time>2023-01-06T14:29:04Z</time><name>PT3905</name></trkpt>
<trkpt lat="53.023636" lon="-3.205492"><ele>405</ele><time>2023-01-06T14:29:08Z</time><name>PT3906</name></trkpt>
<trkpt lat="53.023676" lon="-3.205482"><ele>403</ele><time>2023-01-06T14:29:12Z</time><name>PT3907</name></trkpt>
<trkpt lat="53.023707" lon="-3.205477"><ele>403</ele><time>2023-01-06T14:29:15Z</time><name>PT3908</name></trkpt>
<trkpt lat="53.023742" lon="-3.205467"><ele>403</ele><time>2023-01-06T14:29:19Z</time><name>PT3909</name></trkpt>
<trkpt lat="53.023779" lon="-3.205460"><ele>402</ele><time>2023-01-06T14:29:23Z</time><name>PT3910</name></trkpt>
<trkpt lat="53.023808" lon="-3.205463"><ele>399</ele><time>2023-01-06T14:29:27Z</time><name>PT3911</name></trkpt>
<trkpt lat="53.023828" lon="-3.205462"><ele>399</ele><time>2023-01-06T14:29:31Z</time><name>PT3912</name></trkpt>
<trkpt lat="53.023842" lon="-3.205450"><ele>399</ele><time>2023-01-06T14:29:34Z</time><name>PT3913</name></trkpt>
<trkpt lat="53.023861" lon="-3.205427"><ele>399</ele><time>2023-01-06T14:29:38Z</time><name>PT3914</name></trkpt>
<trkpt lat="53.023873" lon="-3.205431"><ele>399</ele><time>2023-01-06T14:29:41Z</time><name>PT3915</name></trkpt>
<trkpt lat="53.023876" lon="-3.205426"><ele>399</ele><time>2023-01-06T14:29:44Z</time><name>PT3916</name></trkpt>
<trkpt lat="53.023878" lon="-3.205425"><ele>399</ele><time>2023-01-06T14:29:48Z</time><name>PT3917</name></trkpt>
<trkpt lat="53.023879" lon="-3.205423"><ele>399</ele><time>2023-01-06T14:29:58Z</time><name>PT3918</name></trkpt>
<trkpt lat="53.023881" lon="-3.205419"><ele>399</ele><time>2023-01-06T14:30:08Z</time><name>PT3919</name></trkpt>
<trkpt lat="53.023882" lon="-3.205412"><ele>399</ele><time>2023-01-06T14:30:12Z</time><name>PT3920</name></trkpt>
<trkpt lat="53.023884" lon="-3.205412"><ele>399</ele><time>2023-01-06T14:30:15Z</time><name>PT3921</name></trkpt>
<trkpt lat="53.023884" lon="-3.205410"><ele>399</ele><time>2023-01-06T14:30:18Z</time><name>PT3922</name></trkpt>
<trkpt lat="53.023883" lon="-3.205410"><ele>400</ele><time>2023-01-06T14:31:46Z</time><name>PT3923</name></trkpt>
<trkpt lat="53.023886" lon="-3.205405"><ele>401</ele><time>2023-01-06T14:31:49Z</time><name>PT3924</name></trkpt></trkseg></trk></gpx>